<?xml version="1.0" encoding="UTF-8" standalone="no" ?>
<gpx xmlns="http://www.topografix.com/GPX/1/1" xmlns:xsi="http://www.w3.org/2001/XMLSchema-instance" xsi:schemaLocation="http://www.topografix.com/GPX/1/1 http://www.topografix.com/GPX/1/1/gpx.xsd" version="1.1" creator="VisuGPX - https://www.visugpx.com">
  <metadata>
    <name>La Robine-sur-Galabre Les Cloches</name>
  </metadata>
  <trk>
    <name><![CDATA[La Robine-sur-Galabre Les Cloches_1]]></name>
    <trkseg>
      <trkpt lat="44.21503" lon="6.22074">
        <ele>1120.8</ele>
        <time>2022-01-01T09:19:17Z</time>
      </trkpt>
      <trkpt lat="44.21503" lon="6.22074">
        <ele>1120.8</ele>
        <time>2022-01-01T09:19:18Z</time>
      </trkpt>
      <trkpt lat="44.21502" lon="6.22073">
        <ele>1120.8</ele>
        <time>2022-01-01T09:19:19Z</time>
      </trkpt>
      <trkpt lat="44.21502" lon="6.2207">
        <ele>1121.4</ele>
        <time>2022-01-01T09:19:22Z</time>
      </trkpt>
      <trkpt lat="44.21502" lon="6.22065">
        <ele>1122</ele>
        <time>2022-01-01T09:19:27Z</time>
      </trkpt>
      <trkpt lat="44.21501" lon="6.22064">
        <ele>1122.2</ele>
        <time>2022-01-01T09:19:29Z</time>
      </trkpt>
      <trkpt lat="44.21501" lon="6.22062">
        <ele>1122.8</ele>
        <time>2022-01-01T09:19:31Z</time>
      </trkpt>
      <trkpt lat="44.21501" lon="6.22061">
        <ele>1123</ele>
        <time>2022-01-01T09:19:32Z</time>
      </trkpt>
      <trkpt lat="44.21501" lon="6.22059">
        <ele>1123.6</ele>
        <time>2022-01-01T09:19:34Z</time>
      </trkpt>
      <trkpt lat="44.21501" lon="6.22057">
        <ele>1124</ele>
        <time>2022-01-01T09:19:36Z</time>
      </trkpt>
      <trkpt lat="44.21501" lon="6.22056">
        <ele>1124.2</ele>
        <time>2022-01-01T09:19:38Z</time>
      </trkpt>
      <trkpt lat="44.21501" lon="6.22055">
        <ele>1124.4</ele>
        <time>2022-01-01T09:19:39Z</time>
      </trkpt>
      <trkpt lat="44.21502" lon="6.22052">
        <ele>1124.6</ele>
        <time>2022-01-01T09:19:41Z</time>
      </trkpt>
      <trkpt lat="44.21504" lon="6.22051">
        <ele>1125</ele>
        <time>2022-01-01T09:19:43Z</time>
      </trkpt>
      <trkpt lat="44.21506" lon="6.22052">
        <ele>1125.6</ele>
        <time>2022-01-01T09:19:46Z</time>
      </trkpt>
      <trkpt lat="44.21509" lon="6.22053">
        <ele>1126</ele>
        <time>2022-01-01T09:19:49Z</time>
      </trkpt>
      <trkpt lat="44.2151" lon="6.22054">
        <ele>1126.4</ele>
        <time>2022-01-01T09:19:50Z</time>
      </trkpt>
      <trkpt lat="44.21511" lon="6.22056">
        <ele>1127</ele>
        <time>2022-01-01T09:19:53Z</time>
      </trkpt>
      <trkpt lat="44.21512" lon="6.22056">
        <ele>1127</ele>
        <time>2022-01-01T09:19:54Z</time>
      </trkpt>
      <trkpt lat="44.21514" lon="6.22054">
        <ele>1127.4</ele>
        <time>2022-01-01T09:19:57Z</time>
      </trkpt>
      <trkpt lat="44.21515" lon="6.22053">
        <ele>1128</ele>
        <time>2022-01-01T09:19:59Z</time>
      </trkpt>
      <trkpt lat="44.21514" lon="6.2205">
        <ele>1128.6</ele>
        <time>2022-01-01T09:20:02Z</time>
      </trkpt>
      <trkpt lat="44.21513" lon="6.22042">
        <ele>1129.8</ele>
        <time>2022-01-01T09:20:09Z</time>
      </trkpt>
      <trkpt lat="44.21515" lon="6.22038">
        <ele>1130.8</ele>
        <time>2022-01-01T09:20:15Z</time>
      </trkpt>
      <trkpt lat="44.21517" lon="6.22036">
        <ele>1131.6</ele>
        <time>2022-01-01T09:20:19Z</time>
      </trkpt>
      <trkpt lat="44.21518" lon="6.22033">
        <ele>1131.8</ele>
        <time>2022-01-01T09:20:22Z</time>
      </trkpt>
      <trkpt lat="44.21521" lon="6.22028">
        <ele>1133</ele>
        <time>2022-01-01T09:20:29Z</time>
      </trkpt>
      <trkpt lat="44.21525" lon="6.22024">
        <ele>1134</ele>
        <time>2022-01-01T09:20:36Z</time>
      </trkpt>
      <trkpt lat="44.21526" lon="6.22023">
        <ele>1134.6</ele>
        <time>2022-01-01T09:20:39Z</time>
      </trkpt>
      <trkpt lat="44.21528" lon="6.22023">
        <ele>1135.2</ele>
        <time>2022-01-01T09:20:42Z</time>
      </trkpt>
      <trkpt lat="44.21533" lon="6.22022">
        <ele>1136.4</ele>
        <time>2022-01-01T09:20:47Z</time>
      </trkpt>
      <trkpt lat="44.21535" lon="6.22022">
        <ele>1136.6</ele>
        <time>2022-01-01T09:20:49Z</time>
      </trkpt>
      <trkpt lat="44.21538" lon="6.22018">
        <ele>1137.2</ele>
        <time>2022-01-01T09:20:54Z</time>
      </trkpt>
      <trkpt lat="44.2154" lon="6.22016">
        <ele>1137.4</ele>
        <time>2022-01-01T09:20:57Z</time>
      </trkpt>
      <trkpt lat="44.21541" lon="6.22014">
        <ele>1138</ele>
        <time>2022-01-01T09:20:59Z</time>
      </trkpt>
      <trkpt lat="44.21546" lon="6.22007">
        <ele>1138.4</ele>
        <time>2022-01-01T09:21:05Z</time>
      </trkpt>
      <trkpt lat="44.21548" lon="6.22006">
        <ele>1138.4</ele>
        <time>2022-01-01T09:21:07Z</time>
      </trkpt>
      <trkpt lat="44.21548" lon="6.22006">
        <ele>1138.4</ele>
        <time>2022-01-01T09:21:08Z</time>
      </trkpt>
      <trkpt lat="44.21549" lon="6.22006">
        <ele>1138.6</ele>
        <time>2022-01-01T09:21:09Z</time>
      </trkpt>
      <trkpt lat="44.21555" lon="6.22002">
        <ele>1139.4</ele>
        <time>2022-01-01T09:21:18Z</time>
      </trkpt>
      <trkpt lat="44.21556" lon="6.22001">
        <ele>1139.6</ele>
        <time>2022-01-01T09:21:19Z</time>
      </trkpt>
      <trkpt lat="44.2156" lon="6.22">
        <ele>1139.8</ele>
        <time>2022-01-01T09:21:23Z</time>
      </trkpt>
      <trkpt lat="44.21566" lon="6.21997">
        <ele>1139.8</ele>
        <time>2022-01-01T09:21:29Z</time>
      </trkpt>
      <trkpt lat="44.21567" lon="6.21997">
        <ele>1140</ele>
        <time>2022-01-01T09:21:30Z</time>
      </trkpt>
      <trkpt lat="44.21568" lon="6.21995">
        <ele>1140.2</ele>
        <time>2022-01-01T09:21:32Z</time>
      </trkpt>
      <trkpt lat="44.21569" lon="6.21994">
        <ele>1140.2</ele>
        <time>2022-01-01T09:21:33Z</time>
      </trkpt>
      <trkpt lat="44.2157" lon="6.21993">
        <ele>1140.4</ele>
        <time>2022-01-01T09:21:34Z</time>
      </trkpt>
      <trkpt lat="44.21571" lon="6.21992">
        <ele>1140.4</ele>
        <time>2022-01-01T09:21:35Z</time>
      </trkpt>
      <trkpt lat="44.21572" lon="6.21991">
        <ele>1140.4</ele>
        <time>2022-01-01T09:21:36Z</time>
      </trkpt>
      <trkpt lat="44.21575" lon="6.21989">
        <ele>1140.6</ele>
        <time>2022-01-01T09:21:39Z</time>
      </trkpt>
      <trkpt lat="44.21583" lon="6.21979">
        <ele>1141</ele>
        <time>2022-01-01T09:21:49Z</time>
      </trkpt>
      <trkpt lat="44.21587" lon="6.21974">
        <ele>1140.6</ele>
        <time>2022-01-01T09:21:54Z</time>
      </trkpt>
      <trkpt lat="44.21589" lon="6.21965">
        <ele>1140.4</ele>
        <time>2022-01-01T09:21:59Z</time>
      </trkpt>
      <trkpt lat="44.21586" lon="6.21949">
        <ele>1140.6</ele>
        <time>2022-01-01T09:22:07Z</time>
      </trkpt>
      <trkpt lat="44.21586" lon="6.21945">
        <ele>1140.8</ele>
        <time>2022-01-01T09:22:09Z</time>
      </trkpt>
      <trkpt lat="44.21585" lon="6.21927">
        <ele>1141</ele>
        <time>2022-01-01T09:22:19Z</time>
      </trkpt>
      <trkpt lat="44.21584" lon="6.21917">
        <ele>1141.6</ele>
        <time>2022-01-01T09:22:25Z</time>
      </trkpt>
      <trkpt lat="44.21583" lon="6.21911">
        <ele>1141.8</ele>
        <time>2022-01-01T09:22:29Z</time>
      </trkpt>
      <trkpt lat="44.21583" lon="6.2191">
        <ele>1142</ele>
        <time>2022-01-01T09:22:30Z</time>
      </trkpt>
      <trkpt lat="44.21584" lon="6.21898">
        <ele>1142.6</ele>
        <time>2022-01-01T09:22:38Z</time>
      </trkpt>
      <trkpt lat="44.21584" lon="6.21896">
        <ele>1142.8</ele>
        <time>2022-01-01T09:22:39Z</time>
      </trkpt>
      <trkpt lat="44.21585" lon="6.2188">
        <ele>1143.2</ele>
        <time>2022-01-01T09:22:49Z</time>
      </trkpt>
      <trkpt lat="44.21587" lon="6.21865">
        <ele>1143.4</ele>
        <time>2022-01-01T09:22:59Z</time>
      </trkpt>
      <trkpt lat="44.21588" lon="6.2186">
        <ele>1143.6</ele>
        <time>2022-01-01T09:23:02Z</time>
      </trkpt>
      <trkpt lat="44.2159" lon="6.21851">
        <ele>1144</ele>
        <time>2022-01-01T09:23:08Z</time>
      </trkpt>
      <trkpt lat="44.21591" lon="6.2185">
        <ele>1144</ele>
        <time>2022-01-01T09:23:09Z</time>
      </trkpt>
      <trkpt lat="44.21591" lon="6.21833">
        <ele>1144.2</ele>
        <time>2022-01-01T09:23:19Z</time>
      </trkpt>
      <trkpt lat="44.2159" lon="6.21821">
        <ele>1144.8</ele>
        <time>2022-01-01T09:23:25Z</time>
      </trkpt>
      <trkpt lat="44.21591" lon="6.21815">
        <ele>1145</ele>
        <time>2022-01-01T09:23:29Z</time>
      </trkpt>
      <trkpt lat="44.21593" lon="6.21801">
        <ele>1145.8</ele>
        <time>2022-01-01T09:23:37Z</time>
      </trkpt>
      <trkpt lat="44.21594" lon="6.218">
        <ele>1145.8</ele>
        <time>2022-01-01T09:23:38Z</time>
      </trkpt>
      <trkpt lat="44.21594" lon="6.21799">
        <ele>1146</ele>
        <time>2022-01-01T09:23:39Z</time>
      </trkpt>
      <trkpt lat="44.21594" lon="6.21793">
        <ele>1146.2</ele>
        <time>2022-01-01T09:23:43Z</time>
      </trkpt>
      <trkpt lat="44.21595" lon="6.21789">
        <ele>1146.4</ele>
        <time>2022-01-01T09:23:46Z</time>
      </trkpt>
      <trkpt lat="44.21597" lon="6.21787">
        <ele>1146.6</ele>
        <time>2022-01-01T09:23:49Z</time>
      </trkpt>
      <trkpt lat="44.21598" lon="6.21785">
        <ele>1146.8</ele>
        <time>2022-01-01T09:23:51Z</time>
      </trkpt>
      <trkpt lat="44.21606" lon="6.21778">
        <ele>1146.8</ele>
        <time>2022-01-01T09:23:59Z</time>
      </trkpt>
      <trkpt lat="44.21615" lon="6.21768">
        <ele>1147.2</ele>
        <time>2022-01-01T09:24:09Z</time>
      </trkpt>
      <trkpt lat="44.21623" lon="6.21757">
        <ele>1147.8</ele>
        <time>2022-01-01T09:24:19Z</time>
      </trkpt>
      <trkpt lat="44.21625" lon="6.2175">
        <ele>1147.8</ele>
        <time>2022-01-01T09:24:24Z</time>
      </trkpt>
      <trkpt lat="44.21627" lon="6.21742">
        <ele>1148.4</ele>
        <time>2022-01-01T09:24:29Z</time>
      </trkpt>
      <trkpt lat="44.21626" lon="6.21734">
        <ele>1149</ele>
        <time>2022-01-01T09:24:33Z</time>
      </trkpt>
      <trkpt lat="44.21624" lon="6.21726">
        <ele>1148.8</ele>
        <time>2022-01-01T09:24:38Z</time>
      </trkpt>
      <trkpt lat="44.21623" lon="6.21725">
        <ele>1148.8</ele>
        <time>2022-01-01T09:24:39Z</time>
      </trkpt>
      <trkpt lat="44.21615" lon="6.21713">
        <ele>1149</ele>
        <time>2022-01-01T09:24:49Z</time>
      </trkpt>
      <trkpt lat="44.21614" lon="6.2171">
        <ele>1149</ele>
        <time>2022-01-01T09:24:51Z</time>
      </trkpt>
      <trkpt lat="44.21613" lon="6.21705">
        <ele>1149.2</ele>
        <time>2022-01-01T09:24:54Z</time>
      </trkpt>
      <trkpt lat="44.21613" lon="6.21696">
        <ele>1149.2</ele>
        <time>2022-01-01T09:24:59Z</time>
      </trkpt>
      <trkpt lat="44.21613" lon="6.21679">
        <ele>1149.2</ele>
        <time>2022-01-01T09:25:09Z</time>
      </trkpt>
      <trkpt lat="44.21615" lon="6.21669">
        <ele>1148.8</ele>
        <time>2022-01-01T09:25:15Z</time>
      </trkpt>
      <trkpt lat="44.21618" lon="6.21665">
        <ele>1148.8</ele>
        <time>2022-01-01T09:25:19Z</time>
      </trkpt>
      <trkpt lat="44.21624" lon="6.21652">
        <ele>1149.2</ele>
        <time>2022-01-01T09:25:29Z</time>
      </trkpt>
      <trkpt lat="44.21632" lon="6.2164">
        <ele>1149.6</ele>
        <time>2022-01-01T09:25:39Z</time>
      </trkpt>
      <trkpt lat="44.21643" lon="6.21634">
        <ele>1150</ele>
        <time>2022-01-01T09:25:49Z</time>
      </trkpt>
      <trkpt lat="44.21648" lon="6.21625">
        <ele>1151</ele>
        <time>2022-01-01T09:25:56Z</time>
      </trkpt>
      <trkpt lat="44.21649" lon="6.21621">
        <ele>1151.4</ele>
        <time>2022-01-01T09:25:59Z</time>
      </trkpt>
      <trkpt lat="44.2165" lon="6.21617">
        <ele>1152.2</ele>
        <time>2022-01-01T09:26:02Z</time>
      </trkpt>
      <trkpt lat="44.21654" lon="6.21608">
        <ele>1153.2</ele>
        <time>2022-01-01T09:26:09Z</time>
      </trkpt>
      <trkpt lat="44.21657" lon="6.21603">
        <ele>1153.8</ele>
        <time>2022-01-01T09:26:14Z</time>
      </trkpt>
      <trkpt lat="44.21657" lon="6.216">
        <ele>1154</ele>
        <time>2022-01-01T09:26:16Z</time>
      </trkpt>
      <trkpt lat="44.21657" lon="6.21598">
        <ele>1154.4</ele>
        <time>2022-01-01T09:26:18Z</time>
      </trkpt>
      <trkpt lat="44.21657" lon="6.21597">
        <ele>1154.4</ele>
        <time>2022-01-01T09:26:19Z</time>
      </trkpt>
      <trkpt lat="44.21658" lon="6.21593">
        <ele>1154.8</ele>
        <time>2022-01-01T09:26:22Z</time>
      </trkpt>
      <trkpt lat="44.2166" lon="6.2159">
        <ele>1155.4</ele>
        <time>2022-01-01T09:26:25Z</time>
      </trkpt>
      <trkpt lat="44.21665" lon="6.21588">
        <ele>1155.6</ele>
        <time>2022-01-01T09:26:29Z</time>
      </trkpt>
      <trkpt lat="44.21671" lon="6.21585">
        <ele>1156.4</ele>
        <time>2022-01-01T09:26:34Z</time>
      </trkpt>
      <trkpt lat="44.21677" lon="6.21582">
        <ele>1157</ele>
        <time>2022-01-01T09:26:39Z</time>
      </trkpt>
      <trkpt lat="44.21684" lon="6.21577">
        <ele>1157.4</ele>
        <time>2022-01-01T09:26:46Z</time>
      </trkpt>
      <trkpt lat="44.21688" lon="6.21574">
        <ele>1157.4</ele>
        <time>2022-01-01T09:26:49Z</time>
      </trkpt>
      <trkpt lat="44.2169" lon="6.21563">
        <ele>1157.8</ele>
        <time>2022-01-01T09:26:57Z</time>
      </trkpt>
      <trkpt lat="44.2169" lon="6.21561">
        <ele>1158</ele>
        <time>2022-01-01T09:26:59Z</time>
      </trkpt>
      <trkpt lat="44.21692" lon="6.21557">
        <ele>1158.4</ele>
        <time>2022-01-01T09:27:04Z</time>
      </trkpt>
      <trkpt lat="44.21693" lon="6.21553">
        <ele>1158.4</ele>
        <time>2022-01-01T09:27:07Z</time>
      </trkpt>
      <trkpt lat="44.21693" lon="6.2155">
        <ele>1158.6</ele>
        <time>2022-01-01T09:27:09Z</time>
      </trkpt>
      <trkpt lat="44.21693" lon="6.21546">
        <ele>1158.8</ele>
        <time>2022-01-01T09:27:11Z</time>
      </trkpt>
      <trkpt lat="44.21694" lon="6.21543">
        <ele>1159</ele>
        <time>2022-01-01T09:27:13Z</time>
      </trkpt>
      <trkpt lat="44.21694" lon="6.21537">
        <ele>1159.4</ele>
        <time>2022-01-01T09:27:16Z</time>
      </trkpt>
      <trkpt lat="44.21695" lon="6.21536">
        <ele>1159.6</ele>
        <time>2022-01-01T09:27:17Z</time>
      </trkpt>
      <trkpt lat="44.21695" lon="6.21534">
        <ele>1159.8</ele>
        <time>2022-01-01T09:27:19Z</time>
      </trkpt>
      <trkpt lat="44.21698" lon="6.21525">
        <ele>1160.6</ele>
        <time>2022-01-01T09:27:26Z</time>
      </trkpt>
      <trkpt lat="44.21698" lon="6.21522">
        <ele>1160.8</ele>
        <time>2022-01-01T09:27:28Z</time>
      </trkpt>
      <trkpt lat="44.21699" lon="6.2152">
        <ele>1160.8</ele>
        <time>2022-01-01T09:27:29Z</time>
      </trkpt>
      <trkpt lat="44.21704" lon="6.2151">
        <ele>1161</ele>
        <time>2022-01-01T09:27:36Z</time>
      </trkpt>
      <trkpt lat="44.21704" lon="6.21504">
        <ele>1161.2</ele>
        <time>2022-01-01T09:27:39Z</time>
      </trkpt>
      <trkpt lat="44.21709" lon="6.21485">
        <ele>1161.4</ele>
        <time>2022-01-01T09:27:49Z</time>
      </trkpt>
      <trkpt lat="44.21716" lon="6.21473">
        <ele>1161.4</ele>
        <time>2022-01-01T09:27:59Z</time>
      </trkpt>
      <trkpt lat="44.21716" lon="6.21471">
        <ele>1161.4</ele>
        <time>2022-01-01T09:28:01Z</time>
      </trkpt>
      <trkpt lat="44.21718" lon="6.21467">
        <ele>1161.4</ele>
        <time>2022-01-01T09:28:04Z</time>
      </trkpt>
      <trkpt lat="44.2172" lon="6.21458">
        <ele>1161.6</ele>
        <time>2022-01-01T09:28:09Z</time>
      </trkpt>
      <trkpt lat="44.2172" lon="6.21456">
        <ele>1161.6</ele>
        <time>2022-01-01T09:28:10Z</time>
      </trkpt>
      <trkpt lat="44.2172" lon="6.21446">
        <ele>1161.8</ele>
        <time>2022-01-01T09:28:16Z</time>
      </trkpt>
      <trkpt lat="44.21721" lon="6.21442">
        <ele>1161.8</ele>
        <time>2022-01-01T09:28:19Z</time>
      </trkpt>
      <trkpt lat="44.21721" lon="6.21441">
        <ele>1161.8</ele>
        <time>2022-01-01T09:28:20Z</time>
      </trkpt>
      <trkpt lat="44.21721" lon="6.21426">
        <ele>1162</ele>
        <time>2022-01-01T09:28:29Z</time>
      </trkpt>
      <trkpt lat="44.21721" lon="6.2141">
        <ele>1162</ele>
        <time>2022-01-01T09:28:39Z</time>
      </trkpt>
      <trkpt lat="44.21721" lon="6.21408">
        <ele>1162</ele>
        <time>2022-01-01T09:28:40Z</time>
      </trkpt>
      <trkpt lat="44.21724" lon="6.21391">
        <ele>1161.6</ele>
        <time>2022-01-01T09:28:49Z</time>
      </trkpt>
      <trkpt lat="44.21729" lon="6.21372">
        <ele>1161.6</ele>
        <time>2022-01-01T09:28:59Z</time>
      </trkpt>
      <trkpt lat="44.2173" lon="6.21368">
        <ele>1161.4</ele>
        <time>2022-01-01T09:29:01Z</time>
      </trkpt>
      <trkpt lat="44.21733" lon="6.21355">
        <ele>1161.2</ele>
        <time>2022-01-01T09:29:09Z</time>
      </trkpt>
      <trkpt lat="44.21737" lon="6.2134">
        <ele>1161.2</ele>
        <time>2022-01-01T09:29:19Z</time>
      </trkpt>
      <trkpt lat="44.21738" lon="6.21336">
        <ele>1161.4</ele>
        <time>2022-01-01T09:29:22Z</time>
      </trkpt>
      <trkpt lat="44.21737" lon="6.21327">
        <ele>1161.6</ele>
        <time>2022-01-01T09:29:29Z</time>
      </trkpt>
      <trkpt lat="44.21738" lon="6.21324">
        <ele>1161.8</ele>
        <time>2022-01-01T09:29:31Z</time>
      </trkpt>
      <trkpt lat="44.21739" lon="6.21322">
        <ele>1162</ele>
        <time>2022-01-01T09:29:33Z</time>
      </trkpt>
      <trkpt lat="44.21742" lon="6.21315">
        <ele>1162.6</ele>
        <time>2022-01-01T09:29:38Z</time>
      </trkpt>
      <trkpt lat="44.21742" lon="6.21314">
        <ele>1162.8</ele>
        <time>2022-01-01T09:29:39Z</time>
      </trkpt>
      <trkpt lat="44.21743" lon="6.21313">
        <ele>1162.8</ele>
        <time>2022-01-01T09:29:40Z</time>
      </trkpt>
      <trkpt lat="44.21743" lon="6.2131">
        <ele>1163</ele>
        <time>2022-01-01T09:29:42Z</time>
      </trkpt>
      <trkpt lat="44.21745" lon="6.21305">
        <ele>1163.8</ele>
        <time>2022-01-01T09:29:46Z</time>
      </trkpt>
      <trkpt lat="44.21747" lon="6.21301">
        <ele>1164.2</ele>
        <time>2022-01-01T09:29:49Z</time>
      </trkpt>
      <trkpt lat="44.2175" lon="6.21298">
        <ele>1164.8</ele>
        <time>2022-01-01T09:29:52Z</time>
      </trkpt>
      <trkpt lat="44.21751" lon="6.21297">
        <ele>1165</ele>
        <time>2022-01-01T09:29:53Z</time>
      </trkpt>
      <trkpt lat="44.21753" lon="6.21294">
        <ele>1165.4</ele>
        <time>2022-01-01T09:29:56Z</time>
      </trkpt>
      <trkpt lat="44.21755" lon="6.21292">
        <ele>1165.8</ele>
        <time>2022-01-01T09:29:58Z</time>
      </trkpt>
      <trkpt lat="44.21756" lon="6.21292">
        <ele>1166</ele>
        <time>2022-01-01T09:29:59Z</time>
      </trkpt>
      <trkpt lat="44.21761" lon="6.2129">
        <ele>1167</ele>
        <time>2022-01-01T09:30:06Z</time>
      </trkpt>
      <trkpt lat="44.21762" lon="6.2129">
        <ele>1167.2</ele>
        <time>2022-01-01T09:30:08Z</time>
      </trkpt>
      <trkpt lat="44.21763" lon="6.21289">
        <ele>1167.4</ele>
        <time>2022-01-01T09:30:09Z</time>
      </trkpt>
      <trkpt lat="44.21765" lon="6.21288">
        <ele>1168.2</ele>
        <time>2022-01-01T09:30:13Z</time>
      </trkpt>
      <trkpt lat="44.21765" lon="6.21288">
        <ele>1168.2</ele>
        <time>2022-01-01T09:30:14Z</time>
      </trkpt>
      <trkpt lat="44.2177" lon="6.21287">
        <ele>1168.8</ele>
        <time>2022-01-01T09:30:19Z</time>
      </trkpt>
      <trkpt lat="44.21772" lon="6.21288">
        <ele>1169</ele>
        <time>2022-01-01T09:30:21Z</time>
      </trkpt>
      <trkpt lat="44.21774" lon="6.21288">
        <ele>1169.2</ele>
        <time>2022-01-01T09:30:23Z</time>
      </trkpt>
      <trkpt lat="44.21779" lon="6.21287">
        <ele>1170</ele>
        <time>2022-01-01T09:30:29Z</time>
      </trkpt>
      <trkpt lat="44.2178" lon="6.21288">
        <ele>1170.2</ele>
        <time>2022-01-01T09:30:30Z</time>
      </trkpt>
      <trkpt lat="44.2178" lon="6.21288">
        <ele>1170.4</ele>
        <time>2022-01-01T09:30:31Z</time>
      </trkpt>
      <trkpt lat="44.21782" lon="6.21288">
        <ele>1170.6</ele>
        <time>2022-01-01T09:30:33Z</time>
      </trkpt>
      <trkpt lat="44.21786" lon="6.21285">
        <ele>1171</ele>
        <time>2022-01-01T09:30:39Z</time>
      </trkpt>
      <trkpt lat="44.21788" lon="6.21285">
        <ele>1171.6</ele>
        <time>2022-01-01T09:30:41Z</time>
      </trkpt>
      <trkpt lat="44.21788" lon="6.21284">
        <ele>1171.8</ele>
        <time>2022-01-01T09:30:42Z</time>
      </trkpt>
      <trkpt lat="44.2179" lon="6.21283">
        <ele>1172.2</ele>
        <time>2022-01-01T09:30:46Z</time>
      </trkpt>
      <trkpt lat="44.21791" lon="6.21282">
        <ele>1172.6</ele>
        <time>2022-01-01T09:30:48Z</time>
      </trkpt>
      <trkpt lat="44.21791" lon="6.21282">
        <ele>1172.8</ele>
        <time>2022-01-01T09:30:49Z</time>
      </trkpt>
      <trkpt lat="44.21795" lon="6.21278">
        <ele>1173.6</ele>
        <time>2022-01-01T09:30:54Z</time>
      </trkpt>
      <trkpt lat="44.21795" lon="6.21277">
        <ele>1173.8</ele>
        <time>2022-01-01T09:30:55Z</time>
      </trkpt>
      <trkpt lat="44.21797" lon="6.21274">
        <ele>1174.2</ele>
        <time>2022-01-01T09:30:59Z</time>
      </trkpt>
      <trkpt lat="44.218" lon="6.21269">
        <ele>1174.8</ele>
        <time>2022-01-01T09:31:03Z</time>
      </trkpt>
      <trkpt lat="44.21802" lon="6.21267">
        <ele>1175</ele>
        <time>2022-01-01T09:31:05Z</time>
      </trkpt>
      <trkpt lat="44.21805" lon="6.21264">
        <ele>1175.4</ele>
        <time>2022-01-01T09:31:09Z</time>
      </trkpt>
      <trkpt lat="44.21807" lon="6.2126">
        <ele>1175.8</ele>
        <time>2022-01-01T09:31:12Z</time>
      </trkpt>
      <trkpt lat="44.21813" lon="6.21255">
        <ele>1176.4</ele>
        <time>2022-01-01T09:31:19Z</time>
      </trkpt>
      <trkpt lat="44.21816" lon="6.21251">
        <ele>1176.6</ele>
        <time>2022-01-01T09:31:24Z</time>
      </trkpt>
      <trkpt lat="44.21817" lon="6.21251">
        <ele>1176.8</ele>
        <time>2022-01-01T09:31:25Z</time>
      </trkpt>
      <trkpt lat="44.21817" lon="6.21251">
        <ele>1176.8</ele>
        <time>2022-01-01T09:31:26Z</time>
      </trkpt>
      <trkpt lat="44.21818" lon="6.2125">
        <ele>1177</ele>
        <time>2022-01-01T09:31:27Z</time>
      </trkpt>
      <trkpt lat="44.21819" lon="6.21249">
        <ele>1177.2</ele>
        <time>2022-01-01T09:31:29Z</time>
      </trkpt>
      <trkpt lat="44.21821" lon="6.21246">
        <ele>1177.6</ele>
        <time>2022-01-01T09:31:32Z</time>
      </trkpt>
      <trkpt lat="44.21824" lon="6.21245">
        <ele>1178</ele>
        <time>2022-01-01T09:31:35Z</time>
      </trkpt>
      <trkpt lat="44.21826" lon="6.21237">
        <ele>1178.2</ele>
        <time>2022-01-01T09:31:39Z</time>
      </trkpt>
      <trkpt lat="44.21829" lon="6.21225">
        <ele>1179</ele>
        <time>2022-01-01T09:31:47Z</time>
      </trkpt>
      <trkpt lat="44.2183" lon="6.21224">
        <ele>1179.4</ele>
        <time>2022-01-01T09:31:49Z</time>
      </trkpt>
      <trkpt lat="44.21831" lon="6.21221">
        <ele>1180</ele>
        <time>2022-01-01T09:31:52Z</time>
      </trkpt>
      <trkpt lat="44.21832" lon="6.2122">
        <ele>1180.2</ele>
        <time>2022-01-01T09:31:53Z</time>
      </trkpt>
      <trkpt lat="44.21834" lon="6.2122">
        <ele>1180.4</ele>
        <time>2022-01-01T09:31:55Z</time>
      </trkpt>
      <trkpt lat="44.21838" lon="6.21217">
        <ele>1180.6</ele>
        <time>2022-01-01T09:31:59Z</time>
      </trkpt>
      <trkpt lat="44.2184" lon="6.21215">
        <ele>1180.8</ele>
        <time>2022-01-01T09:32:01Z</time>
      </trkpt>
      <trkpt lat="44.21843" lon="6.2121">
        <ele>1181</ele>
        <time>2022-01-01T09:32:05Z</time>
      </trkpt>
      <trkpt lat="44.21844" lon="6.21209">
        <ele>1181.2</ele>
        <time>2022-01-01T09:32:06Z</time>
      </trkpt>
      <trkpt lat="44.21846" lon="6.21206">
        <ele>1181.6</ele>
        <time>2022-01-01T09:32:09Z</time>
      </trkpt>
      <trkpt lat="44.21847" lon="6.21207">
        <ele>1181.8</ele>
        <time>2022-01-01T09:32:10Z</time>
      </trkpt>
      <trkpt lat="44.21848" lon="6.21205">
        <ele>1182</ele>
        <time>2022-01-01T09:32:12Z</time>
      </trkpt>
      <trkpt lat="44.21849" lon="6.21205">
        <ele>1182.2</ele>
        <time>2022-01-01T09:32:13Z</time>
      </trkpt>
      <trkpt lat="44.21849" lon="6.21204">
        <ele>1182.4</ele>
        <time>2022-01-01T09:32:14Z</time>
      </trkpt>
      <trkpt lat="44.21851" lon="6.212">
        <ele>1183</ele>
        <time>2022-01-01T09:32:19Z</time>
      </trkpt>
      <trkpt lat="44.21851" lon="6.212">
        <ele>1183.2</ele>
        <time>2022-01-01T09:32:20Z</time>
      </trkpt>
      <trkpt lat="44.21854" lon="6.212">
        <ele>1183.6</ele>
        <time>2022-01-01T09:32:22Z</time>
      </trkpt>
      <trkpt lat="44.21856" lon="6.21199">
        <ele>1184.2</ele>
        <time>2022-01-01T09:32:24Z</time>
      </trkpt>
      <trkpt lat="44.21857" lon="6.21199">
        <ele>1184.4</ele>
        <time>2022-01-01T09:32:25Z</time>
      </trkpt>
      <trkpt lat="44.21861" lon="6.21198">
        <ele>1184.8</ele>
        <time>2022-01-01T09:32:29Z</time>
      </trkpt>
      <trkpt lat="44.21865" lon="6.21197">
        <ele>1185.4</ele>
        <time>2022-01-01T09:32:34Z</time>
      </trkpt>
      <trkpt lat="44.21873" lon="6.21197">
        <ele>1185.8</ele>
        <time>2022-01-01T09:32:39Z</time>
      </trkpt>
      <trkpt lat="44.21882" lon="6.21202">
        <ele>1185.8</ele>
        <time>2022-01-01T09:32:45Z</time>
      </trkpt>
      <trkpt lat="44.21883" lon="6.21203">
        <ele>1186</ele>
        <time>2022-01-01T09:32:47Z</time>
      </trkpt>
      <trkpt lat="44.21886" lon="6.21204">
        <ele>1186.2</ele>
        <time>2022-01-01T09:32:49Z</time>
      </trkpt>
      <trkpt lat="44.21889" lon="6.21207">
        <ele>1186.6</ele>
        <time>2022-01-01T09:32:52Z</time>
      </trkpt>
      <trkpt lat="44.21891" lon="6.21211">
        <ele>1186.6</ele>
        <time>2022-01-01T09:32:55Z</time>
      </trkpt>
      <trkpt lat="44.21894" lon="6.21213">
        <ele>1186.8</ele>
        <time>2022-01-01T09:32:58Z</time>
      </trkpt>
      <trkpt lat="44.21896" lon="6.21213">
        <ele>1187</ele>
        <time>2022-01-01T09:32:59Z</time>
      </trkpt>
      <trkpt lat="44.219" lon="6.21211">
        <ele>1187.4</ele>
        <time>2022-01-01T09:33:03Z</time>
      </trkpt>
      <trkpt lat="44.21903" lon="6.21211">
        <ele>1187.6</ele>
        <time>2022-01-01T09:33:06Z</time>
      </trkpt>
      <trkpt lat="44.21906" lon="6.21211">
        <ele>1188</ele>
        <time>2022-01-01T09:33:09Z</time>
      </trkpt>
      <trkpt lat="44.21911" lon="6.21211">
        <ele>1188.6</ele>
        <time>2022-01-01T09:33:14Z</time>
      </trkpt>
      <trkpt lat="44.21914" lon="6.21213">
        <ele>1189</ele>
        <time>2022-01-01T09:33:17Z</time>
      </trkpt>
      <trkpt lat="44.21916" lon="6.21214">
        <ele>1189</ele>
        <time>2022-01-01T09:33:19Z</time>
      </trkpt>
      <trkpt lat="44.21918" lon="6.21214">
        <ele>1189.2</ele>
        <time>2022-01-01T09:33:22Z</time>
      </trkpt>
      <trkpt lat="44.2192" lon="6.21216">
        <ele>1189.4</ele>
        <time>2022-01-01T09:33:24Z</time>
      </trkpt>
      <trkpt lat="44.21921" lon="6.21216">
        <ele>1189.8</ele>
        <time>2022-01-01T09:33:25Z</time>
      </trkpt>
      <trkpt lat="44.21922" lon="6.21217">
        <ele>1190</ele>
        <time>2022-01-01T09:33:26Z</time>
      </trkpt>
      <trkpt lat="44.21925" lon="6.2122">
        <ele>1190.4</ele>
        <time>2022-01-01T09:33:29Z</time>
      </trkpt>
      <trkpt lat="44.21929" lon="6.21226">
        <ele>1190.8</ele>
        <time>2022-01-01T09:33:33Z</time>
      </trkpt>
      <trkpt lat="44.2193" lon="6.21228">
        <ele>1191</ele>
        <time>2022-01-01T09:33:34Z</time>
      </trkpt>
      <trkpt lat="44.21931" lon="6.21228">
        <ele>1191</ele>
        <time>2022-01-01T09:33:35Z</time>
      </trkpt>
      <trkpt lat="44.21935" lon="6.2123">
        <ele>1191.4</ele>
        <time>2022-01-01T09:33:39Z</time>
      </trkpt>
      <trkpt lat="44.21935" lon="6.2123">
        <ele>1191.6</ele>
        <time>2022-01-01T09:33:40Z</time>
      </trkpt>
      <trkpt lat="44.21936" lon="6.2123">
        <ele>1192</ele>
        <time>2022-01-01T09:33:41Z</time>
      </trkpt>
      <trkpt lat="44.21937" lon="6.21229">
        <ele>1192</ele>
        <time>2022-01-01T09:33:42Z</time>
      </trkpt>
      <trkpt lat="44.21939" lon="6.21231">
        <ele>1192.2</ele>
        <time>2022-01-01T09:33:45Z</time>
      </trkpt>
      <trkpt lat="44.21943" lon="6.21239">
        <ele>1192</ele>
        <time>2022-01-01T09:33:49Z</time>
      </trkpt>
      <trkpt lat="44.21945" lon="6.21246">
        <ele>1192</ele>
        <time>2022-01-01T09:33:53Z</time>
      </trkpt>
      <trkpt lat="44.21949" lon="6.2125">
        <ele>1192.2</ele>
        <time>2022-01-01T09:33:58Z</time>
      </trkpt>
      <trkpt lat="44.21949" lon="6.2125">
        <ele>1192.2</ele>
        <time>2022-01-01T09:33:59Z</time>
      </trkpt>
      <trkpt lat="44.21952" lon="6.2125">
        <ele>1192.2</ele>
        <time>2022-01-01T09:34:02Z</time>
      </trkpt>
      <trkpt lat="44.21957" lon="6.21244">
        <ele>1192.6</ele>
        <time>2022-01-01T09:34:09Z</time>
      </trkpt>
      <trkpt lat="44.21962" lon="6.21234">
        <ele>1193.2</ele>
        <time>2022-01-01T09:34:16Z</time>
      </trkpt>
      <trkpt lat="44.21965" lon="6.21233">
        <ele>1193.6</ele>
        <time>2022-01-01T09:34:19Z</time>
      </trkpt>
      <trkpt lat="44.21968" lon="6.21233">
        <ele>1194.2</ele>
        <time>2022-01-01T09:34:22Z</time>
      </trkpt>
      <trkpt lat="44.2197" lon="6.21234">
        <ele>1195</ele>
        <time>2022-01-01T09:34:25Z</time>
      </trkpt>
      <trkpt lat="44.21971" lon="6.21235">
        <ele>1195.4</ele>
        <time>2022-01-01T09:34:27Z</time>
      </trkpt>
      <trkpt lat="44.21973" lon="6.21235">
        <ele>1195.8</ele>
        <time>2022-01-01T09:34:29Z</time>
      </trkpt>
      <trkpt lat="44.21974" lon="6.21236">
        <ele>1196.4</ele>
        <time>2022-01-01T09:34:33Z</time>
      </trkpt>
      <trkpt lat="44.21975" lon="6.21238">
        <ele>1196.8</ele>
        <time>2022-01-01T09:34:34Z</time>
      </trkpt>
      <trkpt lat="44.21976" lon="6.21239">
        <ele>1197</ele>
        <time>2022-01-01T09:34:35Z</time>
      </trkpt>
      <trkpt lat="44.21978" lon="6.21242">
        <ele>1197.6</ele>
        <time>2022-01-01T09:34:38Z</time>
      </trkpt>
      <trkpt lat="44.21978" lon="6.21244">
        <ele>1197.8</ele>
        <time>2022-01-01T09:34:39Z</time>
      </trkpt>
      <trkpt lat="44.21978" lon="6.21245">
        <ele>1198.2</ele>
        <time>2022-01-01T09:34:40Z</time>
      </trkpt>
      <trkpt lat="44.21979" lon="6.21247">
        <ele>1198.6</ele>
        <time>2022-01-01T09:34:42Z</time>
      </trkpt>
      <trkpt lat="44.2198" lon="6.21248">
        <ele>1198.8</ele>
        <time>2022-01-01T09:34:43Z</time>
      </trkpt>
      <trkpt lat="44.21981" lon="6.2125">
        <ele>1198.8</ele>
        <time>2022-01-01T09:34:44Z</time>
      </trkpt>
      <trkpt lat="44.21981" lon="6.21251">
        <ele>1199</ele>
        <time>2022-01-01T09:34:45Z</time>
      </trkpt>
      <trkpt lat="44.21984" lon="6.21256">
        <ele>1199.6</ele>
        <time>2022-01-01T09:34:49Z</time>
      </trkpt>
      <trkpt lat="44.21987" lon="6.21259">
        <ele>1200</ele>
        <time>2022-01-01T09:34:52Z</time>
      </trkpt>
      <trkpt lat="44.2199" lon="6.21262">
        <ele>1201</ele>
        <time>2022-01-01T09:34:58Z</time>
      </trkpt>
      <trkpt lat="44.21991" lon="6.21262">
        <ele>1201</ele>
        <time>2022-01-01T09:34:59Z</time>
      </trkpt>
      <trkpt lat="44.21992" lon="6.21262">
        <ele>1201</ele>
        <time>2022-01-01T09:35:00Z</time>
      </trkpt>
      <trkpt lat="44.21997" lon="6.21257">
        <ele>1200.2</ele>
        <time>2022-01-01T09:35:09Z</time>
      </trkpt>
      <trkpt lat="44.22005" lon="6.21248">
        <ele>1200.6</ele>
        <time>2022-01-01T09:35:19Z</time>
      </trkpt>
      <trkpt lat="44.2201" lon="6.21236">
        <ele>1201.6</ele>
        <time>2022-01-01T09:35:29Z</time>
      </trkpt>
      <trkpt lat="44.22013" lon="6.21229">
        <ele>1202</ele>
        <time>2022-01-01T09:35:34Z</time>
      </trkpt>
      <trkpt lat="44.22013" lon="6.21222">
        <ele>1202.6</ele>
        <time>2022-01-01T09:35:39Z</time>
      </trkpt>
      <trkpt lat="44.22014" lon="6.2122">
        <ele>1202.8</ele>
        <time>2022-01-01T09:35:41Z</time>
      </trkpt>
      <trkpt lat="44.22016" lon="6.21215">
        <ele>1203.2</ele>
        <time>2022-01-01T09:35:45Z</time>
      </trkpt>
      <trkpt lat="44.22016" lon="6.21214">
        <ele>1203.4</ele>
        <time>2022-01-01T09:35:46Z</time>
      </trkpt>
      <trkpt lat="44.22015" lon="6.21212">
        <ele>1203.8</ele>
        <time>2022-01-01T09:35:48Z</time>
      </trkpt>
      <trkpt lat="44.22015" lon="6.21211">
        <ele>1203.8</ele>
        <time>2022-01-01T09:35:49Z</time>
      </trkpt>
      <trkpt lat="44.22015" lon="6.21209">
        <ele>1204.2</ele>
        <time>2022-01-01T09:35:51Z</time>
      </trkpt>
      <trkpt lat="44.22018" lon="6.21201">
        <ele>1205.2</ele>
        <time>2022-01-01T09:35:59Z</time>
      </trkpt>
      <trkpt lat="44.22018" lon="6.212">
        <ele>1205.2</ele>
        <time>2022-01-01T09:36:00Z</time>
      </trkpt>
      <trkpt lat="44.22019" lon="6.21194">
        <ele>1205.6</ele>
        <time>2022-01-01T09:36:04Z</time>
      </trkpt>
      <trkpt lat="44.22017" lon="6.2119">
        <ele>1206.4</ele>
        <time>2022-01-01T09:36:08Z</time>
      </trkpt>
      <trkpt lat="44.22017" lon="6.21188">
        <ele>1206.6</ele>
        <time>2022-01-01T09:36:09Z</time>
      </trkpt>
      <trkpt lat="44.22016" lon="6.21187">
        <ele>1206.6</ele>
        <time>2022-01-01T09:36:10Z</time>
      </trkpt>
      <trkpt lat="44.22015" lon="6.21181">
        <ele>1207.4</ele>
        <time>2022-01-01T09:36:15Z</time>
      </trkpt>
      <trkpt lat="44.22013" lon="6.21175">
        <ele>1208</ele>
        <time>2022-01-01T09:36:19Z</time>
      </trkpt>
      <trkpt lat="44.22014" lon="6.21169">
        <ele>1208.6</ele>
        <time>2022-01-01T09:36:23Z</time>
      </trkpt>
      <trkpt lat="44.22017" lon="6.21163">
        <ele>1209.4</ele>
        <time>2022-01-01T09:36:29Z</time>
      </trkpt>
      <trkpt lat="44.22018" lon="6.21161">
        <ele>1209.6</ele>
        <time>2022-01-01T09:36:31Z</time>
      </trkpt>
      <trkpt lat="44.22019" lon="6.21159">
        <ele>1209.8</ele>
        <time>2022-01-01T09:36:32Z</time>
      </trkpt>
      <trkpt lat="44.22018" lon="6.21152">
        <ele>1210.8</ele>
        <time>2022-01-01T09:36:38Z</time>
      </trkpt>
      <trkpt lat="44.22019" lon="6.21152">
        <ele>1211</ele>
        <time>2022-01-01T09:36:39Z</time>
      </trkpt>
      <trkpt lat="44.22018" lon="6.21147">
        <ele>1211.8</ele>
        <time>2022-01-01T09:36:44Z</time>
      </trkpt>
      <trkpt lat="44.22018" lon="6.21143">
        <ele>1212.6</ele>
        <time>2022-01-01T09:36:48Z</time>
      </trkpt>
      <trkpt lat="44.22018" lon="6.21141">
        <ele>1212.8</ele>
        <time>2022-01-01T09:36:49Z</time>
      </trkpt>
      <trkpt lat="44.22019" lon="6.2114">
        <ele>1213</ele>
        <time>2022-01-01T09:36:50Z</time>
      </trkpt>
      <trkpt lat="44.22025" lon="6.21136">
        <ele>1213.6</ele>
        <time>2022-01-01T09:36:57Z</time>
      </trkpt>
      <trkpt lat="44.22029" lon="6.21136">
        <ele>1213.8</ele>
        <time>2022-01-01T09:36:59Z</time>
      </trkpt>
      <trkpt lat="44.22036" lon="6.21136">
        <ele>1214</ele>
        <time>2022-01-01T09:37:05Z</time>
      </trkpt>
      <trkpt lat="44.22039" lon="6.21136">
        <ele>1214.4</ele>
        <time>2022-01-01T09:37:08Z</time>
      </trkpt>
      <trkpt lat="44.22039" lon="6.21135">
        <ele>1214.6</ele>
        <time>2022-01-01T09:37:09Z</time>
      </trkpt>
      <trkpt lat="44.22042" lon="6.21136">
        <ele>1215.2</ele>
        <time>2022-01-01T09:37:13Z</time>
      </trkpt>
      <trkpt lat="44.22043" lon="6.21135">
        <ele>1215.6</ele>
        <time>2022-01-01T09:37:15Z</time>
      </trkpt>
      <trkpt lat="44.22047" lon="6.21131">
        <ele>1216.2</ele>
        <time>2022-01-01T09:37:19Z</time>
      </trkpt>
      <trkpt lat="44.22047" lon="6.2113">
        <ele>1216.2</ele>
        <time>2022-01-01T09:37:20Z</time>
      </trkpt>
      <trkpt lat="44.22055" lon="6.21129">
        <ele>1217.4</ele>
        <time>2022-01-01T09:37:27Z</time>
      </trkpt>
      <trkpt lat="44.22057" lon="6.2113">
        <ele>1217.6</ele>
        <time>2022-01-01T09:37:29Z</time>
      </trkpt>
      <trkpt lat="44.22063" lon="6.21129">
        <ele>1218.4</ele>
        <time>2022-01-01T09:37:36Z</time>
      </trkpt>
      <trkpt lat="44.22066" lon="6.21127">
        <ele>1218.8</ele>
        <time>2022-01-01T09:37:39Z</time>
      </trkpt>
      <trkpt lat="44.22067" lon="6.21126">
        <ele>1219</ele>
        <time>2022-01-01T09:37:40Z</time>
      </trkpt>
      <trkpt lat="44.22071" lon="6.21124">
        <ele>1219.4</ele>
        <time>2022-01-01T09:37:44Z</time>
      </trkpt>
      <trkpt lat="44.22075" lon="6.21121">
        <ele>1220.2</ele>
        <time>2022-01-01T09:37:49Z</time>
      </trkpt>
      <trkpt lat="44.22076" lon="6.21121">
        <ele>1220.4</ele>
        <time>2022-01-01T09:37:50Z</time>
      </trkpt>
      <trkpt lat="44.22082" lon="6.21117">
        <ele>1221.6</ele>
        <time>2022-01-01T09:37:58Z</time>
      </trkpt>
      <trkpt lat="44.22082" lon="6.21116">
        <ele>1221.6</ele>
        <time>2022-01-01T09:37:59Z</time>
      </trkpt>
      <trkpt lat="44.22086" lon="6.21115">
        <ele>1222.6</ele>
        <time>2022-01-01T09:38:03Z</time>
      </trkpt>
      <trkpt lat="44.22093" lon="6.21116">
        <ele>1223.4</ele>
        <time>2022-01-01T09:38:09Z</time>
      </trkpt>
      <trkpt lat="44.22095" lon="6.21116">
        <ele>1223.8</ele>
        <time>2022-01-01T09:38:11Z</time>
      </trkpt>
      <trkpt lat="44.22096" lon="6.21108">
        <ele>1224.6</ele>
        <time>2022-01-01T09:38:16Z</time>
      </trkpt>
      <trkpt lat="44.22093" lon="6.21109">
        <ele>1224.4</ele>
        <time>2022-01-01T09:42:46Z</time>
      </trkpt>
      <trkpt lat="44.22096" lon="6.21105">
        <ele>1225.2</ele>
        <time>2022-01-01T09:42:53Z</time>
      </trkpt>
      <trkpt lat="44.22099" lon="6.211">
        <ele>1225.4</ele>
        <time>2022-01-01T09:42:56Z</time>
      </trkpt>
      <trkpt lat="44.22104" lon="6.21097">
        <ele>1225.8</ele>
        <time>2022-01-01T09:43:01Z</time>
      </trkpt>
      <trkpt lat="44.22106" lon="6.21096">
        <ele>1226</ele>
        <time>2022-01-01T09:43:03Z</time>
      </trkpt>
      <trkpt lat="44.22107" lon="6.21096">
        <ele>1226</ele>
        <time>2022-01-01T09:43:04Z</time>
      </trkpt>
      <trkpt lat="44.22111" lon="6.21096">
        <ele>1226.8</ele>
        <time>2022-01-01T09:43:08Z</time>
      </trkpt>
      <trkpt lat="44.22112" lon="6.21095">
        <ele>1227.2</ele>
        <time>2022-01-01T09:43:10Z</time>
      </trkpt>
      <trkpt lat="44.22115" lon="6.21093">
        <ele>1227.6</ele>
        <time>2022-01-01T09:43:13Z</time>
      </trkpt>
      <trkpt lat="44.22121" lon="6.21094">
        <ele>1227.8</ele>
        <time>2022-01-01T09:43:19Z</time>
      </trkpt>
      <trkpt lat="44.22122" lon="6.21092">
        <ele>1228.2</ele>
        <time>2022-01-01T09:43:21Z</time>
      </trkpt>
      <trkpt lat="44.22123" lon="6.21092">
        <ele>1228.4</ele>
        <time>2022-01-01T09:43:22Z</time>
      </trkpt>
      <trkpt lat="44.22124" lon="6.21091">
        <ele>1228.6</ele>
        <time>2022-01-01T09:43:23Z</time>
      </trkpt>
      <trkpt lat="44.2213" lon="6.2109">
        <ele>1229.4</ele>
        <time>2022-01-01T09:43:29Z</time>
      </trkpt>
      <trkpt lat="44.2213" lon="6.2109">
        <ele>1229.4</ele>
        <time>2022-01-01T09:43:30Z</time>
      </trkpt>
      <trkpt lat="44.22131" lon="6.21089">
        <ele>1229.4</ele>
        <time>2022-01-01T09:43:31Z</time>
      </trkpt>
      <trkpt lat="44.22133" lon="6.21088">
        <ele>1229.6</ele>
        <time>2022-01-01T09:43:33Z</time>
      </trkpt>
      <trkpt lat="44.22135" lon="6.21086">
        <ele>1230</ele>
        <time>2022-01-01T09:43:35Z</time>
      </trkpt>
      <trkpt lat="44.22136" lon="6.21085">
        <ele>1230.4</ele>
        <time>2022-01-01T09:43:37Z</time>
      </trkpt>
      <trkpt lat="44.22137" lon="6.21083">
        <ele>1230.6</ele>
        <time>2022-01-01T09:43:39Z</time>
      </trkpt>
      <trkpt lat="44.22138" lon="6.21081">
        <ele>1231</ele>
        <time>2022-01-01T09:43:42Z</time>
      </trkpt>
      <trkpt lat="44.22139" lon="6.2108">
        <ele>1231.2</ele>
        <time>2022-01-01T09:43:43Z</time>
      </trkpt>
      <trkpt lat="44.22138" lon="6.21072">
        <ele>1231.4</ele>
        <time>2022-01-01T09:43:45Z</time>
      </trkpt>
      <trkpt lat="44.22142" lon="6.21067">
        <ele>1232.6</ele>
        <time>2022-01-01T09:43:52Z</time>
      </trkpt>
      <trkpt lat="44.22143" lon="6.21066">
        <ele>1232.8</ele>
        <time>2022-01-01T09:43:53Z</time>
      </trkpt>
      <trkpt lat="44.22145" lon="6.21063">
        <ele>1233.2</ele>
        <time>2022-01-01T09:43:56Z</time>
      </trkpt>
      <trkpt lat="44.22147" lon="6.21072">
        <ele>1233.8</ele>
        <time>2022-01-01T09:44:02Z</time>
      </trkpt>
      <trkpt lat="44.22147" lon="6.21073">
        <ele>1233.8</ele>
        <time>2022-01-01T09:44:03Z</time>
      </trkpt>
      <trkpt lat="44.22147" lon="6.21079">
        <ele>1234.2</ele>
        <time>2022-01-01T09:44:06Z</time>
      </trkpt>
      <trkpt lat="44.22146" lon="6.21083">
        <ele>1234.8</ele>
        <time>2022-01-01T09:44:09Z</time>
      </trkpt>
      <trkpt lat="44.22145" lon="6.21084">
        <ele>1235</ele>
        <time>2022-01-01T09:44:10Z</time>
      </trkpt>
      <trkpt lat="44.22144" lon="6.21086">
        <ele>1235.4</ele>
        <time>2022-01-01T09:44:12Z</time>
      </trkpt>
      <trkpt lat="44.22144" lon="6.21086">
        <ele>1235.6</ele>
        <time>2022-01-01T09:44:13Z</time>
      </trkpt>
      <trkpt lat="44.22143" lon="6.21088">
        <ele>1235.8</ele>
        <time>2022-01-01T09:44:15Z</time>
      </trkpt>
      <trkpt lat="44.22142" lon="6.21089">
        <ele>1236</ele>
        <time>2022-01-01T09:44:16Z</time>
      </trkpt>
      <trkpt lat="44.22142" lon="6.2109">
        <ele>1236.2</ele>
        <time>2022-01-01T09:44:17Z</time>
      </trkpt>
      <trkpt lat="44.22138" lon="6.21096">
        <ele>1236.8</ele>
        <time>2022-01-01T09:44:21Z</time>
      </trkpt>
      <trkpt lat="44.22137" lon="6.21097">
        <ele>1236.8</ele>
        <time>2022-01-01T09:44:22Z</time>
      </trkpt>
      <trkpt lat="44.22136" lon="6.21101">
        <ele>1237</ele>
        <time>2022-01-01T09:44:25Z</time>
      </trkpt>
      <trkpt lat="44.22136" lon="6.21103">
        <ele>1237.4</ele>
        <time>2022-01-01T09:44:27Z</time>
      </trkpt>
      <trkpt lat="44.22134" lon="6.21111">
        <ele>1238.2</ele>
        <time>2022-01-01T09:44:32Z</time>
      </trkpt>
      <trkpt lat="44.22132" lon="6.21116">
        <ele>1239</ele>
        <time>2022-01-01T09:44:37Z</time>
      </trkpt>
      <trkpt lat="44.22129" lon="6.21119">
        <ele>1239.2</ele>
        <time>2022-01-01T09:44:41Z</time>
      </trkpt>
      <trkpt lat="44.22126" lon="6.21123">
        <ele>1240.2</ele>
        <time>2022-01-01T09:44:47Z</time>
      </trkpt>
      <trkpt lat="44.22124" lon="6.21129">
        <ele>1241</ele>
        <time>2022-01-01T09:44:52Z</time>
      </trkpt>
      <trkpt lat="44.22124" lon="6.21133">
        <ele>1241.2</ele>
        <time>2022-01-01T09:44:54Z</time>
      </trkpt>
      <trkpt lat="44.22125" lon="6.21132">
        <ele>1241.4</ele>
        <time>2022-01-01T09:44:56Z</time>
      </trkpt>
      <trkpt lat="44.22126" lon="6.21132">
        <ele>1241.4</ele>
        <time>2022-01-01T09:44:57Z</time>
      </trkpt>
      <trkpt lat="44.2213" lon="6.2113">
        <ele>1242.4</ele>
        <time>2022-01-01T09:45:02Z</time>
      </trkpt>
      <trkpt lat="44.22132" lon="6.21129">
        <ele>1242.8</ele>
        <time>2022-01-01T09:45:04Z</time>
      </trkpt>
      <trkpt lat="44.22134" lon="6.21127">
        <ele>1243.4</ele>
        <time>2022-01-01T09:45:07Z</time>
      </trkpt>
      <trkpt lat="44.22135" lon="6.21126">
        <ele>1243.4</ele>
        <time>2022-01-01T09:45:08Z</time>
      </trkpt>
      <trkpt lat="44.22141" lon="6.21119">
        <ele>1244.4</ele>
        <time>2022-01-01T09:45:16Z</time>
      </trkpt>
      <trkpt lat="44.22142" lon="6.21119">
        <ele>1244.6</ele>
        <time>2022-01-01T09:45:17Z</time>
      </trkpt>
      <trkpt lat="44.22144" lon="6.21113">
        <ele>1245.6</ele>
        <time>2022-01-01T09:45:22Z</time>
      </trkpt>
      <trkpt lat="44.22146" lon="6.21107">
        <ele>1246.6</ele>
        <time>2022-01-01T09:45:27Z</time>
      </trkpt>
      <trkpt lat="44.22147" lon="6.21105">
        <ele>1246.8</ele>
        <time>2022-01-01T09:45:29Z</time>
      </trkpt>
      <trkpt lat="44.22155" lon="6.211">
        <ele>1248</ele>
        <time>2022-01-01T09:45:37Z</time>
      </trkpt>
      <trkpt lat="44.22158" lon="6.21099">
        <ele>1248.4</ele>
        <time>2022-01-01T09:45:40Z</time>
      </trkpt>
      <trkpt lat="44.22164" lon="6.211">
        <ele>1249</ele>
        <time>2022-01-01T09:45:47Z</time>
      </trkpt>
      <trkpt lat="44.22167" lon="6.21102">
        <ele>1249.2</ele>
        <time>2022-01-01T09:45:49Z</time>
      </trkpt>
      <trkpt lat="44.22167" lon="6.21102">
        <ele>1249.6</ele>
        <time>2022-01-01T09:45:51Z</time>
      </trkpt>
      <trkpt lat="44.22168" lon="6.21103">
        <ele>1250</ele>
        <time>2022-01-01T09:45:53Z</time>
      </trkpt>
      <trkpt lat="44.2217" lon="6.21103">
        <ele>1250.6</ele>
        <time>2022-01-01T09:45:55Z</time>
      </trkpt>
      <trkpt lat="44.22171" lon="6.21103">
        <ele>1250.8</ele>
        <time>2022-01-01T09:45:57Z</time>
      </trkpt>
      <trkpt lat="44.22173" lon="6.21103">
        <ele>1251.2</ele>
        <time>2022-01-01T09:45:59Z</time>
      </trkpt>
      <trkpt lat="44.22177" lon="6.21104">
        <ele>1251.8</ele>
        <time>2022-01-01T09:46:03Z</time>
      </trkpt>
      <trkpt lat="44.2218" lon="6.21106">
        <ele>1252.2</ele>
        <time>2022-01-01T09:46:07Z</time>
      </trkpt>
      <trkpt lat="44.22183" lon="6.21106">
        <ele>1253.4</ele>
        <time>2022-01-01T09:46:13Z</time>
      </trkpt>
      <trkpt lat="44.22184" lon="6.21107">
        <ele>1254.4</ele>
        <time>2022-01-01T09:46:17Z</time>
      </trkpt>
      <trkpt lat="44.22185" lon="6.21107">
        <ele>1254.6</ele>
        <time>2022-01-01T09:46:18Z</time>
      </trkpt>
      <trkpt lat="44.22185" lon="6.21107">
        <ele>1254.8</ele>
        <time>2022-01-01T09:46:19Z</time>
      </trkpt>
      <trkpt lat="44.22187" lon="6.21108">
        <ele>1255.8</ele>
        <time>2022-01-01T09:46:23Z</time>
      </trkpt>
      <trkpt lat="44.22188" lon="6.21109">
        <ele>1256</ele>
        <time>2022-01-01T09:46:24Z</time>
      </trkpt>
      <trkpt lat="44.22189" lon="6.2111">
        <ele>1256.8</ele>
        <time>2022-01-01T09:46:28Z</time>
      </trkpt>
      <trkpt lat="44.22188" lon="6.21116">
        <ele>1257.6</ele>
        <time>2022-01-01T09:46:34Z</time>
      </trkpt>
      <trkpt lat="44.22188" lon="6.21118">
        <ele>1257.8</ele>
        <time>2022-01-01T09:46:36Z</time>
      </trkpt>
      <trkpt lat="44.22187" lon="6.21119">
        <ele>1258</ele>
        <time>2022-01-01T09:46:37Z</time>
      </trkpt>
      <trkpt lat="44.22186" lon="6.21123">
        <ele>1258.6</ele>
        <time>2022-01-01T09:46:41Z</time>
      </trkpt>
      <trkpt lat="44.22185" lon="6.21126">
        <ele>1259.2</ele>
        <time>2022-01-01T09:46:44Z</time>
      </trkpt>
      <trkpt lat="44.2219" lon="6.21126">
        <ele>1260.2</ele>
        <time>2022-01-01T09:46:51Z</time>
      </trkpt>
      <trkpt lat="44.22193" lon="6.21125">
        <ele>1260.8</ele>
        <time>2022-01-01T09:46:55Z</time>
      </trkpt>
      <trkpt lat="44.22195" lon="6.21124">
        <ele>1261</ele>
        <time>2022-01-01T09:46:58Z</time>
      </trkpt>
      <trkpt lat="44.22197" lon="6.21123">
        <ele>1261.2</ele>
        <time>2022-01-01T09:47:00Z</time>
      </trkpt>
      <trkpt lat="44.22198" lon="6.21123">
        <ele>1261.4</ele>
        <time>2022-01-01T09:47:01Z</time>
      </trkpt>
      <trkpt lat="44.222" lon="6.21123">
        <ele>1261.8</ele>
        <time>2022-01-01T09:47:04Z</time>
      </trkpt>
      <trkpt lat="44.22204" lon="6.21125">
        <ele>1262.4</ele>
        <time>2022-01-01T09:47:08Z</time>
      </trkpt>
      <trkpt lat="44.22205" lon="6.21127">
        <ele>1263.4</ele>
        <time>2022-01-01T09:47:11Z</time>
      </trkpt>
      <trkpt lat="44.22205" lon="6.21127">
        <ele>1263.6</ele>
        <time>2022-01-01T09:47:12Z</time>
      </trkpt>
      <trkpt lat="44.22206" lon="6.21131">
        <ele>1264.8</ele>
        <time>2022-01-01T09:47:18Z</time>
      </trkpt>
      <trkpt lat="44.22205" lon="6.21133">
        <ele>1265.4</ele>
        <time>2022-01-01T09:47:21Z</time>
      </trkpt>
      <trkpt lat="44.22205" lon="6.21135">
        <ele>1266</ele>
        <time>2022-01-01T09:47:23Z</time>
      </trkpt>
      <trkpt lat="44.22206" lon="6.21138">
        <ele>1266.8</ele>
        <time>2022-01-01T09:47:27Z</time>
      </trkpt>
      <trkpt lat="44.22206" lon="6.21138">
        <ele>1267</ele>
        <time>2022-01-01T09:47:28Z</time>
      </trkpt>
      <trkpt lat="44.22206" lon="6.21141">
        <ele>1267.6</ele>
        <time>2022-01-01T09:47:32Z</time>
      </trkpt>
      <trkpt lat="44.22207" lon="6.21145">
        <ele>1268.2</ele>
        <time>2022-01-01T09:47:35Z</time>
      </trkpt>
      <trkpt lat="44.22208" lon="6.21148">
        <ele>1269.2</ele>
        <time>2022-01-01T09:47:42Z</time>
      </trkpt>
      <trkpt lat="44.22208" lon="6.21148">
        <ele>1269.4</ele>
        <time>2022-01-01T09:47:43Z</time>
      </trkpt>
      <trkpt lat="44.22211" lon="6.21144">
        <ele>1270.4</ele>
        <time>2022-01-01T09:47:50Z</time>
      </trkpt>
      <trkpt lat="44.22213" lon="6.21144">
        <ele>1270.8</ele>
        <time>2022-01-01T09:47:52Z</time>
      </trkpt>
      <trkpt lat="44.22217" lon="6.21144">
        <ele>1271.4</ele>
        <time>2022-01-01T09:47:56Z</time>
      </trkpt>
      <trkpt lat="44.22218" lon="6.21149">
        <ele>1272.4</ele>
        <time>2022-01-01T09:48:02Z</time>
      </trkpt>
      <trkpt lat="44.22218" lon="6.2115">
        <ele>1272.6</ele>
        <time>2022-01-01T09:48:03Z</time>
      </trkpt>
      <trkpt lat="44.22217" lon="6.21157">
        <ele>1273.6</ele>
        <time>2022-01-01T09:48:11Z</time>
      </trkpt>
      <trkpt lat="44.22217" lon="6.21158">
        <ele>1273.8</ele>
        <time>2022-01-01T09:48:12Z</time>
      </trkpt>
      <trkpt lat="44.22219" lon="6.21162">
        <ele>1274.6</ele>
        <time>2022-01-01T09:48:17Z</time>
      </trkpt>
      <trkpt lat="44.2222" lon="6.21162">
        <ele>1275.6</ele>
        <time>2022-01-01T09:48:22Z</time>
      </trkpt>
      <trkpt lat="44.2222" lon="6.21162">
        <ele>1275.8</ele>
        <time>2022-01-01T09:48:23Z</time>
      </trkpt>
      <trkpt lat="44.22222" lon="6.21163">
        <ele>1277</ele>
        <time>2022-01-01T09:48:29Z</time>
      </trkpt>
      <trkpt lat="44.22223" lon="6.21165">
        <ele>1277.6</ele>
        <time>2022-01-01T09:48:32Z</time>
      </trkpt>
      <trkpt lat="44.22222" lon="6.21166">
        <ele>1278</ele>
        <time>2022-01-01T09:48:34Z</time>
      </trkpt>
      <trkpt lat="44.22224" lon="6.21168">
        <ele>1279</ele>
        <time>2022-01-01T09:48:40Z</time>
      </trkpt>
      <trkpt lat="44.22225" lon="6.21168">
        <ele>1279.2</ele>
        <time>2022-01-01T09:48:41Z</time>
      </trkpt>
      <trkpt lat="44.22226" lon="6.21168">
        <ele>1279.4</ele>
        <time>2022-01-01T09:48:42Z</time>
      </trkpt>
      <trkpt lat="44.22227" lon="6.21168">
        <ele>1279.8</ele>
        <time>2022-01-01T09:48:44Z</time>
      </trkpt>
      <trkpt lat="44.22227" lon="6.21167">
        <ele>1280</ele>
        <time>2022-01-01T09:48:45Z</time>
      </trkpt>
      <trkpt lat="44.22227" lon="6.21168">
        <ele>1280</ele>
        <time>2022-01-01T09:48:46Z</time>
      </trkpt>
      <trkpt lat="44.22227" lon="6.21168">
        <ele>1280.4</ele>
        <time>2022-01-01T09:48:47Z</time>
      </trkpt>
      <trkpt lat="44.22227" lon="6.21168">
        <ele>1280.6</ele>
        <time>2022-01-01T09:48:48Z</time>
      </trkpt>
      <trkpt lat="44.2223" lon="6.21169">
        <ele>1281.2</ele>
        <time>2022-01-01T09:48:52Z</time>
      </trkpt>
      <trkpt lat="44.2223" lon="6.21169">
        <ele>1281.4</ele>
        <time>2022-01-01T09:48:53Z</time>
      </trkpt>
      <trkpt lat="44.22233" lon="6.21175">
        <ele>1282.4</ele>
        <time>2022-01-01T09:49:00Z</time>
      </trkpt>
      <trkpt lat="44.22234" lon="6.21175">
        <ele>1282.6</ele>
        <time>2022-01-01T09:49:01Z</time>
      </trkpt>
      <trkpt lat="44.22234" lon="6.21176">
        <ele>1282.8</ele>
        <time>2022-01-01T09:49:02Z</time>
      </trkpt>
      <trkpt lat="44.22236" lon="6.21177">
        <ele>1283.8</ele>
        <time>2022-01-01T09:49:06Z</time>
      </trkpt>
      <trkpt lat="44.22239" lon="6.21175">
        <ele>1284.8</ele>
        <time>2022-01-01T09:49:10Z</time>
      </trkpt>
      <trkpt lat="44.2224" lon="6.21175">
        <ele>1285</ele>
        <time>2022-01-01T09:49:11Z</time>
      </trkpt>
      <trkpt lat="44.2224" lon="6.21175">
        <ele>1285.2</ele>
        <time>2022-01-01T09:49:12Z</time>
      </trkpt>
      <trkpt lat="44.22246" lon="6.21175">
        <ele>1285.4</ele>
        <time>2022-01-01T09:49:19Z</time>
      </trkpt>
      <trkpt lat="44.22248" lon="6.21176">
        <ele>1285</ele>
        <time>2022-01-01T09:49:22Z</time>
      </trkpt>
      <trkpt lat="44.22253" lon="6.2118">
        <ele>1284.2</ele>
        <time>2022-01-01T09:49:27Z</time>
      </trkpt>
      <trkpt lat="44.22256" lon="6.21179">
        <ele>1284</ele>
        <time>2022-01-01T09:49:32Z</time>
      </trkpt>
      <trkpt lat="44.22258" lon="6.21176">
        <ele>1284</ele>
        <time>2022-01-01T09:49:35Z</time>
      </trkpt>
      <trkpt lat="44.22261" lon="6.21171">
        <ele>1285</ele>
        <time>2022-01-01T09:49:42Z</time>
      </trkpt>
      <trkpt lat="44.22264" lon="6.21165">
        <ele>1285.8</ele>
        <time>2022-01-01T09:49:47Z</time>
      </trkpt>
      <trkpt lat="44.22265" lon="6.21162">
        <ele>1286</ele>
        <time>2022-01-01T09:49:50Z</time>
      </trkpt>
      <trkpt lat="44.22266" lon="6.2116">
        <ele>1286.2</ele>
        <time>2022-01-01T09:49:52Z</time>
      </trkpt>
      <trkpt lat="44.22266" lon="6.21158">
        <ele>1286.4</ele>
        <time>2022-01-01T09:49:53Z</time>
      </trkpt>
      <trkpt lat="44.22269" lon="6.21153">
        <ele>1287.2</ele>
        <time>2022-01-01T09:49:59Z</time>
      </trkpt>
      <trkpt lat="44.2227" lon="6.21151">
        <ele>1287.6</ele>
        <time>2022-01-01T09:50:02Z</time>
      </trkpt>
      <trkpt lat="44.22276" lon="6.21152">
        <ele>1288.4</ele>
        <time>2022-01-01T09:50:08Z</time>
      </trkpt>
      <trkpt lat="44.2228" lon="6.21152">
        <ele>1289.2</ele>
        <time>2022-01-01T09:50:12Z</time>
      </trkpt>
      <trkpt lat="44.22283" lon="6.21152">
        <ele>1289.4</ele>
        <time>2022-01-01T09:50:15Z</time>
      </trkpt>
      <trkpt lat="44.22291" lon="6.21149">
        <ele>1289.6</ele>
        <time>2022-01-01T09:50:22Z</time>
      </trkpt>
      <trkpt lat="44.22299" lon="6.21143">
        <ele>1289</ele>
        <time>2022-01-01T09:50:32Z</time>
      </trkpt>
      <trkpt lat="44.22302" lon="6.21145">
        <ele>1288.6</ele>
        <time>2022-01-01T09:50:35Z</time>
      </trkpt>
      <trkpt lat="44.22303" lon="6.21146">
        <ele>1288.4</ele>
        <time>2022-01-01T09:50:38Z</time>
      </trkpt>
      <trkpt lat="44.22306" lon="6.21148">
        <ele>1288.4</ele>
        <time>2022-01-01T09:50:41Z</time>
      </trkpt>
      <trkpt lat="44.22307" lon="6.21149">
        <ele>1288.6</ele>
        <time>2022-01-01T09:50:42Z</time>
      </trkpt>
      <trkpt lat="44.2231" lon="6.2115">
        <ele>1288.6</ele>
        <time>2022-01-01T09:50:44Z</time>
      </trkpt>
      <trkpt lat="44.22316" lon="6.21145">
        <ele>1289.4</ele>
        <time>2022-01-01T09:50:52Z</time>
      </trkpt>
      <trkpt lat="44.22326" lon="6.21141">
        <ele>1289.8</ele>
        <time>2022-01-01T09:51:02Z</time>
      </trkpt>
      <trkpt lat="44.22332" lon="6.21141">
        <ele>1290.4</ele>
        <time>2022-01-01T09:51:10Z</time>
      </trkpt>
      <trkpt lat="44.22334" lon="6.21142">
        <ele>1290.8</ele>
        <time>2022-01-01T09:51:12Z</time>
      </trkpt>
      <trkpt lat="44.22337" lon="6.21142">
        <ele>1291.8</ele>
        <time>2022-01-01T09:51:16Z</time>
      </trkpt>
      <trkpt lat="44.22343" lon="6.21141">
        <ele>1292</ele>
        <time>2022-01-01T09:51:22Z</time>
      </trkpt>
      <trkpt lat="44.22348" lon="6.21141">
        <ele>1291.6</ele>
        <time>2022-01-01T09:51:28Z</time>
      </trkpt>
      <trkpt lat="44.22354" lon="6.2114">
        <ele>1291</ele>
        <time>2022-01-01T09:51:32Z</time>
      </trkpt>
      <trkpt lat="44.22356" lon="6.21141">
        <ele>1290.8</ele>
        <time>2022-01-01T09:51:34Z</time>
      </trkpt>
      <trkpt lat="44.22365" lon="6.21143">
        <ele>1291.6</ele>
        <time>2022-01-01T09:51:42Z</time>
      </trkpt>
      <trkpt lat="44.22369" lon="6.21141">
        <ele>1291.4</ele>
        <time>2022-01-01T09:51:48Z</time>
      </trkpt>
      <trkpt lat="44.22371" lon="6.21144">
        <ele>1291.4</ele>
        <time>2022-01-01T09:51:52Z</time>
      </trkpt>
      <trkpt lat="44.22373" lon="6.21146">
        <ele>1291.6</ele>
        <time>2022-01-01T09:51:54Z</time>
      </trkpt>
      <trkpt lat="44.22374" lon="6.21148">
        <ele>1291.6</ele>
        <time>2022-01-01T09:51:56Z</time>
      </trkpt>
      <trkpt lat="44.22377" lon="6.21154">
        <ele>1292.2</ele>
        <time>2022-01-01T09:52:02Z</time>
      </trkpt>
      <trkpt lat="44.22378" lon="6.2116">
        <ele>1292.2</ele>
        <time>2022-01-01T09:52:05Z</time>
      </trkpt>
      <trkpt lat="44.22382" lon="6.21162">
        <ele>1292.4</ele>
        <time>2022-01-01T09:52:08Z</time>
      </trkpt>
      <trkpt lat="44.22384" lon="6.21163">
        <ele>1292.4</ele>
        <time>2022-01-01T09:52:10Z</time>
      </trkpt>
      <trkpt lat="44.22386" lon="6.21164">
        <ele>1292.2</ele>
        <time>2022-01-01T09:52:12Z</time>
      </trkpt>
      <trkpt lat="44.22387" lon="6.21165">
        <ele>1292.2</ele>
        <time>2022-01-01T09:52:13Z</time>
      </trkpt>
      <trkpt lat="44.22398" lon="6.21162">
        <ele>1292.6</ele>
        <time>2022-01-01T09:52:22Z</time>
      </trkpt>
      <trkpt lat="44.224" lon="6.21162">
        <ele>1292.8</ele>
        <time>2022-01-01T09:52:25Z</time>
      </trkpt>
      <trkpt lat="44.22402" lon="6.2116">
        <ele>1292.8</ele>
        <time>2022-01-01T09:52:28Z</time>
      </trkpt>
      <trkpt lat="44.22403" lon="6.21158">
        <ele>1292.8</ele>
        <time>2022-01-01T09:52:32Z</time>
      </trkpt>
      <trkpt lat="44.22404" lon="6.21157">
        <ele>1292.8</ele>
        <time>2022-01-01T09:52:34Z</time>
      </trkpt>
      <trkpt lat="44.22406" lon="6.21153">
        <ele>1293.2</ele>
        <time>2022-01-01T09:52:37Z</time>
      </trkpt>
      <trkpt lat="44.22407" lon="6.21153">
        <ele>1293.4</ele>
        <time>2022-01-01T09:52:39Z</time>
      </trkpt>
      <trkpt lat="44.22406" lon="6.21152">
        <ele>1293.8</ele>
        <time>2022-01-01T09:52:42Z</time>
      </trkpt>
      <trkpt lat="44.22406" lon="6.21152">
        <ele>1293.8</ele>
        <time>2022-01-01T09:52:43Z</time>
      </trkpt>
      <trkpt lat="44.22407" lon="6.21147">
        <ele>1294.4</ele>
        <time>2022-01-01T09:52:52Z</time>
      </trkpt>
      <trkpt lat="44.22408" lon="6.21139">
        <ele>1294.8</ele>
        <time>2022-01-01T09:53:00Z</time>
      </trkpt>
      <trkpt lat="44.22408" lon="6.21137">
        <ele>1295</ele>
        <time>2022-01-01T09:53:02Z</time>
      </trkpt>
      <trkpt lat="44.22408" lon="6.21134">
        <ele>1295.6</ele>
        <time>2022-01-01T09:53:05Z</time>
      </trkpt>
      <trkpt lat="44.22408" lon="6.21133">
        <ele>1296</ele>
        <time>2022-01-01T09:53:06Z</time>
      </trkpt>
      <trkpt lat="44.22408" lon="6.21132">
        <ele>1296</ele>
        <time>2022-01-01T09:53:07Z</time>
      </trkpt>
      <trkpt lat="44.22409" lon="6.21131">
        <ele>1296.2</ele>
        <time>2022-01-01T09:53:08Z</time>
      </trkpt>
      <trkpt lat="44.2241" lon="6.2113">
        <ele>1296.4</ele>
        <time>2022-01-01T09:53:10Z</time>
      </trkpt>
      <trkpt lat="44.22412" lon="6.21129">
        <ele>1296.6</ele>
        <time>2022-01-01T09:53:12Z</time>
      </trkpt>
      <trkpt lat="44.22413" lon="6.21129">
        <ele>1297</ele>
        <time>2022-01-01T09:53:14Z</time>
      </trkpt>
      <trkpt lat="44.22416" lon="6.21126">
        <ele>1296.8</ele>
        <time>2022-01-01T09:53:22Z</time>
      </trkpt>
      <trkpt lat="44.22424" lon="6.21126">
        <ele>1297.2</ele>
        <time>2022-01-01T09:53:31Z</time>
      </trkpt>
      <trkpt lat="44.22425" lon="6.21126">
        <ele>1297.2</ele>
        <time>2022-01-01T09:53:32Z</time>
      </trkpt>
      <trkpt lat="44.22428" lon="6.21128">
        <ele>1298</ele>
        <time>2022-01-01T09:53:35Z</time>
      </trkpt>
      <trkpt lat="44.22432" lon="6.21131">
        <ele>1298.6</ele>
        <time>2022-01-01T09:53:39Z</time>
      </trkpt>
      <trkpt lat="44.22436" lon="6.21132">
        <ele>1298.8</ele>
        <time>2022-01-01T09:53:42Z</time>
      </trkpt>
      <trkpt lat="44.22438" lon="6.21132">
        <ele>1299</ele>
        <time>2022-01-01T09:53:43Z</time>
      </trkpt>
      <trkpt lat="44.2244" lon="6.21134">
        <ele>1299.4</ele>
        <time>2022-01-01T09:53:45Z</time>
      </trkpt>
      <trkpt lat="44.22442" lon="6.21136">
        <ele>1299.8</ele>
        <time>2022-01-01T09:53:47Z</time>
      </trkpt>
      <trkpt lat="44.22442" lon="6.21137">
        <ele>1300</ele>
        <time>2022-01-01T09:53:48Z</time>
      </trkpt>
      <trkpt lat="44.22443" lon="6.21137">
        <ele>1300.2</ele>
        <time>2022-01-01T09:53:49Z</time>
      </trkpt>
      <trkpt lat="44.22444" lon="6.21138">
        <ele>1300.2</ele>
        <time>2022-01-01T09:53:50Z</time>
      </trkpt>
      <trkpt lat="44.22445" lon="6.21138">
        <ele>1300.6</ele>
        <time>2022-01-01T09:53:51Z</time>
      </trkpt>
      <trkpt lat="44.22446" lon="6.21138">
        <ele>1300.6</ele>
        <time>2022-01-01T09:53:52Z</time>
      </trkpt>
      <trkpt lat="44.22447" lon="6.21138">
        <ele>1300.8</ele>
        <time>2022-01-01T09:53:53Z</time>
      </trkpt>
      <trkpt lat="44.22449" lon="6.21139">
        <ele>1301.2</ele>
        <time>2022-01-01T09:53:55Z</time>
      </trkpt>
      <trkpt lat="44.22452" lon="6.21139">
        <ele>1301.6</ele>
        <time>2022-01-01T09:53:58Z</time>
      </trkpt>
      <trkpt lat="44.22453" lon="6.2114">
        <ele>1301.8</ele>
        <time>2022-01-01T09:54:00Z</time>
      </trkpt>
      <trkpt lat="44.22455" lon="6.21141">
        <ele>1302</ele>
        <time>2022-01-01T09:54:02Z</time>
      </trkpt>
      <trkpt lat="44.22458" lon="6.21143">
        <ele>1302.2</ele>
        <time>2022-01-01T09:54:04Z</time>
      </trkpt>
      <trkpt lat="44.22463" lon="6.21147">
        <ele>1302.8</ele>
        <time>2022-01-01T09:54:10Z</time>
      </trkpt>
      <trkpt lat="44.22464" lon="6.21148">
        <ele>1303.2</ele>
        <time>2022-01-01T09:54:12Z</time>
      </trkpt>
      <trkpt lat="44.22465" lon="6.21148">
        <ele>1303.4</ele>
        <time>2022-01-01T09:54:13Z</time>
      </trkpt>
      <trkpt lat="44.22465" lon="6.21149">
        <ele>1303.4</ele>
        <time>2022-01-01T09:54:14Z</time>
      </trkpt>
      <trkpt lat="44.22469" lon="6.21151">
        <ele>1304</ele>
        <time>2022-01-01T09:54:19Z</time>
      </trkpt>
      <trkpt lat="44.22471" lon="6.21152">
        <ele>1304.4</ele>
        <time>2022-01-01T09:54:22Z</time>
      </trkpt>
      <trkpt lat="44.22472" lon="6.21152">
        <ele>1304.4</ele>
        <time>2022-01-01T09:54:23Z</time>
      </trkpt>
      <trkpt lat="44.22473" lon="6.21154">
        <ele>1304.6</ele>
        <time>2022-01-01T09:54:25Z</time>
      </trkpt>
      <trkpt lat="44.22475" lon="6.21154">
        <ele>1304.8</ele>
        <time>2022-01-01T09:54:28Z</time>
      </trkpt>
      <trkpt lat="44.22479" lon="6.21155">
        <ele>1304.8</ele>
        <time>2022-01-01T09:54:32Z</time>
      </trkpt>
      <trkpt lat="44.22482" lon="6.21158">
        <ele>1304.8</ele>
        <time>2022-01-01T09:54:37Z</time>
      </trkpt>
      <trkpt lat="44.22484" lon="6.2116">
        <ele>1305.6</ele>
        <time>2022-01-01T09:54:42Z</time>
      </trkpt>
      <trkpt lat="44.22489" lon="6.21161">
        <ele>1305.8</ele>
        <time>2022-01-01T09:54:47Z</time>
      </trkpt>
      <trkpt lat="44.2249" lon="6.21161">
        <ele>1305.8</ele>
        <time>2022-01-01T09:54:49Z</time>
      </trkpt>
      <trkpt lat="44.22491" lon="6.21162">
        <ele>1306.2</ele>
        <time>2022-01-01T09:54:52Z</time>
      </trkpt>
      <trkpt lat="44.22493" lon="6.21164">
        <ele>1306.6</ele>
        <time>2022-01-01T09:54:56Z</time>
      </trkpt>
      <trkpt lat="44.22498" lon="6.21163">
        <ele>1306.8</ele>
        <time>2022-01-01T09:55:01Z</time>
      </trkpt>
      <trkpt lat="44.22506" lon="6.21159">
        <ele>1307</ele>
        <time>2022-01-01T09:55:08Z</time>
      </trkpt>
      <trkpt lat="44.22508" lon="6.21157">
        <ele>1307</ele>
        <time>2022-01-01T09:55:11Z</time>
      </trkpt>
      <trkpt lat="44.2251" lon="6.21155">
        <ele>1307.4</ele>
        <time>2022-01-01T09:55:15Z</time>
      </trkpt>
      <trkpt lat="44.22511" lon="6.21154">
        <ele>1307.6</ele>
        <time>2022-01-01T09:55:17Z</time>
      </trkpt>
      <trkpt lat="44.22514" lon="6.2115">
        <ele>1307.8</ele>
        <time>2022-01-01T09:55:21Z</time>
      </trkpt>
      <trkpt lat="44.22519" lon="6.21143">
        <ele>1308.4</ele>
        <time>2022-01-01T09:55:28Z</time>
      </trkpt>
      <trkpt lat="44.2252" lon="6.2114">
        <ele>1308.8</ele>
        <time>2022-01-01T09:55:30Z</time>
      </trkpt>
      <trkpt lat="44.22521" lon="6.2114">
        <ele>1308.8</ele>
        <time>2022-01-01T09:55:31Z</time>
      </trkpt>
      <trkpt lat="44.22521" lon="6.21139">
        <ele>1309</ele>
        <time>2022-01-01T09:55:32Z</time>
      </trkpt>
      <trkpt lat="44.22524" lon="6.21136">
        <ele>1309.4</ele>
        <time>2022-01-01T09:55:36Z</time>
      </trkpt>
      <trkpt lat="44.22526" lon="6.21134">
        <ele>1309.6</ele>
        <time>2022-01-01T09:55:39Z</time>
      </trkpt>
      <trkpt lat="44.22528" lon="6.21133">
        <ele>1309.8</ele>
        <time>2022-01-01T09:55:41Z</time>
      </trkpt>
      <trkpt lat="44.22536" lon="6.21129">
        <ele>1310.2</ele>
        <time>2022-01-01T09:55:49Z</time>
      </trkpt>
      <trkpt lat="44.22537" lon="6.21128">
        <ele>1310.4</ele>
        <time>2022-01-01T09:55:51Z</time>
      </trkpt>
      <trkpt lat="44.22539" lon="6.21127">
        <ele>1310.6</ele>
        <time>2022-01-01T09:55:54Z</time>
      </trkpt>
      <trkpt lat="44.2254" lon="6.21126">
        <ele>1310.8</ele>
        <time>2022-01-01T09:55:56Z</time>
      </trkpt>
      <trkpt lat="44.22541" lon="6.21126">
        <ele>1310.8</ele>
        <time>2022-01-01T09:55:57Z</time>
      </trkpt>
      <trkpt lat="44.22544" lon="6.21123">
        <ele>1310.6</ele>
        <time>2022-01-01T09:56:01Z</time>
      </trkpt>
      <trkpt lat="44.22545" lon="6.21122">
        <ele>1310.2</ele>
        <time>2022-01-01T09:56:03Z</time>
      </trkpt>
      <trkpt lat="44.22546" lon="6.21119">
        <ele>1310</ele>
        <time>2022-01-01T09:56:05Z</time>
      </trkpt>
      <trkpt lat="44.22547" lon="6.21113">
        <ele>1310</ele>
        <time>2022-01-01T09:56:11Z</time>
      </trkpt>
      <trkpt lat="44.22547" lon="6.2111">
        <ele>1310</ele>
        <time>2022-01-01T09:56:13Z</time>
      </trkpt>
      <trkpt lat="44.22549" lon="6.21103">
        <ele>1310.4</ele>
        <time>2022-01-01T09:56:20Z</time>
      </trkpt>
      <trkpt lat="44.22549" lon="6.21102">
        <ele>1310.4</ele>
        <time>2022-01-01T09:56:21Z</time>
      </trkpt>
      <trkpt lat="44.22551" lon="6.21099">
        <ele>1311.2</ele>
        <time>2022-01-01T09:56:24Z</time>
      </trkpt>
      <trkpt lat="44.22555" lon="6.21093">
        <ele>1312</ele>
        <time>2022-01-01T09:56:31Z</time>
      </trkpt>
      <trkpt lat="44.22557" lon="6.21092">
        <ele>1312.2</ele>
        <time>2022-01-01T09:56:33Z</time>
      </trkpt>
      <trkpt lat="44.2256" lon="6.21087">
        <ele>1313</ele>
        <time>2022-01-01T09:56:39Z</time>
      </trkpt>
      <trkpt lat="44.22561" lon="6.21087">
        <ele>1313.2</ele>
        <time>2022-01-01T09:56:41Z</time>
      </trkpt>
      <trkpt lat="44.22565" lon="6.21087">
        <ele>1314</ele>
        <time>2022-01-01T09:56:45Z</time>
      </trkpt>
      <trkpt lat="44.22569" lon="6.21086">
        <ele>1314.8</ele>
        <time>2022-01-01T09:56:51Z</time>
      </trkpt>
      <trkpt lat="44.22569" lon="6.21085">
        <ele>1314.8</ele>
        <time>2022-01-01T09:56:52Z</time>
      </trkpt>
      <trkpt lat="44.2257" lon="6.21084">
        <ele>1314.8</ele>
        <time>2022-01-01T09:56:54Z</time>
      </trkpt>
      <trkpt lat="44.2257" lon="6.21083">
        <ele>1314.8</ele>
        <time>2022-01-01T09:56:55Z</time>
      </trkpt>
      <trkpt lat="44.2257" lon="6.21082">
        <ele>1314.8</ele>
        <time>2022-01-01T09:56:56Z</time>
      </trkpt>
      <trkpt lat="44.2257" lon="6.21082">
        <ele>1314.6</ele>
        <time>2022-01-01T09:56:57Z</time>
      </trkpt>
      <trkpt lat="44.2257" lon="6.21081">
        <ele>1314.2</ele>
        <time>2022-01-01T09:57:01Z</time>
      </trkpt>
      <trkpt lat="44.22566" lon="6.21077">
        <ele>1313.8</ele>
        <time>2022-01-01T09:57:11Z</time>
      </trkpt>
      <trkpt lat="44.22571" lon="6.21068">
        <ele>1314.4</ele>
        <time>2022-01-01T09:57:21Z</time>
      </trkpt>
      <trkpt lat="44.22576" lon="6.21061">
        <ele>1315.2</ele>
        <time>2022-01-01T09:57:29Z</time>
      </trkpt>
      <trkpt lat="44.22577" lon="6.21059">
        <ele>1315.2</ele>
        <time>2022-01-01T09:57:31Z</time>
      </trkpt>
      <trkpt lat="44.22586" lon="6.21055">
        <ele>1316</ele>
        <time>2022-01-01T09:57:39Z</time>
      </trkpt>
      <trkpt lat="44.22588" lon="6.21055">
        <ele>1316.2</ele>
        <time>2022-01-01T09:57:41Z</time>
      </trkpt>
      <trkpt lat="44.22589" lon="6.21054">
        <ele>1316.2</ele>
        <time>2022-01-01T09:57:42Z</time>
      </trkpt>
      <trkpt lat="44.22593" lon="6.21051">
        <ele>1316.6</ele>
        <time>2022-01-01T09:57:47Z</time>
      </trkpt>
      <trkpt lat="44.22596" lon="6.2105">
        <ele>1316.8</ele>
        <time>2022-01-01T09:57:49Z</time>
      </trkpt>
      <trkpt lat="44.22597" lon="6.21049">
        <ele>1316.8</ele>
        <time>2022-01-01T09:57:51Z</time>
      </trkpt>
      <trkpt lat="44.22599" lon="6.21048">
        <ele>1317</ele>
        <time>2022-01-01T09:57:53Z</time>
      </trkpt>
      <trkpt lat="44.226" lon="6.21046">
        <ele>1317</ele>
        <time>2022-01-01T09:57:55Z</time>
      </trkpt>
      <trkpt lat="44.22602" lon="6.21047">
        <ele>1316.8</ele>
        <time>2022-01-01T09:57:58Z</time>
      </trkpt>
      <trkpt lat="44.22604" lon="6.21046">
        <ele>1316.6</ele>
        <time>2022-01-01T09:58:00Z</time>
      </trkpt>
      <trkpt lat="44.22605" lon="6.21046">
        <ele>1316.6</ele>
        <time>2022-01-01T09:58:01Z</time>
      </trkpt>
      <trkpt lat="44.22605" lon="6.21045">
        <ele>1316.6</ele>
        <time>2022-01-01T09:58:02Z</time>
      </trkpt>
      <trkpt lat="44.2261" lon="6.21046">
        <ele>1316.8</ele>
        <time>2022-01-01T09:58:05Z</time>
      </trkpt>
      <trkpt lat="44.22612" lon="6.21046">
        <ele>1317.2</ele>
        <time>2022-01-01T09:58:07Z</time>
      </trkpt>
      <trkpt lat="44.22613" lon="6.21046">
        <ele>1317.2</ele>
        <time>2022-01-01T09:58:08Z</time>
      </trkpt>
      <trkpt lat="44.22615" lon="6.21044">
        <ele>1317.4</ele>
        <time>2022-01-01T09:58:11Z</time>
      </trkpt>
      <trkpt lat="44.22619" lon="6.21038">
        <ele>1318.2</ele>
        <time>2022-01-01T09:58:21Z</time>
      </trkpt>
      <trkpt lat="44.22626" lon="6.21037">
        <ele>1318.6</ele>
        <time>2022-01-01T09:58:27Z</time>
      </trkpt>
      <trkpt lat="44.22628" lon="6.21038">
        <ele>1318.8</ele>
        <time>2022-01-01T09:58:29Z</time>
      </trkpt>
      <trkpt lat="44.22629" lon="6.21039">
        <ele>1319.2</ele>
        <time>2022-01-01T09:58:31Z</time>
      </trkpt>
      <trkpt lat="44.22631" lon="6.2104">
        <ele>1319.4</ele>
        <time>2022-01-01T09:58:32Z</time>
      </trkpt>
      <trkpt lat="44.22632" lon="6.21039">
        <ele>1320</ele>
        <time>2022-01-01T09:58:35Z</time>
      </trkpt>
      <trkpt lat="44.22633" lon="6.21039">
        <ele>1320.2</ele>
        <time>2022-01-01T09:58:36Z</time>
      </trkpt>
      <trkpt lat="44.22637" lon="6.21038">
        <ele>1320.8</ele>
        <time>2022-01-01T09:58:41Z</time>
      </trkpt>
      <trkpt lat="44.22644" lon="6.21037">
        <ele>1320.8</ele>
        <time>2022-01-01T09:58:50Z</time>
      </trkpt>
      <trkpt lat="44.22645" lon="6.21038">
        <ele>1321</ele>
        <time>2022-01-01T09:58:51Z</time>
      </trkpt>
      <trkpt lat="44.22646" lon="6.21039">
        <ele>1321.2</ele>
        <time>2022-01-01T09:58:53Z</time>
      </trkpt>
      <trkpt lat="44.22648" lon="6.21041">
        <ele>1321.8</ele>
        <time>2022-01-01T09:58:55Z</time>
      </trkpt>
      <trkpt lat="44.22651" lon="6.21042">
        <ele>1322.4</ele>
        <time>2022-01-01T09:58:59Z</time>
      </trkpt>
      <trkpt lat="44.22654" lon="6.21042">
        <ele>1322.6</ele>
        <time>2022-01-01T09:59:01Z</time>
      </trkpt>
      <trkpt lat="44.22659" lon="6.21043">
        <ele>1322.8</ele>
        <time>2022-01-01T09:59:06Z</time>
      </trkpt>
      <trkpt lat="44.22661" lon="6.21043">
        <ele>1322.6</ele>
        <time>2022-01-01T09:59:08Z</time>
      </trkpt>
      <trkpt lat="44.22663" lon="6.21044">
        <ele>1322.4</ele>
        <time>2022-01-01T09:59:11Z</time>
      </trkpt>
      <trkpt lat="44.22668" lon="6.21048">
        <ele>1322.2</ele>
        <time>2022-01-01T09:59:15Z</time>
      </trkpt>
      <trkpt lat="44.2267" lon="6.21048">
        <ele>1322.2</ele>
        <time>2022-01-01T09:59:17Z</time>
      </trkpt>
      <trkpt lat="44.22674" lon="6.21049">
        <ele>1322.2</ele>
        <time>2022-01-01T09:59:20Z</time>
      </trkpt>
      <trkpt lat="44.22674" lon="6.21049">
        <ele>1322</ele>
        <time>2022-01-01T09:59:21Z</time>
      </trkpt>
      <trkpt lat="44.22677" lon="6.21047">
        <ele>1322.2</ele>
        <time>2022-01-01T09:59:26Z</time>
      </trkpt>
      <trkpt lat="44.22679" lon="6.21045">
        <ele>1322</ele>
        <time>2022-01-01T09:59:29Z</time>
      </trkpt>
      <trkpt lat="44.22679" lon="6.21043">
        <ele>1321.8</ele>
        <time>2022-01-01T09:59:31Z</time>
      </trkpt>
      <trkpt lat="44.22679" lon="6.21043">
        <ele>1321.6</ele>
        <time>2022-01-01T09:59:32Z</time>
      </trkpt>
      <trkpt lat="44.22679" lon="6.21042">
        <ele>1321.4</ele>
        <time>2022-01-01T09:59:33Z</time>
      </trkpt>
      <trkpt lat="44.22681" lon="6.21038">
        <ele>1320.4</ele>
        <time>2022-01-01T09:59:40Z</time>
      </trkpt>
      <trkpt lat="44.22681" lon="6.21038">
        <ele>1320.4</ele>
        <time>2022-01-01T09:59:41Z</time>
      </trkpt>
      <trkpt lat="44.22684" lon="6.21035">
        <ele>1320.8</ele>
        <time>2022-01-01T09:59:48Z</time>
      </trkpt>
      <trkpt lat="44.22684" lon="6.21034">
        <ele>1320.8</ele>
        <time>2022-01-01T09:59:51Z</time>
      </trkpt>
      <trkpt lat="44.22685" lon="6.21031">
        <ele>1321</ele>
        <time>2022-01-01T10:00:01Z</time>
      </trkpt>
      <trkpt lat="44.22687" lon="6.21024">
        <ele>1322.6</ele>
        <time>2022-01-01T10:00:10Z</time>
      </trkpt>
      <trkpt lat="44.22688" lon="6.21023">
        <ele>1322.8</ele>
        <time>2022-01-01T10:00:11Z</time>
      </trkpt>
      <trkpt lat="44.22687" lon="6.21024">
        <ele>1323.6</ele>
        <time>2022-01-01T10:00:16Z</time>
      </trkpt>
      <trkpt lat="44.22688" lon="6.21029">
        <ele>1324.2</ele>
        <time>2022-01-01T10:00:21Z</time>
      </trkpt>
      <trkpt lat="44.22685" lon="6.21038">
        <ele>1324.4</ele>
        <time>2022-01-01T10:00:28Z</time>
      </trkpt>
      <trkpt lat="44.22687" lon="6.21037">
        <ele>1324.6</ele>
        <time>2022-01-01T10:00:31Z</time>
      </trkpt>
      <trkpt lat="44.22687" lon="6.21036">
        <ele>1324.8</ele>
        <time>2022-01-01T10:00:32Z</time>
      </trkpt>
      <trkpt lat="44.22691" lon="6.21033">
        <ele>1326</ele>
        <time>2022-01-01T10:00:37Z</time>
      </trkpt>
      <trkpt lat="44.22693" lon="6.21026">
        <ele>1326.4</ele>
        <time>2022-01-01T10:00:41Z</time>
      </trkpt>
      <trkpt lat="44.22695" lon="6.2102">
        <ele>1327</ele>
        <time>2022-01-01T10:00:45Z</time>
      </trkpt>
      <trkpt lat="44.22695" lon="6.21019">
        <ele>1327.2</ele>
        <time>2022-01-01T10:00:46Z</time>
      </trkpt>
      <trkpt lat="44.22697" lon="6.21016">
        <ele>1327.8</ele>
        <time>2022-01-01T10:00:49Z</time>
      </trkpt>
      <trkpt lat="44.22698" lon="6.21013">
        <ele>1328.2</ele>
        <time>2022-01-01T10:00:51Z</time>
      </trkpt>
      <trkpt lat="44.22704" lon="6.21005">
        <ele>1329</ele>
        <time>2022-01-01T10:01:00Z</time>
      </trkpt>
      <trkpt lat="44.22704" lon="6.21005">
        <ele>1329.2</ele>
        <time>2022-01-01T10:01:01Z</time>
      </trkpt>
      <trkpt lat="44.22706" lon="6.21003">
        <ele>1329.4</ele>
        <time>2022-01-01T10:01:03Z</time>
      </trkpt>
      <trkpt lat="44.22709" lon="6.20999">
        <ele>1330.2</ele>
        <time>2022-01-01T10:01:08Z</time>
      </trkpt>
      <trkpt lat="44.22709" lon="6.20997">
        <ele>1331.2</ele>
        <time>2022-01-01T10:01:11Z</time>
      </trkpt>
      <trkpt lat="44.22709" lon="6.20997">
        <ele>1331.4</ele>
        <time>2022-01-01T10:01:12Z</time>
      </trkpt>
      <trkpt lat="44.22716" lon="6.20992">
        <ele>1332.2</ele>
        <time>2022-01-01T10:01:21Z</time>
      </trkpt>
      <trkpt lat="44.22718" lon="6.20992">
        <ele>1332.2</ele>
        <time>2022-01-01T10:01:23Z</time>
      </trkpt>
      <trkpt lat="44.22721" lon="6.20989">
        <ele>1332</ele>
        <time>2022-01-01T10:01:29Z</time>
      </trkpt>
      <trkpt lat="44.22722" lon="6.20987">
        <ele>1332</ele>
        <time>2022-01-01T10:01:31Z</time>
      </trkpt>
      <trkpt lat="44.22731" lon="6.20986">
        <ele>1332.4</ele>
        <time>2022-01-01T10:01:37Z</time>
      </trkpt>
      <trkpt lat="44.22733" lon="6.20984">
        <ele>1332.4</ele>
        <time>2022-01-01T10:01:39Z</time>
      </trkpt>
      <trkpt lat="44.22735" lon="6.20983">
        <ele>1332.6</ele>
        <time>2022-01-01T10:01:41Z</time>
      </trkpt>
      <trkpt lat="44.22739" lon="6.20982">
        <ele>1332.6</ele>
        <time>2022-01-01T10:01:45Z</time>
      </trkpt>
      <trkpt lat="44.22741" lon="6.20981">
        <ele>1332.6</ele>
        <time>2022-01-01T10:01:48Z</time>
      </trkpt>
      <trkpt lat="44.22742" lon="6.20979">
        <ele>1333</ele>
        <time>2022-01-01T10:01:51Z</time>
      </trkpt>
      <trkpt lat="44.22747" lon="6.20976">
        <ele>1333.6</ele>
        <time>2022-01-01T10:01:57Z</time>
      </trkpt>
      <trkpt lat="44.22749" lon="6.20973">
        <ele>1334</ele>
        <time>2022-01-01T10:02:01Z</time>
      </trkpt>
      <trkpt lat="44.22755" lon="6.20967">
        <ele>1334</ele>
        <time>2022-01-01T10:02:06Z</time>
      </trkpt>
      <trkpt lat="44.22761" lon="6.20965">
        <ele>1334.6</ele>
        <time>2022-01-01T10:02:11Z</time>
      </trkpt>
      <trkpt lat="44.22766" lon="6.20962">
        <ele>1334.6</ele>
        <time>2022-01-01T10:02:14Z</time>
      </trkpt>
      <trkpt lat="44.22772" lon="6.20958">
        <ele>1335.2</ele>
        <time>2022-01-01T10:02:21Z</time>
      </trkpt>
      <trkpt lat="44.22773" lon="6.20958">
        <ele>1335.2</ele>
        <time>2022-01-01T10:02:22Z</time>
      </trkpt>
      <trkpt lat="44.22776" lon="6.20957">
        <ele>1335.2</ele>
        <time>2022-01-01T10:02:25Z</time>
      </trkpt>
      <trkpt lat="44.22779" lon="6.20953">
        <ele>1335.4</ele>
        <time>2022-01-01T10:02:30Z</time>
      </trkpt>
      <trkpt lat="44.2278" lon="6.20952">
        <ele>1335.4</ele>
        <time>2022-01-01T10:02:31Z</time>
      </trkpt>
      <trkpt lat="44.22781" lon="6.2095">
        <ele>1335.4</ele>
        <time>2022-01-01T10:02:32Z</time>
      </trkpt>
      <trkpt lat="44.22783" lon="6.20948">
        <ele>1335.6</ele>
        <time>2022-01-01T10:02:34Z</time>
      </trkpt>
      <trkpt lat="44.22786" lon="6.20947">
        <ele>1335.8</ele>
        <time>2022-01-01T10:02:36Z</time>
      </trkpt>
      <trkpt lat="44.22791" lon="6.20943">
        <ele>1335.8</ele>
        <time>2022-01-01T10:02:41Z</time>
      </trkpt>
      <trkpt lat="44.22795" lon="6.2094">
        <ele>1336</ele>
        <time>2022-01-01T10:02:44Z</time>
      </trkpt>
      <trkpt lat="44.22799" lon="6.20936">
        <ele>1336.2</ele>
        <time>2022-01-01T10:02:48Z</time>
      </trkpt>
      <trkpt lat="44.22801" lon="6.20934">
        <ele>1336.6</ele>
        <time>2022-01-01T10:02:51Z</time>
      </trkpt>
      <trkpt lat="44.22801" lon="6.20934">
        <ele>1336.6</ele>
        <time>2022-01-01T10:02:52Z</time>
      </trkpt>
      <trkpt lat="44.22803" lon="6.20931">
        <ele>1336.6</ele>
        <time>2022-01-01T10:02:57Z</time>
      </trkpt>
      <trkpt lat="44.22806" lon="6.20931">
        <ele>1336.4</ele>
        <time>2022-01-01T10:03:01Z</time>
      </trkpt>
      <trkpt lat="44.22812" lon="6.20935">
        <ele>1336.8</ele>
        <time>2022-01-01T10:03:07Z</time>
      </trkpt>
      <trkpt lat="44.22815" lon="6.20936">
        <ele>1337.4</ele>
        <time>2022-01-01T10:03:11Z</time>
      </trkpt>
      <trkpt lat="44.22815" lon="6.20936">
        <ele>1337.6</ele>
        <time>2022-01-01T10:03:12Z</time>
      </trkpt>
      <trkpt lat="44.22818" lon="6.20939">
        <ele>1337.8</ele>
        <time>2022-01-01T10:03:14Z</time>
      </trkpt>
      <trkpt lat="44.2282" lon="6.20943">
        <ele>1338</ele>
        <time>2022-01-01T10:03:16Z</time>
      </trkpt>
      <trkpt lat="44.22824" lon="6.20948">
        <ele>1338</ele>
        <time>2022-01-01T10:03:20Z</time>
      </trkpt>
      <trkpt lat="44.22826" lon="6.20948">
        <ele>1338</ele>
        <time>2022-01-01T10:03:21Z</time>
      </trkpt>
      <trkpt lat="44.22827" lon="6.20949">
        <ele>1337.8</ele>
        <time>2022-01-01T10:03:22Z</time>
      </trkpt>
      <trkpt lat="44.22829" lon="6.2095">
        <ele>1338</ele>
        <time>2022-01-01T10:03:24Z</time>
      </trkpt>
      <trkpt lat="44.22835" lon="6.20952">
        <ele>1338.2</ele>
        <time>2022-01-01T10:03:29Z</time>
      </trkpt>
      <trkpt lat="44.22836" lon="6.20952">
        <ele>1338.2</ele>
        <time>2022-01-01T10:03:31Z</time>
      </trkpt>
      <trkpt lat="44.22839" lon="6.20953">
        <ele>1338.2</ele>
        <time>2022-01-01T10:03:34Z</time>
      </trkpt>
      <trkpt lat="44.22843" lon="6.20952">
        <ele>1338.8</ele>
        <time>2022-01-01T10:03:38Z</time>
      </trkpt>
      <trkpt lat="44.22844" lon="6.20952">
        <ele>1338.8</ele>
        <time>2022-01-01T10:03:39Z</time>
      </trkpt>
      <trkpt lat="44.22846" lon="6.20952">
        <ele>1339</ele>
        <time>2022-01-01T10:03:41Z</time>
      </trkpt>
      <trkpt lat="44.22852" lon="6.2095">
        <ele>1340</ele>
        <time>2022-01-01T10:03:48Z</time>
      </trkpt>
      <trkpt lat="44.22853" lon="6.20949">
        <ele>1340.4</ele>
        <time>2022-01-01T10:03:51Z</time>
      </trkpt>
      <trkpt lat="44.22855" lon="6.2095">
        <ele>1340.6</ele>
        <time>2022-01-01T10:03:53Z</time>
      </trkpt>
      <trkpt lat="44.22857" lon="6.20951">
        <ele>1340.8</ele>
        <time>2022-01-01T10:03:55Z</time>
      </trkpt>
      <trkpt lat="44.22858" lon="6.20951">
        <ele>1341</ele>
        <time>2022-01-01T10:03:57Z</time>
      </trkpt>
      <trkpt lat="44.22863" lon="6.20951">
        <ele>1341.4</ele>
        <time>2022-01-01T10:04:01Z</time>
      </trkpt>
      <trkpt lat="44.22872" lon="6.20951">
        <ele>1341.8</ele>
        <time>2022-01-01T10:04:09Z</time>
      </trkpt>
      <trkpt lat="44.22873" lon="6.20951">
        <ele>1342.2</ele>
        <time>2022-01-01T10:04:11Z</time>
      </trkpt>
      <trkpt lat="44.22874" lon="6.20951">
        <ele>1342.4</ele>
        <time>2022-01-01T10:04:12Z</time>
      </trkpt>
      <trkpt lat="44.22876" lon="6.20951">
        <ele>1342.8</ele>
        <time>2022-01-01T10:04:15Z</time>
      </trkpt>
      <trkpt lat="44.22879" lon="6.20949">
        <ele>1343.2</ele>
        <time>2022-01-01T10:04:19Z</time>
      </trkpt>
      <trkpt lat="44.2288" lon="6.20947">
        <ele>1343.6</ele>
        <time>2022-01-01T10:04:21Z</time>
      </trkpt>
      <trkpt lat="44.22883" lon="6.20944">
        <ele>1343.8</ele>
        <time>2022-01-01T10:04:24Z</time>
      </trkpt>
      <trkpt lat="44.22885" lon="6.20943">
        <ele>1344.4</ele>
        <time>2022-01-01T10:04:26Z</time>
      </trkpt>
      <trkpt lat="44.22886" lon="6.20942">
        <ele>1344.6</ele>
        <time>2022-01-01T10:04:27Z</time>
      </trkpt>
      <trkpt lat="44.22889" lon="6.2094">
        <ele>1345.4</ele>
        <time>2022-01-01T10:04:31Z</time>
      </trkpt>
      <trkpt lat="44.2289" lon="6.2094">
        <ele>1345.4</ele>
        <time>2022-01-01T10:04:32Z</time>
      </trkpt>
      <trkpt lat="44.22897" lon="6.20942">
        <ele>1346.6</ele>
        <time>2022-01-01T10:04:39Z</time>
      </trkpt>
      <trkpt lat="44.22898" lon="6.20941">
        <ele>1346.8</ele>
        <time>2022-01-01T10:04:41Z</time>
      </trkpt>
      <trkpt lat="44.229" lon="6.20941">
        <ele>1347.2</ele>
        <time>2022-01-01T10:04:44Z</time>
      </trkpt>
      <trkpt lat="44.22901" lon="6.20941">
        <ele>1347.6</ele>
        <time>2022-01-01T10:04:46Z</time>
      </trkpt>
      <trkpt lat="44.22903" lon="6.20941">
        <ele>1347.6</ele>
        <time>2022-01-01T10:04:47Z</time>
      </trkpt>
      <trkpt lat="44.22906" lon="6.20943">
        <ele>1348</ele>
        <time>2022-01-01T10:04:51Z</time>
      </trkpt>
      <trkpt lat="44.22908" lon="6.20943">
        <ele>1348.2</ele>
        <time>2022-01-01T10:04:53Z</time>
      </trkpt>
      <trkpt lat="44.2291" lon="6.20945">
        <ele>1348.6</ele>
        <time>2022-01-01T10:04:58Z</time>
      </trkpt>
      <trkpt lat="44.2291" lon="6.20945">
        <ele>1348.8</ele>
        <time>2022-01-01T10:04:59Z</time>
      </trkpt>
      <trkpt lat="44.22912" lon="6.20944">
        <ele>1349.2</ele>
        <time>2022-01-01T10:05:01Z</time>
      </trkpt>
      <trkpt lat="44.22915" lon="6.20943">
        <ele>1349.8</ele>
        <time>2022-01-01T10:05:04Z</time>
      </trkpt>
      <trkpt lat="44.22922" lon="6.20941">
        <ele>1350.8</ele>
        <time>2022-01-01T10:05:10Z</time>
      </trkpt>
      <trkpt lat="44.22923" lon="6.2094">
        <ele>1351</ele>
        <time>2022-01-01T10:05:11Z</time>
      </trkpt>
      <trkpt lat="44.22926" lon="6.20937">
        <ele>1351.4</ele>
        <time>2022-01-01T10:05:15Z</time>
      </trkpt>
      <trkpt lat="44.22929" lon="6.20934">
        <ele>1352</ele>
        <time>2022-01-01T10:05:18Z</time>
      </trkpt>
      <trkpt lat="44.22929" lon="6.20933">
        <ele>1352</ele>
        <time>2022-01-01T10:05:19Z</time>
      </trkpt>
      <trkpt lat="44.2293" lon="6.20932">
        <ele>1352.2</ele>
        <time>2022-01-01T10:05:20Z</time>
      </trkpt>
      <trkpt lat="44.2293" lon="6.20931">
        <ele>1352.2</ele>
        <time>2022-01-01T10:05:21Z</time>
      </trkpt>
      <trkpt lat="44.22932" lon="6.20929">
        <ele>1352.6</ele>
        <time>2022-01-01T10:05:23Z</time>
      </trkpt>
      <trkpt lat="44.22932" lon="6.20928">
        <ele>1352.8</ele>
        <time>2022-01-01T10:05:24Z</time>
      </trkpt>
      <trkpt lat="44.22933" lon="6.20927">
        <ele>1353</ele>
        <time>2022-01-01T10:05:25Z</time>
      </trkpt>
      <trkpt lat="44.22934" lon="6.20926">
        <ele>1353</ele>
        <time>2022-01-01T10:05:26Z</time>
      </trkpt>
      <trkpt lat="44.22935" lon="6.20926">
        <ele>1353.2</ele>
        <time>2022-01-01T10:05:27Z</time>
      </trkpt>
      <trkpt lat="44.22936" lon="6.20925">
        <ele>1353.2</ele>
        <time>2022-01-01T10:05:28Z</time>
      </trkpt>
      <trkpt lat="44.22936" lon="6.20924">
        <ele>1353.4</ele>
        <time>2022-01-01T10:05:29Z</time>
      </trkpt>
      <trkpt lat="44.22938" lon="6.20923">
        <ele>1353.4</ele>
        <time>2022-01-01T10:05:31Z</time>
      </trkpt>
      <trkpt lat="44.22941" lon="6.20921">
        <ele>1354</ele>
        <time>2022-01-01T10:05:35Z</time>
      </trkpt>
      <trkpt lat="44.22943" lon="6.20921">
        <ele>1354</ele>
        <time>2022-01-01T10:05:36Z</time>
      </trkpt>
      <trkpt lat="44.22945" lon="6.20921">
        <ele>1354.4</ele>
        <time>2022-01-01T10:05:38Z</time>
      </trkpt>
      <trkpt lat="44.22949" lon="6.2092">
        <ele>1354.6</ele>
        <time>2022-01-01T10:05:41Z</time>
      </trkpt>
      <trkpt lat="44.22952" lon="6.20918">
        <ele>1355.2</ele>
        <time>2022-01-01T10:05:44Z</time>
      </trkpt>
      <trkpt lat="44.22952" lon="6.20915">
        <ele>1355.4</ele>
        <time>2022-01-01T10:05:48Z</time>
      </trkpt>
      <trkpt lat="44.22953" lon="6.20912">
        <ele>1355.8</ele>
        <time>2022-01-01T10:05:50Z</time>
      </trkpt>
      <trkpt lat="44.22953" lon="6.20912">
        <ele>1355.8</ele>
        <time>2022-01-01T10:05:51Z</time>
      </trkpt>
      <trkpt lat="44.22953" lon="6.2091">
        <ele>1356</ele>
        <time>2022-01-01T10:05:52Z</time>
      </trkpt>
      <trkpt lat="44.22954" lon="6.2091">
        <ele>1356.2</ele>
        <time>2022-01-01T10:05:53Z</time>
      </trkpt>
      <trkpt lat="44.22955" lon="6.20909">
        <ele>1356.6</ele>
        <time>2022-01-01T10:05:55Z</time>
      </trkpt>
      <trkpt lat="44.22958" lon="6.20906">
        <ele>1357.2</ele>
        <time>2022-01-01T10:06:00Z</time>
      </trkpt>
      <trkpt lat="44.22959" lon="6.20906">
        <ele>1357.4</ele>
        <time>2022-01-01T10:06:01Z</time>
      </trkpt>
      <trkpt lat="44.22959" lon="6.20906">
        <ele>1357.4</ele>
        <time>2022-01-01T10:06:02Z</time>
      </trkpt>
      <trkpt lat="44.22961" lon="6.20906">
        <ele>1357.8</ele>
        <time>2022-01-01T10:06:04Z</time>
      </trkpt>
      <trkpt lat="44.22965" lon="6.20904">
        <ele>1358.2</ele>
        <time>2022-01-01T10:06:09Z</time>
      </trkpt>
      <trkpt lat="44.22966" lon="6.20903">
        <ele>1358.6</ele>
        <time>2022-01-01T10:06:11Z</time>
      </trkpt>
      <trkpt lat="44.22972" lon="6.20897">
        <ele>1359.4</ele>
        <time>2022-01-01T10:06:18Z</time>
      </trkpt>
      <trkpt lat="44.22972" lon="6.20897">
        <ele>1359.6</ele>
        <time>2022-01-01T10:06:19Z</time>
      </trkpt>
      <trkpt lat="44.22973" lon="6.20894">
        <ele>1359.8</ele>
        <time>2022-01-01T10:06:21Z</time>
      </trkpt>
      <trkpt lat="44.22974" lon="6.20893">
        <ele>1360</ele>
        <time>2022-01-01T10:06:23Z</time>
      </trkpt>
      <trkpt lat="44.22977" lon="6.20889">
        <ele>1360.4</ele>
        <time>2022-01-01T10:06:27Z</time>
      </trkpt>
      <trkpt lat="44.22979" lon="6.20886">
        <ele>1361</ele>
        <time>2022-01-01T10:06:31Z</time>
      </trkpt>
      <trkpt lat="44.2298" lon="6.20885">
        <ele>1361.6</ele>
        <time>2022-01-01T10:06:34Z</time>
      </trkpt>
      <trkpt lat="44.22984" lon="6.20882">
        <ele>1362.2</ele>
        <time>2022-01-01T10:06:38Z</time>
      </trkpt>
      <trkpt lat="44.22986" lon="6.2088">
        <ele>1362.6</ele>
        <time>2022-01-01T10:06:40Z</time>
      </trkpt>
      <trkpt lat="44.22987" lon="6.20879">
        <ele>1362.8</ele>
        <time>2022-01-01T10:06:41Z</time>
      </trkpt>
      <trkpt lat="44.22988" lon="6.20878">
        <ele>1363</ele>
        <time>2022-01-01T10:06:43Z</time>
      </trkpt>
      <trkpt lat="44.22996" lon="6.20876">
        <ele>1363.4</ele>
        <time>2022-01-01T10:06:51Z</time>
      </trkpt>
      <trkpt lat="44.22999" lon="6.20875">
        <ele>1363.4</ele>
        <time>2022-01-01T10:06:53Z</time>
      </trkpt>
      <trkpt lat="44.23002" lon="6.20873">
        <ele>1363.6</ele>
        <time>2022-01-01T10:06:56Z</time>
      </trkpt>
      <trkpt lat="44.23004" lon="6.20873">
        <ele>1364</ele>
        <time>2022-01-01T10:06:58Z</time>
      </trkpt>
      <trkpt lat="44.23006" lon="6.20872">
        <ele>1364.2</ele>
        <time>2022-01-01T10:07:01Z</time>
      </trkpt>
      <trkpt lat="44.23008" lon="6.20871">
        <ele>1364.6</ele>
        <time>2022-01-01T10:07:04Z</time>
      </trkpt>
      <trkpt lat="44.23012" lon="6.2087">
        <ele>1365</ele>
        <time>2022-01-01T10:07:08Z</time>
      </trkpt>
      <trkpt lat="44.23017" lon="6.20867">
        <ele>1365.4</ele>
        <time>2022-01-01T10:07:11Z</time>
      </trkpt>
      <trkpt lat="44.23019" lon="6.20867">
        <ele>1365.6</ele>
        <time>2022-01-01T10:07:13Z</time>
      </trkpt>
      <trkpt lat="44.23023" lon="6.20865">
        <ele>1366.2</ele>
        <time>2022-01-01T10:07:16Z</time>
      </trkpt>
      <trkpt lat="44.23025" lon="6.20864">
        <ele>1366.4</ele>
        <time>2022-01-01T10:07:18Z</time>
      </trkpt>
      <trkpt lat="44.23029" lon="6.20864">
        <ele>1367</ele>
        <time>2022-01-01T10:07:21Z</time>
      </trkpt>
      <trkpt lat="44.23031" lon="6.20862">
        <ele>1367.2</ele>
        <time>2022-01-01T10:07:23Z</time>
      </trkpt>
      <trkpt lat="44.23032" lon="6.20861">
        <ele>1367.4</ele>
        <time>2022-01-01T10:07:24Z</time>
      </trkpt>
      <trkpt lat="44.23034" lon="6.2086">
        <ele>1367.6</ele>
        <time>2022-01-01T10:07:26Z</time>
      </trkpt>
      <trkpt lat="44.23036" lon="6.20859">
        <ele>1367.6</ele>
        <time>2022-01-01T10:07:28Z</time>
      </trkpt>
      <trkpt lat="44.23038" lon="6.20857">
        <ele>1368</ele>
        <time>2022-01-01T10:07:30Z</time>
      </trkpt>
      <trkpt lat="44.23039" lon="6.20856">
        <ele>1368.4</ele>
        <time>2022-01-01T10:07:31Z</time>
      </trkpt>
      <trkpt lat="44.23039" lon="6.20855">
        <ele>1368.6</ele>
        <time>2022-01-01T10:07:32Z</time>
      </trkpt>
      <trkpt lat="44.2304" lon="6.20855">
        <ele>1368.6</ele>
        <time>2022-01-01T10:07:33Z</time>
      </trkpt>
      <trkpt lat="44.23045" lon="6.2085">
        <ele>1369.6</ele>
        <time>2022-01-01T10:07:39Z</time>
      </trkpt>
      <trkpt lat="44.23046" lon="6.20849">
        <ele>1369.8</ele>
        <time>2022-01-01T10:07:41Z</time>
      </trkpt>
      <trkpt lat="44.23048" lon="6.20845">
        <ele>1370.4</ele>
        <time>2022-01-01T10:07:45Z</time>
      </trkpt>
      <trkpt lat="44.23048" lon="6.20843">
        <ele>1370.6</ele>
        <time>2022-01-01T10:07:46Z</time>
      </trkpt>
      <trkpt lat="44.23048" lon="6.20838">
        <ele>1371.4</ele>
        <time>2022-01-01T10:07:51Z</time>
      </trkpt>
      <trkpt lat="44.23049" lon="6.20837">
        <ele>1371.6</ele>
        <time>2022-01-01T10:07:52Z</time>
      </trkpt>
      <trkpt lat="44.23052" lon="6.20833">
        <ele>1372.8</ele>
        <time>2022-01-01T10:07:56Z</time>
      </trkpt>
      <trkpt lat="44.23055" lon="6.20831">
        <ele>1373</ele>
        <time>2022-01-01T10:07:59Z</time>
      </trkpt>
      <trkpt lat="44.23058" lon="6.20829">
        <ele>1373.6</ele>
        <time>2022-01-01T10:08:01Z</time>
      </trkpt>
      <trkpt lat="44.23058" lon="6.20829">
        <ele>1374</ele>
        <time>2022-01-01T10:08:02Z</time>
      </trkpt>
      <trkpt lat="44.23059" lon="6.20827">
        <ele>1374.6</ele>
        <time>2022-01-01T10:08:05Z</time>
      </trkpt>
      <trkpt lat="44.2306" lon="6.20826">
        <ele>1374.8</ele>
        <time>2022-01-01T10:08:06Z</time>
      </trkpt>
      <trkpt lat="44.23061" lon="6.20826">
        <ele>1374.8</ele>
        <time>2022-01-01T10:08:07Z</time>
      </trkpt>
      <trkpt lat="44.23062" lon="6.20825">
        <ele>1375</ele>
        <time>2022-01-01T10:08:08Z</time>
      </trkpt>
      <trkpt lat="44.23064" lon="6.20825">
        <ele>1375.2</ele>
        <time>2022-01-01T10:08:11Z</time>
      </trkpt>
      <trkpt lat="44.23067" lon="6.20824">
        <ele>1375.8</ele>
        <time>2022-01-01T10:08:17Z</time>
      </trkpt>
      <trkpt lat="44.23067" lon="6.20824">
        <ele>1376</ele>
        <time>2022-01-01T10:08:18Z</time>
      </trkpt>
      <trkpt lat="44.23068" lon="6.20824">
        <ele>1376.4</ele>
        <time>2022-01-01T10:08:21Z</time>
      </trkpt>
      <trkpt lat="44.23069" lon="6.20824">
        <ele>1376.8</ele>
        <time>2022-01-01T10:08:25Z</time>
      </trkpt>
      <trkpt lat="44.2307" lon="6.20825">
        <ele>1377</ele>
        <time>2022-01-01T10:08:30Z</time>
      </trkpt>
      <trkpt lat="44.2307" lon="6.20825">
        <ele>1377</ele>
        <time>2022-01-01T10:08:31Z</time>
      </trkpt>
      <trkpt lat="44.2307" lon="6.20825">
        <ele>1377</ele>
        <time>2022-01-01T10:08:32Z</time>
      </trkpt>
      <trkpt lat="44.2307" lon="6.20826">
        <ele>1377</ele>
        <time>2022-01-01T10:08:33Z</time>
      </trkpt>
      <trkpt lat="44.23071" lon="6.20826">
        <ele>1377.6</ele>
        <time>2022-01-01T10:08:41Z</time>
      </trkpt>
      <trkpt lat="44.23071" lon="6.20826">
        <ele>1377</ele>
        <time>2022-01-01T10:08:51Z</time>
      </trkpt>
      <trkpt lat="44.23069" lon="6.20828">
        <ele>1376.6</ele>
        <time>2022-01-01T10:09:01Z</time>
      </trkpt>
      <trkpt lat="44.23069" lon="6.20828">
        <ele>1376.4</ele>
        <time>2022-01-01T10:09:05Z</time>
      </trkpt>
      <trkpt lat="44.23069" lon="6.20829">
        <ele>1376.4</ele>
        <time>2022-01-01T10:09:07Z</time>
      </trkpt>
      <trkpt lat="44.2307" lon="6.20828">
        <ele>1376.4</ele>
        <time>2022-01-01T10:09:09Z</time>
      </trkpt>
      <trkpt lat="44.23071" lon="6.2083">
        <ele>1376.4</ele>
        <time>2022-01-01T10:09:11Z</time>
      </trkpt>
      <trkpt lat="44.23075" lon="6.20833">
        <ele>1377.4</ele>
        <time>2022-01-01T10:09:17Z</time>
      </trkpt>
      <trkpt lat="44.23076" lon="6.20836">
        <ele>1377.6</ele>
        <time>2022-01-01T10:09:19Z</time>
      </trkpt>
      <trkpt lat="44.23077" lon="6.20839">
        <ele>1378</ele>
        <time>2022-01-01T10:09:21Z</time>
      </trkpt>
      <trkpt lat="44.23078" lon="6.20841">
        <ele>1378.4</ele>
        <time>2022-01-01T10:09:22Z</time>
      </trkpt>
      <trkpt lat="44.23078" lon="6.20842">
        <ele>1378.6</ele>
        <time>2022-01-01T10:09:23Z</time>
      </trkpt>
      <trkpt lat="44.23079" lon="6.20844">
        <ele>1379.2</ele>
        <time>2022-01-01T10:09:25Z</time>
      </trkpt>
      <trkpt lat="44.23082" lon="6.20846">
        <ele>1379.6</ele>
        <time>2022-01-01T10:09:27Z</time>
      </trkpt>
      <trkpt lat="44.23083" lon="6.20846">
        <ele>1379.8</ele>
        <time>2022-01-01T10:09:28Z</time>
      </trkpt>
      <trkpt lat="44.23083" lon="6.20848">
        <ele>1380.4</ele>
        <time>2022-01-01T10:09:30Z</time>
      </trkpt>
      <trkpt lat="44.23083" lon="6.20848">
        <ele>1380.6</ele>
        <time>2022-01-01T10:09:31Z</time>
      </trkpt>
      <trkpt lat="44.23084" lon="6.20848">
        <ele>1381</ele>
        <time>2022-01-01T10:09:32Z</time>
      </trkpt>
      <trkpt lat="44.23085" lon="6.20848">
        <ele>1381.2</ele>
        <time>2022-01-01T10:09:33Z</time>
      </trkpt>
      <trkpt lat="44.23086" lon="6.20848">
        <ele>1381.4</ele>
        <time>2022-01-01T10:09:34Z</time>
      </trkpt>
      <trkpt lat="44.23088" lon="6.20849">
        <ele>1381.8</ele>
        <time>2022-01-01T10:09:36Z</time>
      </trkpt>
      <trkpt lat="44.23092" lon="6.20851">
        <ele>1382.2</ele>
        <time>2022-01-01T10:09:41Z</time>
      </trkpt>
      <trkpt lat="44.23093" lon="6.20851">
        <ele>1382.4</ele>
        <time>2022-01-01T10:09:43Z</time>
      </trkpt>
      <trkpt lat="44.23095" lon="6.20851">
        <ele>1382.8</ele>
        <time>2022-01-01T10:09:46Z</time>
      </trkpt>
      <trkpt lat="44.23096" lon="6.20851">
        <ele>1383</ele>
        <time>2022-01-01T10:09:47Z</time>
      </trkpt>
      <trkpt lat="44.23096" lon="6.20846">
        <ele>1383.6</ele>
        <time>2022-01-01T10:09:53Z</time>
      </trkpt>
      <trkpt lat="44.23095" lon="6.20845">
        <ele>1384</ele>
        <time>2022-01-01T10:09:55Z</time>
      </trkpt>
      <trkpt lat="44.23094" lon="6.20837">
        <ele>1385</ele>
        <time>2022-01-01T10:10:02Z</time>
      </trkpt>
      <trkpt lat="44.23094" lon="6.20836">
        <ele>1385.2</ele>
        <time>2022-01-01T10:10:03Z</time>
      </trkpt>
      <trkpt lat="44.23095" lon="6.20834">
        <ele>1386.2</ele>
        <time>2022-01-01T10:10:06Z</time>
      </trkpt>
      <trkpt lat="44.23098" lon="6.20833">
        <ele>1387.2</ele>
        <time>2022-01-01T10:10:12Z</time>
      </trkpt>
      <trkpt lat="44.23099" lon="6.20833">
        <ele>1387.4</ele>
        <time>2022-01-01T10:10:13Z</time>
      </trkpt>
      <trkpt lat="44.23102" lon="6.20834">
        <ele>1388.4</ele>
        <time>2022-01-01T10:10:19Z</time>
      </trkpt>
      <trkpt lat="44.23104" lon="6.20831">
        <ele>1389</ele>
        <time>2022-01-01T10:10:23Z</time>
      </trkpt>
      <trkpt lat="44.23105" lon="6.20831">
        <ele>1389.4</ele>
        <time>2022-01-01T10:10:25Z</time>
      </trkpt>
      <trkpt lat="44.23107" lon="6.20827">
        <ele>1390.4</ele>
        <time>2022-01-01T10:10:32Z</time>
      </trkpt>
      <trkpt lat="44.23107" lon="6.20827">
        <ele>1390.6</ele>
        <time>2022-01-01T10:10:33Z</time>
      </trkpt>
      <trkpt lat="44.23109" lon="6.20826">
        <ele>1391.4</ele>
        <time>2022-01-01T10:10:38Z</time>
      </trkpt>
      <trkpt lat="44.23112" lon="6.20825">
        <ele>1392.2</ele>
        <time>2022-01-01T10:10:43Z</time>
      </trkpt>
      <trkpt lat="44.23113" lon="6.20824">
        <ele>1392.6</ele>
        <time>2022-01-01T10:10:45Z</time>
      </trkpt>
      <trkpt lat="44.23116" lon="6.20819">
        <ele>1393.6</ele>
        <time>2022-01-01T10:10:52Z</time>
      </trkpt>
      <trkpt lat="44.23116" lon="6.20819">
        <ele>1393.8</ele>
        <time>2022-01-01T10:10:53Z</time>
      </trkpt>
      <trkpt lat="44.23117" lon="6.20818">
        <ele>1394.8</ele>
        <time>2022-01-01T10:10:57Z</time>
      </trkpt>
      <trkpt lat="44.23118" lon="6.20816">
        <ele>1395.8</ele>
        <time>2022-01-01T10:11:01Z</time>
      </trkpt>
      <trkpt lat="44.23117" lon="6.20814">
        <ele>1396</ele>
        <time>2022-01-01T10:11:03Z</time>
      </trkpt>
      <trkpt lat="44.23117" lon="6.2081">
        <ele>1397</ele>
        <time>2022-01-01T10:11:08Z</time>
      </trkpt>
      <trkpt lat="44.23115" lon="6.20807">
        <ele>1397.4</ele>
        <time>2022-01-01T10:11:13Z</time>
      </trkpt>
      <trkpt lat="44.23113" lon="6.20804">
        <ele>1398.2</ele>
        <time>2022-01-01T10:11:20Z</time>
      </trkpt>
      <trkpt lat="44.23112" lon="6.208">
        <ele>1398.6</ele>
        <time>2022-01-01T10:11:23Z</time>
      </trkpt>
      <trkpt lat="44.23111" lon="6.20795">
        <ele>1399.4</ele>
        <time>2022-01-01T10:11:28Z</time>
      </trkpt>
      <trkpt lat="44.23112" lon="6.20791">
        <ele>1400.2</ele>
        <time>2022-01-01T10:11:33Z</time>
      </trkpt>
      <trkpt lat="44.23114" lon="6.20788">
        <ele>1400.4</ele>
        <time>2022-01-01T10:11:35Z</time>
      </trkpt>
      <trkpt lat="44.23113" lon="6.20782">
        <ele>1401.4</ele>
        <time>2022-01-01T10:11:42Z</time>
      </trkpt>
      <trkpt lat="44.23113" lon="6.20781">
        <ele>1401.6</ele>
        <time>2022-01-01T10:11:43Z</time>
      </trkpt>
      <trkpt lat="44.23111" lon="6.20777">
        <ele>1402.6</ele>
        <time>2022-01-01T10:11:47Z</time>
      </trkpt>
      <trkpt lat="44.2311" lon="6.20774">
        <ele>1403.6</ele>
        <time>2022-01-01T10:11:53Z</time>
      </trkpt>
      <trkpt lat="44.23111" lon="6.20765">
        <ele>1404.8</ele>
        <time>2022-01-01T10:12:01Z</time>
      </trkpt>
      <trkpt lat="44.23111" lon="6.20763">
        <ele>1405.2</ele>
        <time>2022-01-01T10:12:03Z</time>
      </trkpt>
      <trkpt lat="44.23113" lon="6.20757">
        <ele>1406</ele>
        <time>2022-01-01T10:12:08Z</time>
      </trkpt>
      <trkpt lat="44.23113" lon="6.20752">
        <ele>1406.8</ele>
        <time>2022-01-01T10:12:13Z</time>
      </trkpt>
      <trkpt lat="44.23114" lon="6.2075">
        <ele>1407.2</ele>
        <time>2022-01-01T10:12:15Z</time>
      </trkpt>
      <trkpt lat="44.23114" lon="6.20747">
        <ele>1408.6</ele>
        <time>2022-01-01T10:12:18Z</time>
      </trkpt>
      <trkpt lat="44.23115" lon="6.20742">
        <ele>1409.6</ele>
        <time>2022-01-01T10:12:23Z</time>
      </trkpt>
      <trkpt lat="44.23117" lon="6.20731">
        <ele>1410.4</ele>
        <time>2022-01-01T10:12:31Z</time>
      </trkpt>
      <trkpt lat="44.23116" lon="6.20729">
        <ele>1410.6</ele>
        <time>2022-01-01T10:12:33Z</time>
      </trkpt>
      <trkpt lat="44.23117" lon="6.20727">
        <ele>1411</ele>
        <time>2022-01-01T10:12:37Z</time>
      </trkpt>
      <trkpt lat="44.23119" lon="6.20727">
        <ele>1411.4</ele>
        <time>2022-01-01T10:12:39Z</time>
      </trkpt>
      <trkpt lat="44.23121" lon="6.20726">
        <ele>1411.8</ele>
        <time>2022-01-01T10:12:41Z</time>
      </trkpt>
      <trkpt lat="44.23124" lon="6.20725">
        <ele>1412.2</ele>
        <time>2022-01-01T10:12:43Z</time>
      </trkpt>
      <trkpt lat="44.23125" lon="6.20723">
        <ele>1412.2</ele>
        <time>2022-01-01T10:12:45Z</time>
      </trkpt>
      <trkpt lat="44.23128" lon="6.20721">
        <ele>1412.6</ele>
        <time>2022-01-01T10:12:48Z</time>
      </trkpt>
      <trkpt lat="44.23128" lon="6.2072">
        <ele>1412.8</ele>
        <time>2022-01-01T10:12:49Z</time>
      </trkpt>
      <trkpt lat="44.23129" lon="6.2072">
        <ele>1413.2</ele>
        <time>2022-01-01T10:12:50Z</time>
      </trkpt>
      <trkpt lat="44.23131" lon="6.20716">
        <ele>1413.8</ele>
        <time>2022-01-01T10:12:53Z</time>
      </trkpt>
      <trkpt lat="44.23132" lon="6.20714">
        <ele>1414</ele>
        <time>2022-01-01T10:12:55Z</time>
      </trkpt>
      <trkpt lat="44.23134" lon="6.2071">
        <ele>1414.4</ele>
        <time>2022-01-01T10:12:59Z</time>
      </trkpt>
      <trkpt lat="44.23137" lon="6.20709">
        <ele>1414.8</ele>
        <time>2022-01-01T10:13:03Z</time>
      </trkpt>
      <trkpt lat="44.23139" lon="6.20708">
        <ele>1415</ele>
        <time>2022-01-01T10:13:06Z</time>
      </trkpt>
      <trkpt lat="44.23138" lon="6.20707">
        <ele>1415.2</ele>
        <time>2022-01-01T10:13:08Z</time>
      </trkpt>
      <trkpt lat="44.2314" lon="6.20706">
        <ele>1415.4</ele>
        <time>2022-01-01T10:13:10Z</time>
      </trkpt>
      <trkpt lat="44.23143" lon="6.20704">
        <ele>1415.6</ele>
        <time>2022-01-01T10:13:13Z</time>
      </trkpt>
      <trkpt lat="44.23144" lon="6.20701">
        <ele>1415.8</ele>
        <time>2022-01-01T10:13:15Z</time>
      </trkpt>
      <trkpt lat="44.23145" lon="6.20697">
        <ele>1416</ele>
        <time>2022-01-01T10:13:18Z</time>
      </trkpt>
      <trkpt lat="44.2315" lon="6.2069">
        <ele>1416.4</ele>
        <time>2022-01-01T10:13:23Z</time>
      </trkpt>
      <trkpt lat="44.23151" lon="6.20689">
        <ele>1416.6</ele>
        <time>2022-01-01T10:13:24Z</time>
      </trkpt>
      <trkpt lat="44.23152" lon="6.20686">
        <ele>1417</ele>
        <time>2022-01-01T10:13:27Z</time>
      </trkpt>
      <trkpt lat="44.23151" lon="6.20681">
        <ele>1417</ele>
        <time>2022-01-01T10:13:31Z</time>
      </trkpt>
      <trkpt lat="44.23152" lon="6.20679">
        <ele>1417.2</ele>
        <time>2022-01-01T10:13:33Z</time>
      </trkpt>
      <trkpt lat="44.23152" lon="6.20678">
        <ele>1417.2</ele>
        <time>2022-01-01T10:13:34Z</time>
      </trkpt>
      <trkpt lat="44.23153" lon="6.20673">
        <ele>1417.8</ele>
        <time>2022-01-01T10:13:39Z</time>
      </trkpt>
      <trkpt lat="44.23153" lon="6.20667">
        <ele>1417.8</ele>
        <time>2022-01-01T10:13:43Z</time>
      </trkpt>
      <trkpt lat="44.23152" lon="6.2066">
        <ele>1417.8</ele>
        <time>2022-01-01T10:13:47Z</time>
      </trkpt>
      <trkpt lat="44.23152" lon="6.20656">
        <ele>1418.2</ele>
        <time>2022-01-01T10:13:50Z</time>
      </trkpt>
      <trkpt lat="44.23153" lon="6.20651">
        <ele>1418.2</ele>
        <time>2022-01-01T10:13:53Z</time>
      </trkpt>
      <trkpt lat="44.23155" lon="6.20642">
        <ele>1418.4</ele>
        <time>2022-01-01T10:13:59Z</time>
      </trkpt>
      <trkpt lat="44.23157" lon="6.20636">
        <ele>1418.6</ele>
        <time>2022-01-01T10:14:03Z</time>
      </trkpt>
      <trkpt lat="44.23157" lon="6.20634">
        <ele>1418.8</ele>
        <time>2022-01-01T10:14:04Z</time>
      </trkpt>
      <trkpt lat="44.23158" lon="6.20631">
        <ele>1419.2</ele>
        <time>2022-01-01T10:14:06Z</time>
      </trkpt>
      <trkpt lat="44.23158" lon="6.2063">
        <ele>1419.4</ele>
        <time>2022-01-01T10:14:07Z</time>
      </trkpt>
      <trkpt lat="44.2316" lon="6.20626">
        <ele>1419.8</ele>
        <time>2022-01-01T10:14:11Z</time>
      </trkpt>
      <trkpt lat="44.23162" lon="6.20624">
        <ele>1420.2</ele>
        <time>2022-01-01T10:14:13Z</time>
      </trkpt>
      <trkpt lat="44.23163" lon="6.20618">
        <ele>1420.6</ele>
        <time>2022-01-01T10:14:17Z</time>
      </trkpt>
      <trkpt lat="44.23166" lon="6.20612">
        <ele>1421.2</ele>
        <time>2022-01-01T10:14:22Z</time>
      </trkpt>
      <trkpt lat="44.23167" lon="6.20611">
        <ele>1421.4</ele>
        <time>2022-01-01T10:14:23Z</time>
      </trkpt>
      <trkpt lat="44.23167" lon="6.2061">
        <ele>1421.8</ele>
        <time>2022-01-01T10:14:24Z</time>
      </trkpt>
      <trkpt lat="44.23169" lon="6.20607">
        <ele>1422.2</ele>
        <time>2022-01-01T10:14:27Z</time>
      </trkpt>
      <trkpt lat="44.2317" lon="6.20606">
        <ele>1422.6</ele>
        <time>2022-01-01T10:14:28Z</time>
      </trkpt>
      <trkpt lat="44.23172" lon="6.20602">
        <ele>1423</ele>
        <time>2022-01-01T10:14:32Z</time>
      </trkpt>
      <trkpt lat="44.23173" lon="6.20601">
        <ele>1423.2</ele>
        <time>2022-01-01T10:14:33Z</time>
      </trkpt>
      <trkpt lat="44.23173" lon="6.20601">
        <ele>1423.4</ele>
        <time>2022-01-01T10:14:34Z</time>
      </trkpt>
      <trkpt lat="44.23174" lon="6.206">
        <ele>1423.6</ele>
        <time>2022-01-01T10:14:35Z</time>
      </trkpt>
      <trkpt lat="44.23176" lon="6.20596">
        <ele>1424.2</ele>
        <time>2022-01-01T10:14:39Z</time>
      </trkpt>
      <trkpt lat="44.23178" lon="6.20593">
        <ele>1424.4</ele>
        <time>2022-01-01T10:14:42Z</time>
      </trkpt>
      <trkpt lat="44.23179" lon="6.20592">
        <ele>1424.6</ele>
        <time>2022-01-01T10:14:43Z</time>
      </trkpt>
      <trkpt lat="44.23179" lon="6.20591">
        <ele>1424.8</ele>
        <time>2022-01-01T10:14:44Z</time>
      </trkpt>
      <trkpt lat="44.23184" lon="6.20583">
        <ele>1425.8</ele>
        <time>2022-01-01T10:14:51Z</time>
      </trkpt>
      <trkpt lat="44.23185" lon="6.2058">
        <ele>1426</ele>
        <time>2022-01-01T10:14:53Z</time>
      </trkpt>
      <trkpt lat="44.23185" lon="6.20578">
        <ele>1426.2</ele>
        <time>2022-01-01T10:14:55Z</time>
      </trkpt>
      <trkpt lat="44.23186" lon="6.20576">
        <ele>1426.6</ele>
        <time>2022-01-01T10:14:57Z</time>
      </trkpt>
      <trkpt lat="44.23187" lon="6.20573">
        <ele>1427</ele>
        <time>2022-01-01T10:15:01Z</time>
      </trkpt>
      <trkpt lat="44.23188" lon="6.20572">
        <ele>1427.2</ele>
        <time>2022-01-01T10:15:03Z</time>
      </trkpt>
      <trkpt lat="44.2319" lon="6.2057">
        <ele>1427.4</ele>
        <time>2022-01-01T10:15:05Z</time>
      </trkpt>
      <trkpt lat="44.23193" lon="6.20567">
        <ele>1428</ele>
        <time>2022-01-01T10:15:09Z</time>
      </trkpt>
      <trkpt lat="44.23193" lon="6.20566">
        <ele>1428</ele>
        <time>2022-01-01T10:15:10Z</time>
      </trkpt>
      <trkpt lat="44.23194" lon="6.20562">
        <ele>1428.4</ele>
        <time>2022-01-01T10:15:13Z</time>
      </trkpt>
      <trkpt lat="44.23197" lon="6.20558">
        <ele>1428.6</ele>
        <time>2022-01-01T10:15:16Z</time>
      </trkpt>
      <trkpt lat="44.23198" lon="6.20557">
        <ele>1428.6</ele>
        <time>2022-01-01T10:15:18Z</time>
      </trkpt>
      <trkpt lat="44.232" lon="6.20555">
        <ele>1429</ele>
        <time>2022-01-01T10:15:21Z</time>
      </trkpt>
      <trkpt lat="44.23201" lon="6.20554">
        <ele>1429.4</ele>
        <time>2022-01-01T10:15:23Z</time>
      </trkpt>
      <trkpt lat="44.23202" lon="6.20554">
        <ele>1429.6</ele>
        <time>2022-01-01T10:15:24Z</time>
      </trkpt>
      <trkpt lat="44.23205" lon="6.20554">
        <ele>1430.2</ele>
        <time>2022-01-01T10:15:27Z</time>
      </trkpt>
      <trkpt lat="44.23205" lon="6.20553">
        <ele>1430.4</ele>
        <time>2022-01-01T10:15:28Z</time>
      </trkpt>
      <trkpt lat="44.2321" lon="6.20552">
        <ele>1430.6</ele>
        <time>2022-01-01T10:15:32Z</time>
      </trkpt>
      <trkpt lat="44.23211" lon="6.20552">
        <ele>1430.8</ele>
        <time>2022-01-01T10:15:33Z</time>
      </trkpt>
      <trkpt lat="44.23215" lon="6.20552">
        <ele>1431.4</ele>
        <time>2022-01-01T10:15:37Z</time>
      </trkpt>
      <trkpt lat="44.23217" lon="6.20553">
        <ele>1431.6</ele>
        <time>2022-01-01T10:15:39Z</time>
      </trkpt>
      <trkpt lat="44.2322" lon="6.20553">
        <ele>1432</ele>
        <time>2022-01-01T10:15:42Z</time>
      </trkpt>
      <trkpt lat="44.23221" lon="6.20553">
        <ele>1432.2</ele>
        <time>2022-01-01T10:15:43Z</time>
      </trkpt>
      <trkpt lat="44.23223" lon="6.20553">
        <ele>1432.4</ele>
        <time>2022-01-01T10:15:45Z</time>
      </trkpt>
      <trkpt lat="44.23228" lon="6.2055">
        <ele>1432.8</ele>
        <time>2022-01-01T10:15:51Z</time>
      </trkpt>
      <trkpt lat="44.2323" lon="6.20548">
        <ele>1433.2</ele>
        <time>2022-01-01T10:15:53Z</time>
      </trkpt>
      <trkpt lat="44.23232" lon="6.20548">
        <ele>1433.4</ele>
        <time>2022-01-01T10:15:54Z</time>
      </trkpt>
      <trkpt lat="44.23235" lon="6.20549">
        <ele>1433.8</ele>
        <time>2022-01-01T10:15:57Z</time>
      </trkpt>
      <trkpt lat="44.23241" lon="6.20554">
        <ele>1434</ele>
        <time>2022-01-01T10:16:03Z</time>
      </trkpt>
      <trkpt lat="44.23245" lon="6.20556">
        <ele>1434.6</ele>
        <time>2022-01-01T10:16:06Z</time>
      </trkpt>
      <trkpt lat="44.23249" lon="6.20558">
        <ele>1435</ele>
        <time>2022-01-01T10:16:09Z</time>
      </trkpt>
      <trkpt lat="44.2325" lon="6.20557">
        <ele>1435.2</ele>
        <time>2022-01-01T10:16:11Z</time>
      </trkpt>
      <trkpt lat="44.23253" lon="6.20558">
        <ele>1435.6</ele>
        <time>2022-01-01T10:16:13Z</time>
      </trkpt>
      <trkpt lat="44.23254" lon="6.20559">
        <ele>1435.8</ele>
        <time>2022-01-01T10:16:15Z</time>
      </trkpt>
      <trkpt lat="44.23257" lon="6.20563">
        <ele>1436</ele>
        <time>2022-01-01T10:16:19Z</time>
      </trkpt>
      <trkpt lat="44.23261" lon="6.20567">
        <ele>1436.2</ele>
        <time>2022-01-01T10:16:23Z</time>
      </trkpt>
      <trkpt lat="44.23261" lon="6.20567">
        <ele>1436.4</ele>
        <time>2022-01-01T10:16:24Z</time>
      </trkpt>
      <trkpt lat="44.23264" lon="6.2057">
        <ele>1436.6</ele>
        <time>2022-01-01T10:16:26Z</time>
      </trkpt>
      <trkpt lat="44.23265" lon="6.20571">
        <ele>1436.8</ele>
        <time>2022-01-01T10:16:28Z</time>
      </trkpt>
      <trkpt lat="44.2327" lon="6.20575">
        <ele>1437.2</ele>
        <time>2022-01-01T10:16:32Z</time>
      </trkpt>
      <trkpt lat="44.23271" lon="6.20577">
        <ele>1437.2</ele>
        <time>2022-01-01T10:16:33Z</time>
      </trkpt>
      <trkpt lat="44.23274" lon="6.2058">
        <ele>1437.6</ele>
        <time>2022-01-01T10:16:37Z</time>
      </trkpt>
      <trkpt lat="44.23274" lon="6.20581">
        <ele>1437.6</ele>
        <time>2022-01-01T10:16:38Z</time>
      </trkpt>
      <trkpt lat="44.23278" lon="6.20585">
        <ele>1438</ele>
        <time>2022-01-01T10:16:43Z</time>
      </trkpt>
      <trkpt lat="44.23284" lon="6.20588">
        <ele>1438.2</ele>
        <time>2022-01-01T10:16:46Z</time>
      </trkpt>
      <trkpt lat="44.23286" lon="6.20588">
        <ele>1438.8</ele>
        <time>2022-01-01T10:16:48Z</time>
      </trkpt>
      <trkpt lat="44.23287" lon="6.20587">
        <ele>1439.4</ele>
        <time>2022-01-01T10:16:50Z</time>
      </trkpt>
      <trkpt lat="44.23289" lon="6.20587">
        <ele>1439.6</ele>
        <time>2022-01-01T10:16:51Z</time>
      </trkpt>
      <trkpt lat="44.23291" lon="6.20587">
        <ele>1440</ele>
        <time>2022-01-01T10:16:53Z</time>
      </trkpt>
      <trkpt lat="44.23295" lon="6.20587">
        <ele>1440.2</ele>
        <time>2022-01-01T10:16:56Z</time>
      </trkpt>
      <trkpt lat="44.23299" lon="6.20588">
        <ele>1440.6</ele>
        <time>2022-01-01T10:16:59Z</time>
      </trkpt>
      <trkpt lat="44.23305" lon="6.20588">
        <ele>1441.2</ele>
        <time>2022-01-01T10:17:02Z</time>
      </trkpt>
      <trkpt lat="44.23307" lon="6.20589">
        <ele>1441.4</ele>
        <time>2022-01-01T10:17:04Z</time>
      </trkpt>
      <trkpt lat="44.23308" lon="6.20589">
        <ele>1441.6</ele>
        <time>2022-01-01T10:17:05Z</time>
      </trkpt>
      <trkpt lat="44.23308" lon="6.20588">
        <ele>1441.6</ele>
        <time>2022-01-01T10:17:06Z</time>
      </trkpt>
      <trkpt lat="44.23311" lon="6.20589">
        <ele>1442</ele>
        <time>2022-01-01T10:17:09Z</time>
      </trkpt>
      <trkpt lat="44.23311" lon="6.20588">
        <ele>1442</ele>
        <time>2022-01-01T10:17:12Z</time>
      </trkpt>
      <trkpt lat="44.23311" lon="6.20587">
        <ele>1442</ele>
        <time>2022-01-01T10:17:14Z</time>
      </trkpt>
      <trkpt lat="44.23311" lon="6.20588">
        <ele>1441.8</ele>
        <time>2022-01-01T10:17:15Z</time>
      </trkpt>
      <trkpt lat="44.2331" lon="6.20588">
        <ele>1441.8</ele>
        <time>2022-01-01T10:17:16Z</time>
      </trkpt>
      <trkpt lat="44.23313" lon="6.20592">
        <ele>1442.2</ele>
        <time>2022-01-01T10:17:25Z</time>
      </trkpt>
      <trkpt lat="44.23314" lon="6.20593">
        <ele>1442.2</ele>
        <time>2022-01-01T10:17:26Z</time>
      </trkpt>
      <trkpt lat="44.23315" lon="6.20593">
        <ele>1442.4</ele>
        <time>2022-01-01T10:17:27Z</time>
      </trkpt>
      <trkpt lat="44.23317" lon="6.20597">
        <ele>1442.8</ele>
        <time>2022-01-01T10:17:31Z</time>
      </trkpt>
      <trkpt lat="44.23318" lon="6.20599">
        <ele>1443.2</ele>
        <time>2022-01-01T10:17:33Z</time>
      </trkpt>
      <trkpt lat="44.23321" lon="6.20601">
        <ele>1443.4</ele>
        <time>2022-01-01T10:17:36Z</time>
      </trkpt>
      <trkpt lat="44.23326" lon="6.20606">
        <ele>1444.4</ele>
        <time>2022-01-01T10:17:44Z</time>
      </trkpt>
      <trkpt lat="44.23328" lon="6.20607">
        <ele>1444.6</ele>
        <time>2022-01-01T10:17:46Z</time>
      </trkpt>
      <trkpt lat="44.23329" lon="6.20608">
        <ele>1444.6</ele>
        <time>2022-01-01T10:17:47Z</time>
      </trkpt>
      <trkpt lat="44.23332" lon="6.2061">
        <ele>1445</ele>
        <time>2022-01-01T10:17:50Z</time>
      </trkpt>
      <trkpt lat="44.23333" lon="6.20611">
        <ele>1445.2</ele>
        <time>2022-01-01T10:17:51Z</time>
      </trkpt>
      <trkpt lat="44.23335" lon="6.20613">
        <ele>1445.4</ele>
        <time>2022-01-01T10:17:53Z</time>
      </trkpt>
      <trkpt lat="44.23336" lon="6.20615">
        <ele>1445.6</ele>
        <time>2022-01-01T10:17:55Z</time>
      </trkpt>
      <trkpt lat="44.2334" lon="6.20618">
        <ele>1446</ele>
        <time>2022-01-01T10:17:58Z</time>
      </trkpt>
      <trkpt lat="44.23344" lon="6.20622">
        <ele>1446.4</ele>
        <time>2022-01-01T10:18:02Z</time>
      </trkpt>
      <trkpt lat="44.23347" lon="6.20627">
        <ele>1447</ele>
        <time>2022-01-01T10:18:07Z</time>
      </trkpt>
      <trkpt lat="44.23348" lon="6.20628">
        <ele>1447.2</ele>
        <time>2022-01-01T10:18:08Z</time>
      </trkpt>
      <trkpt lat="44.2335" lon="6.20631">
        <ele>1447.4</ele>
        <time>2022-01-01T10:18:10Z</time>
      </trkpt>
      <trkpt lat="44.23351" lon="6.20632">
        <ele>1447.6</ele>
        <time>2022-01-01T10:18:11Z</time>
      </trkpt>
      <trkpt lat="44.23356" lon="6.20638">
        <ele>1448</ele>
        <time>2022-01-01T10:18:17Z</time>
      </trkpt>
      <trkpt lat="44.23358" lon="6.20639">
        <ele>1448</ele>
        <time>2022-01-01T10:18:18Z</time>
      </trkpt>
      <trkpt lat="44.2336" lon="6.20642">
        <ele>1448.4</ele>
        <time>2022-01-01T10:18:21Z</time>
      </trkpt>
      <trkpt lat="44.23361" lon="6.20645">
        <ele>1448.6</ele>
        <time>2022-01-01T10:18:24Z</time>
      </trkpt>
      <trkpt lat="44.23365" lon="6.20648">
        <ele>1448.8</ele>
        <time>2022-01-01T10:18:27Z</time>
      </trkpt>
      <trkpt lat="44.23366" lon="6.20649">
        <ele>1448.8</ele>
        <time>2022-01-01T10:18:28Z</time>
      </trkpt>
      <trkpt lat="44.23367" lon="6.2065">
        <ele>1448.8</ele>
        <time>2022-01-01T10:18:29Z</time>
      </trkpt>
      <trkpt lat="44.23373" lon="6.20655">
        <ele>1448.8</ele>
        <time>2022-01-01T10:18:35Z</time>
      </trkpt>
      <trkpt lat="44.23376" lon="6.20658">
        <ele>1449.2</ele>
        <time>2022-01-01T10:18:38Z</time>
      </trkpt>
      <trkpt lat="44.23377" lon="6.20658">
        <ele>1449.4</ele>
        <time>2022-01-01T10:18:40Z</time>
      </trkpt>
      <trkpt lat="44.23379" lon="6.20659">
        <ele>1449.4</ele>
        <time>2022-01-01T10:18:42Z</time>
      </trkpt>
      <trkpt lat="44.23381" lon="6.20661">
        <ele>1449.6</ele>
        <time>2022-01-01T10:18:44Z</time>
      </trkpt>
      <trkpt lat="44.23382" lon="6.20662">
        <ele>1449.8</ele>
        <time>2022-01-01T10:18:46Z</time>
      </trkpt>
      <trkpt lat="44.23383" lon="6.20664">
        <ele>1450</ele>
        <time>2022-01-01T10:18:48Z</time>
      </trkpt>
      <trkpt lat="44.23387" lon="6.20667">
        <ele>1450.6</ele>
        <time>2022-01-01T10:18:52Z</time>
      </trkpt>
      <trkpt lat="44.23388" lon="6.20669">
        <ele>1450.8</ele>
        <time>2022-01-01T10:18:53Z</time>
      </trkpt>
      <trkpt lat="44.23391" lon="6.20673">
        <ele>1451</ele>
        <time>2022-01-01T10:18:56Z</time>
      </trkpt>
      <trkpt lat="44.23393" lon="6.20675">
        <ele>1451</ele>
        <time>2022-01-01T10:18:58Z</time>
      </trkpt>
      <trkpt lat="44.23394" lon="6.20677">
        <ele>1451.2</ele>
        <time>2022-01-01T10:18:59Z</time>
      </trkpt>
      <trkpt lat="44.23398" lon="6.20682">
        <ele>1451.8</ele>
        <time>2022-01-01T10:19:03Z</time>
      </trkpt>
      <trkpt lat="44.234" lon="6.20685">
        <ele>1452.6</ele>
        <time>2022-01-01T10:19:07Z</time>
      </trkpt>
      <trkpt lat="44.23401" lon="6.20686">
        <ele>1452.6</ele>
        <time>2022-01-01T10:19:08Z</time>
      </trkpt>
      <trkpt lat="44.23402" lon="6.20686">
        <ele>1452.8</ele>
        <time>2022-01-01T10:19:09Z</time>
      </trkpt>
      <trkpt lat="44.23404" lon="6.20689">
        <ele>1453.4</ele>
        <time>2022-01-01T10:19:11Z</time>
      </trkpt>
      <trkpt lat="44.23406" lon="6.20689">
        <ele>1453.6</ele>
        <time>2022-01-01T10:19:13Z</time>
      </trkpt>
      <trkpt lat="44.23409" lon="6.20691">
        <ele>1454.2</ele>
        <time>2022-01-01T10:19:16Z</time>
      </trkpt>
      <trkpt lat="44.2341" lon="6.20692">
        <ele>1454.4</ele>
        <time>2022-01-01T10:19:17Z</time>
      </trkpt>
      <trkpt lat="44.23411" lon="6.20694">
        <ele>1454.6</ele>
        <time>2022-01-01T10:19:18Z</time>
      </trkpt>
      <trkpt lat="44.23412" lon="6.20694">
        <ele>1454.8</ele>
        <time>2022-01-01T10:19:19Z</time>
      </trkpt>
      <trkpt lat="44.23415" lon="6.20695">
        <ele>1455</ele>
        <time>2022-01-01T10:19:21Z</time>
      </trkpt>
      <trkpt lat="44.23416" lon="6.20697">
        <ele>1455.2</ele>
        <time>2022-01-01T10:19:23Z</time>
      </trkpt>
      <trkpt lat="44.23419" lon="6.20699">
        <ele>1456</ele>
        <time>2022-01-01T10:19:27Z</time>
      </trkpt>
      <trkpt lat="44.23419" lon="6.207">
        <ele>1456.4</ele>
        <time>2022-01-01T10:19:28Z</time>
      </trkpt>
      <trkpt lat="44.23421" lon="6.207">
        <ele>1456.8</ele>
        <time>2022-01-01T10:19:30Z</time>
      </trkpt>
      <trkpt lat="44.23423" lon="6.20702">
        <ele>1457.4</ele>
        <time>2022-01-01T10:19:33Z</time>
      </trkpt>
      <trkpt lat="44.23423" lon="6.20704">
        <ele>1457.8</ele>
        <time>2022-01-01T10:19:35Z</time>
      </trkpt>
      <trkpt lat="44.23426" lon="6.20706">
        <ele>1458.2</ele>
        <time>2022-01-01T10:19:38Z</time>
      </trkpt>
      <trkpt lat="44.23427" lon="6.20707">
        <ele>1458.4</ele>
        <time>2022-01-01T10:19:39Z</time>
      </trkpt>
      <trkpt lat="44.23428" lon="6.20708">
        <ele>1458.6</ele>
        <time>2022-01-01T10:19:40Z</time>
      </trkpt>
      <trkpt lat="44.2343" lon="6.2071">
        <ele>1459.2</ele>
        <time>2022-01-01T10:19:43Z</time>
      </trkpt>
      <trkpt lat="44.23431" lon="6.20712">
        <ele>1459.4</ele>
        <time>2022-01-01T10:19:45Z</time>
      </trkpt>
      <trkpt lat="44.23432" lon="6.20712">
        <ele>1459.6</ele>
        <time>2022-01-01T10:19:46Z</time>
      </trkpt>
      <trkpt lat="44.23433" lon="6.20715">
        <ele>1459.8</ele>
        <time>2022-01-01T10:19:48Z</time>
      </trkpt>
      <trkpt lat="44.23433" lon="6.20715">
        <ele>1460</ele>
        <time>2022-01-01T10:19:49Z</time>
      </trkpt>
      <trkpt lat="44.23434" lon="6.20717">
        <ele>1460.4</ele>
        <time>2022-01-01T10:19:51Z</time>
      </trkpt>
      <trkpt lat="44.23437" lon="6.20721">
        <ele>1461.4</ele>
        <time>2022-01-01T10:19:55Z</time>
      </trkpt>
      <trkpt lat="44.23439" lon="6.20723">
        <ele>1461.8</ele>
        <time>2022-01-01T10:19:58Z</time>
      </trkpt>
      <trkpt lat="44.2344" lon="6.20725">
        <ele>1462</ele>
        <time>2022-01-01T10:20:00Z</time>
      </trkpt>
      <trkpt lat="44.23442" lon="6.20726">
        <ele>1462.6</ele>
        <time>2022-01-01T10:20:03Z</time>
      </trkpt>
      <trkpt lat="44.23442" lon="6.20726">
        <ele>1462.8</ele>
        <time>2022-01-01T10:20:04Z</time>
      </trkpt>
      <trkpt lat="44.23445" lon="6.20728">
        <ele>1463.6</ele>
        <time>2022-01-01T10:20:08Z</time>
      </trkpt>
      <trkpt lat="44.23448" lon="6.20728">
        <ele>1464.8</ele>
        <time>2022-01-01T10:20:12Z</time>
      </trkpt>
      <trkpt lat="44.23451" lon="6.20732">
        <ele>1465.6</ele>
        <time>2022-01-01T10:20:18Z</time>
      </trkpt>
      <trkpt lat="44.23451" lon="6.20732">
        <ele>1466</ele>
        <time>2022-01-01T10:20:19Z</time>
      </trkpt>
      <trkpt lat="44.23454" lon="6.20734">
        <ele>1467</ele>
        <time>2022-01-01T10:20:24Z</time>
      </trkpt>
      <trkpt lat="44.23456" lon="6.20736">
        <ele>1467.6</ele>
        <time>2022-01-01T10:20:28Z</time>
      </trkpt>
      <trkpt lat="44.23458" lon="6.20737">
        <ele>1468</ele>
        <time>2022-01-01T10:20:30Z</time>
      </trkpt>
      <trkpt lat="44.23461" lon="6.20739">
        <ele>1469.2</ele>
        <time>2022-01-01T10:20:38Z</time>
      </trkpt>
      <trkpt lat="44.23465" lon="6.2074">
        <ele>1469.8</ele>
        <time>2022-01-01T10:20:42Z</time>
      </trkpt>
      <trkpt lat="44.23466" lon="6.20741">
        <ele>1470.2</ele>
        <time>2022-01-01T10:20:44Z</time>
      </trkpt>
      <trkpt lat="44.23468" lon="6.20743">
        <ele>1471</ele>
        <time>2022-01-01T10:20:48Z</time>
      </trkpt>
      <trkpt lat="44.23468" lon="6.20744">
        <ele>1471.2</ele>
        <time>2022-01-01T10:20:49Z</time>
      </trkpt>
      <trkpt lat="44.2347" lon="6.20745">
        <ele>1472.4</ele>
        <time>2022-01-01T10:20:54Z</time>
      </trkpt>
      <trkpt lat="44.23472" lon="6.20747">
        <ele>1473.4</ele>
        <time>2022-01-01T10:20:58Z</time>
      </trkpt>
      <trkpt lat="44.23473" lon="6.20748">
        <ele>1473.6</ele>
        <time>2022-01-01T10:21:00Z</time>
      </trkpt>
      <trkpt lat="44.23475" lon="6.20749">
        <ele>1474.4</ele>
        <time>2022-01-01T10:21:04Z</time>
      </trkpt>
      <trkpt lat="44.23478" lon="6.2075">
        <ele>1475.6</ele>
        <time>2022-01-01T10:21:08Z</time>
      </trkpt>
      <trkpt lat="44.23481" lon="6.20753">
        <ele>1476.8</ele>
        <time>2022-01-01T10:21:13Z</time>
      </trkpt>
      <trkpt lat="44.23484" lon="6.20753">
        <ele>1477.8</ele>
        <time>2022-01-01T10:21:18Z</time>
      </trkpt>
      <trkpt lat="44.23484" lon="6.20753">
        <ele>1478</ele>
        <time>2022-01-01T10:21:19Z</time>
      </trkpt>
      <trkpt lat="44.2349" lon="6.2075">
        <ele>1479</ele>
        <time>2022-01-01T10:21:28Z</time>
      </trkpt>
      <trkpt lat="44.23491" lon="6.2075">
        <ele>1479</ele>
        <time>2022-01-01T10:21:29Z</time>
      </trkpt>
      <trkpt lat="44.23496" lon="6.2075">
        <ele>1480.2</ele>
        <time>2022-01-01T10:21:35Z</time>
      </trkpt>
      <trkpt lat="44.23497" lon="6.20751">
        <ele>1481</ele>
        <time>2022-01-01T10:21:38Z</time>
      </trkpt>
      <trkpt lat="44.23498" lon="6.20751">
        <ele>1481.2</ele>
        <time>2022-01-01T10:21:39Z</time>
      </trkpt>
      <trkpt lat="44.23503" lon="6.20748">
        <ele>1482.2</ele>
        <time>2022-01-01T10:21:46Z</time>
      </trkpt>
      <trkpt lat="44.23504" lon="6.20746">
        <ele>1482.4</ele>
        <time>2022-01-01T10:21:48Z</time>
      </trkpt>
      <trkpt lat="44.23507" lon="6.20747">
        <ele>1483.2</ele>
        <time>2022-01-01T10:21:53Z</time>
      </trkpt>
      <trkpt lat="44.2351" lon="6.20747">
        <ele>1484</ele>
        <time>2022-01-01T10:21:58Z</time>
      </trkpt>
      <trkpt lat="44.23511" lon="6.20748">
        <ele>1484.4</ele>
        <time>2022-01-01T10:22:00Z</time>
      </trkpt>
      <trkpt lat="44.23515" lon="6.20751">
        <ele>1485.4</ele>
        <time>2022-01-01T10:22:05Z</time>
      </trkpt>
      <trkpt lat="44.23517" lon="6.20753">
        <ele>1486</ele>
        <time>2022-01-01T10:22:08Z</time>
      </trkpt>
      <trkpt lat="44.2352" lon="6.20755">
        <ele>1486.4</ele>
        <time>2022-01-01T10:22:13Z</time>
      </trkpt>
      <trkpt lat="44.23525" lon="6.20757">
        <ele>1487.2</ele>
        <time>2022-01-01T10:22:18Z</time>
      </trkpt>
      <trkpt lat="44.23526" lon="6.20756">
        <ele>1487.6</ele>
        <time>2022-01-01T10:22:21Z</time>
      </trkpt>
      <trkpt lat="44.23531" lon="6.20754">
        <ele>1488.8</ele>
        <time>2022-01-01T10:22:27Z</time>
      </trkpt>
      <trkpt lat="44.23532" lon="6.20755">
        <ele>1489</ele>
        <time>2022-01-01T10:22:28Z</time>
      </trkpt>
      <trkpt lat="44.23535" lon="6.20756">
        <ele>1489.8</ele>
        <time>2022-01-01T10:22:34Z</time>
      </trkpt>
      <trkpt lat="44.23538" lon="6.20756">
        <ele>1490.6</ele>
        <time>2022-01-01T10:22:38Z</time>
      </trkpt>
      <trkpt lat="44.23542" lon="6.20756">
        <ele>1490.8</ele>
        <time>2022-01-01T10:22:41Z</time>
      </trkpt>
      <trkpt lat="44.23547" lon="6.20758">
        <ele>1491.6</ele>
        <time>2022-01-01T10:22:48Z</time>
      </trkpt>
      <trkpt lat="44.23548" lon="6.20758">
        <ele>1491.8</ele>
        <time>2022-01-01T10:22:50Z</time>
      </trkpt>
      <trkpt lat="44.2355" lon="6.20757">
        <ele>1491.8</ele>
        <time>2022-01-01T10:22:52Z</time>
      </trkpt>
      <trkpt lat="44.2355" lon="6.20758">
        <ele>1492</ele>
        <time>2022-01-01T10:22:53Z</time>
      </trkpt>
      <trkpt lat="44.23553" lon="6.2076">
        <ele>1492.8</ele>
        <time>2022-01-01T10:22:58Z</time>
      </trkpt>
      <trkpt lat="44.23553" lon="6.20763">
        <ele>1493</ele>
        <time>2022-01-01T10:23:00Z</time>
      </trkpt>
      <trkpt lat="44.23563" lon="6.2077">
        <ele>1494.2</ele>
        <time>2022-01-01T10:23:07Z</time>
      </trkpt>
      <trkpt lat="44.23564" lon="6.20771">
        <ele>1494.2</ele>
        <time>2022-01-01T10:23:08Z</time>
      </trkpt>
      <trkpt lat="44.23565" lon="6.20771">
        <ele>1494.4</ele>
        <time>2022-01-01T10:23:09Z</time>
      </trkpt>
      <trkpt lat="44.23566" lon="6.20773">
        <ele>1495.2</ele>
        <time>2022-01-01T10:23:12Z</time>
      </trkpt>
      <trkpt lat="44.23568" lon="6.20777">
        <ele>1495.8</ele>
        <time>2022-01-01T10:23:17Z</time>
      </trkpt>
      <trkpt lat="44.23568" lon="6.20778">
        <ele>1496</ele>
        <time>2022-01-01T10:23:18Z</time>
      </trkpt>
      <trkpt lat="44.23569" lon="6.20779">
        <ele>1496.2</ele>
        <time>2022-01-01T10:23:19Z</time>
      </trkpt>
      <trkpt lat="44.23569" lon="6.2078">
        <ele>1496.4</ele>
        <time>2022-01-01T10:23:20Z</time>
      </trkpt>
      <trkpt lat="44.2357" lon="6.20782">
        <ele>1497</ele>
        <time>2022-01-01T10:23:23Z</time>
      </trkpt>
      <trkpt lat="44.23571" lon="6.20783">
        <ele>1497.4</ele>
        <time>2022-01-01T10:23:25Z</time>
      </trkpt>
      <trkpt lat="44.23571" lon="6.20784">
        <ele>1497.6</ele>
        <time>2022-01-01T10:23:28Z</time>
      </trkpt>
      <trkpt lat="44.23574" lon="6.20787">
        <ele>1498.4</ele>
        <time>2022-01-01T10:23:32Z</time>
      </trkpt>
      <trkpt lat="44.23575" lon="6.20788">
        <ele>1498.8</ele>
        <time>2022-01-01T10:23:34Z</time>
      </trkpt>
      <trkpt lat="44.23578" lon="6.20789">
        <ele>1499.4</ele>
        <time>2022-01-01T10:23:38Z</time>
      </trkpt>
      <trkpt lat="44.23579" lon="6.20789">
        <ele>1499.6</ele>
        <time>2022-01-01T10:23:39Z</time>
      </trkpt>
      <trkpt lat="44.23584" lon="6.2079">
        <ele>1500.6</ele>
        <time>2022-01-01T10:23:46Z</time>
      </trkpt>
      <trkpt lat="44.23586" lon="6.20792">
        <ele>1501</ele>
        <time>2022-01-01T10:23:48Z</time>
      </trkpt>
      <trkpt lat="44.23587" lon="6.20795">
        <ele>1501.2</ele>
        <time>2022-01-01T10:23:50Z</time>
      </trkpt>
      <trkpt lat="44.23588" lon="6.20797">
        <ele>1501.4</ele>
        <time>2022-01-01T10:23:52Z</time>
      </trkpt>
      <trkpt lat="44.23591" lon="6.20799">
        <ele>1501.6</ele>
        <time>2022-01-01T10:23:54Z</time>
      </trkpt>
      <trkpt lat="44.23593" lon="6.20803">
        <ele>1501.6</ele>
        <time>2022-01-01T10:23:57Z</time>
      </trkpt>
      <trkpt lat="44.23593" lon="6.20804">
        <ele>1501.6</ele>
        <time>2022-01-01T10:23:58Z</time>
      </trkpt>
      <trkpt lat="44.23592" lon="6.20806">
        <ele>1501.6</ele>
        <time>2022-01-01T10:23:59Z</time>
      </trkpt>
      <trkpt lat="44.23591" lon="6.20811">
        <ele>1501.6</ele>
        <time>2022-01-01T10:24:02Z</time>
      </trkpt>
      <trkpt lat="44.23592" lon="6.20814">
        <ele>1501.8</ele>
        <time>2022-01-01T10:24:05Z</time>
      </trkpt>
      <trkpt lat="44.23593" lon="6.20818">
        <ele>1502</ele>
        <time>2022-01-01T10:24:08Z</time>
      </trkpt>
      <trkpt lat="44.23594" lon="6.20819">
        <ele>1502</ele>
        <time>2022-01-01T10:24:09Z</time>
      </trkpt>
      <trkpt lat="44.23595" lon="6.20822">
        <ele>1502</ele>
        <time>2022-01-01T10:24:11Z</time>
      </trkpt>
      <trkpt lat="44.23596" lon="6.20825">
        <ele>1501.8</ele>
        <time>2022-01-01T10:24:13Z</time>
      </trkpt>
      <trkpt lat="44.23596" lon="6.20828">
        <ele>1501.8</ele>
        <time>2022-01-01T10:24:15Z</time>
      </trkpt>
      <trkpt lat="44.23597" lon="6.20831">
        <ele>1501.8</ele>
        <time>2022-01-01T10:24:17Z</time>
      </trkpt>
      <trkpt lat="44.23597" lon="6.20832">
        <ele>1502</ele>
        <time>2022-01-01T10:24:18Z</time>
      </trkpt>
      <trkpt lat="44.23599" lon="6.20836">
        <ele>1502.2</ele>
        <time>2022-01-01T10:24:21Z</time>
      </trkpt>
      <trkpt lat="44.23599" lon="6.20837">
        <ele>1502.2</ele>
        <time>2022-01-01T10:24:22Z</time>
      </trkpt>
      <trkpt lat="44.23602" lon="6.20842">
        <ele>1502.4</ele>
        <time>2022-01-01T10:24:26Z</time>
      </trkpt>
      <trkpt lat="44.23602" lon="6.20844">
        <ele>1502.4</ele>
        <time>2022-01-01T10:24:28Z</time>
      </trkpt>
      <trkpt lat="44.23603" lon="6.20846">
        <ele>1502.4</ele>
        <time>2022-01-01T10:24:30Z</time>
      </trkpt>
      <trkpt lat="44.23603" lon="6.20847">
        <ele>1502.6</ele>
        <time>2022-01-01T10:24:31Z</time>
      </trkpt>
      <trkpt lat="44.23603" lon="6.20848">
        <ele>1502.6</ele>
        <time>2022-01-01T10:24:32Z</time>
      </trkpt>
      <trkpt lat="44.23603" lon="6.20853">
        <ele>1502.6</ele>
        <time>2022-01-01T10:24:35Z</time>
      </trkpt>
      <trkpt lat="44.23603" lon="6.20854">
        <ele>1502.8</ele>
        <time>2022-01-01T10:24:36Z</time>
      </trkpt>
      <trkpt lat="44.23603" lon="6.20856">
        <ele>1502.8</ele>
        <time>2022-01-01T10:24:37Z</time>
      </trkpt>
      <trkpt lat="44.23603" lon="6.20857">
        <ele>1502.8</ele>
        <time>2022-01-01T10:24:38Z</time>
      </trkpt>
      <trkpt lat="44.23603" lon="6.20858">
        <ele>1503</ele>
        <time>2022-01-01T10:24:39Z</time>
      </trkpt>
      <trkpt lat="44.23604" lon="6.20864">
        <ele>1503.2</ele>
        <time>2022-01-01T10:24:45Z</time>
      </trkpt>
      <trkpt lat="44.23605" lon="6.20866">
        <ele>1503.4</ele>
        <time>2022-01-01T10:24:48Z</time>
      </trkpt>
      <trkpt lat="44.23607" lon="6.20872">
        <ele>1503.8</ele>
        <time>2022-01-01T10:24:54Z</time>
      </trkpt>
      <trkpt lat="44.23608" lon="6.20876">
        <ele>1504.2</ele>
        <time>2022-01-01T10:24:58Z</time>
      </trkpt>
      <trkpt lat="44.23611" lon="6.20879">
        <ele>1504.8</ele>
        <time>2022-01-01T10:25:02Z</time>
      </trkpt>
      <trkpt lat="44.23612" lon="6.20881">
        <ele>1505</ele>
        <time>2022-01-01T10:25:05Z</time>
      </trkpt>
      <trkpt lat="44.23612" lon="6.20883">
        <ele>1505.8</ele>
        <time>2022-01-01T10:25:08Z</time>
      </trkpt>
      <trkpt lat="44.23613" lon="6.20884">
        <ele>1506</ele>
        <time>2022-01-01T10:25:09Z</time>
      </trkpt>
      <trkpt lat="44.23614" lon="6.20887">
        <ele>1507.2</ele>
        <time>2022-01-01T10:25:14Z</time>
      </trkpt>
      <trkpt lat="44.23612" lon="6.2089">
        <ele>1507.8</ele>
        <time>2022-01-01T10:25:18Z</time>
      </trkpt>
      <trkpt lat="44.23609" lon="6.20891">
        <ele>1508.2</ele>
        <time>2022-01-01T10:25:22Z</time>
      </trkpt>
      <trkpt lat="44.23604" lon="6.20892">
        <ele>1508.8</ele>
        <time>2022-01-01T10:25:28Z</time>
      </trkpt>
      <trkpt lat="44.23602" lon="6.20893">
        <ele>1509.2</ele>
        <time>2022-01-01T10:25:30Z</time>
      </trkpt>
      <trkpt lat="44.23601" lon="6.20893">
        <ele>1509.4</ele>
        <time>2022-01-01T10:25:31Z</time>
      </trkpt>
      <trkpt lat="44.23596" lon="6.20896">
        <ele>1510.4</ele>
        <time>2022-01-01T10:25:36Z</time>
      </trkpt>
      <trkpt lat="44.23594" lon="6.20896">
        <ele>1510.8</ele>
        <time>2022-01-01T10:25:38Z</time>
      </trkpt>
      <trkpt lat="44.23592" lon="6.20897">
        <ele>1511.4</ele>
        <time>2022-01-01T10:25:42Z</time>
      </trkpt>
      <trkpt lat="44.23586" lon="6.20899">
        <ele>1512.6</ele>
        <time>2022-01-01T10:25:48Z</time>
      </trkpt>
      <trkpt lat="44.2358" lon="6.20899">
        <ele>1513.6</ele>
        <time>2022-01-01T10:25:53Z</time>
      </trkpt>
      <trkpt lat="44.23575" lon="6.20899">
        <ele>1514.2</ele>
        <time>2022-01-01T10:25:58Z</time>
      </trkpt>
      <trkpt lat="44.23572" lon="6.20899">
        <ele>1514.8</ele>
        <time>2022-01-01T10:26:02Z</time>
      </trkpt>
      <trkpt lat="44.23569" lon="6.20898">
        <ele>1515.8</ele>
        <time>2022-01-01T10:26:07Z</time>
      </trkpt>
      <trkpt lat="44.23569" lon="6.20897">
        <ele>1516</ele>
        <time>2022-01-01T10:26:08Z</time>
      </trkpt>
      <trkpt lat="44.23566" lon="6.20897">
        <ele>1517</ele>
        <time>2022-01-01T10:26:13Z</time>
      </trkpt>
      <trkpt lat="44.23564" lon="6.20899">
        <ele>1518.2</ele>
        <time>2022-01-01T10:26:18Z</time>
      </trkpt>
      <trkpt lat="44.23561" lon="6.20904">
        <ele>1519.2</ele>
        <time>2022-01-01T10:26:26Z</time>
      </trkpt>
      <trkpt lat="44.23561" lon="6.20905">
        <ele>1519.8</ele>
        <time>2022-01-01T10:26:28Z</time>
      </trkpt>
      <trkpt lat="44.23561" lon="6.20907">
        <ele>1520.4</ele>
        <time>2022-01-01T10:26:32Z</time>
      </trkpt>
      <trkpt lat="44.23562" lon="6.2091">
        <ele>1521.4</ele>
        <time>2022-01-01T10:26:38Z</time>
      </trkpt>
      <trkpt lat="44.23562" lon="6.2091">
        <ele>1521.6</ele>
        <time>2022-01-01T10:26:39Z</time>
      </trkpt>
      <trkpt lat="44.23565" lon="6.20916">
        <ele>1522.4</ele>
        <time>2022-01-01T10:26:48Z</time>
      </trkpt>
      <trkpt lat="44.23565" lon="6.20917">
        <ele>1522.4</ele>
        <time>2022-01-01T10:26:49Z</time>
      </trkpt>
      <trkpt lat="44.23566" lon="6.20918">
        <ele>1522.6</ele>
        <time>2022-01-01T10:26:50Z</time>
      </trkpt>
      <trkpt lat="44.23564" lon="6.20927">
        <ele>1523.6</ele>
        <time>2022-01-01T10:26:59Z</time>
      </trkpt>
      <trkpt lat="44.23563" lon="6.20928">
        <ele>1523.6</ele>
        <time>2022-01-01T10:27:00Z</time>
      </trkpt>
      <trkpt lat="44.2356" lon="6.20938">
        <ele>1524.4</ele>
        <time>2022-01-01T10:27:09Z</time>
      </trkpt>
      <trkpt lat="44.23557" lon="6.20949">
        <ele>1524.6</ele>
        <time>2022-01-01T10:27:19Z</time>
      </trkpt>
      <trkpt lat="44.23557" lon="6.2095">
        <ele>1524.6</ele>
        <time>2022-01-01T10:27:20Z</time>
      </trkpt>
      <trkpt lat="44.23556" lon="6.20954">
        <ele>1524.6</ele>
        <time>2022-01-01T10:27:22Z</time>
      </trkpt>
      <trkpt lat="44.23553" lon="6.20971">
        <ele>1527.4</ele>
        <time>2022-01-01T10:34:14Z</time>
      </trkpt>
      <trkpt lat="44.23553" lon="6.20971">
        <ele>1528.6</ele>
        <time>2022-01-01T10:34:15Z</time>
      </trkpt>
      <trkpt lat="44.23553" lon="6.20973">
        <ele>1529.4</ele>
        <time>2022-01-01T10:34:17Z</time>
      </trkpt>
      <trkpt lat="44.23553" lon="6.20974">
        <ele>1529.8</ele>
        <time>2022-01-01T10:34:18Z</time>
      </trkpt>
      <trkpt lat="44.23553" lon="6.20975">
        <ele>1529.8</ele>
        <time>2022-01-01T10:34:19Z</time>
      </trkpt>
      <trkpt lat="44.23553" lon="6.20974">
        <ele>1529.8</ele>
        <time>2022-01-01T10:34:20Z</time>
      </trkpt>
      <trkpt lat="44.23551" lon="6.20976">
        <ele>1529.8</ele>
        <time>2022-01-01T10:34:22Z</time>
      </trkpt>
      <trkpt lat="44.2355" lon="6.20977">
        <ele>1530</ele>
        <time>2022-01-01T10:34:24Z</time>
      </trkpt>
      <trkpt lat="44.23549" lon="6.20977">
        <ele>1530</ele>
        <time>2022-01-01T10:34:25Z</time>
      </trkpt>
      <trkpt lat="44.23548" lon="6.20978">
        <ele>1530.2</ele>
        <time>2022-01-01T10:34:27Z</time>
      </trkpt>
      <trkpt lat="44.23547" lon="6.20979">
        <ele>1530.2</ele>
        <time>2022-01-01T10:34:28Z</time>
      </trkpt>
      <trkpt lat="44.23546" lon="6.20981">
        <ele>1530.4</ele>
        <time>2022-01-01T10:34:29Z</time>
      </trkpt>
      <trkpt lat="44.23545" lon="6.20983">
        <ele>1530.4</ele>
        <time>2022-01-01T10:34:32Z</time>
      </trkpt>
      <trkpt lat="44.23544" lon="6.20984">
        <ele>1530.4</ele>
        <time>2022-01-01T10:34:33Z</time>
      </trkpt>
      <trkpt lat="44.23543" lon="6.20987">
        <ele>1530.4</ele>
        <time>2022-01-01T10:34:36Z</time>
      </trkpt>
      <trkpt lat="44.23543" lon="6.20987">
        <ele>1530.4</ele>
        <time>2022-01-01T10:34:37Z</time>
      </trkpt>
      <trkpt lat="44.23543" lon="6.20988">
        <ele>1530.6</ele>
        <time>2022-01-01T10:34:38Z</time>
      </trkpt>
      <trkpt lat="44.23542" lon="6.20989">
        <ele>1530.6</ele>
        <time>2022-01-01T10:34:39Z</time>
      </trkpt>
      <trkpt lat="44.23541" lon="6.2099">
        <ele>1530.6</ele>
        <time>2022-01-01T10:34:40Z</time>
      </trkpt>
      <trkpt lat="44.2354" lon="6.20992">
        <ele>1530.8</ele>
        <time>2022-01-01T10:34:42Z</time>
      </trkpt>
      <trkpt lat="44.23538" lon="6.20995">
        <ele>1531.6</ele>
        <time>2022-01-01T10:34:46Z</time>
      </trkpt>
      <trkpt lat="44.23537" lon="6.20997">
        <ele>1532</ele>
        <time>2022-01-01T10:34:48Z</time>
      </trkpt>
      <trkpt lat="44.23537" lon="6.20998">
        <ele>1532</ele>
        <time>2022-01-01T10:34:49Z</time>
      </trkpt>
      <trkpt lat="44.23537" lon="6.20999">
        <ele>1532.2</ele>
        <time>2022-01-01T10:34:50Z</time>
      </trkpt>
      <trkpt lat="44.23536" lon="6.21001">
        <ele>1532.6</ele>
        <time>2022-01-01T10:34:52Z</time>
      </trkpt>
      <trkpt lat="44.23537" lon="6.21003">
        <ele>1533</ele>
        <time>2022-01-01T10:34:55Z</time>
      </trkpt>
      <trkpt lat="44.23537" lon="6.21004">
        <ele>1533.2</ele>
        <time>2022-01-01T10:34:58Z</time>
      </trkpt>
      <trkpt lat="44.23537" lon="6.21004">
        <ele>1533.2</ele>
        <time>2022-01-01T10:34:59Z</time>
      </trkpt>
      <trkpt lat="44.23535" lon="6.21007">
        <ele>1533.2</ele>
        <time>2022-01-01T10:35:04Z</time>
      </trkpt>
      <trkpt lat="44.23535" lon="6.21008">
        <ele>1533.4</ele>
        <time>2022-01-01T10:35:05Z</time>
      </trkpt>
      <trkpt lat="44.23535" lon="6.2101">
        <ele>1533.6</ele>
        <time>2022-01-01T10:35:06Z</time>
      </trkpt>
      <trkpt lat="44.23534" lon="6.2101">
        <ele>1533.8</ele>
        <time>2022-01-01T10:35:07Z</time>
      </trkpt>
      <trkpt lat="44.23533" lon="6.2101">
        <ele>1534</ele>
        <time>2022-01-01T10:35:08Z</time>
      </trkpt>
      <trkpt lat="44.23532" lon="6.2101">
        <ele>1534.2</ele>
        <time>2022-01-01T10:35:09Z</time>
      </trkpt>
      <trkpt lat="44.23532" lon="6.21011">
        <ele>1534.4</ele>
        <time>2022-01-01T10:35:12Z</time>
      </trkpt>
      <trkpt lat="44.2353" lon="6.21013">
        <ele>1534.8</ele>
        <time>2022-01-01T10:35:16Z</time>
      </trkpt>
      <trkpt lat="44.23529" lon="6.21015">
        <ele>1535</ele>
        <time>2022-01-01T10:35:18Z</time>
      </trkpt>
      <trkpt lat="44.23528" lon="6.21015">
        <ele>1535.2</ele>
        <time>2022-01-01T10:35:19Z</time>
      </trkpt>
      <trkpt lat="44.23524" lon="6.21023">
        <ele>1536</ele>
        <time>2022-01-01T10:35:28Z</time>
      </trkpt>
      <trkpt lat="44.23523" lon="6.21024">
        <ele>1536</ele>
        <time>2022-01-01T10:35:29Z</time>
      </trkpt>
      <trkpt lat="44.23518" lon="6.21029">
        <ele>1535.6</ele>
        <time>2022-01-01T10:35:35Z</time>
      </trkpt>
      <trkpt lat="44.23515" lon="6.21033">
        <ele>1535</ele>
        <time>2022-01-01T10:35:38Z</time>
      </trkpt>
      <trkpt lat="44.23514" lon="6.21034">
        <ele>1534.8</ele>
        <time>2022-01-01T10:35:39Z</time>
      </trkpt>
      <trkpt lat="44.23512" lon="6.21036">
        <ele>1534.4</ele>
        <time>2022-01-01T10:35:41Z</time>
      </trkpt>
      <trkpt lat="44.23511" lon="6.21037">
        <ele>1534.4</ele>
        <time>2022-01-01T10:35:42Z</time>
      </trkpt>
      <trkpt lat="44.2351" lon="6.21039">
        <ele>1534.4</ele>
        <time>2022-01-01T10:35:44Z</time>
      </trkpt>
      <trkpt lat="44.23507" lon="6.21045">
        <ele>1534.8</ele>
        <time>2022-01-01T10:35:49Z</time>
      </trkpt>
      <trkpt lat="44.23505" lon="6.21057">
        <ele>1536.2</ele>
        <time>2022-01-01T10:35:59Z</time>
      </trkpt>
      <trkpt lat="44.23506" lon="6.21064">
        <ele>1536.6</ele>
        <time>2022-01-01T10:36:05Z</time>
      </trkpt>
      <trkpt lat="44.23505" lon="6.21068">
        <ele>1537</ele>
        <time>2022-01-01T10:36:08Z</time>
      </trkpt>
      <trkpt lat="44.23506" lon="6.21069">
        <ele>1537</ele>
        <time>2022-01-01T10:36:09Z</time>
      </trkpt>
      <trkpt lat="44.23506" lon="6.2107">
        <ele>1537.2</ele>
        <time>2022-01-01T10:36:10Z</time>
      </trkpt>
      <trkpt lat="44.23506" lon="6.21075">
        <ele>1537.8</ele>
        <time>2022-01-01T10:36:15Z</time>
      </trkpt>
      <trkpt lat="44.23509" lon="6.21077">
        <ele>1538.4</ele>
        <time>2022-01-01T10:36:19Z</time>
      </trkpt>
      <trkpt lat="44.23514" lon="6.21082">
        <ele>1539.4</ele>
        <time>2022-01-01T10:36:27Z</time>
      </trkpt>
      <trkpt lat="44.23515" lon="6.21084">
        <ele>1539.6</ele>
        <time>2022-01-01T10:36:29Z</time>
      </trkpt>
      <trkpt lat="44.23518" lon="6.2109">
        <ele>1540.2</ele>
        <time>2022-01-01T10:36:35Z</time>
      </trkpt>
      <trkpt lat="44.23519" lon="6.21092">
        <ele>1540.4</ele>
        <time>2022-01-01T10:36:37Z</time>
      </trkpt>
      <trkpt lat="44.2352" lon="6.21094">
        <ele>1540.6</ele>
        <time>2022-01-01T10:36:39Z</time>
      </trkpt>
      <trkpt lat="44.23521" lon="6.21095">
        <ele>1540.6</ele>
        <time>2022-01-01T10:36:40Z</time>
      </trkpt>
      <trkpt lat="44.23521" lon="6.21096">
        <ele>1541</ele>
        <time>2022-01-01T10:36:42Z</time>
      </trkpt>
      <trkpt lat="44.23524" lon="6.21098">
        <ele>1541.6</ele>
        <time>2022-01-01T10:36:45Z</time>
      </trkpt>
      <trkpt lat="44.23525" lon="6.21102">
        <ele>1542.2</ele>
        <time>2022-01-01T10:36:49Z</time>
      </trkpt>
      <trkpt lat="44.23525" lon="6.21103">
        <ele>1542.2</ele>
        <time>2022-01-01T10:36:50Z</time>
      </trkpt>
      <trkpt lat="44.23526" lon="6.21104">
        <ele>1542.6</ele>
        <time>2022-01-01T10:36:52Z</time>
      </trkpt>
      <trkpt lat="44.23526" lon="6.21105">
        <ele>1542.8</ele>
        <time>2022-01-01T10:36:53Z</time>
      </trkpt>
      <trkpt lat="44.23527" lon="6.21109">
        <ele>1543.2</ele>
        <time>2022-01-01T10:36:57Z</time>
      </trkpt>
      <trkpt lat="44.23527" lon="6.21111">
        <ele>1543.6</ele>
        <time>2022-01-01T10:36:59Z</time>
      </trkpt>
      <trkpt lat="44.23527" lon="6.21112">
        <ele>1543.8</ele>
        <time>2022-01-01T10:37:00Z</time>
      </trkpt>
      <trkpt lat="44.23525" lon="6.21119">
        <ele>1545</ele>
        <time>2022-01-01T10:37:07Z</time>
      </trkpt>
      <trkpt lat="44.23524" lon="6.21122">
        <ele>1545.2</ele>
        <time>2022-01-01T10:37:09Z</time>
      </trkpt>
      <trkpt lat="44.23522" lon="6.21131">
        <ele>1545.6</ele>
        <time>2022-01-01T10:37:15Z</time>
      </trkpt>
      <trkpt lat="44.23522" lon="6.21138">
        <ele>1546</ele>
        <time>2022-01-01T10:37:19Z</time>
      </trkpt>
      <trkpt lat="44.23523" lon="6.21139">
        <ele>1546</ele>
        <time>2022-01-01T10:37:20Z</time>
      </trkpt>
      <trkpt lat="44.23523" lon="6.21143">
        <ele>1546.2</ele>
        <time>2022-01-01T10:37:22Z</time>
      </trkpt>
      <trkpt lat="44.23524" lon="6.21145">
        <ele>1546.6</ele>
        <time>2022-01-01T10:37:24Z</time>
      </trkpt>
      <trkpt lat="44.23525" lon="6.21148">
        <ele>1547.2</ele>
        <time>2022-01-01T10:37:27Z</time>
      </trkpt>
      <trkpt lat="44.23525" lon="6.2115">
        <ele>1547.6</ele>
        <time>2022-01-01T10:37:29Z</time>
      </trkpt>
      <trkpt lat="44.23526" lon="6.21153">
        <ele>1547.8</ele>
        <time>2022-01-01T10:37:31Z</time>
      </trkpt>
      <trkpt lat="44.23526" lon="6.21157">
        <ele>1548</ele>
        <time>2022-01-01T10:37:34Z</time>
      </trkpt>
      <trkpt lat="44.23526" lon="6.21158">
        <ele>1548.2</ele>
        <time>2022-01-01T10:37:35Z</time>
      </trkpt>
      <trkpt lat="44.23526" lon="6.2116">
        <ele>1548.2</ele>
        <time>2022-01-01T10:37:36Z</time>
      </trkpt>
      <trkpt lat="44.23526" lon="6.21164">
        <ele>1548.4</ele>
        <time>2022-01-01T10:37:39Z</time>
      </trkpt>
      <trkpt lat="44.23526" lon="6.2117">
        <ele>1548.8</ele>
        <time>2022-01-01T10:37:44Z</time>
      </trkpt>
      <trkpt lat="44.23527" lon="6.21175">
        <ele>1549.2</ele>
        <time>2022-01-01T10:37:49Z</time>
      </trkpt>
      <trkpt lat="44.23527" lon="6.21176">
        <ele>1549.2</ele>
        <time>2022-01-01T10:37:50Z</time>
      </trkpt>
      <trkpt lat="44.23528" lon="6.21181">
        <ele>1549.8</ele>
        <time>2022-01-01T10:37:54Z</time>
      </trkpt>
      <trkpt lat="44.2353" lon="6.21185">
        <ele>1550.2</ele>
        <time>2022-01-01T10:37:58Z</time>
      </trkpt>
      <trkpt lat="44.2353" lon="6.21186">
        <ele>1550.2</ele>
        <time>2022-01-01T10:37:59Z</time>
      </trkpt>
      <trkpt lat="44.2353" lon="6.21199">
        <ele>1551</ele>
        <time>2022-01-01T10:38:09Z</time>
      </trkpt>
      <trkpt lat="44.23531" lon="6.21214">
        <ele>1551</ele>
        <time>2022-01-01T10:38:19Z</time>
      </trkpt>
      <trkpt lat="44.23531" lon="6.21217">
        <ele>1551.2</ele>
        <time>2022-01-01T10:38:21Z</time>
      </trkpt>
      <trkpt lat="44.23531" lon="6.2122">
        <ele>1551.6</ele>
        <time>2022-01-01T10:38:23Z</time>
      </trkpt>
      <trkpt lat="44.23532" lon="6.21228">
        <ele>1551.8</ele>
        <time>2022-01-01T10:38:29Z</time>
      </trkpt>
      <trkpt lat="44.23533" lon="6.2123">
        <ele>1551.8</ele>
        <time>2022-01-01T10:38:30Z</time>
      </trkpt>
      <trkpt lat="44.23534" lon="6.21237">
        <ele>1551.4</ele>
        <time>2022-01-01T10:38:36Z</time>
      </trkpt>
      <trkpt lat="44.23533" lon="6.21239">
        <ele>1551.2</ele>
        <time>2022-01-01T10:38:38Z</time>
      </trkpt>
      <trkpt lat="44.23533" lon="6.21239">
        <ele>1551.2</ele>
        <time>2022-01-01T10:38:39Z</time>
      </trkpt>
      <trkpt lat="44.23533" lon="6.21244">
        <ele>1550.2</ele>
        <time>2022-01-01T10:38:44Z</time>
      </trkpt>
      <trkpt lat="44.23527" lon="6.21251">
        <ele>1550.2</ele>
        <time>2022-01-01T10:38:49Z</time>
      </trkpt>
      <trkpt lat="44.23525" lon="6.21253">
        <ele>1550.2</ele>
        <time>2022-01-01T10:38:52Z</time>
      </trkpt>
      <trkpt lat="44.23521" lon="6.21259">
        <ele>1549.4</ele>
        <time>2022-01-01T10:38:59Z</time>
      </trkpt>
      <trkpt lat="44.23521" lon="6.2126">
        <ele>1549.2</ele>
        <time>2022-01-01T10:39:00Z</time>
      </trkpt>
      <trkpt lat="44.2352" lon="6.21264">
        <ele>1548.6</ele>
        <time>2022-01-01T10:39:03Z</time>
      </trkpt>
      <trkpt lat="44.23517" lon="6.21268">
        <ele>1548.2</ele>
        <time>2022-01-01T10:39:07Z</time>
      </trkpt>
      <trkpt lat="44.23518" lon="6.2127">
        <ele>1548.2</ele>
        <time>2022-01-01T10:39:08Z</time>
      </trkpt>
      <trkpt lat="44.23517" lon="6.21271">
        <ele>1548</ele>
        <time>2022-01-01T10:39:09Z</time>
      </trkpt>
      <trkpt lat="44.23516" lon="6.21276">
        <ele>1548</ele>
        <time>2022-01-01T10:39:12Z</time>
      </trkpt>
      <trkpt lat="44.23515" lon="6.2128">
        <ele>1547.6</ele>
        <time>2022-01-01T10:39:15Z</time>
      </trkpt>
      <trkpt lat="44.23512" lon="6.21285">
        <ele>1547.2</ele>
        <time>2022-01-01T10:39:19Z</time>
      </trkpt>
      <trkpt lat="44.23508" lon="6.21292">
        <ele>1546.6</ele>
        <time>2022-01-01T10:39:24Z</time>
      </trkpt>
      <trkpt lat="44.23507" lon="6.21299">
        <ele>1546.6</ele>
        <time>2022-01-01T10:39:29Z</time>
      </trkpt>
      <trkpt lat="44.23507" lon="6.21304">
        <ele>1546.8</ele>
        <time>2022-01-01T10:39:32Z</time>
      </trkpt>
      <trkpt lat="44.23506" lon="6.21314">
        <ele>1546.8</ele>
        <time>2022-01-01T10:39:39Z</time>
      </trkpt>
      <trkpt lat="44.23505" lon="6.21318">
        <ele>1546.8</ele>
        <time>2022-01-01T10:39:42Z</time>
      </trkpt>
      <trkpt lat="44.23502" lon="6.21327">
        <ele>1547.8</ele>
        <time>2022-01-01T10:39:49Z</time>
      </trkpt>
      <trkpt lat="44.23501" lon="6.21332">
        <ele>1548.2</ele>
        <time>2022-01-01T10:39:52Z</time>
      </trkpt>
      <trkpt lat="44.23499" lon="6.2134">
        <ele>1548.6</ele>
        <time>2022-01-01T10:39:58Z</time>
      </trkpt>
      <trkpt lat="44.23499" lon="6.21342">
        <ele>1548.6</ele>
        <time>2022-01-01T10:39:59Z</time>
      </trkpt>
      <trkpt lat="44.23494" lon="6.21353">
        <ele>1549</ele>
        <time>2022-01-01T10:40:08Z</time>
      </trkpt>
      <trkpt lat="44.23493" lon="6.21353">
        <ele>1549</ele>
        <time>2022-01-01T10:40:09Z</time>
      </trkpt>
      <trkpt lat="44.23493" lon="6.21354">
        <ele>1549.2</ele>
        <time>2022-01-01T10:40:10Z</time>
      </trkpt>
      <trkpt lat="44.23492" lon="6.21356">
        <ele>1549.2</ele>
        <time>2022-01-01T10:40:11Z</time>
      </trkpt>
      <trkpt lat="44.23491" lon="6.2136">
        <ele>1549.8</ele>
        <time>2022-01-01T10:40:15Z</time>
      </trkpt>
      <trkpt lat="44.23491" lon="6.21362">
        <ele>1550.2</ele>
        <time>2022-01-01T10:40:17Z</time>
      </trkpt>
      <trkpt lat="44.2349" lon="6.21364">
        <ele>1550.6</ele>
        <time>2022-01-01T10:40:19Z</time>
      </trkpt>
      <trkpt lat="44.2349" lon="6.21367">
        <ele>1551.2</ele>
        <time>2022-01-01T10:40:22Z</time>
      </trkpt>
      <trkpt lat="44.2349" lon="6.21371">
        <ele>1551.8</ele>
        <time>2022-01-01T10:40:25Z</time>
      </trkpt>
      <trkpt lat="44.2349" lon="6.21374">
        <ele>1552.2</ele>
        <time>2022-01-01T10:40:28Z</time>
      </trkpt>
      <trkpt lat="44.2349" lon="6.21374">
        <ele>1552.4</ele>
        <time>2022-01-01T10:40:29Z</time>
      </trkpt>
      <trkpt lat="44.23488" lon="6.21378">
        <ele>1553.4</ele>
        <time>2022-01-01T10:40:34Z</time>
      </trkpt>
      <trkpt lat="44.23487" lon="6.2138">
        <ele>1553.8</ele>
        <time>2022-01-01T10:40:36Z</time>
      </trkpt>
      <trkpt lat="44.23486" lon="6.21383">
        <ele>1554</ele>
        <time>2022-01-01T10:40:39Z</time>
      </trkpt>
      <trkpt lat="44.23488" lon="6.21387">
        <ele>1554.4</ele>
        <time>2022-01-01T10:40:43Z</time>
      </trkpt>
      <trkpt lat="44.23491" lon="6.21391">
        <ele>1555.6</ele>
        <time>2022-01-01T10:40:49Z</time>
      </trkpt>
      <trkpt lat="44.23493" lon="6.21393">
        <ele>1556.8</ele>
        <time>2022-01-01T10:40:54Z</time>
      </trkpt>
      <trkpt lat="44.23494" lon="6.21397">
        <ele>1557.4</ele>
        <time>2022-01-01T10:40:59Z</time>
      </trkpt>
      <trkpt lat="44.23495" lon="6.21399">
        <ele>1557.8</ele>
        <time>2022-01-01T10:41:01Z</time>
      </trkpt>
      <trkpt lat="44.23496" lon="6.21407">
        <ele>1559</ele>
        <time>2022-01-01T10:41:09Z</time>
      </trkpt>
      <trkpt lat="44.235" lon="6.21413">
        <ele>1560.2</ele>
        <time>2022-01-01T10:41:15Z</time>
      </trkpt>
      <trkpt lat="44.23501" lon="6.21416">
        <ele>1560.8</ele>
        <time>2022-01-01T10:41:19Z</time>
      </trkpt>
      <trkpt lat="44.23502" lon="6.21417">
        <ele>1561.2</ele>
        <time>2022-01-01T10:41:22Z</time>
      </trkpt>
      <trkpt lat="44.23503" lon="6.2142">
        <ele>1562</ele>
        <time>2022-01-01T10:41:29Z</time>
      </trkpt>
      <trkpt lat="44.23503" lon="6.21422">
        <ele>1562.2</ele>
        <time>2022-01-01T10:41:32Z</time>
      </trkpt>
      <trkpt lat="44.23503" lon="6.21428">
        <ele>1563.2</ele>
        <time>2022-01-01T10:41:39Z</time>
      </trkpt>
      <trkpt lat="44.23502" lon="6.21429">
        <ele>1563.4</ele>
        <time>2022-01-01T10:41:40Z</time>
      </trkpt>
      <trkpt lat="44.23505" lon="6.21443">
        <ele>1564.6</ele>
        <time>2022-01-01T10:41:49Z</time>
      </trkpt>
      <trkpt lat="44.23506" lon="6.21445">
        <ele>1564.6</ele>
        <time>2022-01-01T10:41:51Z</time>
      </trkpt>
      <trkpt lat="44.23507" lon="6.21446">
        <ele>1564.6</ele>
        <time>2022-01-01T10:41:52Z</time>
      </trkpt>
      <trkpt lat="44.23508" lon="6.21447">
        <ele>1564.8</ele>
        <time>2022-01-01T10:41:53Z</time>
      </trkpt>
      <trkpt lat="44.23508" lon="6.21448">
        <ele>1564.8</ele>
        <time>2022-01-01T10:41:54Z</time>
      </trkpt>
      <trkpt lat="44.23508" lon="6.21449">
        <ele>1564.8</ele>
        <time>2022-01-01T10:41:55Z</time>
      </trkpt>
      <trkpt lat="44.23508" lon="6.2145">
        <ele>1564.8</ele>
        <time>2022-01-01T10:41:56Z</time>
      </trkpt>
      <trkpt lat="44.23509" lon="6.21451">
        <ele>1564.8</ele>
        <time>2022-01-01T10:41:57Z</time>
      </trkpt>
      <trkpt lat="44.2351" lon="6.21452">
        <ele>1564.8</ele>
        <time>2022-01-01T10:41:59Z</time>
      </trkpt>
      <trkpt lat="44.23512" lon="6.21454">
        <ele>1565</ele>
        <time>2022-01-01T10:42:01Z</time>
      </trkpt>
      <trkpt lat="44.23513" lon="6.21456">
        <ele>1565.4</ele>
        <time>2022-01-01T10:42:03Z</time>
      </trkpt>
      <trkpt lat="44.23514" lon="6.21459">
        <ele>1565.6</ele>
        <time>2022-01-01T10:42:06Z</time>
      </trkpt>
      <trkpt lat="44.23514" lon="6.2146">
        <ele>1565.8</ele>
        <time>2022-01-01T10:42:07Z</time>
      </trkpt>
      <trkpt lat="44.23513" lon="6.21463">
        <ele>1566</ele>
        <time>2022-01-01T10:42:09Z</time>
      </trkpt>
      <trkpt lat="44.23513" lon="6.2147">
        <ele>1566.4</ele>
        <time>2022-01-01T10:42:14Z</time>
      </trkpt>
      <trkpt lat="44.23514" lon="6.21473">
        <ele>1566.6</ele>
        <time>2022-01-01T10:42:16Z</time>
      </trkpt>
      <trkpt lat="44.23514" lon="6.21475">
        <ele>1566.6</ele>
        <time>2022-01-01T10:42:18Z</time>
      </trkpt>
      <trkpt lat="44.23514" lon="6.21476">
        <ele>1566.4</ele>
        <time>2022-01-01T10:42:19Z</time>
      </trkpt>
      <trkpt lat="44.23515" lon="6.21479">
        <ele>1566.2</ele>
        <time>2022-01-01T10:42:21Z</time>
      </trkpt>
      <trkpt lat="44.23516" lon="6.21485">
        <ele>1566.2</ele>
        <time>2022-01-01T10:42:25Z</time>
      </trkpt>
      <trkpt lat="44.23516" lon="6.21489">
        <ele>1566.2</ele>
        <time>2022-01-01T10:42:28Z</time>
      </trkpt>
      <trkpt lat="44.23516" lon="6.2149">
        <ele>1566.2</ele>
        <time>2022-01-01T10:42:29Z</time>
      </trkpt>
      <trkpt lat="44.23517" lon="6.21493">
        <ele>1566</ele>
        <time>2022-01-01T10:42:31Z</time>
      </trkpt>
      <trkpt lat="44.23521" lon="6.21495">
        <ele>1565.8</ele>
        <time>2022-01-01T10:42:35Z</time>
      </trkpt>
      <trkpt lat="44.23523" lon="6.21496">
        <ele>1565.6</ele>
        <time>2022-01-01T10:42:38Z</time>
      </trkpt>
      <trkpt lat="44.23524" lon="6.21497">
        <ele>1565.6</ele>
        <time>2022-01-01T10:42:39Z</time>
      </trkpt>
      <trkpt lat="44.23525" lon="6.21498">
        <ele>1565.4</ele>
        <time>2022-01-01T10:42:41Z</time>
      </trkpt>
      <trkpt lat="44.23526" lon="6.215">
        <ele>1565.2</ele>
        <time>2022-01-01T10:42:43Z</time>
      </trkpt>
      <trkpt lat="44.23528" lon="6.21503">
        <ele>1564.6</ele>
        <time>2022-01-01T10:42:47Z</time>
      </trkpt>
      <trkpt lat="44.23528" lon="6.21505">
        <ele>1564.6</ele>
        <time>2022-01-01T10:42:49Z</time>
      </trkpt>
      <trkpt lat="44.23527" lon="6.21507">
        <ele>1564.8</ele>
        <time>2022-01-01T10:42:51Z</time>
      </trkpt>
      <trkpt lat="44.23524" lon="6.21514">
        <ele>1565.6</ele>
        <time>2022-01-01T10:42:56Z</time>
      </trkpt>
      <trkpt lat="44.23523" lon="6.21515">
        <ele>1565.6</ele>
        <time>2022-01-01T10:42:57Z</time>
      </trkpt>
      <trkpt lat="44.23522" lon="6.21516">
        <ele>1566</ele>
        <time>2022-01-01T10:42:59Z</time>
      </trkpt>
      <trkpt lat="44.2352" lon="6.2152">
        <ele>1566.6</ele>
        <time>2022-01-01T10:43:04Z</time>
      </trkpt>
      <trkpt lat="44.23517" lon="6.21522">
        <ele>1567</ele>
        <time>2022-01-01T10:43:09Z</time>
      </trkpt>
      <trkpt lat="44.23516" lon="6.21524">
        <ele>1567.8</ele>
        <time>2022-01-01T10:43:14Z</time>
      </trkpt>
      <trkpt lat="44.23516" lon="6.21523">
        <ele>1568</ele>
        <time>2022-01-01T10:43:19Z</time>
      </trkpt>
      <trkpt lat="44.23517" lon="6.21523">
        <ele>1568.2</ele>
        <time>2022-01-01T10:43:25Z</time>
      </trkpt>
      <trkpt lat="44.23517" lon="6.21522">
        <ele>1568.4</ele>
        <time>2022-01-01T10:43:29Z</time>
      </trkpt>
      <trkpt lat="44.23516" lon="6.21527">
        <ele>1568.8</ele>
        <time>2022-01-01T10:43:37Z</time>
      </trkpt>
      <trkpt lat="44.23517" lon="6.21529">
        <ele>1569</ele>
        <time>2022-01-01T10:43:39Z</time>
      </trkpt>
      <trkpt lat="44.23519" lon="6.21534">
        <ele>1569.6</ele>
        <time>2022-01-01T10:43:44Z</time>
      </trkpt>
      <trkpt lat="44.2352" lon="6.21537">
        <ele>1570</ele>
        <time>2022-01-01T10:43:48Z</time>
      </trkpt>
      <trkpt lat="44.23521" lon="6.21538">
        <ele>1570.2</ele>
        <time>2022-01-01T10:43:49Z</time>
      </trkpt>
      <trkpt lat="44.23524" lon="6.21546">
        <ele>1571</ele>
        <time>2022-01-01T10:43:54Z</time>
      </trkpt>
      <trkpt lat="44.23526" lon="6.21549">
        <ele>1571.4</ele>
        <time>2022-01-01T10:43:56Z</time>
      </trkpt>
      <trkpt lat="44.23526" lon="6.2155">
        <ele>1571.8</ele>
        <time>2022-01-01T10:43:58Z</time>
      </trkpt>
      <trkpt lat="44.23526" lon="6.2155">
        <ele>1572</ele>
        <time>2022-01-01T10:43:59Z</time>
      </trkpt>
      <trkpt lat="44.23527" lon="6.2155">
        <ele>1572.2</ele>
        <time>2022-01-01T10:44:00Z</time>
      </trkpt>
      <trkpt lat="44.2353" lon="6.21554">
        <ele>1573.4</ele>
        <time>2022-01-01T10:44:05Z</time>
      </trkpt>
      <trkpt lat="44.2353" lon="6.21556">
        <ele>1574</ele>
        <time>2022-01-01T10:44:07Z</time>
      </trkpt>
      <trkpt lat="44.2353" lon="6.21557">
        <ele>1574.4</ele>
        <time>2022-01-01T10:44:09Z</time>
      </trkpt>
      <trkpt lat="44.23531" lon="6.21558">
        <ele>1574.6</ele>
        <time>2022-01-01T10:44:10Z</time>
      </trkpt>
      <trkpt lat="44.23531" lon="6.2156">
        <ele>1574.8</ele>
        <time>2022-01-01T10:44:11Z</time>
      </trkpt>
      <trkpt lat="44.23532" lon="6.21561">
        <ele>1575</ele>
        <time>2022-01-01T10:44:12Z</time>
      </trkpt>
      <trkpt lat="44.23532" lon="6.21561">
        <ele>1575.2</ele>
        <time>2022-01-01T10:44:13Z</time>
      </trkpt>
      <trkpt lat="44.23532" lon="6.21563">
        <ele>1575.4</ele>
        <time>2022-01-01T10:44:14Z</time>
      </trkpt>
      <trkpt lat="44.23534" lon="6.21565">
        <ele>1575.6</ele>
        <time>2022-01-01T10:44:16Z</time>
      </trkpt>
      <trkpt lat="44.23536" lon="6.21568">
        <ele>1576.4</ele>
        <time>2022-01-01T10:44:19Z</time>
      </trkpt>
      <trkpt lat="44.23536" lon="6.2157">
        <ele>1576.6</ele>
        <time>2022-01-01T10:44:20Z</time>
      </trkpt>
      <trkpt lat="44.23536" lon="6.21571">
        <ele>1576.8</ele>
        <time>2022-01-01T10:44:21Z</time>
      </trkpt>
      <trkpt lat="44.23537" lon="6.21573">
        <ele>1576.8</ele>
        <time>2022-01-01T10:44:22Z</time>
      </trkpt>
      <trkpt lat="44.23539" lon="6.2158">
        <ele>1577.4</ele>
        <time>2022-01-01T10:44:26Z</time>
      </trkpt>
      <trkpt lat="44.23539" lon="6.21581">
        <ele>1577.6</ele>
        <time>2022-01-01T10:44:27Z</time>
      </trkpt>
      <trkpt lat="44.2354" lon="6.21583">
        <ele>1577.8</ele>
        <time>2022-01-01T10:44:28Z</time>
      </trkpt>
      <trkpt lat="44.2354" lon="6.21584">
        <ele>1578</ele>
        <time>2022-01-01T10:44:29Z</time>
      </trkpt>
      <trkpt lat="44.23541" lon="6.21586">
        <ele>1578.2</ele>
        <time>2022-01-01T10:44:31Z</time>
      </trkpt>
      <trkpt lat="44.23542" lon="6.21592">
        <ele>1578.4</ele>
        <time>2022-01-01T10:44:35Z</time>
      </trkpt>
      <trkpt lat="44.23542" lon="6.21594">
        <ele>1578.4</ele>
        <time>2022-01-01T10:44:37Z</time>
      </trkpt>
      <trkpt lat="44.23541" lon="6.21596">
        <ele>1578.8</ele>
        <time>2022-01-01T10:44:39Z</time>
      </trkpt>
      <trkpt lat="44.2354" lon="6.21597">
        <ele>1579</ele>
        <time>2022-01-01T10:44:40Z</time>
      </trkpt>
      <trkpt lat="44.2354" lon="6.21605">
        <ele>1579.4</ele>
        <time>2022-01-01T10:44:45Z</time>
      </trkpt>
      <trkpt lat="44.2354" lon="6.21609">
        <ele>1579.6</ele>
        <time>2022-01-01T10:44:49Z</time>
      </trkpt>
      <trkpt lat="44.2354" lon="6.2161">
        <ele>1580</ele>
        <time>2022-01-01T10:44:51Z</time>
      </trkpt>
      <trkpt lat="44.23541" lon="6.21613">
        <ele>1580.4</ele>
        <time>2022-01-01T10:44:54Z</time>
      </trkpt>
      <trkpt lat="44.23542" lon="6.21616">
        <ele>1580.6</ele>
        <time>2022-01-01T10:44:56Z</time>
      </trkpt>
      <trkpt lat="44.23543" lon="6.2162">
        <ele>1581</ele>
        <time>2022-01-01T10:44:58Z</time>
      </trkpt>
      <trkpt lat="44.23543" lon="6.21621">
        <ele>1581.2</ele>
        <time>2022-01-01T10:44:59Z</time>
      </trkpt>
      <trkpt lat="44.23543" lon="6.21623">
        <ele>1581.2</ele>
        <time>2022-01-01T10:45:00Z</time>
      </trkpt>
      <trkpt lat="44.23544" lon="6.21627">
        <ele>1581.8</ele>
        <time>2022-01-01T10:45:03Z</time>
      </trkpt>
      <trkpt lat="44.23545" lon="6.21628">
        <ele>1582</ele>
        <time>2022-01-01T10:45:04Z</time>
      </trkpt>
      <trkpt lat="44.23547" lon="6.21632">
        <ele>1582.4</ele>
        <time>2022-01-01T10:45:07Z</time>
      </trkpt>
      <trkpt lat="44.23549" lon="6.21634">
        <ele>1582.8</ele>
        <time>2022-01-01T10:45:09Z</time>
      </trkpt>
      <trkpt lat="44.23549" lon="6.21635">
        <ele>1582.8</ele>
        <time>2022-01-01T10:45:10Z</time>
      </trkpt>
      <trkpt lat="44.2355" lon="6.21637">
        <ele>1583.2</ele>
        <time>2022-01-01T10:45:12Z</time>
      </trkpt>
      <trkpt lat="44.23551" lon="6.21637">
        <ele>1583.4</ele>
        <time>2022-01-01T10:45:13Z</time>
      </trkpt>
      <trkpt lat="44.23552" lon="6.2164">
        <ele>1584.2</ele>
        <time>2022-01-01T10:45:16Z</time>
      </trkpt>
      <trkpt lat="44.23551" lon="6.21641">
        <ele>1584.4</ele>
        <time>2022-01-01T10:45:17Z</time>
      </trkpt>
      <trkpt lat="44.23551" lon="6.21643">
        <ele>1584.6</ele>
        <time>2022-01-01T10:45:18Z</time>
      </trkpt>
      <trkpt lat="44.23551" lon="6.21645">
        <ele>1584.8</ele>
        <time>2022-01-01T10:45:19Z</time>
      </trkpt>
      <trkpt lat="44.23551" lon="6.21647">
        <ele>1585</ele>
        <time>2022-01-01T10:45:20Z</time>
      </trkpt>
      <trkpt lat="44.23551" lon="6.21651">
        <ele>1585.4</ele>
        <time>2022-01-01T10:45:23Z</time>
      </trkpt>
      <trkpt lat="44.23551" lon="6.21654">
        <ele>1585.6</ele>
        <time>2022-01-01T10:45:25Z</time>
      </trkpt>
      <trkpt lat="44.23552" lon="6.21657">
        <ele>1586.4</ele>
        <time>2022-01-01T10:45:28Z</time>
      </trkpt>
      <trkpt lat="44.23553" lon="6.21658">
        <ele>1586.4</ele>
        <time>2022-01-01T10:45:29Z</time>
      </trkpt>
      <trkpt lat="44.23553" lon="6.21659">
        <ele>1586.6</ele>
        <time>2022-01-01T10:45:30Z</time>
      </trkpt>
      <trkpt lat="44.23555" lon="6.21661">
        <ele>1586.8</ele>
        <time>2022-01-01T10:45:32Z</time>
      </trkpt>
      <trkpt lat="44.23556" lon="6.21664">
        <ele>1587.2</ele>
        <time>2022-01-01T10:45:35Z</time>
      </trkpt>
      <trkpt lat="44.23557" lon="6.21665">
        <ele>1587.6</ele>
        <time>2022-01-01T10:45:37Z</time>
      </trkpt>
      <trkpt lat="44.23556" lon="6.21668">
        <ele>1588</ele>
        <time>2022-01-01T10:45:39Z</time>
      </trkpt>
      <trkpt lat="44.23557" lon="6.2167">
        <ele>1588.2</ele>
        <time>2022-01-01T10:45:41Z</time>
      </trkpt>
      <trkpt lat="44.23557" lon="6.21672">
        <ele>1588.6</ele>
        <time>2022-01-01T10:45:43Z</time>
      </trkpt>
      <trkpt lat="44.23556" lon="6.21676">
        <ele>1589.2</ele>
        <time>2022-01-01T10:45:46Z</time>
      </trkpt>
      <trkpt lat="44.23556" lon="6.2168">
        <ele>1589.8</ele>
        <time>2022-01-01T10:45:49Z</time>
      </trkpt>
      <trkpt lat="44.23556" lon="6.21682">
        <ele>1590</ele>
        <time>2022-01-01T10:45:50Z</time>
      </trkpt>
      <trkpt lat="44.23557" lon="6.2169">
        <ele>1591</ele>
        <time>2022-01-01T10:45:57Z</time>
      </trkpt>
      <trkpt lat="44.23559" lon="6.21693">
        <ele>1591.2</ele>
        <time>2022-01-01T10:45:59Z</time>
      </trkpt>
      <trkpt lat="44.23561" lon="6.21697">
        <ele>1591.6</ele>
        <time>2022-01-01T10:46:03Z</time>
      </trkpt>
      <trkpt lat="44.23562" lon="6.21701">
        <ele>1592</ele>
        <time>2022-01-01T10:46:06Z</time>
      </trkpt>
      <trkpt lat="44.23561" lon="6.21705">
        <ele>1592.4</ele>
        <time>2022-01-01T10:46:09Z</time>
      </trkpt>
      <trkpt lat="44.23562" lon="6.21706">
        <ele>1592.6</ele>
        <time>2022-01-01T10:46:10Z</time>
      </trkpt>
      <trkpt lat="44.23562" lon="6.21709">
        <ele>1592.8</ele>
        <time>2022-01-01T10:46:13Z</time>
      </trkpt>
      <trkpt lat="44.23562" lon="6.2171">
        <ele>1593</ele>
        <time>2022-01-01T10:46:14Z</time>
      </trkpt>
      <trkpt lat="44.23563" lon="6.21715">
        <ele>1593.8</ele>
        <time>2022-01-01T10:46:18Z</time>
      </trkpt>
      <trkpt lat="44.23563" lon="6.21716">
        <ele>1594</ele>
        <time>2022-01-01T10:46:19Z</time>
      </trkpt>
      <trkpt lat="44.23563" lon="6.21717">
        <ele>1594.2</ele>
        <time>2022-01-01T10:46:20Z</time>
      </trkpt>
      <trkpt lat="44.23563" lon="6.2172">
        <ele>1594.6</ele>
        <time>2022-01-01T10:46:22Z</time>
      </trkpt>
      <trkpt lat="44.23564" lon="6.21722">
        <ele>1595</ele>
        <time>2022-01-01T10:46:24Z</time>
      </trkpt>
      <trkpt lat="44.23564" lon="6.21724">
        <ele>1595.4</ele>
        <time>2022-01-01T10:46:26Z</time>
      </trkpt>
      <trkpt lat="44.23565" lon="6.21727">
        <ele>1595.8</ele>
        <time>2022-01-01T10:46:29Z</time>
      </trkpt>
      <trkpt lat="44.23565" lon="6.21729">
        <ele>1596.2</ele>
        <time>2022-01-01T10:46:31Z</time>
      </trkpt>
      <trkpt lat="44.23566" lon="6.2173">
        <ele>1596.4</ele>
        <time>2022-01-01T10:46:32Z</time>
      </trkpt>
      <trkpt lat="44.23566" lon="6.21732">
        <ele>1596.6</ele>
        <time>2022-01-01T10:46:34Z</time>
      </trkpt>
      <trkpt lat="44.23567" lon="6.21733">
        <ele>1597</ele>
        <time>2022-01-01T10:46:36Z</time>
      </trkpt>
      <trkpt lat="44.23567" lon="6.21735">
        <ele>1597.6</ele>
        <time>2022-01-01T10:46:39Z</time>
      </trkpt>
      <trkpt lat="44.23568" lon="6.2174">
        <ele>1598.2</ele>
        <time>2022-01-01T10:46:43Z</time>
      </trkpt>
      <trkpt lat="44.23568" lon="6.21743">
        <ele>1598.6</ele>
        <time>2022-01-01T10:46:45Z</time>
      </trkpt>
      <trkpt lat="44.23569" lon="6.21748">
        <ele>1599.2</ele>
        <time>2022-01-01T10:46:49Z</time>
      </trkpt>
      <trkpt lat="44.23571" lon="6.2175">
        <ele>1599.6</ele>
        <time>2022-01-01T10:46:52Z</time>
      </trkpt>
      <trkpt lat="44.23571" lon="6.21751">
        <ele>1599.8</ele>
        <time>2022-01-01T10:46:53Z</time>
      </trkpt>
      <trkpt lat="44.23571" lon="6.21751">
        <ele>1599.8</ele>
        <time>2022-01-01T10:46:54Z</time>
      </trkpt>
      <trkpt lat="44.23573" lon="6.21756">
        <ele>1600.8</ele>
        <time>2022-01-01T10:46:59Z</time>
      </trkpt>
      <trkpt lat="44.23575" lon="6.21761">
        <ele>1602</ele>
        <time>2022-01-01T10:47:05Z</time>
      </trkpt>
      <trkpt lat="44.23576" lon="6.21764">
        <ele>1602.6</ele>
        <time>2022-01-01T10:47:09Z</time>
      </trkpt>
      <trkpt lat="44.23577" lon="6.21766">
        <ele>1603.2</ele>
        <time>2022-01-01T10:47:11Z</time>
      </trkpt>
      <trkpt lat="44.2358" lon="6.21767">
        <ele>1604.2</ele>
        <time>2022-01-01T10:47:15Z</time>
      </trkpt>
      <trkpt lat="44.23581" lon="6.21769">
        <ele>1604.8</ele>
        <time>2022-01-01T10:47:19Z</time>
      </trkpt>
      <trkpt lat="44.23581" lon="6.21773">
        <ele>1605.2</ele>
        <time>2022-01-01T10:47:23Z</time>
      </trkpt>
      <trkpt lat="44.23577" lon="6.21779">
        <ele>1605.8</ele>
        <time>2022-01-01T10:47:29Z</time>
      </trkpt>
      <trkpt lat="44.23576" lon="6.21785">
        <ele>1606.2</ele>
        <time>2022-01-01T10:47:33Z</time>
      </trkpt>
      <trkpt lat="44.23576" lon="6.21786">
        <ele>1606.4</ele>
        <time>2022-01-01T10:47:34Z</time>
      </trkpt>
      <trkpt lat="44.23575" lon="6.21793">
        <ele>1606.8</ele>
        <time>2022-01-01T10:47:39Z</time>
      </trkpt>
      <trkpt lat="44.23575" lon="6.21794">
        <ele>1606.8</ele>
        <time>2022-01-01T10:47:40Z</time>
      </trkpt>
      <trkpt lat="44.23576" lon="6.21797">
        <ele>1607.6</ele>
        <time>2022-01-01T10:47:43Z</time>
      </trkpt>
      <trkpt lat="44.23576" lon="6.218">
        <ele>1607.8</ele>
        <time>2022-01-01T10:47:45Z</time>
      </trkpt>
      <trkpt lat="44.23576" lon="6.21803">
        <ele>1608.2</ele>
        <time>2022-01-01T10:47:47Z</time>
      </trkpt>
      <trkpt lat="44.23577" lon="6.21806">
        <ele>1608.4</ele>
        <time>2022-01-01T10:47:49Z</time>
      </trkpt>
      <trkpt lat="44.23577" lon="6.21807">
        <ele>1608.6</ele>
        <time>2022-01-01T10:47:50Z</time>
      </trkpt>
      <trkpt lat="44.2358" lon="6.21811">
        <ele>1609.6</ele>
        <time>2022-01-01T10:47:55Z</time>
      </trkpt>
      <trkpt lat="44.2358" lon="6.21812">
        <ele>1609.8</ele>
        <time>2022-01-01T10:47:56Z</time>
      </trkpt>
      <trkpt lat="44.23581" lon="6.21814">
        <ele>1610.4</ele>
        <time>2022-01-01T10:47:59Z</time>
      </trkpt>
      <trkpt lat="44.23581" lon="6.21815">
        <ele>1610.6</ele>
        <time>2022-01-01T10:48:00Z</time>
      </trkpt>
      <trkpt lat="44.2358" lon="6.21818">
        <ele>1611</ele>
        <time>2022-01-01T10:48:02Z</time>
      </trkpt>
      <trkpt lat="44.2358" lon="6.21822">
        <ele>1611.6</ele>
        <time>2022-01-01T10:48:05Z</time>
      </trkpt>
      <trkpt lat="44.2358" lon="6.21826">
        <ele>1612</ele>
        <time>2022-01-01T10:48:08Z</time>
      </trkpt>
      <trkpt lat="44.2358" lon="6.21827">
        <ele>1612.2</ele>
        <time>2022-01-01T10:48:09Z</time>
      </trkpt>
      <trkpt lat="44.2358" lon="6.21831">
        <ele>1612.6</ele>
        <time>2022-01-01T10:48:12Z</time>
      </trkpt>
      <trkpt lat="44.2358" lon="6.21834">
        <ele>1612.8</ele>
        <time>2022-01-01T10:48:15Z</time>
      </trkpt>
      <trkpt lat="44.2358" lon="6.21836">
        <ele>1613.2</ele>
        <time>2022-01-01T10:48:17Z</time>
      </trkpt>
      <trkpt lat="44.23579" lon="6.21839">
        <ele>1613.4</ele>
        <time>2022-01-01T10:48:19Z</time>
      </trkpt>
      <trkpt lat="44.23577" lon="6.21844">
        <ele>1614</ele>
        <time>2022-01-01T10:48:24Z</time>
      </trkpt>
      <trkpt lat="44.23577" lon="6.21846">
        <ele>1614.2</ele>
        <time>2022-01-01T10:48:26Z</time>
      </trkpt>
      <trkpt lat="44.23578" lon="6.2185">
        <ele>1614.6</ele>
        <time>2022-01-01T10:48:29Z</time>
      </trkpt>
      <trkpt lat="44.2358" lon="6.21853">
        <ele>1615</ele>
        <time>2022-01-01T10:48:32Z</time>
      </trkpt>
      <trkpt lat="44.23581" lon="6.21856">
        <ele>1615.4</ele>
        <time>2022-01-01T10:48:35Z</time>
      </trkpt>
      <trkpt lat="44.23582" lon="6.21857">
        <ele>1615.6</ele>
        <time>2022-01-01T10:48:36Z</time>
      </trkpt>
      <trkpt lat="44.23583" lon="6.2186">
        <ele>1616</ele>
        <time>2022-01-01T10:48:39Z</time>
      </trkpt>
      <trkpt lat="44.23583" lon="6.21864">
        <ele>1616.4</ele>
        <time>2022-01-01T10:48:42Z</time>
      </trkpt>
      <trkpt lat="44.23585" lon="6.21873">
        <ele>1617</ele>
        <time>2022-01-01T10:48:49Z</time>
      </trkpt>
      <trkpt lat="44.23585" lon="6.21874">
        <ele>1617</ele>
        <time>2022-01-01T10:48:50Z</time>
      </trkpt>
      <trkpt lat="44.23586" lon="6.21881">
        <ele>1616.8</ele>
        <time>2022-01-01T10:48:55Z</time>
      </trkpt>
      <trkpt lat="44.23588" lon="6.21885">
        <ele>1616.8</ele>
        <time>2022-01-01T10:48:59Z</time>
      </trkpt>
      <trkpt lat="44.23594" lon="6.2189">
        <ele>1617</ele>
        <time>2022-01-01T10:49:05Z</time>
      </trkpt>
      <trkpt lat="44.23594" lon="6.21892">
        <ele>1617</ele>
        <time>2022-01-01T10:49:06Z</time>
      </trkpt>
      <trkpt lat="44.23596" lon="6.21894">
        <ele>1617.2</ele>
        <time>2022-01-01T10:49:09Z</time>
      </trkpt>
      <trkpt lat="44.23598" lon="6.21898">
        <ele>1617.6</ele>
        <time>2022-01-01T10:49:12Z</time>
      </trkpt>
      <trkpt lat="44.23602" lon="6.21905">
        <ele>1618.4</ele>
        <time>2022-01-01T10:49:19Z</time>
      </trkpt>
      <trkpt lat="44.23604" lon="6.21907">
        <ele>1618.6</ele>
        <time>2022-01-01T10:49:21Z</time>
      </trkpt>
      <trkpt lat="44.23604" lon="6.21908">
        <ele>1618.8</ele>
        <time>2022-01-01T10:49:22Z</time>
      </trkpt>
      <trkpt lat="44.23607" lon="6.21912">
        <ele>1619.2</ele>
        <time>2022-01-01T10:49:26Z</time>
      </trkpt>
      <trkpt lat="44.23608" lon="6.21915">
        <ele>1619.4</ele>
        <time>2022-01-01T10:49:29Z</time>
      </trkpt>
      <trkpt lat="44.23609" lon="6.21917">
        <ele>1619.6</ele>
        <time>2022-01-01T10:49:31Z</time>
      </trkpt>
      <trkpt lat="44.23609" lon="6.21918">
        <ele>1619.8</ele>
        <time>2022-01-01T10:49:32Z</time>
      </trkpt>
      <trkpt lat="44.23605" lon="6.21925">
        <ele>1620.4</ele>
        <time>2022-01-01T10:49:39Z</time>
      </trkpt>
      <trkpt lat="44.23601" lon="6.21928">
        <ele>1620.8</ele>
        <time>2022-01-01T10:49:42Z</time>
      </trkpt>
      <trkpt lat="44.23597" lon="6.21938">
        <ele>1621.6</ele>
        <time>2022-01-01T10:49:49Z</time>
      </trkpt>
      <trkpt lat="44.23597" lon="6.2194">
        <ele>1621.8</ele>
        <time>2022-01-01T10:49:51Z</time>
      </trkpt>
      <trkpt lat="44.23595" lon="6.21947">
        <ele>1622.2</ele>
        <time>2022-01-01T10:49:59Z</time>
      </trkpt>
      <trkpt lat="44.23594" lon="6.21957">
        <ele>1623</ele>
        <time>2022-01-01T10:50:06Z</time>
      </trkpt>
      <trkpt lat="44.23594" lon="6.21961">
        <ele>1623.2</ele>
        <time>2022-01-01T10:50:09Z</time>
      </trkpt>
      <trkpt lat="44.23593" lon="6.21964">
        <ele>1623.4</ele>
        <time>2022-01-01T10:50:11Z</time>
      </trkpt>
      <trkpt lat="44.2359" lon="6.21978">
        <ele>1623.6</ele>
        <time>2022-01-01T10:50:19Z</time>
      </trkpt>
      <trkpt lat="44.2359" lon="6.2198">
        <ele>1623.6</ele>
        <time>2022-01-01T10:50:20Z</time>
      </trkpt>
      <trkpt lat="44.2359" lon="6.21985">
        <ele>1624</ele>
        <time>2022-01-01T10:50:23Z</time>
      </trkpt>
      <trkpt lat="44.23591" lon="6.21993">
        <ele>1624.4</ele>
        <time>2022-01-01T10:50:29Z</time>
      </trkpt>
      <trkpt lat="44.23591" lon="6.21995">
        <ele>1624.4</ele>
        <time>2022-01-01T10:50:30Z</time>
      </trkpt>
      <trkpt lat="44.23591" lon="6.21998">
        <ele>1624.4</ele>
        <time>2022-01-01T10:50:32Z</time>
      </trkpt>
      <trkpt lat="44.23592" lon="6.22008">
        <ele>1625</ele>
        <time>2022-01-01T10:50:39Z</time>
      </trkpt>
      <trkpt lat="44.23593" lon="6.22016">
        <ele>1625</ele>
        <time>2022-01-01T10:50:44Z</time>
      </trkpt>
      <trkpt lat="44.23594" lon="6.22023">
        <ele>1625.4</ele>
        <time>2022-01-01T10:50:49Z</time>
      </trkpt>
      <trkpt lat="44.23596" lon="6.22028">
        <ele>1625.6</ele>
        <time>2022-01-01T10:50:53Z</time>
      </trkpt>
      <trkpt lat="44.23597" lon="6.2203">
        <ele>1625.8</ele>
        <time>2022-01-01T10:50:55Z</time>
      </trkpt>
      <trkpt lat="44.23597" lon="6.22031">
        <ele>1626</ele>
        <time>2022-01-01T10:50:56Z</time>
      </trkpt>
      <trkpt lat="44.23597" lon="6.22032">
        <ele>1626</ele>
        <time>2022-01-01T10:50:57Z</time>
      </trkpt>
      <trkpt lat="44.23598" lon="6.22035">
        <ele>1626.2</ele>
        <time>2022-01-01T10:50:59Z</time>
      </trkpt>
      <trkpt lat="44.23599" lon="6.22036">
        <ele>1626.2</ele>
        <time>2022-01-01T10:51:00Z</time>
      </trkpt>
      <trkpt lat="44.23599" lon="6.22037">
        <ele>1626.2</ele>
        <time>2022-01-01T10:51:01Z</time>
      </trkpt>
      <trkpt lat="44.236" lon="6.2204">
        <ele>1626.4</ele>
        <time>2022-01-01T10:51:03Z</time>
      </trkpt>
      <trkpt lat="44.23601" lon="6.22042">
        <ele>1626.4</ele>
        <time>2022-01-01T10:51:05Z</time>
      </trkpt>
      <trkpt lat="44.23603" lon="6.22046">
        <ele>1626.8</ele>
        <time>2022-01-01T10:51:09Z</time>
      </trkpt>
      <trkpt lat="44.23604" lon="6.22057">
        <ele>1627.2</ele>
        <time>2022-01-01T10:51:16Z</time>
      </trkpt>
      <trkpt lat="44.23604" lon="6.22058">
        <ele>1627.2</ele>
        <time>2022-01-01T10:51:17Z</time>
      </trkpt>
      <trkpt lat="44.23605" lon="6.2206">
        <ele>1627.2</ele>
        <time>2022-01-01T10:51:19Z</time>
      </trkpt>
      <trkpt lat="44.23606" lon="6.22063">
        <ele>1627.2</ele>
        <time>2022-01-01T10:51:21Z</time>
      </trkpt>
      <trkpt lat="44.23609" lon="6.2207">
        <ele>1627.6</ele>
        <time>2022-01-01T10:51:28Z</time>
      </trkpt>
      <trkpt lat="44.23609" lon="6.22071">
        <ele>1627.8</ele>
        <time>2022-01-01T10:51:29Z</time>
      </trkpt>
      <trkpt lat="44.23612" lon="6.22075">
        <ele>1628</ele>
        <time>2022-01-01T10:51:33Z</time>
      </trkpt>
      <trkpt lat="44.23613" lon="6.22076">
        <ele>1628.2</ele>
        <time>2022-01-01T10:51:34Z</time>
      </trkpt>
      <trkpt lat="44.23614" lon="6.22078">
        <ele>1628.4</ele>
        <time>2022-01-01T10:51:36Z</time>
      </trkpt>
      <trkpt lat="44.23616" lon="6.2208">
        <ele>1628.8</ele>
        <time>2022-01-01T10:51:39Z</time>
      </trkpt>
      <trkpt lat="44.23618" lon="6.22082">
        <ele>1629</ele>
        <time>2022-01-01T10:51:41Z</time>
      </trkpt>
      <trkpt lat="44.23618" lon="6.22082">
        <ele>1629</ele>
        <time>2022-01-01T10:51:42Z</time>
      </trkpt>
      <trkpt lat="44.23619" lon="6.22083">
        <ele>1629.2</ele>
        <time>2022-01-01T10:51:43Z</time>
      </trkpt>
      <trkpt lat="44.2362" lon="6.22086">
        <ele>1629.6</ele>
        <time>2022-01-01T10:51:47Z</time>
      </trkpt>
      <trkpt lat="44.23621" lon="6.22088">
        <ele>1629.8</ele>
        <time>2022-01-01T10:51:49Z</time>
      </trkpt>
      <trkpt lat="44.23621" lon="6.22089">
        <ele>1629.8</ele>
        <time>2022-01-01T10:51:50Z</time>
      </trkpt>
      <trkpt lat="44.23623" lon="6.22092">
        <ele>1630.2</ele>
        <time>2022-01-01T10:51:53Z</time>
      </trkpt>
      <trkpt lat="44.23626" lon="6.22095">
        <ele>1630.8</ele>
        <time>2022-01-01T10:51:57Z</time>
      </trkpt>
      <trkpt lat="44.23627" lon="6.22097">
        <ele>1631</ele>
        <time>2022-01-01T10:51:59Z</time>
      </trkpt>
      <trkpt lat="44.23628" lon="6.22098">
        <ele>1631.2</ele>
        <time>2022-01-01T10:52:00Z</time>
      </trkpt>
      <trkpt lat="44.23632" lon="6.22103">
        <ele>1632</ele>
        <time>2022-01-01T10:52:05Z</time>
      </trkpt>
      <trkpt lat="44.23635" lon="6.22107">
        <ele>1632.2</ele>
        <time>2022-01-01T10:52:09Z</time>
      </trkpt>
      <trkpt lat="44.23635" lon="6.22109">
        <ele>1632.2</ele>
        <time>2022-01-01T10:52:10Z</time>
      </trkpt>
      <trkpt lat="44.23637" lon="6.22115">
        <ele>1632.8</ele>
        <time>2022-01-01T10:52:16Z</time>
      </trkpt>
      <trkpt lat="44.23638" lon="6.22117">
        <ele>1633</ele>
        <time>2022-01-01T10:52:18Z</time>
      </trkpt>
      <trkpt lat="44.23638" lon="6.22118">
        <ele>1633.2</ele>
        <time>2022-01-01T10:52:19Z</time>
      </trkpt>
      <trkpt lat="44.23639" lon="6.22119">
        <ele>1633.4</ele>
        <time>2022-01-01T10:52:20Z</time>
      </trkpt>
      <trkpt lat="44.23639" lon="6.22122">
        <ele>1633.6</ele>
        <time>2022-01-01T10:52:23Z</time>
      </trkpt>
      <trkpt lat="44.2364" lon="6.22125">
        <ele>1633.8</ele>
        <time>2022-01-01T10:52:25Z</time>
      </trkpt>
      <trkpt lat="44.23641" lon="6.22129">
        <ele>1634</ele>
        <time>2022-01-01T10:52:29Z</time>
      </trkpt>
      <trkpt lat="44.23642" lon="6.22133">
        <ele>1634.2</ele>
        <time>2022-01-01T10:52:32Z</time>
      </trkpt>
      <trkpt lat="44.23642" lon="6.22135">
        <ele>1634.4</ele>
        <time>2022-01-01T10:52:33Z</time>
      </trkpt>
      <trkpt lat="44.23644" lon="6.22142">
        <ele>1634.2</ele>
        <time>2022-01-01T10:52:38Z</time>
      </trkpt>
      <trkpt lat="44.23644" lon="6.22143">
        <ele>1634.2</ele>
        <time>2022-01-01T10:52:39Z</time>
      </trkpt>
      <trkpt lat="44.23645" lon="6.22149">
        <ele>1634.4</ele>
        <time>2022-01-01T10:52:44Z</time>
      </trkpt>
      <trkpt lat="44.23648" lon="6.22156">
        <ele>1634.6</ele>
        <time>2022-01-01T10:52:49Z</time>
      </trkpt>
      <trkpt lat="44.23651" lon="6.22164">
        <ele>1634.6</ele>
        <time>2022-01-01T10:52:55Z</time>
      </trkpt>
      <trkpt lat="44.23653" lon="6.22168">
        <ele>1634.8</ele>
        <time>2022-01-01T10:52:58Z</time>
      </trkpt>
      <trkpt lat="44.23653" lon="6.22168">
        <ele>1634.8</ele>
        <time>2022-01-01T10:52:59Z</time>
      </trkpt>
      <trkpt lat="44.23655" lon="6.22172">
        <ele>1635.4</ele>
        <time>2022-01-01T10:53:03Z</time>
      </trkpt>
      <trkpt lat="44.23655" lon="6.22177">
        <ele>1635.8</ele>
        <time>2022-01-01T10:53:07Z</time>
      </trkpt>
      <trkpt lat="44.23655" lon="6.22179">
        <ele>1636</ele>
        <time>2022-01-01T10:53:09Z</time>
      </trkpt>
      <trkpt lat="44.23656" lon="6.22181">
        <ele>1636.2</ele>
        <time>2022-01-01T10:53:11Z</time>
      </trkpt>
      <trkpt lat="44.23656" lon="6.22182">
        <ele>1636.4</ele>
        <time>2022-01-01T10:53:12Z</time>
      </trkpt>
      <trkpt lat="44.23656" lon="6.22185">
        <ele>1636.4</ele>
        <time>2022-01-01T10:53:14Z</time>
      </trkpt>
      <trkpt lat="44.23657" lon="6.22192">
        <ele>1637.2</ele>
        <time>2022-01-01T10:53:19Z</time>
      </trkpt>
      <trkpt lat="44.23658" lon="6.22194">
        <ele>1637.4</ele>
        <time>2022-01-01T10:53:21Z</time>
      </trkpt>
      <trkpt lat="44.23659" lon="6.22196">
        <ele>1637.6</ele>
        <time>2022-01-01T10:53:23Z</time>
      </trkpt>
      <trkpt lat="44.23663" lon="6.22201">
        <ele>1638</ele>
        <time>2022-01-01T10:53:27Z</time>
      </trkpt>
      <trkpt lat="44.23664" lon="6.22203">
        <ele>1638.4</ele>
        <time>2022-01-01T10:53:29Z</time>
      </trkpt>
      <trkpt lat="44.23665" lon="6.22204">
        <ele>1638.6</ele>
        <time>2022-01-01T10:53:30Z</time>
      </trkpt>
      <trkpt lat="44.23665" lon="6.22205">
        <ele>1638.6</ele>
        <time>2022-01-01T10:53:31Z</time>
      </trkpt>
      <trkpt lat="44.23665" lon="6.22206">
        <ele>1638.8</ele>
        <time>2022-01-01T10:53:32Z</time>
      </trkpt>
      <trkpt lat="44.23665" lon="6.22209">
        <ele>1639</ele>
        <time>2022-01-01T10:53:34Z</time>
      </trkpt>
      <trkpt lat="44.23666" lon="6.22215">
        <ele>1639.8</ele>
        <time>2022-01-01T10:53:39Z</time>
      </trkpt>
      <trkpt lat="44.23667" lon="6.22218">
        <ele>1640.2</ele>
        <time>2022-01-01T10:53:42Z</time>
      </trkpt>
      <trkpt lat="44.23669" lon="6.22222">
        <ele>1640.6</ele>
        <time>2022-01-01T10:53:45Z</time>
      </trkpt>
      <trkpt lat="44.23669" lon="6.22223">
        <ele>1640.8</ele>
        <time>2022-01-01T10:53:46Z</time>
      </trkpt>
      <trkpt lat="44.23669" lon="6.22226">
        <ele>1641</ele>
        <time>2022-01-01T10:53:49Z</time>
      </trkpt>
      <trkpt lat="44.23669" lon="6.22227">
        <ele>1641</ele>
        <time>2022-01-01T10:53:50Z</time>
      </trkpt>
      <trkpt lat="44.23671" lon="6.22231">
        <ele>1641.4</ele>
        <time>2022-01-01T10:53:53Z</time>
      </trkpt>
      <trkpt lat="44.23671" lon="6.22236">
        <ele>1641.8</ele>
        <time>2022-01-01T10:53:57Z</time>
      </trkpt>
      <trkpt lat="44.23673" lon="6.22239">
        <ele>1642</ele>
        <time>2022-01-01T10:53:59Z</time>
      </trkpt>
      <trkpt lat="44.23673" lon="6.2224">
        <ele>1642</ele>
        <time>2022-01-01T10:54:00Z</time>
      </trkpt>
      <trkpt lat="44.23674" lon="6.22243">
        <ele>1642.2</ele>
        <time>2022-01-01T10:54:03Z</time>
      </trkpt>
      <trkpt lat="44.23675" lon="6.22246">
        <ele>1642.8</ele>
        <time>2022-01-01T10:54:06Z</time>
      </trkpt>
      <trkpt lat="44.23676" lon="6.22248">
        <ele>1643</ele>
        <time>2022-01-01T10:54:07Z</time>
      </trkpt>
      <trkpt lat="44.23676" lon="6.22249">
        <ele>1643</ele>
        <time>2022-01-01T10:54:08Z</time>
      </trkpt>
      <trkpt lat="44.23677" lon="6.2225">
        <ele>1643</ele>
        <time>2022-01-01T10:54:09Z</time>
      </trkpt>
      <trkpt lat="44.23678" lon="6.22255">
        <ele>1643.4</ele>
        <time>2022-01-01T10:54:13Z</time>
      </trkpt>
      <trkpt lat="44.2368" lon="6.2226">
        <ele>1644</ele>
        <time>2022-01-01T10:54:17Z</time>
      </trkpt>
      <trkpt lat="44.2368" lon="6.22261">
        <ele>1644.2</ele>
        <time>2022-01-01T10:54:18Z</time>
      </trkpt>
      <trkpt lat="44.23681" lon="6.22262">
        <ele>1644.4</ele>
        <time>2022-01-01T10:54:19Z</time>
      </trkpt>
      <trkpt lat="44.23681" lon="6.22265">
        <ele>1644.4</ele>
        <time>2022-01-01T10:54:21Z</time>
      </trkpt>
      <trkpt lat="44.23683" lon="6.22269">
        <ele>1644.8</ele>
        <time>2022-01-01T10:54:25Z</time>
      </trkpt>
      <trkpt lat="44.23685" lon="6.22273">
        <ele>1645</ele>
        <time>2022-01-01T10:54:29Z</time>
      </trkpt>
      <trkpt lat="44.23686" lon="6.22275">
        <ele>1645</ele>
        <time>2022-01-01T10:54:31Z</time>
      </trkpt>
      <trkpt lat="44.23687" lon="6.22277">
        <ele>1645.2</ele>
        <time>2022-01-01T10:54:33Z</time>
      </trkpt>
      <trkpt lat="44.23688" lon="6.2228">
        <ele>1645.6</ele>
        <time>2022-01-01T10:54:36Z</time>
      </trkpt>
      <trkpt lat="44.23689" lon="6.22283">
        <ele>1646.2</ele>
        <time>2022-01-01T10:54:39Z</time>
      </trkpt>
      <trkpt lat="44.23691" lon="6.22285">
        <ele>1646.6</ele>
        <time>2022-01-01T10:54:41Z</time>
      </trkpt>
      <trkpt lat="44.23691" lon="6.22287">
        <ele>1646.6</ele>
        <time>2022-01-01T10:54:43Z</time>
      </trkpt>
      <trkpt lat="44.23693" lon="6.22291">
        <ele>1646.8</ele>
        <time>2022-01-01T10:54:46Z</time>
      </trkpt>
      <trkpt lat="44.23695" lon="6.22293">
        <ele>1647</ele>
        <time>2022-01-01T10:54:48Z</time>
      </trkpt>
      <trkpt lat="44.23695" lon="6.22294">
        <ele>1647</ele>
        <time>2022-01-01T10:54:49Z</time>
      </trkpt>
      <trkpt lat="44.23697" lon="6.22296">
        <ele>1647.2</ele>
        <time>2022-01-01T10:54:51Z</time>
      </trkpt>
      <trkpt lat="44.23697" lon="6.22297">
        <ele>1647.4</ele>
        <time>2022-01-01T10:54:52Z</time>
      </trkpt>
      <trkpt lat="44.23697" lon="6.22298">
        <ele>1647.4</ele>
        <time>2022-01-01T10:54:53Z</time>
      </trkpt>
      <trkpt lat="44.23699" lon="6.223">
        <ele>1647.8</ele>
        <time>2022-01-01T10:54:55Z</time>
      </trkpt>
      <trkpt lat="44.23699" lon="6.22301">
        <ele>1648</ele>
        <time>2022-01-01T10:54:56Z</time>
      </trkpt>
      <trkpt lat="44.237" lon="6.22303">
        <ele>1648.4</ele>
        <time>2022-01-01T10:54:58Z</time>
      </trkpt>
      <trkpt lat="44.23701" lon="6.22304">
        <ele>1648.4</ele>
        <time>2022-01-01T10:54:59Z</time>
      </trkpt>
      <trkpt lat="44.23701" lon="6.22304">
        <ele>1648.6</ele>
        <time>2022-01-01T10:55:00Z</time>
      </trkpt>
      <trkpt lat="44.23703" lon="6.22307">
        <ele>1649.2</ele>
        <time>2022-01-01T10:55:05Z</time>
      </trkpt>
      <trkpt lat="44.23704" lon="6.22309">
        <ele>1649.4</ele>
        <time>2022-01-01T10:55:07Z</time>
      </trkpt>
      <trkpt lat="44.23705" lon="6.22311">
        <ele>1649.8</ele>
        <time>2022-01-01T10:55:09Z</time>
      </trkpt>
      <trkpt lat="44.23708" lon="6.22315">
        <ele>1650.4</ele>
        <time>2022-01-01T10:55:14Z</time>
      </trkpt>
      <trkpt lat="44.23711" lon="6.22319">
        <ele>1651.6</ele>
        <time>2022-01-01T10:55:19Z</time>
      </trkpt>
      <trkpt lat="44.23713" lon="6.22325">
        <ele>1652.6</ele>
        <time>2022-01-01T10:55:26Z</time>
      </trkpt>
      <trkpt lat="44.23715" lon="6.22328">
        <ele>1653.2</ele>
        <time>2022-01-01T10:55:29Z</time>
      </trkpt>
      <trkpt lat="44.23716" lon="6.2233">
        <ele>1653.8</ele>
        <time>2022-01-01T10:55:32Z</time>
      </trkpt>
      <trkpt lat="44.23718" lon="6.22334">
        <ele>1654.6</ele>
        <time>2022-01-01T10:55:39Z</time>
      </trkpt>
      <trkpt lat="44.23718" lon="6.22335">
        <ele>1654.8</ele>
        <time>2022-01-01T10:55:40Z</time>
      </trkpt>
      <trkpt lat="44.23724" lon="6.2234">
        <ele>1656</ele>
        <time>2022-01-01T10:55:49Z</time>
      </trkpt>
      <trkpt lat="44.23726" lon="6.22341">
        <ele>1656.2</ele>
        <time>2022-01-01T10:55:51Z</time>
      </trkpt>
      <trkpt lat="44.23727" lon="6.22343">
        <ele>1657</ele>
        <time>2022-01-01T10:55:55Z</time>
      </trkpt>
      <trkpt lat="44.23729" lon="6.22346">
        <ele>1657.6</ele>
        <time>2022-01-01T10:55:59Z</time>
      </trkpt>
      <trkpt lat="44.23731" lon="6.2235">
        <ele>1658.2</ele>
        <time>2022-01-01T10:56:03Z</time>
      </trkpt>
      <trkpt lat="44.23732" lon="6.22355">
        <ele>1659.4</ele>
        <time>2022-01-01T10:56:09Z</time>
      </trkpt>
      <trkpt lat="44.23733" lon="6.2236">
        <ele>1660.4</ele>
        <time>2022-01-01T10:56:16Z</time>
      </trkpt>
      <trkpt lat="44.23734" lon="6.22362">
        <ele>1661</ele>
        <time>2022-01-01T10:56:19Z</time>
      </trkpt>
      <trkpt lat="44.23735" lon="6.22365">
        <ele>1661.6</ele>
        <time>2022-01-01T10:56:23Z</time>
      </trkpt>
      <trkpt lat="44.23739" lon="6.22369">
        <ele>1662.2</ele>
        <time>2022-01-01T10:56:28Z</time>
      </trkpt>
      <trkpt lat="44.23739" lon="6.2237">
        <ele>1662.4</ele>
        <time>2022-01-01T10:56:29Z</time>
      </trkpt>
      <trkpt lat="44.2374" lon="6.2237">
        <ele>1662.4</ele>
        <time>2022-01-01T10:56:30Z</time>
      </trkpt>
      <trkpt lat="44.2374" lon="6.2237">
        <ele>1662.6</ele>
        <time>2022-01-01T10:56:31Z</time>
      </trkpt>
      <trkpt lat="44.23742" lon="6.22373">
        <ele>1663.6</ele>
        <time>2022-01-01T10:56:38Z</time>
      </trkpt>
      <trkpt lat="44.23742" lon="6.22374">
        <ele>1663.8</ele>
        <time>2022-01-01T10:56:39Z</time>
      </trkpt>
      <trkpt lat="44.23744" lon="6.22377">
        <ele>1664.8</ele>
        <time>2022-01-01T10:56:43Z</time>
      </trkpt>
      <trkpt lat="44.23746" lon="6.22381">
        <ele>1665.4</ele>
        <time>2022-01-01T10:56:49Z</time>
      </trkpt>
      <trkpt lat="44.23746" lon="6.22383">
        <ele>1665.8</ele>
        <time>2022-01-01T10:56:51Z</time>
      </trkpt>
      <trkpt lat="44.2375" lon="6.22389">
        <ele>1667</ele>
        <time>2022-01-01T10:56:59Z</time>
      </trkpt>
      <trkpt lat="44.23752" lon="6.22393">
        <ele>1668.2</ele>
        <time>2022-01-01T10:57:06Z</time>
      </trkpt>
      <trkpt lat="44.23753" lon="6.22395">
        <ele>1668.6</ele>
        <time>2022-01-01T10:57:09Z</time>
      </trkpt>
      <trkpt lat="44.23754" lon="6.22398">
        <ele>1669.2</ele>
        <time>2022-01-01T10:57:15Z</time>
      </trkpt>
      <trkpt lat="44.23754" lon="6.22398">
        <ele>1669.8</ele>
        <time>2022-01-01T10:57:19Z</time>
      </trkpt>
      <trkpt lat="44.23754" lon="6.22399">
        <ele>1670.2</ele>
        <time>2022-01-01T10:57:25Z</time>
      </trkpt>
      <trkpt lat="44.23754" lon="6.22399">
        <ele>1670.4</ele>
        <time>2022-01-01T10:57:29Z</time>
      </trkpt>
      <trkpt lat="44.23754" lon="6.22399">
        <ele>1670</ele>
        <time>2022-01-01T10:57:36Z</time>
      </trkpt>
      <trkpt lat="44.23754" lon="6.22399">
        <ele>1670</ele>
        <time>2022-01-01T10:57:39Z</time>
      </trkpt>
      <trkpt lat="44.23754" lon="6.22399">
        <ele>1670.2</ele>
        <time>2022-01-01T10:57:43Z</time>
      </trkpt>
      <trkpt lat="44.23754" lon="6.224">
        <ele>1670.8</ele>
        <time>2022-01-01T10:57:49Z</time>
      </trkpt>
      <trkpt lat="44.23755" lon="6.22404">
        <ele>1671.4</ele>
        <time>2022-01-01T10:57:55Z</time>
      </trkpt>
      <trkpt lat="44.23756" lon="6.22406">
        <ele>1672</ele>
        <time>2022-01-01T10:57:59Z</time>
      </trkpt>
      <trkpt lat="44.23757" lon="6.22408">
        <ele>1672.2</ele>
        <time>2022-01-01T10:58:01Z</time>
      </trkpt>
      <trkpt lat="44.23757" lon="6.22409">
        <ele>1672.4</ele>
        <time>2022-01-01T10:58:03Z</time>
      </trkpt>
      <trkpt lat="44.23759" lon="6.22413">
        <ele>1673.2</ele>
        <time>2022-01-01T10:58:09Z</time>
      </trkpt>
      <trkpt lat="44.2376" lon="6.22414">
        <ele>1673.6</ele>
        <time>2022-01-01T10:58:12Z</time>
      </trkpt>
      <trkpt lat="44.23761" lon="6.22416">
        <ele>1674.2</ele>
        <time>2022-01-01T10:58:15Z</time>
      </trkpt>
      <trkpt lat="44.23761" lon="6.22418">
        <ele>1674.6</ele>
        <time>2022-01-01T10:58:18Z</time>
      </trkpt>
      <trkpt lat="44.23761" lon="6.22419">
        <ele>1674.8</ele>
        <time>2022-01-01T10:58:19Z</time>
      </trkpt>
      <trkpt lat="44.23762" lon="6.22425">
        <ele>1675.8</ele>
        <time>2022-01-01T10:58:25Z</time>
      </trkpt>
      <trkpt lat="44.23762" lon="6.22426">
        <ele>1676.2</ele>
        <time>2022-01-01T10:58:27Z</time>
      </trkpt>
      <trkpt lat="44.23764" lon="6.22428">
        <ele>1676.4</ele>
        <time>2022-01-01T10:58:29Z</time>
      </trkpt>
      <trkpt lat="44.23765" lon="6.22431">
        <ele>1676.8</ele>
        <time>2022-01-01T10:58:32Z</time>
      </trkpt>
      <trkpt lat="44.23766" lon="6.22434">
        <ele>1677.4</ele>
        <time>2022-01-01T10:58:35Z</time>
      </trkpt>
      <trkpt lat="44.23767" lon="6.22437">
        <ele>1677.8</ele>
        <time>2022-01-01T10:58:39Z</time>
      </trkpt>
      <trkpt lat="44.23767" lon="6.22437">
        <ele>1677.8</ele>
        <time>2022-01-01T10:58:40Z</time>
      </trkpt>
      <trkpt lat="44.23767" lon="6.2244">
        <ele>1679</ele>
        <time>2022-01-01T10:58:46Z</time>
      </trkpt>
      <trkpt lat="44.23768" lon="6.22442">
        <ele>1679.4</ele>
        <time>2022-01-01T10:58:49Z</time>
      </trkpt>
      <trkpt lat="44.2377" lon="6.22445">
        <ele>1680</ele>
        <time>2022-01-01T10:58:53Z</time>
      </trkpt>
      <trkpt lat="44.23771" lon="6.22448">
        <ele>1681.2</ele>
        <time>2022-01-01T10:58:58Z</time>
      </trkpt>
      <trkpt lat="44.23771" lon="6.22449">
        <ele>1681.4</ele>
        <time>2022-01-01T10:58:59Z</time>
      </trkpt>
      <trkpt lat="44.23773" lon="6.22453">
        <ele>1682.2</ele>
        <time>2022-01-01T10:59:04Z</time>
      </trkpt>
      <trkpt lat="44.23773" lon="6.22456">
        <ele>1683.2</ele>
        <time>2022-01-01T10:59:09Z</time>
      </trkpt>
      <trkpt lat="44.23774" lon="6.22457">
        <ele>1683.4</ele>
        <time>2022-01-01T10:59:10Z</time>
      </trkpt>
      <trkpt lat="44.23775" lon="6.2246">
        <ele>1684.4</ele>
        <time>2022-01-01T10:59:17Z</time>
      </trkpt>
      <trkpt lat="44.23776" lon="6.22461">
        <ele>1684.6</ele>
        <time>2022-01-01T10:59:19Z</time>
      </trkpt>
      <trkpt lat="44.23777" lon="6.22465">
        <ele>1685.4</ele>
        <time>2022-01-01T10:59:24Z</time>
      </trkpt>
      <trkpt lat="44.23779" lon="6.2247">
        <ele>1686.2</ele>
        <time>2022-01-01T10:59:29Z</time>
      </trkpt>
      <trkpt lat="44.23779" lon="6.22472">
        <ele>1686.6</ele>
        <time>2022-01-01T10:59:32Z</time>
      </trkpt>
      <trkpt lat="44.23782" lon="6.22476">
        <ele>1687.8</ele>
        <time>2022-01-01T10:59:39Z</time>
      </trkpt>
      <trkpt lat="44.23783" lon="6.22479">
        <ele>1688.8</ele>
        <time>2022-01-01T10:59:44Z</time>
      </trkpt>
      <trkpt lat="44.23784" lon="6.22483">
        <ele>1690</ele>
        <time>2022-01-01T10:59:48Z</time>
      </trkpt>
      <trkpt lat="44.23784" lon="6.22483">
        <ele>1690.2</ele>
        <time>2022-01-01T10:59:49Z</time>
      </trkpt>
      <trkpt lat="44.23785" lon="6.22486">
        <ele>1690.6</ele>
        <time>2022-01-01T10:59:54Z</time>
      </trkpt>
      <trkpt lat="44.23785" lon="6.22489">
        <ele>1691.2</ele>
        <time>2022-01-01T10:59:57Z</time>
      </trkpt>
      <trkpt lat="44.23785" lon="6.2249">
        <ele>1691.6</ele>
        <time>2022-01-01T10:59:59Z</time>
      </trkpt>
      <trkpt lat="44.23785" lon="6.22492">
        <ele>1691.8</ele>
        <time>2022-01-01T11:00:00Z</time>
      </trkpt>
      <trkpt lat="44.23785" lon="6.22494">
        <ele>1692.2</ele>
        <time>2022-01-01T11:00:04Z</time>
      </trkpt>
      <trkpt lat="44.23786" lon="6.22497">
        <ele>1693</ele>
        <time>2022-01-01T11:00:09Z</time>
      </trkpt>
      <trkpt lat="44.23787" lon="6.22499">
        <ele>1693.4</ele>
        <time>2022-01-01T11:00:12Z</time>
      </trkpt>
      <trkpt lat="44.23787" lon="6.22505">
        <ele>1694.4</ele>
        <time>2022-01-01T11:00:19Z</time>
      </trkpt>
      <trkpt lat="44.23787" lon="6.22511">
        <ele>1695.6</ele>
        <time>2022-01-01T11:00:27Z</time>
      </trkpt>
      <trkpt lat="44.23788" lon="6.22512">
        <ele>1695.8</ele>
        <time>2022-01-01T11:00:29Z</time>
      </trkpt>
      <trkpt lat="44.23792" lon="6.22512">
        <ele>1696.6</ele>
        <time>2022-01-01T11:00:34Z</time>
      </trkpt>
      <trkpt lat="44.23795" lon="6.22509">
        <ele>1697.4</ele>
        <time>2022-01-01T11:00:39Z</time>
      </trkpt>
      <trkpt lat="44.23796" lon="6.22508">
        <ele>1697.8</ele>
        <time>2022-01-01T11:00:41Z</time>
      </trkpt>
      <trkpt lat="44.23797" lon="6.22507">
        <ele>1698.4</ele>
        <time>2022-01-01T11:00:43Z</time>
      </trkpt>
      <trkpt lat="44.23798" lon="6.22506">
        <ele>1698.8</ele>
        <time>2022-01-01T11:00:46Z</time>
      </trkpt>
      <trkpt lat="44.23799" lon="6.22505">
        <ele>1699.2</ele>
        <time>2022-01-01T11:00:48Z</time>
      </trkpt>
      <trkpt lat="44.23801" lon="6.22503">
        <ele>1700</ele>
        <time>2022-01-01T11:00:51Z</time>
      </trkpt>
      <trkpt lat="44.23803" lon="6.22502">
        <ele>1700.4</ele>
        <time>2022-01-01T11:00:54Z</time>
      </trkpt>
      <trkpt lat="44.23803" lon="6.22498">
        <ele>1701</ele>
        <time>2022-01-01T11:00:58Z</time>
      </trkpt>
      <trkpt lat="44.23807" lon="6.22496">
        <ele>1702</ele>
        <time>2022-01-01T11:01:03Z</time>
      </trkpt>
      <trkpt lat="44.23807" lon="6.22496">
        <ele>1702.2</ele>
        <time>2022-01-01T11:01:04Z</time>
      </trkpt>
      <trkpt lat="44.23808" lon="6.22499">
        <ele>1703</ele>
        <time>2022-01-01T11:01:08Z</time>
      </trkpt>
      <trkpt lat="44.23809" lon="6.225">
        <ele>1703.2</ele>
        <time>2022-01-01T11:01:09Z</time>
      </trkpt>
      <trkpt lat="44.23808" lon="6.22506">
        <ele>1704.2</ele>
        <time>2022-01-01T11:01:15Z</time>
      </trkpt>
      <trkpt lat="44.23807" lon="6.22508">
        <ele>1704.6</ele>
        <time>2022-01-01T11:01:18Z</time>
      </trkpt>
      <trkpt lat="44.23808" lon="6.22512">
        <ele>1705.4</ele>
        <time>2022-01-01T11:01:23Z</time>
      </trkpt>
      <trkpt lat="44.23808" lon="6.22515">
        <ele>1706</ele>
        <time>2022-01-01T11:01:28Z</time>
      </trkpt>
      <trkpt lat="44.23807" lon="6.22517">
        <ele>1706.4</ele>
        <time>2022-01-01T11:01:31Z</time>
      </trkpt>
      <trkpt lat="44.23807" lon="6.22523">
        <ele>1706.8</ele>
        <time>2022-01-01T11:01:38Z</time>
      </trkpt>
      <trkpt lat="44.23807" lon="6.22524">
        <ele>1707</ele>
        <time>2022-01-01T11:01:40Z</time>
      </trkpt>
      <trkpt lat="44.23807" lon="6.22525">
        <ele>1707.6</ele>
        <time>2022-01-01T11:01:42Z</time>
      </trkpt>
      <trkpt lat="44.23807" lon="6.22527">
        <ele>1708</ele>
        <time>2022-01-01T11:01:45Z</time>
      </trkpt>
      <trkpt lat="44.23808" lon="6.22528">
        <ele>1708.4</ele>
        <time>2022-01-01T11:01:50Z</time>
      </trkpt>
      <trkpt lat="44.23809" lon="6.22529">
        <ele>1708.6</ele>
        <time>2022-01-01T11:01:53Z</time>
      </trkpt>
      <trkpt lat="44.2381" lon="6.22529">
        <ele>1709</ele>
        <time>2022-01-01T11:01:55Z</time>
      </trkpt>
      <trkpt lat="44.23809" lon="6.2253">
        <ele>1709</ele>
        <time>2022-01-01T11:02:05Z</time>
      </trkpt>
      <trkpt lat="44.23809" lon="6.22529">
        <ele>1708.8</ele>
        <time>2022-01-01T11:02:10Z</time>
      </trkpt>
      <trkpt lat="44.23809" lon="6.22529">
        <ele>1708.8</ele>
        <time>2022-01-01T11:02:15Z</time>
      </trkpt>
      <trkpt lat="44.23809" lon="6.22528">
        <ele>1709.4</ele>
        <time>2022-01-01T11:02:21Z</time>
      </trkpt>
      <trkpt lat="44.23809" lon="6.22527">
        <ele>1709.8</ele>
        <time>2022-01-01T11:02:25Z</time>
      </trkpt>
      <trkpt lat="44.23812" lon="6.22521">
        <ele>1709</ele>
        <time>2022-01-01T11:02:34Z</time>
      </trkpt>
      <trkpt lat="44.23812" lon="6.2253">
        <ele>1709</ele>
        <time>2022-01-01T11:04:13Z</time>
      </trkpt>
      <trkpt lat="44.23812" lon="6.2253">
        <ele>1708.8</ele>
        <time>2022-01-01T11:04:14Z</time>
      </trkpt>
      <trkpt lat="44.23813" lon="6.2253">
        <ele>1708.6</ele>
        <time>2022-01-01T11:04:15Z</time>
      </trkpt>
      <trkpt lat="44.23811" lon="6.22533">
        <ele>1708</ele>
        <time>2022-01-01T11:04:23Z</time>
      </trkpt>
      <trkpt lat="44.23811" lon="6.22536">
        <ele>1707.8</ele>
        <time>2022-01-01T11:04:25Z</time>
      </trkpt>
      <trkpt lat="44.2381" lon="6.22538">
        <ele>1707.8</ele>
        <time>2022-01-01T11:04:27Z</time>
      </trkpt>
      <trkpt lat="44.2381" lon="6.22541">
        <ele>1707.8</ele>
        <time>2022-01-01T11:04:29Z</time>
      </trkpt>
      <trkpt lat="44.23809" lon="6.22545">
        <ele>1707.6</ele>
        <time>2022-01-01T11:04:32Z</time>
      </trkpt>
      <trkpt lat="44.23809" lon="6.22546">
        <ele>1707.4</ele>
        <time>2022-01-01T11:04:33Z</time>
      </trkpt>
      <trkpt lat="44.23809" lon="6.22548">
        <ele>1707.4</ele>
        <time>2022-01-01T11:04:34Z</time>
      </trkpt>
      <trkpt lat="44.23808" lon="6.22549">
        <ele>1707.4</ele>
        <time>2022-01-01T11:04:35Z</time>
      </trkpt>
      <trkpt lat="44.23807" lon="6.22553">
        <ele>1707.4</ele>
        <time>2022-01-01T11:04:38Z</time>
      </trkpt>
      <trkpt lat="44.23807" lon="6.22556">
        <ele>1707.4</ele>
        <time>2022-01-01T11:04:41Z</time>
      </trkpt>
      <trkpt lat="44.23807" lon="6.22556">
        <ele>1707.2</ele>
        <time>2022-01-01T11:04:42Z</time>
      </trkpt>
      <trkpt lat="44.23807" lon="6.22556">
        <ele>1707.2</ele>
        <time>2022-01-01T11:04:43Z</time>
      </trkpt>
      <trkpt lat="44.23807" lon="6.22556">
        <ele>1707</ele>
        <time>2022-01-01T11:04:44Z</time>
      </trkpt>
      <trkpt lat="44.23806" lon="6.22556">
        <ele>1707</ele>
        <time>2022-01-01T11:04:45Z</time>
      </trkpt>
      <trkpt lat="44.23806" lon="6.22556">
        <ele>1707</ele>
        <time>2022-01-01T11:04:46Z</time>
      </trkpt>
      <trkpt lat="44.23806" lon="6.22556">
        <ele>1706.8</ele>
        <time>2022-01-01T11:04:49Z</time>
      </trkpt>
      <trkpt lat="44.23804" lon="6.22562">
        <ele>1707.2</ele>
        <time>2022-01-01T11:04:54Z</time>
      </trkpt>
      <trkpt lat="44.23803" lon="6.22563">
        <ele>1707.4</ele>
        <time>2022-01-01T11:04:55Z</time>
      </trkpt>
      <trkpt lat="44.23803" lon="6.22564">
        <ele>1707.4</ele>
        <time>2022-01-01T11:04:56Z</time>
      </trkpt>
      <trkpt lat="44.23802" lon="6.22568">
        <ele>1707.6</ele>
        <time>2022-01-01T11:04:59Z</time>
      </trkpt>
      <trkpt lat="44.23802" lon="6.22569">
        <ele>1707.6</ele>
        <time>2022-01-01T11:05:00Z</time>
      </trkpt>
      <trkpt lat="44.23801" lon="6.22574">
        <ele>1707.8</ele>
        <time>2022-01-01T11:05:04Z</time>
      </trkpt>
      <trkpt lat="44.238" lon="6.22575">
        <ele>1707.8</ele>
        <time>2022-01-01T11:05:05Z</time>
      </trkpt>
      <trkpt lat="44.23799" lon="6.22581">
        <ele>1708</ele>
        <time>2022-01-01T11:05:10Z</time>
      </trkpt>
      <trkpt lat="44.23799" lon="6.22583">
        <ele>1707.8</ele>
        <time>2022-01-01T11:05:12Z</time>
      </trkpt>
      <trkpt lat="44.23797" lon="6.22586">
        <ele>1707.6</ele>
        <time>2022-01-01T11:05:15Z</time>
      </trkpt>
      <trkpt lat="44.23795" lon="6.22589">
        <ele>1707.6</ele>
        <time>2022-01-01T11:05:17Z</time>
      </trkpt>
      <trkpt lat="44.23794" lon="6.22599">
        <ele>1707.2</ele>
        <time>2022-01-01T11:05:23Z</time>
      </trkpt>
      <trkpt lat="44.23795" lon="6.22602">
        <ele>1707.2</ele>
        <time>2022-01-01T11:05:25Z</time>
      </trkpt>
      <trkpt lat="44.23795" lon="6.22604">
        <ele>1707.2</ele>
        <time>2022-01-01T11:05:26Z</time>
      </trkpt>
      <trkpt lat="44.23794" lon="6.22605">
        <ele>1707.2</ele>
        <time>2022-01-01T11:05:27Z</time>
      </trkpt>
      <trkpt lat="44.23794" lon="6.22608">
        <ele>1707.4</ele>
        <time>2022-01-01T11:05:29Z</time>
      </trkpt>
      <trkpt lat="44.23791" lon="6.22617">
        <ele>1707.6</ele>
        <time>2022-01-01T11:05:35Z</time>
      </trkpt>
      <trkpt lat="44.23789" lon="6.2263">
        <ele>1707.6</ele>
        <time>2022-01-01T11:05:44Z</time>
      </trkpt>
      <trkpt lat="44.23788" lon="6.22631">
        <ele>1707.6</ele>
        <time>2022-01-01T11:05:45Z</time>
      </trkpt>
      <trkpt lat="44.23787" lon="6.22634">
        <ele>1707.6</ele>
        <time>2022-01-01T11:05:47Z</time>
      </trkpt>
      <trkpt lat="44.23787" lon="6.22637">
        <ele>1707.4</ele>
        <time>2022-01-01T11:05:50Z</time>
      </trkpt>
      <trkpt lat="44.23786" lon="6.22641">
        <ele>1707.4</ele>
        <time>2022-01-01T11:05:52Z</time>
      </trkpt>
      <trkpt lat="44.23785" lon="6.22642">
        <ele>1707.2</ele>
        <time>2022-01-01T11:05:53Z</time>
      </trkpt>
      <trkpt lat="44.23785" lon="6.22644">
        <ele>1707.2</ele>
        <time>2022-01-01T11:05:54Z</time>
      </trkpt>
      <trkpt lat="44.23784" lon="6.22646">
        <ele>1707</ele>
        <time>2022-01-01T11:05:55Z</time>
      </trkpt>
      <trkpt lat="44.23784" lon="6.22647">
        <ele>1707</ele>
        <time>2022-01-01T11:05:56Z</time>
      </trkpt>
      <trkpt lat="44.23784" lon="6.2265">
        <ele>1706.6</ele>
        <time>2022-01-01T11:05:58Z</time>
      </trkpt>
      <trkpt lat="44.23781" lon="6.22661">
        <ele>1706.2</ele>
        <time>2022-01-01T11:06:05Z</time>
      </trkpt>
      <trkpt lat="44.23779" lon="6.22664">
        <ele>1706</ele>
        <time>2022-01-01T11:06:08Z</time>
      </trkpt>
      <trkpt lat="44.23777" lon="6.22667">
        <ele>1705.6</ele>
        <time>2022-01-01T11:06:10Z</time>
      </trkpt>
      <trkpt lat="44.23776" lon="6.22672">
        <ele>1705.2</ele>
        <time>2022-01-01T11:06:13Z</time>
      </trkpt>
      <trkpt lat="44.23774" lon="6.22677">
        <ele>1705.2</ele>
        <time>2022-01-01T11:06:16Z</time>
      </trkpt>
      <trkpt lat="44.2377" lon="6.22687">
        <ele>1705.4</ele>
        <time>2022-01-01T11:06:23Z</time>
      </trkpt>
      <trkpt lat="44.2377" lon="6.22688">
        <ele>1705.4</ele>
        <time>2022-01-01T11:06:24Z</time>
      </trkpt>
      <trkpt lat="44.23769" lon="6.22693">
        <ele>1705.2</ele>
        <time>2022-01-01T11:06:27Z</time>
      </trkpt>
      <trkpt lat="44.23769" lon="6.22697">
        <ele>1705.2</ele>
        <time>2022-01-01T11:06:30Z</time>
      </trkpt>
      <trkpt lat="44.23768" lon="6.22702">
        <ele>1705.2</ele>
        <time>2022-01-01T11:06:33Z</time>
      </trkpt>
      <trkpt lat="44.23766" lon="6.22714">
        <ele>1705.4</ele>
        <time>2022-01-01T11:06:41Z</time>
      </trkpt>
      <trkpt lat="44.23765" lon="6.22718">
        <ele>1705.6</ele>
        <time>2022-01-01T11:06:43Z</time>
      </trkpt>
      <trkpt lat="44.23765" lon="6.22722">
        <ele>1705.8</ele>
        <time>2022-01-01T11:06:46Z</time>
      </trkpt>
      <trkpt lat="44.23765" lon="6.22725">
        <ele>1706</ele>
        <time>2022-01-01T11:06:48Z</time>
      </trkpt>
      <trkpt lat="44.23765" lon="6.2273">
        <ele>1706.6</ele>
        <time>2022-01-01T11:06:52Z</time>
      </trkpt>
      <trkpt lat="44.23764" lon="6.22734">
        <ele>1707.6</ele>
        <time>2022-01-01T11:06:56Z</time>
      </trkpt>
      <trkpt lat="44.23763" lon="6.22735">
        <ele>1708</ele>
        <time>2022-01-01T11:06:57Z</time>
      </trkpt>
      <trkpt lat="44.23762" lon="6.22737">
        <ele>1708</ele>
        <time>2022-01-01T11:06:58Z</time>
      </trkpt>
      <trkpt lat="44.23762" lon="6.22738">
        <ele>1708.2</ele>
        <time>2022-01-01T11:06:59Z</time>
      </trkpt>
      <trkpt lat="44.23759" lon="6.22743">
        <ele>1708.6</ele>
        <time>2022-01-01T11:07:03Z</time>
      </trkpt>
      <trkpt lat="44.23758" lon="6.22746">
        <ele>1709</ele>
        <time>2022-01-01T11:07:06Z</time>
      </trkpt>
      <trkpt lat="44.23758" lon="6.22749">
        <ele>1709</ele>
        <time>2022-01-01T11:07:08Z</time>
      </trkpt>
      <trkpt lat="44.23756" lon="6.22754">
        <ele>1710</ele>
        <time>2022-01-01T11:07:13Z</time>
      </trkpt>
      <trkpt lat="44.23756" lon="6.22755">
        <ele>1710.2</ele>
        <time>2022-01-01T11:07:14Z</time>
      </trkpt>
      <trkpt lat="44.23756" lon="6.22757">
        <ele>1710.4</ele>
        <time>2022-01-01T11:07:16Z</time>
      </trkpt>
      <trkpt lat="44.23756" lon="6.2276">
        <ele>1711</ele>
        <time>2022-01-01T11:07:18Z</time>
      </trkpt>
      <trkpt lat="44.23756" lon="6.2276">
        <ele>1711</ele>
        <time>2022-01-01T11:07:19Z</time>
      </trkpt>
      <trkpt lat="44.23756" lon="6.22761">
        <ele>1711.2</ele>
        <time>2022-01-01T11:07:20Z</time>
      </trkpt>
      <trkpt lat="44.23756" lon="6.22763">
        <ele>1711.4</ele>
        <time>2022-01-01T11:07:22Z</time>
      </trkpt>
      <trkpt lat="44.23755" lon="6.22768">
        <ele>1712.2</ele>
        <time>2022-01-01T11:07:27Z</time>
      </trkpt>
      <trkpt lat="44.23755" lon="6.22769">
        <ele>1712.4</ele>
        <time>2022-01-01T11:07:28Z</time>
      </trkpt>
      <trkpt lat="44.23754" lon="6.2277">
        <ele>1712.6</ele>
        <time>2022-01-01T11:07:29Z</time>
      </trkpt>
      <trkpt lat="44.23752" lon="6.22776">
        <ele>1713.2</ele>
        <time>2022-01-01T11:07:34Z</time>
      </trkpt>
      <trkpt lat="44.2375" lon="6.22778">
        <ele>1713.6</ele>
        <time>2022-01-01T11:07:36Z</time>
      </trkpt>
      <trkpt lat="44.2375" lon="6.22779">
        <ele>1713.6</ele>
        <time>2022-01-01T11:07:38Z</time>
      </trkpt>
      <trkpt lat="44.23749" lon="6.2278">
        <ele>1713.8</ele>
        <time>2022-01-01T11:07:39Z</time>
      </trkpt>
      <trkpt lat="44.23749" lon="6.22782">
        <ele>1714.4</ele>
        <time>2022-01-01T11:07:41Z</time>
      </trkpt>
      <trkpt lat="44.23747" lon="6.22784">
        <ele>1714.6</ele>
        <time>2022-01-01T11:07:43Z</time>
      </trkpt>
      <trkpt lat="44.23746" lon="6.22786">
        <ele>1715.4</ele>
        <time>2022-01-01T11:07:46Z</time>
      </trkpt>
      <trkpt lat="44.23746" lon="6.22788">
        <ele>1715.8</ele>
        <time>2022-01-01T11:07:48Z</time>
      </trkpt>
      <trkpt lat="44.23745" lon="6.22792">
        <ele>1716.4</ele>
        <time>2022-01-01T11:07:52Z</time>
      </trkpt>
      <trkpt lat="44.23745" lon="6.22795">
        <ele>1717.4</ele>
        <time>2022-01-01T11:07:57Z</time>
      </trkpt>
      <trkpt lat="44.23745" lon="6.22795">
        <ele>1717.8</ele>
        <time>2022-01-01T11:07:58Z</time>
      </trkpt>
      <trkpt lat="44.23745" lon="6.22796">
        <ele>1718.6</ele>
        <time>2022-01-01T11:08:01Z</time>
      </trkpt>
      <trkpt lat="44.23744" lon="6.228">
        <ele>1719.6</ele>
        <time>2022-01-01T11:08:06Z</time>
      </trkpt>
      <trkpt lat="44.23744" lon="6.22801">
        <ele>1720.2</ele>
        <time>2022-01-01T11:08:08Z</time>
      </trkpt>
      <trkpt lat="44.23743" lon="6.22803">
        <ele>1720.8</ele>
        <time>2022-01-01T11:08:11Z</time>
      </trkpt>
      <trkpt lat="44.23742" lon="6.22806">
        <ele>1722</ele>
        <time>2022-01-01T11:08:16Z</time>
      </trkpt>
      <trkpt lat="44.23741" lon="6.22807">
        <ele>1722.2</ele>
        <time>2022-01-01T11:08:17Z</time>
      </trkpt>
      <trkpt lat="44.23741" lon="6.22807">
        <ele>1722.4</ele>
        <time>2022-01-01T11:08:18Z</time>
      </trkpt>
      <trkpt lat="44.23738" lon="6.22812">
        <ele>1723</ele>
        <time>2022-01-01T11:08:24Z</time>
      </trkpt>
      <trkpt lat="44.23739" lon="6.22815">
        <ele>1723.8</ele>
        <time>2022-01-01T11:08:28Z</time>
      </trkpt>
      <trkpt lat="44.2374" lon="6.22815">
        <ele>1724</ele>
        <time>2022-01-01T11:08:29Z</time>
      </trkpt>
      <trkpt lat="44.23744" lon="6.2282">
        <ele>1725.2</ele>
        <time>2022-01-01T11:08:38Z</time>
      </trkpt>
      <trkpt lat="44.23746" lon="6.22822">
        <ele>1726</ele>
        <time>2022-01-01T11:08:42Z</time>
      </trkpt>
      <trkpt lat="44.23746" lon="6.22824">
        <ele>1726.4</ele>
        <time>2022-01-01T11:08:45Z</time>
      </trkpt>
      <trkpt lat="44.23745" lon="6.22826">
        <ele>1727.4</ele>
        <time>2022-01-01T11:08:49Z</time>
      </trkpt>
      <trkpt lat="44.23743" lon="6.22828">
        <ele>1728</ele>
        <time>2022-01-01T11:08:52Z</time>
      </trkpt>
      <trkpt lat="44.23743" lon="6.22829">
        <ele>1728.6</ele>
        <time>2022-01-01T11:08:55Z</time>
      </trkpt>
      <trkpt lat="44.23745" lon="6.22831">
        <ele>1729.6</ele>
        <time>2022-01-01T11:08:59Z</time>
      </trkpt>
      <trkpt lat="44.23747" lon="6.22832">
        <ele>1730</ele>
        <time>2022-01-01T11:09:02Z</time>
      </trkpt>
      <trkpt lat="44.23748" lon="6.22833">
        <ele>1730</ele>
        <time>2022-01-01T11:09:04Z</time>
      </trkpt>
      <trkpt lat="44.23748" lon="6.22837">
        <ele>1730.8</ele>
        <time>2022-01-01T11:09:11Z</time>
      </trkpt>
      <trkpt lat="44.23748" lon="6.22839">
        <ele>1731.8</ele>
        <time>2022-01-01T11:09:14Z</time>
      </trkpt>
      <trkpt lat="44.23748" lon="6.22839">
        <ele>1732</ele>
        <time>2022-01-01T11:09:15Z</time>
      </trkpt>
      <trkpt lat="44.23749" lon="6.22841">
        <ele>1733.2</ele>
        <time>2022-01-01T11:09:20Z</time>
      </trkpt>
      <trkpt lat="44.23749" lon="6.22842">
        <ele>1733.8</ele>
        <time>2022-01-01T11:09:24Z</time>
      </trkpt>
      <trkpt lat="44.2375" lon="6.22842">
        <ele>1734</ele>
        <time>2022-01-01T11:09:26Z</time>
      </trkpt>
      <trkpt lat="44.2375" lon="6.2284">
        <ele>1733.8</ele>
        <time>2022-01-01T11:09:31Z</time>
      </trkpt>
      <trkpt lat="44.23747" lon="6.22846">
        <ele>1734.2</ele>
        <time>2022-01-01T11:09:37Z</time>
      </trkpt>
      <trkpt lat="44.23746" lon="6.22849">
        <ele>1735</ele>
        <time>2022-01-01T11:09:40Z</time>
      </trkpt>
      <trkpt lat="44.23745" lon="6.22849">
        <ele>1735.2</ele>
        <time>2022-01-01T11:09:41Z</time>
      </trkpt>
      <trkpt lat="44.23745" lon="6.2285">
        <ele>1735.4</ele>
        <time>2022-01-01T11:09:42Z</time>
      </trkpt>
      <trkpt lat="44.23745" lon="6.22852">
        <ele>1736.2</ele>
        <time>2022-01-01T11:09:45Z</time>
      </trkpt>
      <trkpt lat="44.23745" lon="6.22853">
        <ele>1736.6</ele>
        <time>2022-01-01T11:09:46Z</time>
      </trkpt>
      <trkpt lat="44.23746" lon="6.22855">
        <ele>1737.6</ele>
        <time>2022-01-01T11:09:51Z</time>
      </trkpt>
      <trkpt lat="44.2375" lon="6.22862">
        <ele>1738.8</ele>
        <time>2022-01-01T11:10:00Z</time>
      </trkpt>
      <trkpt lat="44.2375" lon="6.22862">
        <ele>1738.8</ele>
        <time>2022-01-01T11:10:01Z</time>
      </trkpt>
      <trkpt lat="44.23753" lon="6.22869">
        <ele>1739.8</ele>
        <time>2022-01-01T11:10:11Z</time>
      </trkpt>
      <trkpt lat="44.23752" lon="6.22874">
        <ele>1741</ele>
        <time>2022-01-01T11:10:19Z</time>
      </trkpt>
      <trkpt lat="44.23753" lon="6.22875">
        <ele>1741.2</ele>
        <time>2022-01-01T11:10:21Z</time>
      </trkpt>
      <trkpt lat="44.23753" lon="6.22877">
        <ele>1742</ele>
        <time>2022-01-01T11:10:25Z</time>
      </trkpt>
      <trkpt lat="44.23753" lon="6.2288">
        <ele>1743.2</ele>
        <time>2022-01-01T11:10:29Z</time>
      </trkpt>
      <trkpt lat="44.23754" lon="6.22882">
        <ele>1744.2</ele>
        <time>2022-01-01T11:10:34Z</time>
      </trkpt>
      <trkpt lat="44.23754" lon="6.22882">
        <ele>1744.6</ele>
        <time>2022-01-01T11:10:35Z</time>
      </trkpt>
      <trkpt lat="44.23755" lon="6.22885">
        <ele>1745.4</ele>
        <time>2022-01-01T11:10:39Z</time>
      </trkpt>
      <trkpt lat="44.23758" lon="6.22888">
        <ele>1746.6</ele>
        <time>2022-01-01T11:10:45Z</time>
      </trkpt>
      <trkpt lat="44.23761" lon="6.22895">
        <ele>1747.2</ele>
        <time>2022-01-01T11:10:55Z</time>
      </trkpt>
      <trkpt lat="44.2376" lon="6.22897">
        <ele>1747.6</ele>
        <time>2022-01-01T11:10:58Z</time>
      </trkpt>
      <trkpt lat="44.2376" lon="6.229">
        <ele>1748.8</ele>
        <time>2022-01-01T11:11:03Z</time>
      </trkpt>
      <trkpt lat="44.23759" lon="6.22901">
        <ele>1749.4</ele>
        <time>2022-01-01T11:11:05Z</time>
      </trkpt>
      <trkpt lat="44.23759" lon="6.22902">
        <ele>1749.8</ele>
        <time>2022-01-01T11:11:07Z</time>
      </trkpt>
      <trkpt lat="44.23761" lon="6.22905">
        <ele>1750.8</ele>
        <time>2022-01-01T11:11:11Z</time>
      </trkpt>
      <trkpt lat="44.23761" lon="6.22905">
        <ele>1751</ele>
        <time>2022-01-01T11:11:12Z</time>
      </trkpt>
      <trkpt lat="44.23762" lon="6.2291">
        <ele>1751.8</ele>
        <time>2022-01-01T11:11:19Z</time>
      </trkpt>
      <trkpt lat="44.23763" lon="6.22916">
        <ele>1753</ele>
        <time>2022-01-01T11:11:28Z</time>
      </trkpt>
      <trkpt lat="44.23763" lon="6.22916">
        <ele>1753</ele>
        <time>2022-01-01T11:11:29Z</time>
      </trkpt>
      <trkpt lat="44.23764" lon="6.2292">
        <ele>1754</ele>
        <time>2022-01-01T11:11:36Z</time>
      </trkpt>
      <trkpt lat="44.23765" lon="6.22922">
        <ele>1754.6</ele>
        <time>2022-01-01T11:11:39Z</time>
      </trkpt>
      <trkpt lat="44.23765" lon="6.22923">
        <ele>1755.2</ele>
        <time>2022-01-01T11:11:41Z</time>
      </trkpt>
      <trkpt lat="44.23766" lon="6.22927">
        <ele>1756.2</ele>
        <time>2022-01-01T11:11:47Z</time>
      </trkpt>
      <trkpt lat="44.23768" lon="6.22928">
        <ele>1756.6</ele>
        <time>2022-01-01T11:11:49Z</time>
      </trkpt>
      <trkpt lat="44.23767" lon="6.22929">
        <ele>1757.4</ele>
        <time>2022-01-01T11:11:53Z</time>
      </trkpt>
      <trkpt lat="44.23768" lon="6.22933">
        <ele>1758.2</ele>
        <time>2022-01-01T11:11:59Z</time>
      </trkpt>
      <trkpt lat="44.23768" lon="6.22933">
        <ele>1758.6</ele>
        <time>2022-01-01T11:12:00Z</time>
      </trkpt>
      <trkpt lat="44.23768" lon="6.22936">
        <ele>1759.6</ele>
        <time>2022-01-01T11:12:04Z</time>
      </trkpt>
      <trkpt lat="44.23768" lon="6.22938">
        <ele>1760.4</ele>
        <time>2022-01-01T11:12:09Z</time>
      </trkpt>
      <trkpt lat="44.23769" lon="6.22938">
        <ele>1760.6</ele>
        <time>2022-01-01T11:12:11Z</time>
      </trkpt>
      <trkpt lat="44.23769" lon="6.2294">
        <ele>1761</ele>
        <time>2022-01-01T11:12:13Z</time>
      </trkpt>
      <trkpt lat="44.23768" lon="6.22943">
        <ele>1761.6</ele>
        <time>2022-01-01T11:12:21Z</time>
      </trkpt>
      <trkpt lat="44.23767" lon="6.22943">
        <ele>1762</ele>
        <time>2022-01-01T11:12:23Z</time>
      </trkpt>
      <trkpt lat="44.23767" lon="6.22946">
        <ele>1762.8</ele>
        <time>2022-01-01T11:12:28Z</time>
      </trkpt>
      <trkpt lat="44.23769" lon="6.22948">
        <ele>1763.6</ele>
        <time>2022-01-01T11:12:33Z</time>
      </trkpt>
      <trkpt lat="44.23771" lon="6.22949">
        <ele>1764</ele>
        <time>2022-01-01T11:12:34Z</time>
      </trkpt>
      <trkpt lat="44.2377" lon="6.22953">
        <ele>1765</ele>
        <time>2022-01-01T11:12:42Z</time>
      </trkpt>
      <trkpt lat="44.2377" lon="6.22954">
        <ele>1765.2</ele>
        <time>2022-01-01T11:12:43Z</time>
      </trkpt>
      <trkpt lat="44.23772" lon="6.22956">
        <ele>1766</ele>
        <time>2022-01-01T11:12:47Z</time>
      </trkpt>
      <trkpt lat="44.23772" lon="6.22957">
        <ele>1766.4</ele>
        <time>2022-01-01T11:12:49Z</time>
      </trkpt>
      <trkpt lat="44.23774" lon="6.2296">
        <ele>1767</ele>
        <time>2022-01-01T11:12:54Z</time>
      </trkpt>
      <trkpt lat="44.23774" lon="6.22961">
        <ele>1767.2</ele>
        <time>2022-01-01T11:12:55Z</time>
      </trkpt>
      <trkpt lat="44.23775" lon="6.22966">
        <ele>1768.2</ele>
        <time>2022-01-01T11:13:03Z</time>
      </trkpt>
      <trkpt lat="44.23776" lon="6.22967">
        <ele>1768.8</ele>
        <time>2022-01-01T11:13:05Z</time>
      </trkpt>
      <trkpt lat="44.23777" lon="6.22968">
        <ele>1769.2</ele>
        <time>2022-01-01T11:13:07Z</time>
      </trkpt>
      <trkpt lat="44.23778" lon="6.22972">
        <ele>1770.2</ele>
        <time>2022-01-01T11:13:13Z</time>
      </trkpt>
      <trkpt lat="44.23779" lon="6.22974">
        <ele>1771</ele>
        <time>2022-01-01T11:13:15Z</time>
      </trkpt>
      <trkpt lat="44.2378" lon="6.22976">
        <ele>1771.4</ele>
        <time>2022-01-01T11:13:17Z</time>
      </trkpt>
      <trkpt lat="44.23781" lon="6.22977">
        <ele>1772.4</ele>
        <time>2022-01-01T11:13:22Z</time>
      </trkpt>
      <trkpt lat="44.23782" lon="6.22979">
        <ele>1772.4</ele>
        <time>2022-01-01T11:13:27Z</time>
      </trkpt>
      <trkpt lat="44.23783" lon="6.22983">
        <ele>1772.4</ele>
        <time>2022-01-01T11:13:32Z</time>
      </trkpt>
      <trkpt lat="44.23787" lon="6.22989">
        <ele>1773.4</ele>
        <time>2022-01-01T11:13:40Z</time>
      </trkpt>
      <trkpt lat="44.23787" lon="6.22991">
        <ele>1773.6</ele>
        <time>2022-01-01T11:13:42Z</time>
      </trkpt>
      <trkpt lat="44.2379" lon="6.22996">
        <ele>1774.6</ele>
        <time>2022-01-01T11:13:49Z</time>
      </trkpt>
      <trkpt lat="44.2379" lon="6.22997">
        <ele>1774.8</ele>
        <time>2022-01-01T11:13:52Z</time>
      </trkpt>
      <trkpt lat="44.23792" lon="6.23003">
        <ele>1775.6</ele>
        <time>2022-01-01T11:14:00Z</time>
      </trkpt>
      <trkpt lat="44.23792" lon="6.23004">
        <ele>1776</ele>
        <time>2022-01-01T11:14:02Z</time>
      </trkpt>
      <trkpt lat="44.23792" lon="6.23006">
        <ele>1776.8</ele>
        <time>2022-01-01T11:14:05Z</time>
      </trkpt>
      <trkpt lat="44.23795" lon="6.23011">
        <ele>1777.4</ele>
        <time>2022-01-01T11:14:12Z</time>
      </trkpt>
      <trkpt lat="44.23795" lon="6.23013">
        <ele>1777.8</ele>
        <time>2022-01-01T11:14:15Z</time>
      </trkpt>
      <trkpt lat="44.23793" lon="6.23017">
        <ele>1778.8</ele>
        <time>2022-01-01T11:14:20Z</time>
      </trkpt>
      <trkpt lat="44.23793" lon="6.23018">
        <ele>1779</ele>
        <time>2022-01-01T11:14:22Z</time>
      </trkpt>
      <trkpt lat="44.23792" lon="6.23022">
        <ele>1780</ele>
        <time>2022-01-01T11:14:27Z</time>
      </trkpt>
      <trkpt lat="44.23795" lon="6.23026">
        <ele>1780.6</ele>
        <time>2022-01-01T11:14:32Z</time>
      </trkpt>
      <trkpt lat="44.23795" lon="6.23027">
        <ele>1781</ele>
        <time>2022-01-01T11:14:34Z</time>
      </trkpt>
      <trkpt lat="44.23796" lon="6.23032">
        <ele>1782</ele>
        <time>2022-01-01T11:14:39Z</time>
      </trkpt>
      <trkpt lat="44.23796" lon="6.23035">
        <ele>1782.6</ele>
        <time>2022-01-01T11:14:42Z</time>
      </trkpt>
      <trkpt lat="44.23796" lon="6.23038">
        <ele>1783.2</ele>
        <time>2022-01-01T11:14:46Z</time>
      </trkpt>
      <trkpt lat="44.23796" lon="6.23041">
        <ele>1784.2</ele>
        <time>2022-01-01T11:14:52Z</time>
      </trkpt>
      <trkpt lat="44.23796" lon="6.23042">
        <ele>1784.2</ele>
        <time>2022-01-01T11:14:53Z</time>
      </trkpt>
      <trkpt lat="44.23797" lon="6.23048">
        <ele>1785.4</ele>
        <time>2022-01-01T11:15:01Z</time>
      </trkpt>
      <trkpt lat="44.23797" lon="6.23048">
        <ele>1785.6</ele>
        <time>2022-01-01T11:15:02Z</time>
      </trkpt>
      <trkpt lat="44.23796" lon="6.2305">
        <ele>1786.2</ele>
        <time>2022-01-01T11:15:04Z</time>
      </trkpt>
      <trkpt lat="44.23796" lon="6.2305">
        <ele>1786.4</ele>
        <time>2022-01-01T11:15:05Z</time>
      </trkpt>
      <trkpt lat="44.23796" lon="6.2305">
        <ele>1786.6</ele>
        <time>2022-01-01T11:15:06Z</time>
      </trkpt>
      <trkpt lat="44.23796" lon="6.23051">
        <ele>1786.8</ele>
        <time>2022-01-01T11:15:07Z</time>
      </trkpt>
      <trkpt lat="44.23795" lon="6.23052">
        <ele>1787</ele>
        <time>2022-01-01T11:15:08Z</time>
      </trkpt>
      <trkpt lat="44.23793" lon="6.23052">
        <ele>1787.6</ele>
        <time>2022-01-01T11:15:12Z</time>
      </trkpt>
      <trkpt lat="44.23793" lon="6.23052">
        <ele>1787.6</ele>
        <time>2022-01-01T11:15:13Z</time>
      </trkpt>
      <trkpt lat="44.23791" lon="6.23052">
        <ele>1787.8</ele>
        <time>2022-01-01T11:15:15Z</time>
      </trkpt>
      <trkpt lat="44.2379" lon="6.23053">
        <ele>1788.6</ele>
        <time>2022-01-01T11:15:21Z</time>
      </trkpt>
      <trkpt lat="44.2379" lon="6.23054">
        <ele>1788.8</ele>
        <time>2022-01-01T11:15:22Z</time>
      </trkpt>
      <trkpt lat="44.2379" lon="6.23056">
        <ele>1789.8</ele>
        <time>2022-01-01T11:15:27Z</time>
      </trkpt>
      <trkpt lat="44.2379" lon="6.23058">
        <ele>1790.8</ele>
        <time>2022-01-01T11:15:32Z</time>
      </trkpt>
      <trkpt lat="44.23789" lon="6.2306">
        <ele>1791.8</ele>
        <time>2022-01-01T11:15:40Z</time>
      </trkpt>
      <trkpt lat="44.23789" lon="6.2306">
        <ele>1792</ele>
        <time>2022-01-01T11:15:41Z</time>
      </trkpt>
      <trkpt lat="44.23789" lon="6.2306">
        <ele>1792</ele>
        <time>2022-01-01T11:15:42Z</time>
      </trkpt>
      <trkpt lat="44.23789" lon="6.23066">
        <ele>1793</ele>
        <time>2022-01-01T11:15:48Z</time>
      </trkpt>
      <trkpt lat="44.23789" lon="6.2307">
        <ele>1793.6</ele>
        <time>2022-01-01T11:15:52Z</time>
      </trkpt>
      <trkpt lat="44.23789" lon="6.23072">
        <ele>1794</ele>
        <time>2022-01-01T11:15:55Z</time>
      </trkpt>
      <trkpt lat="44.23789" lon="6.23075">
        <ele>1795.2</ele>
        <time>2022-01-01T11:16:00Z</time>
      </trkpt>
      <trkpt lat="44.23789" lon="6.23077">
        <ele>1795.4</ele>
        <time>2022-01-01T11:16:02Z</time>
      </trkpt>
      <trkpt lat="44.23789" lon="6.23079">
        <ele>1796.4</ele>
        <time>2022-01-01T11:16:06Z</time>
      </trkpt>
      <trkpt lat="44.23787" lon="6.23077">
        <ele>1797.4</ele>
        <time>2022-01-01T11:16:11Z</time>
      </trkpt>
      <trkpt lat="44.23786" lon="6.23077">
        <ele>1797.4</ele>
        <time>2022-01-01T11:16:12Z</time>
      </trkpt>
      <trkpt lat="44.23783" lon="6.23076">
        <ele>1798.2</ele>
        <time>2022-01-01T11:16:22Z</time>
      </trkpt>
      <trkpt lat="44.23783" lon="6.23076">
        <ele>1798.4</ele>
        <time>2022-01-01T11:16:25Z</time>
      </trkpt>
      <trkpt lat="44.23783" lon="6.23076">
        <ele>1799</ele>
        <time>2022-01-01T11:16:31Z</time>
      </trkpt>
      <trkpt lat="44.23783" lon="6.23076">
        <ele>1799</ele>
        <time>2022-01-01T11:16:34Z</time>
      </trkpt>
      <trkpt lat="44.23781" lon="6.23075">
        <ele>1799.4</ele>
        <time>2022-01-01T11:16:40Z</time>
      </trkpt>
      <trkpt lat="44.23779" lon="6.23074">
        <ele>1799.8</ele>
        <time>2022-01-01T11:16:44Z</time>
      </trkpt>
      <trkpt lat="44.23778" lon="6.23072">
        <ele>1800.2</ele>
        <time>2022-01-01T11:16:48Z</time>
      </trkpt>
      <trkpt lat="44.23777" lon="6.2307">
        <ele>1800.4</ele>
        <time>2022-01-01T11:16:52Z</time>
      </trkpt>
      <trkpt lat="44.23775" lon="6.23069">
        <ele>1800.8</ele>
        <time>2022-01-01T11:16:54Z</time>
      </trkpt>
      <trkpt lat="44.23774" lon="6.23067">
        <ele>1801.4</ele>
        <time>2022-01-01T11:16:58Z</time>
      </trkpt>
      <trkpt lat="44.23773" lon="6.23066">
        <ele>1801.6</ele>
        <time>2022-01-01T11:16:59Z</time>
      </trkpt>
      <trkpt lat="44.23771" lon="6.23066">
        <ele>1802.4</ele>
        <time>2022-01-01T11:17:04Z</time>
      </trkpt>
      <trkpt lat="44.23771" lon="6.23065">
        <ele>1802.6</ele>
        <time>2022-01-01T11:17:05Z</time>
      </trkpt>
      <trkpt lat="44.2377" lon="6.23065">
        <ele>1802.8</ele>
        <time>2022-01-01T11:17:06Z</time>
      </trkpt>
      <trkpt lat="44.23769" lon="6.23065">
        <ele>1803</ele>
        <time>2022-01-01T11:17:07Z</time>
      </trkpt>
      <trkpt lat="44.23767" lon="6.23065">
        <ele>1803.4</ele>
        <time>2022-01-01T11:17:09Z</time>
      </trkpt>
      <trkpt lat="44.23767" lon="6.23065">
        <ele>1803.6</ele>
        <time>2022-01-01T11:17:10Z</time>
      </trkpt>
      <trkpt lat="44.23766" lon="6.23064">
        <ele>1803.6</ele>
        <time>2022-01-01T11:17:11Z</time>
      </trkpt>
      <trkpt lat="44.23765" lon="6.23064">
        <ele>1804</ele>
        <time>2022-01-01T11:17:13Z</time>
      </trkpt>
      <trkpt lat="44.23763" lon="6.23063">
        <ele>1804.2</ele>
        <time>2022-01-01T11:17:16Z</time>
      </trkpt>
      <trkpt lat="44.23762" lon="6.23063">
        <ele>1804.4</ele>
        <time>2022-01-01T11:17:17Z</time>
      </trkpt>
      <trkpt lat="44.2376" lon="6.23063">
        <ele>1804.8</ele>
        <time>2022-01-01T11:17:20Z</time>
      </trkpt>
      <trkpt lat="44.2376" lon="6.23063">
        <ele>1805.2</ele>
        <time>2022-01-01T11:17:21Z</time>
      </trkpt>
      <trkpt lat="44.23758" lon="6.23064">
        <ele>1805.8</ele>
        <time>2022-01-01T11:17:24Z</time>
      </trkpt>
      <trkpt lat="44.23755" lon="6.23064">
        <ele>1807</ele>
        <time>2022-01-01T11:17:29Z</time>
      </trkpt>
      <trkpt lat="44.23755" lon="6.23062">
        <ele>1807.4</ele>
        <time>2022-01-01T11:17:31Z</time>
      </trkpt>
      <trkpt lat="44.23753" lon="6.2306">
        <ele>1808.2</ele>
        <time>2022-01-01T11:17:35Z</time>
      </trkpt>
      <trkpt lat="44.23751" lon="6.23062">
        <ele>1809.2</ele>
        <time>2022-01-01T11:17:41Z</time>
      </trkpt>
      <trkpt lat="44.23751" lon="6.23061">
        <ele>1809.4</ele>
        <time>2022-01-01T11:17:42Z</time>
      </trkpt>
      <trkpt lat="44.23749" lon="6.23059">
        <ele>1810.4</ele>
        <time>2022-01-01T11:17:46Z</time>
      </trkpt>
      <trkpt lat="44.23746" lon="6.23058">
        <ele>1811.2</ele>
        <time>2022-01-01T11:17:51Z</time>
      </trkpt>
      <trkpt lat="44.23745" lon="6.23057">
        <ele>1811.6</ele>
        <time>2022-01-01T11:17:53Z</time>
      </trkpt>
      <trkpt lat="44.23743" lon="6.23057">
        <ele>1812.8</ele>
        <time>2022-01-01T11:17:58Z</time>
      </trkpt>
      <trkpt lat="44.23742" lon="6.23056">
        <ele>1813.2</ele>
        <time>2022-01-01T11:18:01Z</time>
      </trkpt>
      <trkpt lat="44.23741" lon="6.23055">
        <ele>1813.8</ele>
        <time>2022-01-01T11:18:04Z</time>
      </trkpt>
      <trkpt lat="44.23738" lon="6.23055">
        <ele>1814.8</ele>
        <time>2022-01-01T11:18:09Z</time>
      </trkpt>
      <trkpt lat="44.23737" lon="6.23055">
        <ele>1815.4</ele>
        <time>2022-01-01T11:18:11Z</time>
      </trkpt>
      <trkpt lat="44.23736" lon="6.23054">
        <ele>1816</ele>
        <time>2022-01-01T11:18:13Z</time>
      </trkpt>
      <trkpt lat="44.23733" lon="6.23054">
        <ele>1817</ele>
        <time>2022-01-01T11:18:21Z</time>
      </trkpt>
      <trkpt lat="44.23731" lon="6.23053">
        <ele>1818.2</ele>
        <time>2022-01-01T11:18:26Z</time>
      </trkpt>
      <trkpt lat="44.23729" lon="6.23051">
        <ele>1819</ele>
        <time>2022-01-01T11:18:31Z</time>
      </trkpt>
      <trkpt lat="44.23728" lon="6.23052">
        <ele>1819.2</ele>
        <time>2022-01-01T11:18:32Z</time>
      </trkpt>
      <trkpt lat="44.23725" lon="6.23052">
        <ele>1820.4</ele>
        <time>2022-01-01T11:18:38Z</time>
      </trkpt>
      <trkpt lat="44.23724" lon="6.23051">
        <ele>1821</ele>
        <time>2022-01-01T11:18:41Z</time>
      </trkpt>
      <trkpt lat="44.23723" lon="6.23051">
        <ele>1821.6</ele>
        <time>2022-01-01T11:18:44Z</time>
      </trkpt>
      <trkpt lat="44.23719" lon="6.23051">
        <ele>1822.6</ele>
        <time>2022-01-01T11:18:51Z</time>
      </trkpt>
      <trkpt lat="44.23715" lon="6.23052">
        <ele>1823.8</ele>
        <time>2022-01-01T11:18:57Z</time>
      </trkpt>
      <trkpt lat="44.23713" lon="6.23053">
        <ele>1824.6</ele>
        <time>2022-01-01T11:19:01Z</time>
      </trkpt>
      <trkpt lat="44.23712" lon="6.23053">
        <ele>1824.8</ele>
        <time>2022-01-01T11:19:03Z</time>
      </trkpt>
      <trkpt lat="44.23711" lon="6.23052">
        <ele>1826</ele>
        <time>2022-01-01T11:19:09Z</time>
      </trkpt>
      <trkpt lat="44.2371" lon="6.23053">
        <ele>1826.2</ele>
        <time>2022-01-01T11:19:11Z</time>
      </trkpt>
      <trkpt lat="44.23708" lon="6.23055">
        <ele>1827</ele>
        <time>2022-01-01T11:19:15Z</time>
      </trkpt>
      <trkpt lat="44.23704" lon="6.23054">
        <ele>1828.2</ele>
        <time>2022-01-01T11:19:21Z</time>
      </trkpt>
      <trkpt lat="44.23697" lon="6.23049">
        <ele>1829</ele>
        <time>2022-01-01T11:19:31Z</time>
      </trkpt>
      <trkpt lat="44.23697" lon="6.23048">
        <ele>1829.2</ele>
        <time>2022-01-01T11:19:32Z</time>
      </trkpt>
      <trkpt lat="44.23691" lon="6.2304">
        <ele>1830.2</ele>
        <time>2022-01-01T11:19:41Z</time>
      </trkpt>
      <trkpt lat="44.23685" lon="6.23033">
        <ele>1830.6</ele>
        <time>2022-01-01T11:19:51Z</time>
      </trkpt>
      <trkpt lat="44.23677" lon="6.23028">
        <ele>1831.2</ele>
        <time>2022-01-01T11:20:01Z</time>
      </trkpt>
      <trkpt lat="44.23676" lon="6.23028">
        <ele>1831.2</ele>
        <time>2022-01-01T11:20:02Z</time>
      </trkpt>
      <trkpt lat="44.23672" lon="6.23028">
        <ele>1831.8</ele>
        <time>2022-01-01T11:20:06Z</time>
      </trkpt>
      <trkpt lat="44.23668" lon="6.23028">
        <ele>1832</ele>
        <time>2022-01-01T11:20:10Z</time>
      </trkpt>
      <trkpt lat="44.23667" lon="6.23027">
        <ele>1832.2</ele>
        <time>2022-01-01T11:20:11Z</time>
      </trkpt>
      <trkpt lat="44.23664" lon="6.23027">
        <ele>1832.4</ele>
        <time>2022-01-01T11:20:14Z</time>
      </trkpt>
      <trkpt lat="44.23658" lon="6.23026">
        <ele>1833</ele>
        <time>2022-01-01T11:20:21Z</time>
      </trkpt>
      <trkpt lat="44.23656" lon="6.23025">
        <ele>1833</ele>
        <time>2022-01-01T11:20:23Z</time>
      </trkpt>
      <trkpt lat="44.23654" lon="6.23025">
        <ele>1833.4</ele>
        <time>2022-01-01T11:20:26Z</time>
      </trkpt>
      <trkpt lat="44.23652" lon="6.23024">
        <ele>1833.6</ele>
        <time>2022-01-01T11:20:28Z</time>
      </trkpt>
      <trkpt lat="44.23651" lon="6.23024">
        <ele>1833.8</ele>
        <time>2022-01-01T11:20:30Z</time>
      </trkpt>
      <trkpt lat="44.2365" lon="6.23024">
        <ele>1833.8</ele>
        <time>2022-01-01T11:20:31Z</time>
      </trkpt>
      <trkpt lat="44.23645" lon="6.23025">
        <ele>1834.4</ele>
        <time>2022-01-01T11:20:37Z</time>
      </trkpt>
      <trkpt lat="44.23641" lon="6.23025">
        <ele>1835.8</ele>
        <time>2022-01-01T11:20:41Z</time>
      </trkpt>
      <trkpt lat="44.23641" lon="6.23025">
        <ele>1836</ele>
        <time>2022-01-01T11:20:42Z</time>
      </trkpt>
      <trkpt lat="44.23639" lon="6.23026">
        <ele>1836.4</ele>
        <time>2022-01-01T11:20:44Z</time>
      </trkpt>
      <trkpt lat="44.23638" lon="6.23025">
        <ele>1836.8</ele>
        <time>2022-01-01T11:20:46Z</time>
      </trkpt>
      <trkpt lat="44.23634" lon="6.23025">
        <ele>1837</ele>
        <time>2022-01-01T11:20:51Z</time>
      </trkpt>
      <trkpt lat="44.23633" lon="6.23025">
        <ele>1837.8</ele>
        <time>2022-01-01T11:20:54Z</time>
      </trkpt>
      <trkpt lat="44.23629" lon="6.23024">
        <ele>1839</ele>
        <time>2022-01-01T11:21:01Z</time>
      </trkpt>
      <trkpt lat="44.23625" lon="6.23024">
        <ele>1840</ele>
        <time>2022-01-01T11:21:06Z</time>
      </trkpt>
      <trkpt lat="44.23623" lon="6.23025">
        <ele>1840.8</ele>
        <time>2022-01-01T11:21:11Z</time>
      </trkpt>
      <trkpt lat="44.23622" lon="6.23024">
        <ele>1841</ele>
        <time>2022-01-01T11:21:13Z</time>
      </trkpt>
      <trkpt lat="44.23619" lon="6.23025">
        <ele>1842.2</ele>
        <time>2022-01-01T11:21:19Z</time>
      </trkpt>
      <trkpt lat="44.23618" lon="6.23026">
        <ele>1842.8</ele>
        <time>2022-01-01T11:21:21Z</time>
      </trkpt>
      <trkpt lat="44.23616" lon="6.23026">
        <ele>1843.2</ele>
        <time>2022-01-01T11:21:23Z</time>
      </trkpt>
      <trkpt lat="44.23614" lon="6.23025">
        <ele>1844.4</ele>
        <time>2022-01-01T11:21:29Z</time>
      </trkpt>
      <trkpt lat="44.23613" lon="6.23025">
        <ele>1845</ele>
        <time>2022-01-01T11:21:31Z</time>
      </trkpt>
      <trkpt lat="44.23611" lon="6.23027">
        <ele>1845.6</ele>
        <time>2022-01-01T11:21:34Z</time>
      </trkpt>
      <trkpt lat="44.23608" lon="6.23028">
        <ele>1846.6</ele>
        <time>2022-01-01T11:21:40Z</time>
      </trkpt>
      <trkpt lat="44.23608" lon="6.23028">
        <ele>1846.8</ele>
        <time>2022-01-01T11:21:41Z</time>
      </trkpt>
      <trkpt lat="44.23606" lon="6.23029">
        <ele>1847.8</ele>
        <time>2022-01-01T11:21:46Z</time>
      </trkpt>
      <trkpt lat="44.23603" lon="6.2303">
        <ele>1848.6</ele>
        <time>2022-01-01T11:21:51Z</time>
      </trkpt>
      <trkpt lat="44.23603" lon="6.23031">
        <ele>1848.8</ele>
        <time>2022-01-01T11:21:52Z</time>
      </trkpt>
      <trkpt lat="44.23601" lon="6.23031">
        <ele>1849.8</ele>
        <time>2022-01-01T11:21:58Z</time>
      </trkpt>
      <trkpt lat="44.23599" lon="6.23031">
        <ele>1850.4</ele>
        <time>2022-01-01T11:22:01Z</time>
      </trkpt>
      <trkpt lat="44.23597" lon="6.23033">
        <ele>1851</ele>
        <time>2022-01-01T11:22:06Z</time>
      </trkpt>
      <trkpt lat="44.23596" lon="6.23034">
        <ele>1852</ele>
        <time>2022-01-01T11:22:10Z</time>
      </trkpt>
      <trkpt lat="44.23595" lon="6.23034">
        <ele>1852.4</ele>
        <time>2022-01-01T11:22:11Z</time>
      </trkpt>
      <trkpt lat="44.23594" lon="6.23035">
        <ele>1853.2</ele>
        <time>2022-01-01T11:22:15Z</time>
      </trkpt>
      <trkpt lat="44.23591" lon="6.23035">
        <ele>1854.6</ele>
        <time>2022-01-01T11:22:19Z</time>
      </trkpt>
      <trkpt lat="44.2359" lon="6.23035">
        <ele>1855</ele>
        <time>2022-01-01T11:22:21Z</time>
      </trkpt>
      <trkpt lat="44.23589" lon="6.23035">
        <ele>1855.6</ele>
        <time>2022-01-01T11:22:24Z</time>
      </trkpt>
      <trkpt lat="44.23586" lon="6.23035">
        <ele>1856.6</ele>
        <time>2022-01-01T11:22:28Z</time>
      </trkpt>
      <trkpt lat="44.23584" lon="6.23034">
        <ele>1857</ele>
        <time>2022-01-01T11:22:31Z</time>
      </trkpt>
      <trkpt lat="44.23582" lon="6.23033">
        <ele>1857.2</ele>
        <time>2022-01-01T11:22:41Z</time>
      </trkpt>
      <trkpt lat="44.23582" lon="6.23033">
        <ele>1857.8</ele>
        <time>2022-01-01T11:22:47Z</time>
      </trkpt>
      <trkpt lat="44.23581" lon="6.23034">
        <ele>1858.4</ele>
        <time>2022-01-01T11:22:51Z</time>
      </trkpt>
      <trkpt lat="44.23574" lon="6.23032">
        <ele>1858.2</ele>
        <time>2022-01-01T11:23:00Z</time>
      </trkpt>
      <trkpt lat="44.23573" lon="6.23032">
        <ele>1858</ele>
        <time>2022-01-01T11:23:01Z</time>
      </trkpt>
      <trkpt lat="44.23569" lon="6.23032">
        <ele>1857.4</ele>
        <time>2022-01-01T11:23:05Z</time>
      </trkpt>
      <trkpt lat="44.23563" lon="6.23034">
        <ele>1857.2</ele>
        <time>2022-01-01T11:23:11Z</time>
      </trkpt>
      <trkpt lat="44.23559" lon="6.23037">
        <ele>1857.8</ele>
        <time>2022-01-01T11:23:21Z</time>
      </trkpt>
      <trkpt lat="44.23559" lon="6.23037">
        <ele>1857.4</ele>
        <time>2022-01-01T11:23:27Z</time>
      </trkpt>
      <trkpt lat="44.23559" lon="6.23036">
        <ele>1857.4</ele>
        <time>2022-01-01T11:23:31Z</time>
      </trkpt>
      <trkpt lat="44.23559" lon="6.23037">
        <ele>1857.4</ele>
        <time>2022-01-01T11:23:41Z</time>
      </trkpt>
      <trkpt lat="44.23559" lon="6.23038">
        <ele>1857.2</ele>
        <time>2022-01-01T11:23:47Z</time>
      </trkpt>
      <trkpt lat="44.23569" lon="6.23006">
        <ele>1862.4</ele>
        <time>2022-01-01T11:58:49Z</time>
      </trkpt>
      <trkpt lat="44.23568" lon="6.2304">
        <ele>1862.2</ele>
        <time>2022-01-01T11:58:53Z</time>
      </trkpt>
      <trkpt lat="44.23567" lon="6.23035">
        <ele>1862.4</ele>
        <time>2022-01-01T11:58:56Z</time>
      </trkpt>
      <trkpt lat="44.23567" lon="6.23035">
        <ele>1862.4</ele>
        <time>2022-01-01T11:58:58Z</time>
      </trkpt>
      <trkpt lat="44.23576" lon="6.23029">
        <ele>1862.2</ele>
        <time>2022-01-01T11:59:02Z</time>
      </trkpt>
      <trkpt lat="44.23579" lon="6.2303">
        <ele>1861.8</ele>
        <time>2022-01-01T11:59:04Z</time>
      </trkpt>
      <trkpt lat="44.2358" lon="6.2303">
        <ele>1861.8</ele>
        <time>2022-01-01T11:59:05Z</time>
      </trkpt>
      <trkpt lat="44.2358" lon="6.23031">
        <ele>1861.8</ele>
        <time>2022-01-01T11:59:06Z</time>
      </trkpt>
      <trkpt lat="44.23583" lon="6.23032">
        <ele>1862</ele>
        <time>2022-01-01T11:59:09Z</time>
      </trkpt>
      <trkpt lat="44.23585" lon="6.23032">
        <ele>1862.2</ele>
        <time>2022-01-01T11:59:10Z</time>
      </trkpt>
      <trkpt lat="44.23586" lon="6.23032">
        <ele>1862.4</ele>
        <time>2022-01-01T11:59:11Z</time>
      </trkpt>
      <trkpt lat="44.23587" lon="6.23032">
        <ele>1862.6</ele>
        <time>2022-01-01T11:59:12Z</time>
      </trkpt>
      <trkpt lat="44.23588" lon="6.23032">
        <ele>1862.6</ele>
        <time>2022-01-01T11:59:13Z</time>
      </trkpt>
      <trkpt lat="44.23588" lon="6.23033">
        <ele>1862.8</ele>
        <time>2022-01-01T11:59:14Z</time>
      </trkpt>
      <trkpt lat="44.23591" lon="6.23032">
        <ele>1862.8</ele>
        <time>2022-01-01T11:59:16Z</time>
      </trkpt>
      <trkpt lat="44.23592" lon="6.23032">
        <ele>1862.8</ele>
        <time>2022-01-01T11:59:17Z</time>
      </trkpt>
      <trkpt lat="44.23593" lon="6.23032">
        <ele>1863</ele>
        <time>2022-01-01T11:59:19Z</time>
      </trkpt>
      <trkpt lat="44.23595" lon="6.23032">
        <ele>1862.4</ele>
        <time>2022-01-01T11:59:22Z</time>
      </trkpt>
      <trkpt lat="44.23595" lon="6.23032">
        <ele>1862.2</ele>
        <time>2022-01-01T11:59:23Z</time>
      </trkpt>
      <trkpt lat="44.23596" lon="6.23032">
        <ele>1862</ele>
        <time>2022-01-01T11:59:24Z</time>
      </trkpt>
      <trkpt lat="44.23597" lon="6.23032">
        <ele>1861.8</ele>
        <time>2022-01-01T11:59:26Z</time>
      </trkpt>
      <trkpt lat="44.23598" lon="6.23031">
        <ele>1861.6</ele>
        <time>2022-01-01T11:59:28Z</time>
      </trkpt>
      <trkpt lat="44.23598" lon="6.23031">
        <ele>1861.4</ele>
        <time>2022-01-01T11:59:29Z</time>
      </trkpt>
      <trkpt lat="44.23599" lon="6.23031">
        <ele>1860.4</ele>
        <time>2022-01-01T11:59:33Z</time>
      </trkpt>
      <trkpt lat="44.23598" lon="6.23031">
        <ele>1861.8</ele>
        <time>2022-01-01T11:59:35Z</time>
      </trkpt>
      <trkpt lat="44.23598" lon="6.23031">
        <ele>1862</ele>
        <time>2022-01-01T11:59:36Z</time>
      </trkpt>
      <trkpt lat="44.236" lon="6.23031">
        <ele>1860.8</ele>
        <time>2022-01-01T11:59:38Z</time>
      </trkpt>
      <trkpt lat="44.23602" lon="6.2303">
        <ele>1860.4</ele>
        <time>2022-01-01T11:59:40Z</time>
      </trkpt>
      <trkpt lat="44.23603" lon="6.23029">
        <ele>1859.6</ele>
        <time>2022-01-01T11:59:42Z</time>
      </trkpt>
      <trkpt lat="44.23605" lon="6.23028">
        <ele>1859.8</ele>
        <time>2022-01-01T11:59:44Z</time>
      </trkpt>
      <trkpt lat="44.23605" lon="6.2303">
        <ele>1859.4</ele>
        <time>2022-01-01T11:59:46Z</time>
      </trkpt>
      <trkpt lat="44.23605" lon="6.2303">
        <ele>1859</ele>
        <time>2022-01-01T11:59:47Z</time>
      </trkpt>
      <trkpt lat="44.23607" lon="6.2303">
        <ele>1858.6</ele>
        <time>2022-01-01T11:59:49Z</time>
      </trkpt>
      <trkpt lat="44.23607" lon="6.23031">
        <ele>1858.4</ele>
        <time>2022-01-01T11:59:50Z</time>
      </trkpt>
      <trkpt lat="44.23609" lon="6.23031">
        <ele>1857.6</ele>
        <time>2022-01-01T11:59:54Z</time>
      </trkpt>
      <trkpt lat="44.2361" lon="6.2303">
        <ele>1856.8</ele>
        <time>2022-01-01T11:59:56Z</time>
      </trkpt>
      <trkpt lat="44.23612" lon="6.2303">
        <ele>1856.4</ele>
        <time>2022-01-01T11:59:58Z</time>
      </trkpt>
      <trkpt lat="44.23614" lon="6.23031">
        <ele>1855.2</ele>
        <time>2022-01-01T12:00:02Z</time>
      </trkpt>
      <trkpt lat="44.23617" lon="6.2303">
        <ele>1854.6</ele>
        <time>2022-01-01T12:00:06Z</time>
      </trkpt>
      <trkpt lat="44.23617" lon="6.2303">
        <ele>1854.2</ele>
        <time>2022-01-01T12:00:08Z</time>
      </trkpt>
      <trkpt lat="44.2362" lon="6.23029">
        <ele>1853</ele>
        <time>2022-01-01T12:00:13Z</time>
      </trkpt>
      <trkpt lat="44.23621" lon="6.23028">
        <ele>1852.4</ele>
        <time>2022-01-01T12:00:16Z</time>
      </trkpt>
      <trkpt lat="44.23622" lon="6.23028">
        <ele>1851.8</ele>
        <time>2022-01-01T12:00:18Z</time>
      </trkpt>
      <trkpt lat="44.23628" lon="6.23025">
        <ele>1850.6</ele>
        <time>2022-01-01T12:00:24Z</time>
      </trkpt>
      <trkpt lat="44.2363" lon="6.23023">
        <ele>1850.2</ele>
        <time>2022-01-01T12:00:26Z</time>
      </trkpt>
      <trkpt lat="44.23634" lon="6.23021">
        <ele>1849.4</ele>
        <time>2022-01-01T12:00:29Z</time>
      </trkpt>
      <trkpt lat="44.23635" lon="6.23021">
        <ele>1849.2</ele>
        <time>2022-01-01T12:00:30Z</time>
      </trkpt>
      <trkpt lat="44.23638" lon="6.23022">
        <ele>1848.4</ele>
        <time>2022-01-01T12:00:35Z</time>
      </trkpt>
      <trkpt lat="44.23638" lon="6.23022">
        <ele>1848.2</ele>
        <time>2022-01-01T12:00:36Z</time>
      </trkpt>
      <trkpt lat="44.23642" lon="6.23023">
        <ele>1847.2</ele>
        <time>2022-01-01T12:00:41Z</time>
      </trkpt>
      <trkpt lat="44.23644" lon="6.23023">
        <ele>1846.4</ele>
        <time>2022-01-01T12:00:46Z</time>
      </trkpt>
      <trkpt lat="44.23645" lon="6.23023">
        <ele>1846.2</ele>
        <time>2022-01-01T12:00:47Z</time>
      </trkpt>
      <trkpt lat="44.23648" lon="6.23024">
        <ele>1845.2</ele>
        <time>2022-01-01T12:00:52Z</time>
      </trkpt>
      <trkpt lat="44.23649" lon="6.23024">
        <ele>1844.8</ele>
        <time>2022-01-01T12:00:53Z</time>
      </trkpt>
      <trkpt lat="44.23651" lon="6.23024">
        <ele>1844.2</ele>
        <time>2022-01-01T12:00:55Z</time>
      </trkpt>
      <trkpt lat="44.23652" lon="6.23024">
        <ele>1844</ele>
        <time>2022-01-01T12:00:56Z</time>
      </trkpt>
      <trkpt lat="44.2366" lon="6.23024">
        <ele>1842.8</ele>
        <time>2022-01-01T12:01:02Z</time>
      </trkpt>
      <trkpt lat="44.23666" lon="6.23024">
        <ele>1842.4</ele>
        <time>2022-01-01T12:01:06Z</time>
      </trkpt>
      <trkpt lat="44.23674" lon="6.23026">
        <ele>1842</ele>
        <time>2022-01-01T12:01:13Z</time>
      </trkpt>
      <trkpt lat="44.23675" lon="6.23026">
        <ele>1841.8</ele>
        <time>2022-01-01T12:01:14Z</time>
      </trkpt>
      <trkpt lat="44.23676" lon="6.23027">
        <ele>1841.4</ele>
        <time>2022-01-01T12:01:16Z</time>
      </trkpt>
      <trkpt lat="44.23687" lon="6.23029">
        <ele>1840.6</ele>
        <time>2022-01-01T12:01:25Z</time>
      </trkpt>
      <trkpt lat="44.23688" lon="6.23029">
        <ele>1840.6</ele>
        <time>2022-01-01T12:01:26Z</time>
      </trkpt>
      <trkpt lat="44.23697" lon="6.23034">
        <ele>1839.6</ele>
        <time>2022-01-01T12:01:34Z</time>
      </trkpt>
      <trkpt lat="44.23699" lon="6.23035">
        <ele>1839.6</ele>
        <time>2022-01-01T12:01:36Z</time>
      </trkpt>
      <trkpt lat="44.23707" lon="6.23045">
        <ele>1838.8</ele>
        <time>2022-01-01T12:01:46Z</time>
      </trkpt>
      <trkpt lat="44.23708" lon="6.23047">
        <ele>1838.6</ele>
        <time>2022-01-01T12:01:48Z</time>
      </trkpt>
      <trkpt lat="44.23711" lon="6.23048">
        <ele>1838.2</ele>
        <time>2022-01-01T12:01:52Z</time>
      </trkpt>
      <trkpt lat="44.23714" lon="6.2305">
        <ele>1837.4</ele>
        <time>2022-01-01T12:01:56Z</time>
      </trkpt>
      <trkpt lat="44.23716" lon="6.23051">
        <ele>1836.4</ele>
        <time>2022-01-01T12:02:01Z</time>
      </trkpt>
      <trkpt lat="44.2372" lon="6.2305">
        <ele>1835.8</ele>
        <time>2022-01-01T12:02:06Z</time>
      </trkpt>
      <trkpt lat="44.23722" lon="6.23051">
        <ele>1835.2</ele>
        <time>2022-01-01T12:02:08Z</time>
      </trkpt>
      <trkpt lat="44.23725" lon="6.23052">
        <ele>1834</ele>
        <time>2022-01-01T12:02:13Z</time>
      </trkpt>
      <trkpt lat="44.23726" lon="6.23052">
        <ele>1833.4</ele>
        <time>2022-01-01T12:02:16Z</time>
      </trkpt>
      <trkpt lat="44.23728" lon="6.23052">
        <ele>1832.8</ele>
        <time>2022-01-01T12:02:20Z</time>
      </trkpt>
      <trkpt lat="44.23731" lon="6.23053">
        <ele>1831.8</ele>
        <time>2022-01-01T12:02:25Z</time>
      </trkpt>
      <trkpt lat="44.23732" lon="6.23053">
        <ele>1831.4</ele>
        <time>2022-01-01T12:02:26Z</time>
      </trkpt>
      <trkpt lat="44.23732" lon="6.23054">
        <ele>1830.6</ele>
        <time>2022-01-01T12:02:29Z</time>
      </trkpt>
      <trkpt lat="44.23736" lon="6.23054">
        <ele>1829.6</ele>
        <time>2022-01-01T12:02:34Z</time>
      </trkpt>
      <trkpt lat="44.23737" lon="6.23055">
        <ele>1828.8</ele>
        <time>2022-01-01T12:02:36Z</time>
      </trkpt>
      <trkpt lat="44.23737" lon="6.23056">
        <ele>1828.4</ele>
        <time>2022-01-01T12:02:38Z</time>
      </trkpt>
      <trkpt lat="44.23737" lon="6.2306">
        <ele>1827.6</ele>
        <time>2022-01-01T12:02:43Z</time>
      </trkpt>
      <trkpt lat="44.23737" lon="6.23059">
        <ele>1827.4</ele>
        <time>2022-01-01T12:02:46Z</time>
      </trkpt>
      <trkpt lat="44.23739" lon="6.23056">
        <ele>1825.8</ele>
        <time>2022-01-01T12:02:51Z</time>
      </trkpt>
      <trkpt lat="44.23739" lon="6.23056">
        <ele>1823.8</ele>
        <time>2022-01-01T12:02:52Z</time>
      </trkpt>
      <trkpt lat="44.23739" lon="6.23056">
        <ele>1822.6</ele>
        <time>2022-01-01T12:02:53Z</time>
      </trkpt>
      <trkpt lat="44.23742" lon="6.23056">
        <ele>1821.4</ele>
        <time>2022-01-01T12:02:56Z</time>
      </trkpt>
      <trkpt lat="44.23747" lon="6.23056">
        <ele>1820.2</ele>
        <time>2022-01-01T12:03:04Z</time>
      </trkpt>
      <trkpt lat="44.23749" lon="6.23056">
        <ele>1819.8</ele>
        <time>2022-01-01T12:03:06Z</time>
      </trkpt>
      <trkpt lat="44.23751" lon="6.23056">
        <ele>1819</ele>
        <time>2022-01-01T12:03:10Z</time>
      </trkpt>
      <trkpt lat="44.23754" lon="6.23057">
        <ele>1817.8</ele>
        <time>2022-01-01T12:03:14Z</time>
      </trkpt>
      <trkpt lat="44.23756" lon="6.23058">
        <ele>1817.6</ele>
        <time>2022-01-01T12:03:16Z</time>
      </trkpt>
      <trkpt lat="44.23756" lon="6.23058">
        <ele>1816.8</ele>
        <time>2022-01-01T12:03:20Z</time>
      </trkpt>
      <trkpt lat="44.23758" lon="6.23058">
        <ele>1815.8</ele>
        <time>2022-01-01T12:03:25Z</time>
      </trkpt>
      <trkpt lat="44.23759" lon="6.23058">
        <ele>1815.6</ele>
        <time>2022-01-01T12:03:26Z</time>
      </trkpt>
      <trkpt lat="44.2376" lon="6.23059">
        <ele>1814.4</ele>
        <time>2022-01-01T12:03:30Z</time>
      </trkpt>
      <trkpt lat="44.23762" lon="6.2306">
        <ele>1813.4</ele>
        <time>2022-01-01T12:03:33Z</time>
      </trkpt>
      <trkpt lat="44.23762" lon="6.23061">
        <ele>1812.4</ele>
        <time>2022-01-01T12:03:36Z</time>
      </trkpt>
      <trkpt lat="44.23763" lon="6.23061">
        <ele>1812.2</ele>
        <time>2022-01-01T12:03:37Z</time>
      </trkpt>
      <trkpt lat="44.23765" lon="6.23063">
        <ele>1811.2</ele>
        <time>2022-01-01T12:03:45Z</time>
      </trkpt>
      <trkpt lat="44.23766" lon="6.23062">
        <ele>1811</ele>
        <time>2022-01-01T12:03:46Z</time>
      </trkpt>
      <trkpt lat="44.2377" lon="6.2306">
        <ele>1809.6</ele>
        <time>2022-01-01T12:03:54Z</time>
      </trkpt>
      <trkpt lat="44.23771" lon="6.2306">
        <ele>1808.6</ele>
        <time>2022-01-01T12:03:56Z</time>
      </trkpt>
      <trkpt lat="44.23775" lon="6.23062">
        <ele>1807.4</ele>
        <time>2022-01-01T12:04:01Z</time>
      </trkpt>
      <trkpt lat="44.23779" lon="6.23064">
        <ele>1806.4</ele>
        <time>2022-01-01T12:04:06Z</time>
      </trkpt>
      <trkpt lat="44.23785" lon="6.23066">
        <ele>1805.2</ele>
        <time>2022-01-01T12:04:13Z</time>
      </trkpt>
      <trkpt lat="44.23787" lon="6.23066">
        <ele>1804.4</ele>
        <time>2022-01-01T12:04:16Z</time>
      </trkpt>
      <trkpt lat="44.23788" lon="6.23067">
        <ele>1804</ele>
        <time>2022-01-01T12:04:18Z</time>
      </trkpt>
      <trkpt lat="44.23793" lon="6.23065">
        <ele>1802.8</ele>
        <time>2022-01-01T12:04:24Z</time>
      </trkpt>
      <trkpt lat="44.23794" lon="6.23065">
        <ele>1802.2</ele>
        <time>2022-01-01T12:04:26Z</time>
      </trkpt>
      <trkpt lat="44.23795" lon="6.23066">
        <ele>1801.6</ele>
        <time>2022-01-01T12:04:29Z</time>
      </trkpt>
      <trkpt lat="44.23791" lon="6.23063">
        <ele>1800.8</ele>
        <time>2022-01-01T12:04:36Z</time>
      </trkpt>
      <trkpt lat="44.23791" lon="6.23062">
        <ele>1800.6</ele>
        <time>2022-01-01T12:04:37Z</time>
      </trkpt>
      <trkpt lat="44.23789" lon="6.23058">
        <ele>1799.4</ele>
        <time>2022-01-01T12:04:43Z</time>
      </trkpt>
      <trkpt lat="44.23789" lon="6.23057">
        <ele>1798.4</ele>
        <time>2022-01-01T12:04:46Z</time>
      </trkpt>
      <trkpt lat="44.23789" lon="6.23056">
        <ele>1798.2</ele>
        <time>2022-01-01T12:04:47Z</time>
      </trkpt>
      <trkpt lat="44.23789" lon="6.23054">
        <ele>1797</ele>
        <time>2022-01-01T12:04:52Z</time>
      </trkpt>
      <trkpt lat="44.23791" lon="6.23052">
        <ele>1795.8</ele>
        <time>2022-01-01T12:04:56Z</time>
      </trkpt>
      <trkpt lat="44.23792" lon="6.23052">
        <ele>1794.8</ele>
        <time>2022-01-01T12:05:01Z</time>
      </trkpt>
      <trkpt lat="44.23792" lon="6.2305">
        <ele>1793.8</ele>
        <time>2022-01-01T12:05:05Z</time>
      </trkpt>
      <trkpt lat="44.23792" lon="6.23049">
        <ele>1793.4</ele>
        <time>2022-01-01T12:05:06Z</time>
      </trkpt>
      <trkpt lat="44.23791" lon="6.23044">
        <ele>1792.4</ele>
        <time>2022-01-01T12:05:10Z</time>
      </trkpt>
      <trkpt lat="44.23792" lon="6.23041">
        <ele>1792</ele>
        <time>2022-01-01T12:05:12Z</time>
      </trkpt>
      <trkpt lat="44.23791" lon="6.2304">
        <ele>1791.4</ele>
        <time>2022-01-01T12:05:14Z</time>
      </trkpt>
      <trkpt lat="44.23791" lon="6.23038">
        <ele>1790.8</ele>
        <time>2022-01-01T12:05:16Z</time>
      </trkpt>
      <trkpt lat="44.23791" lon="6.23036">
        <ele>1790.4</ele>
        <time>2022-01-01T12:05:18Z</time>
      </trkpt>
      <trkpt lat="44.23791" lon="6.23031">
        <ele>1789.2</ele>
        <time>2022-01-01T12:05:25Z</time>
      </trkpt>
      <trkpt lat="44.23791" lon="6.2303">
        <ele>1789</ele>
        <time>2022-01-01T12:05:26Z</time>
      </trkpt>
      <trkpt lat="44.23789" lon="6.23025">
        <ele>1787.8</ele>
        <time>2022-01-01T12:05:31Z</time>
      </trkpt>
      <trkpt lat="44.23788" lon="6.23022">
        <ele>1786.8</ele>
        <time>2022-01-01T12:05:35Z</time>
      </trkpt>
      <trkpt lat="44.23788" lon="6.23022">
        <ele>1786.8</ele>
        <time>2022-01-01T12:05:36Z</time>
      </trkpt>
      <trkpt lat="44.23788" lon="6.2302">
        <ele>1785.8</ele>
        <time>2022-01-01T12:05:39Z</time>
      </trkpt>
      <trkpt lat="44.23788" lon="6.23016">
        <ele>1784.8</ele>
        <time>2022-01-01T12:05:43Z</time>
      </trkpt>
      <trkpt lat="44.23787" lon="6.23013">
        <ele>1783.8</ele>
        <time>2022-01-01T12:05:46Z</time>
      </trkpt>
      <trkpt lat="44.23787" lon="6.23012">
        <ele>1783.6</ele>
        <time>2022-01-01T12:05:47Z</time>
      </trkpt>
      <trkpt lat="44.23785" lon="6.23006">
        <ele>1782.4</ele>
        <time>2022-01-01T12:05:52Z</time>
      </trkpt>
      <trkpt lat="44.23783" lon="6.23002">
        <ele>1781.4</ele>
        <time>2022-01-01T12:05:56Z</time>
      </trkpt>
      <trkpt lat="44.23783" lon="6.23">
        <ele>1781.2</ele>
        <time>2022-01-01T12:05:57Z</time>
      </trkpt>
      <trkpt lat="44.23782" lon="6.22996">
        <ele>1780</ele>
        <time>2022-01-01T12:06:02Z</time>
      </trkpt>
      <trkpt lat="44.23781" lon="6.22992">
        <ele>1779.2</ele>
        <time>2022-01-01T12:06:06Z</time>
      </trkpt>
      <trkpt lat="44.23781" lon="6.22991">
        <ele>1779.2</ele>
        <time>2022-01-01T12:06:07Z</time>
      </trkpt>
      <trkpt lat="44.2378" lon="6.22989">
        <ele>1779</ele>
        <time>2022-01-01T12:06:09Z</time>
      </trkpt>
      <trkpt lat="44.23779" lon="6.22984">
        <ele>1777.8</ele>
        <time>2022-01-01T12:06:14Z</time>
      </trkpt>
      <trkpt lat="44.23778" lon="6.22983">
        <ele>1777.6</ele>
        <time>2022-01-01T12:06:16Z</time>
      </trkpt>
      <trkpt lat="44.23774" lon="6.22977">
        <ele>1776.8</ele>
        <time>2022-01-01T12:06:23Z</time>
      </trkpt>
      <trkpt lat="44.23774" lon="6.22977">
        <ele>1776.6</ele>
        <time>2022-01-01T12:06:24Z</time>
      </trkpt>
      <trkpt lat="44.23773" lon="6.22976">
        <ele>1776.4</ele>
        <time>2022-01-01T12:06:26Z</time>
      </trkpt>
      <trkpt lat="44.23772" lon="6.22974">
        <ele>1775.4</ele>
        <time>2022-01-01T12:06:30Z</time>
      </trkpt>
      <trkpt lat="44.23771" lon="6.22971">
        <ele>1774.4</ele>
        <time>2022-01-01T12:06:35Z</time>
      </trkpt>
      <trkpt lat="44.2377" lon="6.22971">
        <ele>1774.4</ele>
        <time>2022-01-01T12:06:36Z</time>
      </trkpt>
      <trkpt lat="44.23769" lon="6.22967">
        <ele>1773.4</ele>
        <time>2022-01-01T12:06:41Z</time>
      </trkpt>
      <trkpt lat="44.23767" lon="6.22964">
        <ele>1772.2</ele>
        <time>2022-01-01T12:06:46Z</time>
      </trkpt>
      <trkpt lat="44.23764" lon="6.22957">
        <ele>1771.2</ele>
        <time>2022-01-01T12:06:53Z</time>
      </trkpt>
      <trkpt lat="44.23765" lon="6.22954">
        <ele>1770.6</ele>
        <time>2022-01-01T12:06:56Z</time>
      </trkpt>
      <trkpt lat="44.23764" lon="6.22953">
        <ele>1770</ele>
        <time>2022-01-01T12:06:58Z</time>
      </trkpt>
      <trkpt lat="44.23764" lon="6.22948">
        <ele>1768.8</ele>
        <time>2022-01-01T12:07:05Z</time>
      </trkpt>
      <trkpt lat="44.23763" lon="6.22948">
        <ele>1768.6</ele>
        <time>2022-01-01T12:07:06Z</time>
      </trkpt>
      <trkpt lat="44.23762" lon="6.22945">
        <ele>1767.6</ele>
        <time>2022-01-01T12:07:11Z</time>
      </trkpt>
      <trkpt lat="44.23762" lon="6.22945">
        <ele>1767.6</ele>
        <time>2022-01-01T12:07:12Z</time>
      </trkpt>
      <trkpt lat="44.23762" lon="6.22945">
        <ele>1767.4</ele>
        <time>2022-01-01T12:07:14Z</time>
      </trkpt>
      <trkpt lat="44.23763" lon="6.22941">
        <ele>1766.6</ele>
        <time>2022-01-01T12:07:18Z</time>
      </trkpt>
      <trkpt lat="44.23762" lon="6.22936">
        <ele>1765.6</ele>
        <time>2022-01-01T12:07:24Z</time>
      </trkpt>
      <trkpt lat="44.23763" lon="6.22933">
        <ele>1764.6</ele>
        <time>2022-01-01T12:07:28Z</time>
      </trkpt>
      <trkpt lat="44.23761" lon="6.22929">
        <ele>1763.6</ele>
        <time>2022-01-01T12:07:33Z</time>
      </trkpt>
      <trkpt lat="44.23761" lon="6.22928">
        <ele>1763.2</ele>
        <time>2022-01-01T12:07:34Z</time>
      </trkpt>
      <trkpt lat="44.2376" lon="6.22926">
        <ele>1762.4</ele>
        <time>2022-01-01T12:07:37Z</time>
      </trkpt>
      <trkpt lat="44.2376" lon="6.22924">
        <ele>1761.2</ele>
        <time>2022-01-01T12:07:40Z</time>
      </trkpt>
      <trkpt lat="44.2376" lon="6.22921">
        <ele>1760.4</ele>
        <time>2022-01-01T12:07:44Z</time>
      </trkpt>
      <trkpt lat="44.23759" lon="6.22921">
        <ele>1760</ele>
        <time>2022-01-01T12:07:45Z</time>
      </trkpt>
      <trkpt lat="44.2376" lon="6.22917">
        <ele>1758.8</ele>
        <time>2022-01-01T12:07:51Z</time>
      </trkpt>
      <trkpt lat="44.23759" lon="6.22913">
        <ele>1758</ele>
        <time>2022-01-01T12:07:54Z</time>
      </trkpt>
      <trkpt lat="44.23758" lon="6.22911">
        <ele>1757.8</ele>
        <time>2022-01-01T12:07:56Z</time>
      </trkpt>
      <trkpt lat="44.23757" lon="6.22907">
        <ele>1756.8</ele>
        <time>2022-01-01T12:08:01Z</time>
      </trkpt>
      <trkpt lat="44.23756" lon="6.22903">
        <ele>1756</ele>
        <time>2022-01-01T12:08:04Z</time>
      </trkpt>
      <trkpt lat="44.23755" lon="6.22901">
        <ele>1755.6</ele>
        <time>2022-01-01T12:08:06Z</time>
      </trkpt>
      <trkpt lat="44.23756" lon="6.22893">
        <ele>1754.2</ele>
        <time>2022-01-01T12:08:14Z</time>
      </trkpt>
      <trkpt lat="44.23755" lon="6.22891">
        <ele>1753.4</ele>
        <time>2022-01-01T12:08:16Z</time>
      </trkpt>
      <trkpt lat="44.23754" lon="6.2289">
        <ele>1753.2</ele>
        <time>2022-01-01T12:08:17Z</time>
      </trkpt>
      <trkpt lat="44.23752" lon="6.22887">
        <ele>1752</ele>
        <time>2022-01-01T12:08:21Z</time>
      </trkpt>
      <trkpt lat="44.23751" lon="6.22885">
        <ele>1751.4</ele>
        <time>2022-01-01T12:08:24Z</time>
      </trkpt>
      <trkpt lat="44.2375" lon="6.22884">
        <ele>1750.8</ele>
        <time>2022-01-01T12:08:26Z</time>
      </trkpt>
      <trkpt lat="44.2375" lon="6.2288">
        <ele>1749.8</ele>
        <time>2022-01-01T12:08:29Z</time>
      </trkpt>
      <trkpt lat="44.23749" lon="6.22876">
        <ele>1748.6</ele>
        <time>2022-01-01T12:08:32Z</time>
      </trkpt>
      <trkpt lat="44.23748" lon="6.22875">
        <ele>1748.2</ele>
        <time>2022-01-01T12:08:34Z</time>
      </trkpt>
      <trkpt lat="44.23748" lon="6.22873">
        <ele>1747.6</ele>
        <time>2022-01-01T12:08:36Z</time>
      </trkpt>
      <trkpt lat="44.23747" lon="6.22868">
        <ele>1746.6</ele>
        <time>2022-01-01T12:08:39Z</time>
      </trkpt>
      <trkpt lat="44.23747" lon="6.22866">
        <ele>1746.2</ele>
        <time>2022-01-01T12:08:40Z</time>
      </trkpt>
      <trkpt lat="44.23746" lon="6.22865">
        <ele>1745.8</ele>
        <time>2022-01-01T12:08:41Z</time>
      </trkpt>
      <trkpt lat="44.23745" lon="6.22864">
        <ele>1745.2</ele>
        <time>2022-01-01T12:08:43Z</time>
      </trkpt>
      <trkpt lat="44.23745" lon="6.22863">
        <ele>1744.8</ele>
        <time>2022-01-01T12:08:44Z</time>
      </trkpt>
      <trkpt lat="44.23745" lon="6.22863">
        <ele>1744.6</ele>
        <time>2022-01-01T12:08:45Z</time>
      </trkpt>
      <trkpt lat="44.23743" lon="6.22861">
        <ele>1744.2</ele>
        <time>2022-01-01T12:08:47Z</time>
      </trkpt>
      <trkpt lat="44.23743" lon="6.2286">
        <ele>1744</ele>
        <time>2022-01-01T12:08:48Z</time>
      </trkpt>
      <trkpt lat="44.23742" lon="6.22855">
        <ele>1743.2</ele>
        <time>2022-01-01T12:08:52Z</time>
      </trkpt>
      <trkpt lat="44.23741" lon="6.22854">
        <ele>1743</ele>
        <time>2022-01-01T12:08:53Z</time>
      </trkpt>
      <trkpt lat="44.23741" lon="6.22853">
        <ele>1742.8</ele>
        <time>2022-01-01T12:08:54Z</time>
      </trkpt>
      <trkpt lat="44.23741" lon="6.2285">
        <ele>1742</ele>
        <time>2022-01-01T12:08:57Z</time>
      </trkpt>
      <trkpt lat="44.2374" lon="6.22844">
        <ele>1741</ele>
        <time>2022-01-01T12:09:02Z</time>
      </trkpt>
      <trkpt lat="44.23739" lon="6.22843">
        <ele>1740.2</ele>
        <time>2022-01-01T12:09:04Z</time>
      </trkpt>
      <trkpt lat="44.23739" lon="6.22842">
        <ele>1740</ele>
        <time>2022-01-01T12:09:05Z</time>
      </trkpt>
      <trkpt lat="44.23738" lon="6.22839">
        <ele>1738.8</ele>
        <time>2022-01-01T12:09:08Z</time>
      </trkpt>
      <trkpt lat="44.23737" lon="6.22837">
        <ele>1737.6</ele>
        <time>2022-01-01T12:09:12Z</time>
      </trkpt>
      <trkpt lat="44.23737" lon="6.22835">
        <ele>1737</ele>
        <time>2022-01-01T12:09:14Z</time>
      </trkpt>
      <trkpt lat="44.23735" lon="6.22832">
        <ele>1736.4</ele>
        <time>2022-01-01T12:09:18Z</time>
      </trkpt>
      <trkpt lat="44.23734" lon="6.22827">
        <ele>1735.2</ele>
        <time>2022-01-01T12:09:23Z</time>
      </trkpt>
      <trkpt lat="44.23735" lon="6.22827">
        <ele>1735</ele>
        <time>2022-01-01T12:09:24Z</time>
      </trkpt>
      <trkpt lat="44.23736" lon="6.22824">
        <ele>1734</ele>
        <time>2022-01-01T12:09:28Z</time>
      </trkpt>
      <trkpt lat="44.23737" lon="6.22822">
        <ele>1733</ele>
        <time>2022-01-01T12:09:32Z</time>
      </trkpt>
      <trkpt lat="44.23738" lon="6.2282">
        <ele>1732.6</ele>
        <time>2022-01-01T12:09:34Z</time>
      </trkpt>
      <trkpt lat="44.23738" lon="6.22817">
        <ele>1732</ele>
        <time>2022-01-01T12:09:37Z</time>
      </trkpt>
      <trkpt lat="44.23739" lon="6.22811">
        <ele>1731</ele>
        <time>2022-01-01T12:09:43Z</time>
      </trkpt>
      <trkpt lat="44.23739" lon="6.2281">
        <ele>1730.8</ele>
        <time>2022-01-01T12:09:44Z</time>
      </trkpt>
      <trkpt lat="44.23739" lon="6.22806">
        <ele>1729.8</ele>
        <time>2022-01-01T12:09:47Z</time>
      </trkpt>
      <trkpt lat="44.2374" lon="6.22804">
        <ele>1728.8</ele>
        <time>2022-01-01T12:09:51Z</time>
      </trkpt>
      <trkpt lat="44.23739" lon="6.22802">
        <ele>1728</ele>
        <time>2022-01-01T12:09:54Z</time>
      </trkpt>
      <trkpt lat="44.2374" lon="6.22801">
        <ele>1727.6</ele>
        <time>2022-01-01T12:09:55Z</time>
      </trkpt>
      <trkpt lat="44.2374" lon="6.22797">
        <ele>1726.4</ele>
        <time>2022-01-01T12:10:00Z</time>
      </trkpt>
      <trkpt lat="44.2374" lon="6.22793">
        <ele>1725.4</ele>
        <time>2022-01-01T12:10:03Z</time>
      </trkpt>
      <trkpt lat="44.2374" lon="6.22792">
        <ele>1725</ele>
        <time>2022-01-01T12:10:04Z</time>
      </trkpt>
      <trkpt lat="44.23741" lon="6.22789">
        <ele>1724.2</ele>
        <time>2022-01-01T12:10:07Z</time>
      </trkpt>
      <trkpt lat="44.23743" lon="6.22778">
        <ele>1723.2</ele>
        <time>2022-01-01T12:10:14Z</time>
      </trkpt>
      <trkpt lat="44.23744" lon="6.22773">
        <ele>1722.4</ele>
        <time>2022-01-01T12:10:17Z</time>
      </trkpt>
      <trkpt lat="44.23744" lon="6.22772">
        <ele>1722</ele>
        <time>2022-01-01T12:10:18Z</time>
      </trkpt>
      <trkpt lat="44.23747" lon="6.22768">
        <ele>1720.8</ele>
        <time>2022-01-01T12:10:22Z</time>
      </trkpt>
      <trkpt lat="44.23749" lon="6.22765">
        <ele>1720.4</ele>
        <time>2022-01-01T12:10:24Z</time>
      </trkpt>
      <trkpt lat="44.23753" lon="6.2276">
        <ele>1719.8</ele>
        <time>2022-01-01T12:10:30Z</time>
      </trkpt>
      <trkpt lat="44.23755" lon="6.22757">
        <ele>1718.6</ele>
        <time>2022-01-01T12:10:33Z</time>
      </trkpt>
      <trkpt lat="44.23755" lon="6.22756">
        <ele>1718.4</ele>
        <time>2022-01-01T12:10:34Z</time>
      </trkpt>
      <trkpt lat="44.23756" lon="6.2275">
        <ele>1717.4</ele>
        <time>2022-01-01T12:10:38Z</time>
      </trkpt>
      <trkpt lat="44.23757" lon="6.22741">
        <ele>1716.4</ele>
        <time>2022-01-01T12:10:44Z</time>
      </trkpt>
      <trkpt lat="44.23758" lon="6.22733">
        <ele>1715.4</ele>
        <time>2022-01-01T12:10:49Z</time>
      </trkpt>
      <trkpt lat="44.23759" lon="6.2273">
        <ele>1715.2</ele>
        <time>2022-01-01T12:10:51Z</time>
      </trkpt>
      <trkpt lat="44.23759" lon="6.22725">
        <ele>1714.8</ele>
        <time>2022-01-01T12:10:54Z</time>
      </trkpt>
      <trkpt lat="44.23761" lon="6.22718">
        <ele>1714.2</ele>
        <time>2022-01-01T12:10:59Z</time>
      </trkpt>
      <trkpt lat="44.23763" lon="6.2271">
        <ele>1713.4</ele>
        <time>2022-01-01T12:11:04Z</time>
      </trkpt>
      <trkpt lat="44.23764" lon="6.22706">
        <ele>1713</ele>
        <time>2022-01-01T12:11:07Z</time>
      </trkpt>
      <trkpt lat="44.23769" lon="6.22695">
        <ele>1712.6</ele>
        <time>2022-01-01T12:11:14Z</time>
      </trkpt>
      <trkpt lat="44.23772" lon="6.22682">
        <ele>1713</ele>
        <time>2022-01-01T12:11:24Z</time>
      </trkpt>
      <trkpt lat="44.23774" lon="6.22675">
        <ele>1713</ele>
        <time>2022-01-01T12:11:29Z</time>
      </trkpt>
      <trkpt lat="44.23776" lon="6.22668">
        <ele>1713.4</ele>
        <time>2022-01-01T12:11:34Z</time>
      </trkpt>
      <trkpt lat="44.23779" lon="6.22664">
        <ele>1713.4</ele>
        <time>2022-01-01T12:11:38Z</time>
      </trkpt>
      <trkpt lat="44.23781" lon="6.22658">
        <ele>1714.2</ele>
        <time>2022-01-01T12:11:44Z</time>
      </trkpt>
      <trkpt lat="44.23782" lon="6.22644">
        <ele>1715.2</ele>
        <time>2022-01-01T12:11:54Z</time>
      </trkpt>
      <trkpt lat="44.23784" lon="6.22631">
        <ele>1716</ele>
        <time>2022-01-01T12:12:04Z</time>
      </trkpt>
      <trkpt lat="44.23785" lon="6.22628">
        <ele>1716.4</ele>
        <time>2022-01-01T12:12:06Z</time>
      </trkpt>
      <trkpt lat="44.23788" lon="6.22617">
        <ele>1716.4</ele>
        <time>2022-01-01T12:12:14Z</time>
      </trkpt>
      <trkpt lat="44.23792" lon="6.22603">
        <ele>1716</ele>
        <time>2022-01-01T12:12:24Z</time>
      </trkpt>
      <trkpt lat="44.23794" lon="6.22588">
        <ele>1715.6</ele>
        <time>2022-01-01T12:12:34Z</time>
      </trkpt>
      <trkpt lat="44.23797" lon="6.22574">
        <ele>1716.2</ele>
        <time>2022-01-01T12:12:44Z</time>
      </trkpt>
      <trkpt lat="44.23801" lon="6.22558">
        <ele>1715.8</ele>
        <time>2022-01-01T12:12:54Z</time>
      </trkpt>
      <trkpt lat="44.23804" lon="6.22542">
        <ele>1715.8</ele>
        <time>2022-01-01T12:13:04Z</time>
      </trkpt>
      <trkpt lat="44.23807" lon="6.22527">
        <ele>1716.4</ele>
        <time>2022-01-01T12:13:14Z</time>
      </trkpt>
      <trkpt lat="44.23813" lon="6.22514">
        <ele>1717</ele>
        <time>2022-01-01T12:13:24Z</time>
      </trkpt>
      <trkpt lat="44.23817" lon="6.22508">
        <ele>1716.4</ele>
        <time>2022-01-01T12:13:30Z</time>
      </trkpt>
      <trkpt lat="44.23819" lon="6.22503">
        <ele>1716.2</ele>
        <time>2022-01-01T12:13:34Z</time>
      </trkpt>
      <trkpt lat="44.23821" lon="6.2249">
        <ele>1715.2</ele>
        <time>2022-01-01T12:13:43Z</time>
      </trkpt>
      <trkpt lat="44.23822" lon="6.22488">
        <ele>1715</ele>
        <time>2022-01-01T12:13:44Z</time>
      </trkpt>
      <trkpt lat="44.23824" lon="6.22485">
        <ele>1714.4</ele>
        <time>2022-01-01T12:13:48Z</time>
      </trkpt>
      <trkpt lat="44.23824" lon="6.22485">
        <ele>1714.2</ele>
        <time>2022-01-01T12:13:49Z</time>
      </trkpt>
      <trkpt lat="44.23824" lon="6.22486">
        <ele>1714.2</ele>
        <time>2022-01-01T12:13:54Z</time>
      </trkpt>
      <trkpt lat="44.23824" lon="6.22485">
        <ele>1714.2</ele>
        <time>2022-01-01T12:14:04Z</time>
      </trkpt>
      <trkpt lat="44.23823" lon="6.22482">
        <ele>1713.8</ele>
        <time>2022-01-01T12:14:13Z</time>
      </trkpt>
      <trkpt lat="44.2382" lon="6.22483">
        <ele>1714.2</ele>
        <time>2022-01-01T12:16:29Z</time>
      </trkpt>
      <trkpt lat="44.23819" lon="6.22484">
        <ele>1713.8</ele>
        <time>2022-01-01T12:16:30Z</time>
      </trkpt>
      <trkpt lat="44.23815" lon="6.22487">
        <ele>1713.4</ele>
        <time>2022-01-01T12:16:34Z</time>
      </trkpt>
      <trkpt lat="44.23812" lon="6.22489">
        <ele>1713.2</ele>
        <time>2022-01-01T12:16:38Z</time>
      </trkpt>
      <trkpt lat="44.23809" lon="6.22492">
        <ele>1712.6</ele>
        <time>2022-01-01T12:16:42Z</time>
      </trkpt>
      <trkpt lat="44.23808" lon="6.22493">
        <ele>1712.2</ele>
        <time>2022-01-01T12:16:44Z</time>
      </trkpt>
      <trkpt lat="44.23807" lon="6.22494">
        <ele>1712.2</ele>
        <time>2022-01-01T12:16:45Z</time>
      </trkpt>
      <trkpt lat="44.23807" lon="6.22494">
        <ele>1711.8</ele>
        <time>2022-01-01T12:16:46Z</time>
      </trkpt>
      <trkpt lat="44.23806" lon="6.22494">
        <ele>1711.6</ele>
        <time>2022-01-01T12:16:47Z</time>
      </trkpt>
      <trkpt lat="44.23805" lon="6.22495">
        <ele>1711.2</ele>
        <time>2022-01-01T12:16:49Z</time>
      </trkpt>
      <trkpt lat="44.23804" lon="6.22496">
        <ele>1711</ele>
        <time>2022-01-01T12:16:51Z</time>
      </trkpt>
      <trkpt lat="44.23803" lon="6.22497">
        <ele>1710.4</ele>
        <time>2022-01-01T12:16:54Z</time>
      </trkpt>
      <trkpt lat="44.23803" lon="6.22496">
        <ele>1710.2</ele>
        <time>2022-01-01T12:16:55Z</time>
      </trkpt>
      <trkpt lat="44.23803" lon="6.22497">
        <ele>1709.8</ele>
        <time>2022-01-01T12:16:56Z</time>
      </trkpt>
      <trkpt lat="44.23802" lon="6.22496">
        <ele>1709.4</ele>
        <time>2022-01-01T12:16:59Z</time>
      </trkpt>
      <trkpt lat="44.23802" lon="6.22496">
        <ele>1709.2</ele>
        <time>2022-01-01T12:17:01Z</time>
      </trkpt>
      <trkpt lat="44.238" lon="6.22497">
        <ele>1709.2</ele>
        <time>2022-01-01T12:17:04Z</time>
      </trkpt>
      <trkpt lat="44.23798" lon="6.22503">
        <ele>1708.8</ele>
        <time>2022-01-01T12:17:11Z</time>
      </trkpt>
      <trkpt lat="44.23796" lon="6.22505">
        <ele>1708.2</ele>
        <time>2022-01-01T12:17:14Z</time>
      </trkpt>
      <trkpt lat="44.23795" lon="6.22506">
        <ele>1707.6</ele>
        <time>2022-01-01T12:17:16Z</time>
      </trkpt>
      <trkpt lat="44.23795" lon="6.22507">
        <ele>1707.4</ele>
        <time>2022-01-01T12:17:17Z</time>
      </trkpt>
      <trkpt lat="44.23794" lon="6.22508">
        <ele>1707.4</ele>
        <time>2022-01-01T12:17:18Z</time>
      </trkpt>
      <trkpt lat="44.23793" lon="6.22509">
        <ele>1707</ele>
        <time>2022-01-01T12:17:20Z</time>
      </trkpt>
      <trkpt lat="44.23793" lon="6.2251">
        <ele>1706.8</ele>
        <time>2022-01-01T12:17:21Z</time>
      </trkpt>
      <trkpt lat="44.23792" lon="6.22512">
        <ele>1706.6</ele>
        <time>2022-01-01T12:17:23Z</time>
      </trkpt>
      <trkpt lat="44.23791" lon="6.22513">
        <ele>1706.4</ele>
        <time>2022-01-01T12:17:24Z</time>
      </trkpt>
      <trkpt lat="44.23789" lon="6.22517">
        <ele>1705.8</ele>
        <time>2022-01-01T12:17:27Z</time>
      </trkpt>
      <trkpt lat="44.23786" lon="6.22518">
        <ele>1705.4</ele>
        <time>2022-01-01T12:17:30Z</time>
      </trkpt>
      <trkpt lat="44.23784" lon="6.22514">
        <ele>1704.8</ele>
        <time>2022-01-01T12:17:34Z</time>
      </trkpt>
      <trkpt lat="44.23784" lon="6.22512">
        <ele>1704</ele>
        <time>2022-01-01T12:17:36Z</time>
      </trkpt>
      <trkpt lat="44.23783" lon="6.22507">
        <ele>1703</ele>
        <time>2022-01-01T12:17:40Z</time>
      </trkpt>
      <trkpt lat="44.23783" lon="6.22502">
        <ele>1702</ele>
        <time>2022-01-01T12:17:44Z</time>
      </trkpt>
      <trkpt lat="44.23783" lon="6.22501">
        <ele>1701.6</ele>
        <time>2022-01-01T12:17:45Z</time>
      </trkpt>
      <trkpt lat="44.23782" lon="6.22499">
        <ele>1701.2</ele>
        <time>2022-01-01T12:17:48Z</time>
      </trkpt>
      <trkpt lat="44.23782" lon="6.22497">
        <ele>1700.6</ele>
        <time>2022-01-01T12:17:50Z</time>
      </trkpt>
      <trkpt lat="44.23782" lon="6.22493">
        <ele>1700</ele>
        <time>2022-01-01T12:17:54Z</time>
      </trkpt>
      <trkpt lat="44.23781" lon="6.2249">
        <ele>1699.4</ele>
        <time>2022-01-01T12:17:57Z</time>
      </trkpt>
      <trkpt lat="44.23781" lon="6.22487">
        <ele>1698.4</ele>
        <time>2022-01-01T12:18:00Z</time>
      </trkpt>
      <trkpt lat="44.23781" lon="6.22483">
        <ele>1697.6</ele>
        <time>2022-01-01T12:18:04Z</time>
      </trkpt>
      <trkpt lat="44.2378" lon="6.22482">
        <ele>1697.4</ele>
        <time>2022-01-01T12:18:06Z</time>
      </trkpt>
      <trkpt lat="44.23779" lon="6.22476">
        <ele>1696.2</ele>
        <time>2022-01-01T12:18:13Z</time>
      </trkpt>
      <trkpt lat="44.23778" lon="6.22475">
        <ele>1695.8</ele>
        <time>2022-01-01T12:18:14Z</time>
      </trkpt>
      <trkpt lat="44.23778" lon="6.22472">
        <ele>1695</ele>
        <time>2022-01-01T12:18:17Z</time>
      </trkpt>
      <trkpt lat="44.23778" lon="6.2247">
        <ele>1694.2</ele>
        <time>2022-01-01T12:18:20Z</time>
      </trkpt>
      <trkpt lat="44.23778" lon="6.22468">
        <ele>1693.8</ele>
        <time>2022-01-01T12:18:22Z</time>
      </trkpt>
      <trkpt lat="44.23778" lon="6.22466">
        <ele>1693.6</ele>
        <time>2022-01-01T12:18:24Z</time>
      </trkpt>
      <trkpt lat="44.23777" lon="6.22463">
        <ele>1692.8</ele>
        <time>2022-01-01T12:18:28Z</time>
      </trkpt>
      <trkpt lat="44.23774" lon="6.22458">
        <ele>1691.6</ele>
        <time>2022-01-01T12:18:34Z</time>
      </trkpt>
      <trkpt lat="44.23772" lon="6.22454">
        <ele>1690.4</ele>
        <time>2022-01-01T12:18:38Z</time>
      </trkpt>
      <trkpt lat="44.2377" lon="6.2245">
        <ele>1689.4</ele>
        <time>2022-01-01T12:18:44Z</time>
      </trkpt>
      <trkpt lat="44.23769" lon="6.22446">
        <ele>1688</ele>
        <time>2022-01-01T12:18:48Z</time>
      </trkpt>
      <trkpt lat="44.23766" lon="6.2244">
        <ele>1687</ele>
        <time>2022-01-01T12:18:54Z</time>
      </trkpt>
      <trkpt lat="44.23764" lon="6.22434">
        <ele>1685.8</ele>
        <time>2022-01-01T12:19:00Z</time>
      </trkpt>
      <trkpt lat="44.23763" lon="6.22431">
        <ele>1685</ele>
        <time>2022-01-01T12:19:04Z</time>
      </trkpt>
      <trkpt lat="44.23761" lon="6.2243">
        <ele>1684.8</ele>
        <time>2022-01-01T12:19:06Z</time>
      </trkpt>
      <trkpt lat="44.2376" lon="6.22425">
        <ele>1683.6</ele>
        <time>2022-01-01T12:19:11Z</time>
      </trkpt>
      <trkpt lat="44.23759" lon="6.22423">
        <ele>1683.2</ele>
        <time>2022-01-01T12:19:14Z</time>
      </trkpt>
      <trkpt lat="44.23758" lon="6.22421">
        <ele>1682.6</ele>
        <time>2022-01-01T12:19:17Z</time>
      </trkpt>
      <trkpt lat="44.23755" lon="6.22418">
        <ele>1681.2</ele>
        <time>2022-01-01T12:19:22Z</time>
      </trkpt>
      <trkpt lat="44.23755" lon="6.22416">
        <ele>1681</ele>
        <time>2022-01-01T12:19:24Z</time>
      </trkpt>
      <trkpt lat="44.23754" lon="6.22411">
        <ele>1680.2</ele>
        <time>2022-01-01T12:19:29Z</time>
      </trkpt>
      <trkpt lat="44.23752" lon="6.22408">
        <ele>1679.2</ele>
        <time>2022-01-01T12:19:34Z</time>
      </trkpt>
      <trkpt lat="44.23751" lon="6.22407">
        <ele>1679</ele>
        <time>2022-01-01T12:19:35Z</time>
      </trkpt>
      <trkpt lat="44.2375" lon="6.22403">
        <ele>1677.6</ele>
        <time>2022-01-01T12:19:40Z</time>
      </trkpt>
      <trkpt lat="44.23748" lon="6.224">
        <ele>1677</ele>
        <time>2022-01-01T12:19:44Z</time>
      </trkpt>
      <trkpt lat="44.23748" lon="6.22397">
        <ele>1676.6</ele>
        <time>2022-01-01T12:19:46Z</time>
      </trkpt>
      <trkpt lat="44.23745" lon="6.22393">
        <ele>1675.4</ele>
        <time>2022-01-01T12:19:52Z</time>
      </trkpt>
      <trkpt lat="44.23744" lon="6.22391">
        <ele>1675</ele>
        <time>2022-01-01T12:19:54Z</time>
      </trkpt>
      <trkpt lat="44.23742" lon="6.22388">
        <ele>1674.4</ele>
        <time>2022-01-01T12:19:58Z</time>
      </trkpt>
      <trkpt lat="44.2374" lon="6.22383">
        <ele>1673.4</ele>
        <time>2022-01-01T12:20:04Z</time>
      </trkpt>
      <trkpt lat="44.23737" lon="6.2238">
        <ele>1672.2</ele>
        <time>2022-01-01T12:20:09Z</time>
      </trkpt>
      <trkpt lat="44.23734" lon="6.22377">
        <ele>1671.4</ele>
        <time>2022-01-01T12:20:14Z</time>
      </trkpt>
      <trkpt lat="44.23733" lon="6.22376">
        <ele>1671.2</ele>
        <time>2022-01-01T12:20:15Z</time>
      </trkpt>
      <trkpt lat="44.23732" lon="6.22372">
        <ele>1670.4</ele>
        <time>2022-01-01T12:20:19Z</time>
      </trkpt>
      <trkpt lat="44.23731" lon="6.22369">
        <ele>1670</ele>
        <time>2022-01-01T12:20:22Z</time>
      </trkpt>
      <trkpt lat="44.2373" lon="6.22368">
        <ele>1669.6</ele>
        <time>2022-01-01T12:20:24Z</time>
      </trkpt>
      <trkpt lat="44.23728" lon="6.22365">
        <ele>1669</ele>
        <time>2022-01-01T12:20:27Z</time>
      </trkpt>
      <trkpt lat="44.23726" lon="6.22362">
        <ele>1668.4</ele>
        <time>2022-01-01T12:20:31Z</time>
      </trkpt>
      <trkpt lat="44.23724" lon="6.22359">
        <ele>1667.8</ele>
        <time>2022-01-01T12:20:34Z</time>
      </trkpt>
      <trkpt lat="44.23724" lon="6.22357">
        <ele>1667.6</ele>
        <time>2022-01-01T12:20:35Z</time>
      </trkpt>
      <trkpt lat="44.23724" lon="6.22354">
        <ele>1667.4</ele>
        <time>2022-01-01T12:20:37Z</time>
      </trkpt>
      <trkpt lat="44.23724" lon="6.22353">
        <ele>1667.2</ele>
        <time>2022-01-01T12:20:38Z</time>
      </trkpt>
      <trkpt lat="44.23724" lon="6.22351">
        <ele>1667</ele>
        <time>2022-01-01T12:20:40Z</time>
      </trkpt>
      <trkpt lat="44.23723" lon="6.22349">
        <ele>1666.8</ele>
        <time>2022-01-01T12:20:42Z</time>
      </trkpt>
      <trkpt lat="44.23722" lon="6.22344">
        <ele>1665.8</ele>
        <time>2022-01-01T12:20:47Z</time>
      </trkpt>
      <trkpt lat="44.2372" lon="6.22341">
        <ele>1664.8</ele>
        <time>2022-01-01T12:20:52Z</time>
      </trkpt>
      <trkpt lat="44.23719" lon="6.2234">
        <ele>1664.4</ele>
        <time>2022-01-01T12:20:53Z</time>
      </trkpt>
      <trkpt lat="44.23717" lon="6.22337">
        <ele>1663.4</ele>
        <time>2022-01-01T12:20:58Z</time>
      </trkpt>
      <trkpt lat="44.23715" lon="6.22334">
        <ele>1662.6</ele>
        <time>2022-01-01T12:21:02Z</time>
      </trkpt>
      <trkpt lat="44.23715" lon="6.22333">
        <ele>1662.4</ele>
        <time>2022-01-01T12:21:03Z</time>
      </trkpt>
      <trkpt lat="44.23712" lon="6.22325">
        <ele>1661.2</ele>
        <time>2022-01-01T12:21:09Z</time>
      </trkpt>
      <trkpt lat="44.23711" lon="6.22322">
        <ele>1660.6</ele>
        <time>2022-01-01T12:21:12Z</time>
      </trkpt>
      <trkpt lat="44.2371" lon="6.2232">
        <ele>1660.2</ele>
        <time>2022-01-01T12:21:14Z</time>
      </trkpt>
      <trkpt lat="44.2371" lon="6.22319">
        <ele>1660.2</ele>
        <time>2022-01-01T12:21:15Z</time>
      </trkpt>
      <trkpt lat="44.23706" lon="6.22312">
        <ele>1659.2</ele>
        <time>2022-01-01T12:21:22Z</time>
      </trkpt>
      <trkpt lat="44.23704" lon="6.2231">
        <ele>1659</ele>
        <time>2022-01-01T12:21:24Z</time>
      </trkpt>
      <trkpt lat="44.237" lon="6.22306">
        <ele>1657.8</ele>
        <time>2022-01-01T12:21:29Z</time>
      </trkpt>
      <trkpt lat="44.23698" lon="6.22303">
        <ele>1657</ele>
        <time>2022-01-01T12:21:32Z</time>
      </trkpt>
      <trkpt lat="44.23698" lon="6.22302">
        <ele>1656.8</ele>
        <time>2022-01-01T12:21:33Z</time>
      </trkpt>
      <trkpt lat="44.23692" lon="6.22291">
        <ele>1655.8</ele>
        <time>2022-01-01T12:21:42Z</time>
      </trkpt>
      <trkpt lat="44.23686" lon="6.22276">
        <ele>1654.6</ele>
        <time>2022-01-01T12:21:52Z</time>
      </trkpt>
      <trkpt lat="44.23682" lon="6.22264">
        <ele>1653.6</ele>
        <time>2022-01-01T12:22:01Z</time>
      </trkpt>
      <trkpt lat="44.23681" lon="6.22263">
        <ele>1653.6</ele>
        <time>2022-01-01T12:22:02Z</time>
      </trkpt>
      <trkpt lat="44.23677" lon="6.22247">
        <ele>1652.4</ele>
        <time>2022-01-01T12:22:12Z</time>
      </trkpt>
      <trkpt lat="44.23673" lon="6.22237">
        <ele>1651.4</ele>
        <time>2022-01-01T12:22:19Z</time>
      </trkpt>
      <trkpt lat="44.23672" lon="6.22233">
        <ele>1651</ele>
        <time>2022-01-01T12:22:22Z</time>
      </trkpt>
      <trkpt lat="44.23669" lon="6.22224">
        <ele>1650.4</ele>
        <time>2022-01-01T12:22:29Z</time>
      </trkpt>
      <trkpt lat="44.23668" lon="6.22222">
        <ele>1650.2</ele>
        <time>2022-01-01T12:22:30Z</time>
      </trkpt>
      <trkpt lat="44.23667" lon="6.2222">
        <ele>1650</ele>
        <time>2022-01-01T12:22:32Z</time>
      </trkpt>
      <trkpt lat="44.23663" lon="6.22213">
        <ele>1649</ele>
        <time>2022-01-01T12:22:38Z</time>
      </trkpt>
      <trkpt lat="44.2366" lon="6.22208">
        <ele>1648.2</ele>
        <time>2022-01-01T12:22:42Z</time>
      </trkpt>
      <trkpt lat="44.23659" lon="6.22207">
        <ele>1648</ele>
        <time>2022-01-01T12:22:43Z</time>
      </trkpt>
      <trkpt lat="44.23656" lon="6.22197">
        <ele>1646.8</ele>
        <time>2022-01-01T12:22:50Z</time>
      </trkpt>
      <trkpt lat="44.23655" lon="6.22194">
        <ele>1646.6</ele>
        <time>2022-01-01T12:22:52Z</time>
      </trkpt>
      <trkpt lat="44.23653" lon="6.22187">
        <ele>1645.8</ele>
        <time>2022-01-01T12:22:57Z</time>
      </trkpt>
      <trkpt lat="44.23651" lon="6.22179">
        <ele>1645.4</ele>
        <time>2022-01-01T12:23:02Z</time>
      </trkpt>
      <trkpt lat="44.2365" lon="6.22169">
        <ele>1644.6</ele>
        <time>2022-01-01T12:23:09Z</time>
      </trkpt>
      <trkpt lat="44.23648" lon="6.22165">
        <ele>1644</ele>
        <time>2022-01-01T12:23:12Z</time>
      </trkpt>
      <trkpt lat="44.23643" lon="6.22154">
        <ele>1643.6</ele>
        <time>2022-01-01T12:23:20Z</time>
      </trkpt>
      <trkpt lat="44.23643" lon="6.22151">
        <ele>1643.4</ele>
        <time>2022-01-01T12:23:22Z</time>
      </trkpt>
      <trkpt lat="44.23638" lon="6.22135">
        <ele>1643</ele>
        <time>2022-01-01T12:23:32Z</time>
      </trkpt>
      <trkpt lat="44.23638" lon="6.22134">
        <ele>1643</ele>
        <time>2022-01-01T12:23:33Z</time>
      </trkpt>
      <trkpt lat="44.23638" lon="6.2213">
        <ele>1643</ele>
        <time>2022-01-01T12:23:36Z</time>
      </trkpt>
      <trkpt lat="44.23637" lon="6.22127">
        <ele>1642.8</ele>
        <time>2022-01-01T12:23:38Z</time>
      </trkpt>
      <trkpt lat="44.23637" lon="6.22125">
        <ele>1642.8</ele>
        <time>2022-01-01T12:23:39Z</time>
      </trkpt>
      <trkpt lat="44.23637" lon="6.22122">
        <ele>1642.6</ele>
        <time>2022-01-01T12:23:41Z</time>
      </trkpt>
      <trkpt lat="44.23637" lon="6.2212">
        <ele>1642.6</ele>
        <time>2022-01-01T12:23:42Z</time>
      </trkpt>
      <trkpt lat="44.23632" lon="6.22112">
        <ele>1641.6</ele>
        <time>2022-01-01T12:23:49Z</time>
      </trkpt>
      <trkpt lat="44.2363" lon="6.22108">
        <ele>1640.8</ele>
        <time>2022-01-01T12:23:52Z</time>
      </trkpt>
      <trkpt lat="44.23625" lon="6.22101">
        <ele>1640.6</ele>
        <time>2022-01-01T12:23:58Z</time>
      </trkpt>
      <trkpt lat="44.23624" lon="6.221">
        <ele>1640.6</ele>
        <time>2022-01-01T12:23:59Z</time>
      </trkpt>
      <trkpt lat="44.23622" lon="6.22098">
        <ele>1640</ele>
        <time>2022-01-01T12:24:02Z</time>
      </trkpt>
      <trkpt lat="44.23621" lon="6.22095">
        <ele>1639.6</ele>
        <time>2022-01-01T12:24:04Z</time>
      </trkpt>
      <trkpt lat="44.2362" lon="6.22094">
        <ele>1639.6</ele>
        <time>2022-01-01T12:24:05Z</time>
      </trkpt>
      <trkpt lat="44.23617" lon="6.22088">
        <ele>1639</ele>
        <time>2022-01-01T12:24:10Z</time>
      </trkpt>
      <trkpt lat="44.23616" lon="6.22085">
        <ele>1638.4</ele>
        <time>2022-01-01T12:24:13Z</time>
      </trkpt>
      <trkpt lat="44.23615" lon="6.22083">
        <ele>1638</ele>
        <time>2022-01-01T12:24:15Z</time>
      </trkpt>
      <trkpt lat="44.23612" lon="6.2208">
        <ele>1637.4</ele>
        <time>2022-01-01T12:24:19Z</time>
      </trkpt>
      <trkpt lat="44.23608" lon="6.22074">
        <ele>1636.6</ele>
        <time>2022-01-01T12:24:24Z</time>
      </trkpt>
      <trkpt lat="44.23608" lon="6.22073">
        <ele>1636.2</ele>
        <time>2022-01-01T12:24:25Z</time>
      </trkpt>
      <trkpt lat="44.23605" lon="6.22069">
        <ele>1635.6</ele>
        <time>2022-01-01T12:24:29Z</time>
      </trkpt>
      <trkpt lat="44.23602" lon="6.2206">
        <ele>1635.4</ele>
        <time>2022-01-01T12:24:35Z</time>
      </trkpt>
      <trkpt lat="44.23601" lon="6.22056">
        <ele>1635.2</ele>
        <time>2022-01-01T12:24:37Z</time>
      </trkpt>
      <trkpt lat="44.23597" lon="6.22046">
        <ele>1635.4</ele>
        <time>2022-01-01T12:24:44Z</time>
      </trkpt>
      <trkpt lat="44.23597" lon="6.22044">
        <ele>1635.4</ele>
        <time>2022-01-01T12:24:45Z</time>
      </trkpt>
      <trkpt lat="44.23593" lon="6.22028">
        <ele>1634.6</ele>
        <time>2022-01-01T12:24:55Z</time>
      </trkpt>
      <trkpt lat="44.23591" lon="6.22017">
        <ele>1634.2</ele>
        <time>2022-01-01T12:25:01Z</time>
      </trkpt>
      <trkpt lat="44.2359" lon="6.22011">
        <ele>1634</ele>
        <time>2022-01-01T12:25:05Z</time>
      </trkpt>
      <trkpt lat="44.23588" lon="6.21993">
        <ele>1633.4</ele>
        <time>2022-01-01T12:25:15Z</time>
      </trkpt>
      <trkpt lat="44.23589" lon="6.21982">
        <ele>1633.2</ele>
        <time>2022-01-01T12:25:22Z</time>
      </trkpt>
      <trkpt lat="44.23589" lon="6.21977">
        <ele>1633.4</ele>
        <time>2022-01-01T12:25:25Z</time>
      </trkpt>
      <trkpt lat="44.23592" lon="6.21961">
        <ele>1633.6</ele>
        <time>2022-01-01T12:25:35Z</time>
      </trkpt>
      <trkpt lat="44.23593" lon="6.21954">
        <ele>1633.2</ele>
        <time>2022-01-01T12:25:39Z</time>
      </trkpt>
      <trkpt lat="44.23595" lon="6.21946">
        <ele>1632.2</ele>
        <time>2022-01-01T12:25:45Z</time>
      </trkpt>
      <trkpt lat="44.23596" lon="6.21943">
        <ele>1632.2</ele>
        <time>2022-01-01T12:25:47Z</time>
      </trkpt>
      <trkpt lat="44.23601" lon="6.21933">
        <ele>1631.4</ele>
        <time>2022-01-01T12:25:55Z</time>
      </trkpt>
      <trkpt lat="44.23602" lon="6.21932">
        <ele>1631.2</ele>
        <time>2022-01-01T12:25:56Z</time>
      </trkpt>
      <trkpt lat="44.23606" lon="6.21924">
        <ele>1630</ele>
        <time>2022-01-01T12:26:04Z</time>
      </trkpt>
      <trkpt lat="44.23606" lon="6.21922">
        <ele>1630</ele>
        <time>2022-01-01T12:26:05Z</time>
      </trkpt>
      <trkpt lat="44.23605" lon="6.21918">
        <ele>1630</ele>
        <time>2022-01-01T12:26:08Z</time>
      </trkpt>
      <trkpt lat="44.23602" lon="6.21911">
        <ele>1629</ele>
        <time>2022-01-01T12:26:13Z</time>
      </trkpt>
      <trkpt lat="44.236" lon="6.21908">
        <ele>1628.8</ele>
        <time>2022-01-01T12:26:15Z</time>
      </trkpt>
      <trkpt lat="44.23596" lon="6.21903">
        <ele>1628.2</ele>
        <time>2022-01-01T12:26:20Z</time>
      </trkpt>
      <trkpt lat="44.23596" lon="6.21902">
        <ele>1628</ele>
        <time>2022-01-01T12:26:21Z</time>
      </trkpt>
      <trkpt lat="44.23592" lon="6.21897">
        <ele>1627.4</ele>
        <time>2022-01-01T12:26:25Z</time>
      </trkpt>
      <trkpt lat="44.23589" lon="6.21894">
        <ele>1627</ele>
        <time>2022-01-01T12:26:28Z</time>
      </trkpt>
      <trkpt lat="44.23587" lon="6.21892">
        <ele>1626.8</ele>
        <time>2022-01-01T12:26:30Z</time>
      </trkpt>
      <trkpt lat="44.2358" lon="6.21879">
        <ele>1626.8</ele>
        <time>2022-01-01T12:26:40Z</time>
      </trkpt>
      <trkpt lat="44.23579" lon="6.21862">
        <ele>1626.6</ele>
        <time>2022-01-01T12:26:50Z</time>
      </trkpt>
      <trkpt lat="44.23579" lon="6.21861">
        <ele>1626.4</ele>
        <time>2022-01-01T12:26:51Z</time>
      </trkpt>
      <trkpt lat="44.23578" lon="6.21857">
        <ele>1625.8</ele>
        <time>2022-01-01T12:26:54Z</time>
      </trkpt>
      <trkpt lat="44.23576" lon="6.21851">
        <ele>1624.8</ele>
        <time>2022-01-01T12:26:59Z</time>
      </trkpt>
      <trkpt lat="44.23575" lon="6.2185">
        <ele>1624.6</ele>
        <time>2022-01-01T12:27:00Z</time>
      </trkpt>
      <trkpt lat="44.23575" lon="6.21848">
        <ele>1624</ele>
        <time>2022-01-01T12:27:02Z</time>
      </trkpt>
      <trkpt lat="44.23576" lon="6.21847">
        <ele>1623.6</ele>
        <time>2022-01-01T12:27:03Z</time>
      </trkpt>
      <trkpt lat="44.23576" lon="6.21846">
        <ele>1623.4</ele>
        <time>2022-01-01T12:27:04Z</time>
      </trkpt>
      <trkpt lat="44.23577" lon="6.21842">
        <ele>1623</ele>
        <time>2022-01-01T12:27:07Z</time>
      </trkpt>
      <trkpt lat="44.23579" lon="6.21836">
        <ele>1622.6</ele>
        <time>2022-01-01T12:27:10Z</time>
      </trkpt>
      <trkpt lat="44.23578" lon="6.21826">
        <ele>1621.6</ele>
        <time>2022-01-01T12:27:17Z</time>
      </trkpt>
      <trkpt lat="44.23578" lon="6.21824">
        <ele>1621.2</ele>
        <time>2022-01-01T12:27:19Z</time>
      </trkpt>
      <trkpt lat="44.23579" lon="6.21823">
        <ele>1621</ele>
        <time>2022-01-01T12:27:20Z</time>
      </trkpt>
      <trkpt lat="44.2358" lon="6.21823">
        <ele>1621</ele>
        <time>2022-01-01T12:27:21Z</time>
      </trkpt>
      <trkpt lat="44.2358" lon="6.21821">
        <ele>1620.6</ele>
        <time>2022-01-01T12:27:23Z</time>
      </trkpt>
      <trkpt lat="44.23579" lon="6.21817">
        <ele>1619.8</ele>
        <time>2022-01-01T12:27:27Z</time>
      </trkpt>
      <trkpt lat="44.23578" lon="6.21816">
        <ele>1619.4</ele>
        <time>2022-01-01T12:27:28Z</time>
      </trkpt>
      <trkpt lat="44.23578" lon="6.21813">
        <ele>1619</ele>
        <time>2022-01-01T12:27:30Z</time>
      </trkpt>
      <trkpt lat="44.23576" lon="6.21811">
        <ele>1618.6</ele>
        <time>2022-01-01T12:27:32Z</time>
      </trkpt>
      <trkpt lat="44.23576" lon="6.2181">
        <ele>1618.4</ele>
        <time>2022-01-01T12:27:33Z</time>
      </trkpt>
      <trkpt lat="44.23576" lon="6.21809">
        <ele>1618.2</ele>
        <time>2022-01-01T12:27:34Z</time>
      </trkpt>
      <trkpt lat="44.23576" lon="6.21805">
        <ele>1617.2</ele>
        <time>2022-01-01T12:27:38Z</time>
      </trkpt>
      <trkpt lat="44.23576" lon="6.21804">
        <ele>1616.8</ele>
        <time>2022-01-01T12:27:39Z</time>
      </trkpt>
      <trkpt lat="44.23576" lon="6.21803">
        <ele>1616.4</ele>
        <time>2022-01-01T12:27:40Z</time>
      </trkpt>
      <trkpt lat="44.23576" lon="6.21801">
        <ele>1616.2</ele>
        <time>2022-01-01T12:27:41Z</time>
      </trkpt>
      <trkpt lat="44.23579" lon="6.21789">
        <ele>1615.2</ele>
        <time>2022-01-01T12:27:50Z</time>
      </trkpt>
      <trkpt lat="44.23579" lon="6.21787">
        <ele>1615</ele>
        <time>2022-01-01T12:27:51Z</time>
      </trkpt>
      <trkpt lat="44.2358" lon="6.21786">
        <ele>1614.6</ele>
        <time>2022-01-01T12:27:53Z</time>
      </trkpt>
      <trkpt lat="44.2358" lon="6.2178">
        <ele>1614</ele>
        <time>2022-01-01T12:27:56Z</time>
      </trkpt>
      <trkpt lat="44.23579" lon="6.21777">
        <ele>1613.6</ele>
        <time>2022-01-01T12:27:58Z</time>
      </trkpt>
      <trkpt lat="44.23578" lon="6.21775">
        <ele>1613.4</ele>
        <time>2022-01-01T12:28:00Z</time>
      </trkpt>
      <trkpt lat="44.23575" lon="6.21772">
        <ele>1612.8</ele>
        <time>2022-01-01T12:28:03Z</time>
      </trkpt>
      <trkpt lat="44.23574" lon="6.21771">
        <ele>1612.6</ele>
        <time>2022-01-01T12:28:04Z</time>
      </trkpt>
      <trkpt lat="44.23571" lon="6.21765">
        <ele>1611.8</ele>
        <time>2022-01-01T12:28:10Z</time>
      </trkpt>
      <trkpt lat="44.2357" lon="6.2176">
        <ele>1610.4</ele>
        <time>2022-01-01T12:28:13Z</time>
      </trkpt>
      <trkpt lat="44.23569" lon="6.21759">
        <ele>1610</ele>
        <time>2022-01-01T12:28:14Z</time>
      </trkpt>
      <trkpt lat="44.23568" lon="6.21756">
        <ele>1609.4</ele>
        <time>2022-01-01T12:28:16Z</time>
      </trkpt>
      <trkpt lat="44.23565" lon="6.2175">
        <ele>1608.4</ele>
        <time>2022-01-01T12:28:21Z</time>
      </trkpt>
      <trkpt lat="44.23564" lon="6.21749">
        <ele>1608.4</ele>
        <time>2022-01-01T12:28:22Z</time>
      </trkpt>
      <trkpt lat="44.23563" lon="6.21741">
        <ele>1607</ele>
        <time>2022-01-01T12:28:27Z</time>
      </trkpt>
      <trkpt lat="44.23563" lon="6.2174">
        <ele>1606.6</ele>
        <time>2022-01-01T12:28:28Z</time>
      </trkpt>
      <trkpt lat="44.23564" lon="6.21739">
        <ele>1606</ele>
        <time>2022-01-01T12:28:31Z</time>
      </trkpt>
      <trkpt lat="44.23565" lon="6.21739">
        <ele>1605.8</ele>
        <time>2022-01-01T12:28:32Z</time>
      </trkpt>
      <trkpt lat="44.23566" lon="6.21739">
        <ele>1605.8</ele>
        <time>2022-01-01T12:28:34Z</time>
      </trkpt>
      <trkpt lat="44.23566" lon="6.21739">
        <ele>1605.8</ele>
        <time>2022-01-01T12:28:36Z</time>
      </trkpt>
      <trkpt lat="44.23566" lon="6.21739">
        <ele>1606</ele>
        <time>2022-01-01T12:28:38Z</time>
      </trkpt>
      <trkpt lat="44.23567" lon="6.21741">
        <ele>1605.2</ele>
        <time>2022-01-01T12:32:13Z</time>
      </trkpt>
      <trkpt lat="44.23567" lon="6.21737">
        <ele>1605.4</ele>
        <time>2022-01-01T12:32:17Z</time>
      </trkpt>
      <trkpt lat="44.23565" lon="6.21732">
        <ele>1605.2</ele>
        <time>2022-01-01T12:32:21Z</time>
      </trkpt>
      <trkpt lat="44.23564" lon="6.21729">
        <ele>1605</ele>
        <time>2022-01-01T12:32:23Z</time>
      </trkpt>
      <trkpt lat="44.23563" lon="6.21724">
        <ele>1604.4</ele>
        <time>2022-01-01T12:32:26Z</time>
      </trkpt>
      <trkpt lat="44.23562" lon="6.21723">
        <ele>1604.2</ele>
        <time>2022-01-01T12:32:27Z</time>
      </trkpt>
      <trkpt lat="44.23562" lon="6.21721">
        <ele>1604</ele>
        <time>2022-01-01T12:32:28Z</time>
      </trkpt>
      <trkpt lat="44.23561" lon="6.21718">
        <ele>1603.4</ele>
        <time>2022-01-01T12:32:31Z</time>
      </trkpt>
      <trkpt lat="44.23561" lon="6.21717">
        <ele>1603.2</ele>
        <time>2022-01-01T12:32:32Z</time>
      </trkpt>
      <trkpt lat="44.2356" lon="6.21716">
        <ele>1603</ele>
        <time>2022-01-01T12:32:33Z</time>
      </trkpt>
      <trkpt lat="44.2356" lon="6.21714">
        <ele>1603</ele>
        <time>2022-01-01T12:32:34Z</time>
      </trkpt>
      <trkpt lat="44.2356" lon="6.21713">
        <ele>1602.8</ele>
        <time>2022-01-01T12:32:35Z</time>
      </trkpt>
      <trkpt lat="44.23559" lon="6.2171">
        <ele>1602.6</ele>
        <time>2022-01-01T12:32:37Z</time>
      </trkpt>
      <trkpt lat="44.23558" lon="6.21705">
        <ele>1601.8</ele>
        <time>2022-01-01T12:32:40Z</time>
      </trkpt>
      <trkpt lat="44.23558" lon="6.21703">
        <ele>1601.4</ele>
        <time>2022-01-01T12:32:41Z</time>
      </trkpt>
      <trkpt lat="44.23557" lon="6.21698">
        <ele>1600.8</ele>
        <time>2022-01-01T12:32:44Z</time>
      </trkpt>
      <trkpt lat="44.23556" lon="6.21694">
        <ele>1600.2</ele>
        <time>2022-01-01T12:32:47Z</time>
      </trkpt>
      <trkpt lat="44.23553" lon="6.21686">
        <ele>1599.6</ele>
        <time>2022-01-01T12:32:53Z</time>
      </trkpt>
      <trkpt lat="44.23552" lon="6.21681">
        <ele>1598.6</ele>
        <time>2022-01-01T12:32:57Z</time>
      </trkpt>
      <trkpt lat="44.23552" lon="6.2168">
        <ele>1598.4</ele>
        <time>2022-01-01T12:32:58Z</time>
      </trkpt>
      <trkpt lat="44.23549" lon="6.21669">
        <ele>1597.2</ele>
        <time>2022-01-01T12:33:06Z</time>
      </trkpt>
      <trkpt lat="44.23549" lon="6.21667">
        <ele>1597</ele>
        <time>2022-01-01T12:33:07Z</time>
      </trkpt>
      <trkpt lat="44.23546" lon="6.21657">
        <ele>1596</ele>
        <time>2022-01-01T12:33:13Z</time>
      </trkpt>
      <trkpt lat="44.23544" lon="6.21652">
        <ele>1595.2</ele>
        <time>2022-01-01T12:33:17Z</time>
      </trkpt>
      <trkpt lat="44.23544" lon="6.21651">
        <ele>1595</ele>
        <time>2022-01-01T12:33:18Z</time>
      </trkpt>
      <trkpt lat="44.23543" lon="6.21644">
        <ele>1593.8</ele>
        <time>2022-01-01T12:33:23Z</time>
      </trkpt>
      <trkpt lat="44.23543" lon="6.21641">
        <ele>1593.2</ele>
        <time>2022-01-01T12:33:25Z</time>
      </trkpt>
      <trkpt lat="44.23542" lon="6.21639">
        <ele>1592.8</ele>
        <time>2022-01-01T12:33:27Z</time>
      </trkpt>
      <trkpt lat="44.23542" lon="6.21639">
        <ele>1592.6</ele>
        <time>2022-01-01T12:33:28Z</time>
      </trkpt>
      <trkpt lat="44.2354" lon="6.21635">
        <ele>1591.6</ele>
        <time>2022-01-01T12:33:33Z</time>
      </trkpt>
      <trkpt lat="44.2354" lon="6.2163">
        <ele>1590.6</ele>
        <time>2022-01-01T12:33:37Z</time>
      </trkpt>
      <trkpt lat="44.2354" lon="6.21629">
        <ele>1590.4</ele>
        <time>2022-01-01T12:33:38Z</time>
      </trkpt>
      <trkpt lat="44.23538" lon="6.21619">
        <ele>1589.4</ele>
        <time>2022-01-01T12:33:47Z</time>
      </trkpt>
      <trkpt lat="44.23537" lon="6.2161">
        <ele>1588.2</ele>
        <time>2022-01-01T12:33:55Z</time>
      </trkpt>
      <trkpt lat="44.23537" lon="6.21607">
        <ele>1588</ele>
        <time>2022-01-01T12:33:57Z</time>
      </trkpt>
      <trkpt lat="44.23538" lon="6.21595">
        <ele>1587.8</ele>
        <time>2022-01-01T12:34:07Z</time>
      </trkpt>
      <trkpt lat="44.23537" lon="6.21589">
        <ele>1587.2</ele>
        <time>2022-01-01T12:34:11Z</time>
      </trkpt>
      <trkpt lat="44.23535" lon="6.21578">
        <ele>1586.2</ele>
        <time>2022-01-01T12:34:17Z</time>
      </trkpt>
      <trkpt lat="44.23535" lon="6.21577">
        <ele>1586.2</ele>
        <time>2022-01-01T12:34:18Z</time>
      </trkpt>
      <trkpt lat="44.23532" lon="6.21569">
        <ele>1585</ele>
        <time>2022-01-01T12:34:24Z</time>
      </trkpt>
      <trkpt lat="44.23529" lon="6.21567">
        <ele>1584</ele>
        <time>2022-01-01T12:34:27Z</time>
      </trkpt>
      <trkpt lat="44.23528" lon="6.21566">
        <ele>1583.6</ele>
        <time>2022-01-01T12:34:28Z</time>
      </trkpt>
      <trkpt lat="44.23526" lon="6.21562">
        <ele>1582.6</ele>
        <time>2022-01-01T12:34:32Z</time>
      </trkpt>
      <trkpt lat="44.23525" lon="6.21559">
        <ele>1582.4</ele>
        <time>2022-01-01T12:34:33Z</time>
      </trkpt>
      <trkpt lat="44.23522" lon="6.21556">
        <ele>1581.6</ele>
        <time>2022-01-01T12:34:37Z</time>
      </trkpt>
      <trkpt lat="44.23521" lon="6.21555">
        <ele>1581</ele>
        <time>2022-01-01T12:34:38Z</time>
      </trkpt>
      <trkpt lat="44.2352" lon="6.21552">
        <ele>1580.4</ele>
        <time>2022-01-01T12:34:40Z</time>
      </trkpt>
      <trkpt lat="44.23518" lon="6.21546">
        <ele>1579.6</ele>
        <time>2022-01-01T12:34:44Z</time>
      </trkpt>
      <trkpt lat="44.23517" lon="6.21543">
        <ele>1579.2</ele>
        <time>2022-01-01T12:34:46Z</time>
      </trkpt>
      <trkpt lat="44.23517" lon="6.21541">
        <ele>1579.2</ele>
        <time>2022-01-01T12:34:47Z</time>
      </trkpt>
      <trkpt lat="44.23516" lon="6.2154">
        <ele>1579</ele>
        <time>2022-01-01T12:34:48Z</time>
      </trkpt>
      <trkpt lat="44.23515" lon="6.21534">
        <ele>1578.6</ele>
        <time>2022-01-01T12:34:51Z</time>
      </trkpt>
      <trkpt lat="44.23515" lon="6.21531">
        <ele>1578.2</ele>
        <time>2022-01-01T12:34:53Z</time>
      </trkpt>
      <trkpt lat="44.23515" lon="6.2153">
        <ele>1578</ele>
        <time>2022-01-01T12:34:54Z</time>
      </trkpt>
      <trkpt lat="44.23517" lon="6.21524">
        <ele>1577.4</ele>
        <time>2022-01-01T12:34:57Z</time>
      </trkpt>
      <trkpt lat="44.23519" lon="6.21522">
        <ele>1577</ele>
        <time>2022-01-01T12:34:59Z</time>
      </trkpt>
      <trkpt lat="44.2352" lon="6.21521">
        <ele>1576.8</ele>
        <time>2022-01-01T12:35:00Z</time>
      </trkpt>
      <trkpt lat="44.23521" lon="6.2152">
        <ele>1576.6</ele>
        <time>2022-01-01T12:35:01Z</time>
      </trkpt>
      <trkpt lat="44.23523" lon="6.21518">
        <ele>1576.2</ele>
        <time>2022-01-01T12:35:04Z</time>
      </trkpt>
      <trkpt lat="44.23523" lon="6.21517">
        <ele>1576</ele>
        <time>2022-01-01T12:35:05Z</time>
      </trkpt>
      <trkpt lat="44.23524" lon="6.21514">
        <ele>1575.8</ele>
        <time>2022-01-01T12:35:07Z</time>
      </trkpt>
      <trkpt lat="44.23525" lon="6.21513">
        <ele>1575.6</ele>
        <time>2022-01-01T12:35:08Z</time>
      </trkpt>
      <trkpt lat="44.23526" lon="6.21512">
        <ele>1575.4</ele>
        <time>2022-01-01T12:35:09Z</time>
      </trkpt>
      <trkpt lat="44.23526" lon="6.2151">
        <ele>1575.2</ele>
        <time>2022-01-01T12:35:10Z</time>
      </trkpt>
      <trkpt lat="44.23527" lon="6.21509">
        <ele>1575</ele>
        <time>2022-01-01T12:35:11Z</time>
      </trkpt>
      <trkpt lat="44.23527" lon="6.21508">
        <ele>1574.6</ele>
        <time>2022-01-01T12:35:12Z</time>
      </trkpt>
      <trkpt lat="44.23526" lon="6.21507">
        <ele>1574.6</ele>
        <time>2022-01-01T12:35:13Z</time>
      </trkpt>
      <trkpt lat="44.23525" lon="6.21507">
        <ele>1574.6</ele>
        <time>2022-01-01T12:35:14Z</time>
      </trkpt>
      <trkpt lat="44.23523" lon="6.21506">
        <ele>1574.4</ele>
        <time>2022-01-01T12:35:16Z</time>
      </trkpt>
      <trkpt lat="44.23522" lon="6.21505">
        <ele>1574.6</ele>
        <time>2022-01-01T12:35:17Z</time>
      </trkpt>
      <trkpt lat="44.23521" lon="6.21505">
        <ele>1574.6</ele>
        <time>2022-01-01T12:35:18Z</time>
      </trkpt>
      <trkpt lat="44.23521" lon="6.21504">
        <ele>1574.8</ele>
        <time>2022-01-01T12:35:19Z</time>
      </trkpt>
      <trkpt lat="44.23521" lon="6.21504">
        <ele>1575</ele>
        <time>2022-01-01T12:35:20Z</time>
      </trkpt>
      <trkpt lat="44.23516" lon="6.21502">
        <ele>1575.6</ele>
        <time>2022-01-01T12:35:24Z</time>
      </trkpt>
      <trkpt lat="44.23513" lon="6.215">
        <ele>1576</ele>
        <time>2022-01-01T12:35:27Z</time>
      </trkpt>
      <trkpt lat="44.23513" lon="6.21498">
        <ele>1576</ele>
        <time>2022-01-01T12:35:28Z</time>
      </trkpt>
      <trkpt lat="44.23512" lon="6.21492">
        <ele>1576.2</ele>
        <time>2022-01-01T12:35:32Z</time>
      </trkpt>
      <trkpt lat="44.23512" lon="6.21488">
        <ele>1576</ele>
        <time>2022-01-01T12:35:36Z</time>
      </trkpt>
      <trkpt lat="44.23512" lon="6.21487">
        <ele>1575.8</ele>
        <time>2022-01-01T12:35:37Z</time>
      </trkpt>
      <trkpt lat="44.23511" lon="6.21481">
        <ele>1576</ele>
        <time>2022-01-01T12:35:41Z</time>
      </trkpt>
      <trkpt lat="44.2351" lon="6.21474">
        <ele>1576.4</ele>
        <time>2022-01-01T12:35:45Z</time>
      </trkpt>
      <trkpt lat="44.23509" lon="6.21471">
        <ele>1576.6</ele>
        <time>2022-01-01T12:35:47Z</time>
      </trkpt>
      <trkpt lat="44.2351" lon="6.2147">
        <ele>1576.6</ele>
        <time>2022-01-01T12:35:48Z</time>
      </trkpt>
      <trkpt lat="44.23511" lon="6.21466">
        <ele>1576.2</ele>
        <time>2022-01-01T12:35:51Z</time>
      </trkpt>
      <trkpt lat="44.23512" lon="6.21463">
        <ele>1575.6</ele>
        <time>2022-01-01T12:35:53Z</time>
      </trkpt>
      <trkpt lat="44.23511" lon="6.2146">
        <ele>1575.4</ele>
        <time>2022-01-01T12:35:55Z</time>
      </trkpt>
      <trkpt lat="44.2351" lon="6.21457">
        <ele>1575.2</ele>
        <time>2022-01-01T12:35:57Z</time>
      </trkpt>
      <trkpt lat="44.23509" lon="6.21456">
        <ele>1575</ele>
        <time>2022-01-01T12:35:58Z</time>
      </trkpt>
      <trkpt lat="44.23508" lon="6.21455">
        <ele>1575</ele>
        <time>2022-01-01T12:35:59Z</time>
      </trkpt>
      <trkpt lat="44.23505" lon="6.21445">
        <ele>1574.2</ele>
        <time>2022-01-01T12:36:07Z</time>
      </trkpt>
      <trkpt lat="44.23504" lon="6.21443">
        <ele>1574</ele>
        <time>2022-01-01T12:36:09Z</time>
      </trkpt>
      <trkpt lat="44.23503" lon="6.21434">
        <ele>1572.8</ele>
        <time>2022-01-01T12:36:16Z</time>
      </trkpt>
      <trkpt lat="44.23504" lon="6.21433">
        <ele>1572.8</ele>
        <time>2022-01-01T12:36:17Z</time>
      </trkpt>
      <trkpt lat="44.23505" lon="6.2143">
        <ele>1572.4</ele>
        <time>2022-01-01T12:36:20Z</time>
      </trkpt>
      <trkpt lat="44.23505" lon="6.21427">
        <ele>1572</ele>
        <time>2022-01-01T12:36:22Z</time>
      </trkpt>
      <trkpt lat="44.23504" lon="6.21423">
        <ele>1571.8</ele>
        <time>2022-01-01T12:36:24Z</time>
      </trkpt>
      <trkpt lat="44.23502" lon="6.21421">
        <ele>1571.6</ele>
        <time>2022-01-01T12:36:26Z</time>
      </trkpt>
      <trkpt lat="44.235" lon="6.2142">
        <ele>1571.6</ele>
        <time>2022-01-01T12:36:27Z</time>
      </trkpt>
      <trkpt lat="44.23496" lon="6.21416">
        <ele>1570.6</ele>
        <time>2022-01-01T12:36:32Z</time>
      </trkpt>
      <trkpt lat="44.23494" lon="6.21413">
        <ele>1569.4</ele>
        <time>2022-01-01T12:36:35Z</time>
      </trkpt>
      <trkpt lat="44.23492" lon="6.2141">
        <ele>1568.8</ele>
        <time>2022-01-01T12:36:37Z</time>
      </trkpt>
      <trkpt lat="44.23491" lon="6.21407">
        <ele>1568.4</ele>
        <time>2022-01-01T12:36:39Z</time>
      </trkpt>
      <trkpt lat="44.23488" lon="6.21401">
        <ele>1567.2</ele>
        <time>2022-01-01T12:36:44Z</time>
      </trkpt>
      <trkpt lat="44.23488" lon="6.21399">
        <ele>1566.8</ele>
        <time>2022-01-01T12:36:46Z</time>
      </trkpt>
      <trkpt lat="44.23488" lon="6.21398">
        <ele>1566.4</ele>
        <time>2022-01-01T12:36:47Z</time>
      </trkpt>
      <trkpt lat="44.23487" lon="6.21397">
        <ele>1566.2</ele>
        <time>2022-01-01T12:36:48Z</time>
      </trkpt>
      <trkpt lat="44.23487" lon="6.21392">
        <ele>1565</ele>
        <time>2022-01-01T12:36:53Z</time>
      </trkpt>
      <trkpt lat="44.23485" lon="6.21388">
        <ele>1564.2</ele>
        <time>2022-01-01T12:36:57Z</time>
      </trkpt>
      <trkpt lat="44.23484" lon="6.21387">
        <ele>1563.8</ele>
        <time>2022-01-01T12:36:58Z</time>
      </trkpt>
      <trkpt lat="44.23485" lon="6.21385">
        <ele>1563.2</ele>
        <time>2022-01-01T12:37:00Z</time>
      </trkpt>
      <trkpt lat="44.23485" lon="6.21383">
        <ele>1562.8</ele>
        <time>2022-01-01T12:37:02Z</time>
      </trkpt>
      <trkpt lat="44.23488" lon="6.21377">
        <ele>1561.6</ele>
        <time>2022-01-01T12:37:07Z</time>
      </trkpt>
      <trkpt lat="44.23488" lon="6.2137">
        <ele>1560.4</ele>
        <time>2022-01-01T12:37:11Z</time>
      </trkpt>
      <trkpt lat="44.23489" lon="6.21363">
        <ele>1560</ele>
        <time>2022-01-01T12:37:16Z</time>
      </trkpt>
      <trkpt lat="44.23489" lon="6.21361">
        <ele>1559.6</ele>
        <time>2022-01-01T12:37:17Z</time>
      </trkpt>
      <trkpt lat="44.2349" lon="6.21359">
        <ele>1559.2</ele>
        <time>2022-01-01T12:37:19Z</time>
      </trkpt>
      <trkpt lat="44.23491" lon="6.21358">
        <ele>1559.2</ele>
        <time>2022-01-01T12:37:20Z</time>
      </trkpt>
      <trkpt lat="44.23497" lon="6.2135">
        <ele>1558.2</ele>
        <time>2022-01-01T12:37:27Z</time>
      </trkpt>
      <trkpt lat="44.23501" lon="6.21333">
        <ele>1557.6</ele>
        <time>2022-01-01T12:37:37Z</time>
      </trkpt>
      <trkpt lat="44.23503" lon="6.21328">
        <ele>1557</ele>
        <time>2022-01-01T12:37:41Z</time>
      </trkpt>
      <trkpt lat="44.23506" lon="6.21322">
        <ele>1555.8</ele>
        <time>2022-01-01T12:37:45Z</time>
      </trkpt>
      <trkpt lat="44.23506" lon="6.21319">
        <ele>1555.6</ele>
        <time>2022-01-01T12:37:47Z</time>
      </trkpt>
      <trkpt lat="44.23507" lon="6.213">
        <ele>1555.2</ele>
        <time>2022-01-01T12:37:57Z</time>
      </trkpt>
      <trkpt lat="44.23512" lon="6.21287">
        <ele>1556</ele>
        <time>2022-01-01T12:38:07Z</time>
      </trkpt>
      <trkpt lat="44.23513" lon="6.21285">
        <ele>1556</ele>
        <time>2022-01-01T12:38:08Z</time>
      </trkpt>
      <trkpt lat="44.23514" lon="6.21279">
        <ele>1556.8</ele>
        <time>2022-01-01T12:38:13Z</time>
      </trkpt>
      <trkpt lat="44.23516" lon="6.21276">
        <ele>1557.4</ele>
        <time>2022-01-01T12:38:16Z</time>
      </trkpt>
      <trkpt lat="44.23517" lon="6.21275">
        <ele>1557.4</ele>
        <time>2022-01-01T12:38:17Z</time>
      </trkpt>
      <trkpt lat="44.23521" lon="6.21265">
        <ele>1558</ele>
        <time>2022-01-01T12:38:26Z</time>
      </trkpt>
      <trkpt lat="44.23521" lon="6.21263">
        <ele>1558.2</ele>
        <time>2022-01-01T12:38:27Z</time>
      </trkpt>
      <trkpt lat="44.23527" lon="6.21257">
        <ele>1559.2</ele>
        <time>2022-01-01T12:38:35Z</time>
      </trkpt>
      <trkpt lat="44.23529" lon="6.21255">
        <ele>1559.4</ele>
        <time>2022-01-01T12:38:37Z</time>
      </trkpt>
      <trkpt lat="44.23534" lon="6.21251">
        <ele>1559.6</ele>
        <time>2022-01-01T12:38:42Z</time>
      </trkpt>
      <trkpt lat="44.23534" lon="6.21243">
        <ele>1560</ele>
        <time>2022-01-01T12:38:47Z</time>
      </trkpt>
      <trkpt lat="44.23534" lon="6.2124">
        <ele>1560.2</ele>
        <time>2022-01-01T12:38:49Z</time>
      </trkpt>
      <trkpt lat="44.23533" lon="6.21238">
        <ele>1560.2</ele>
        <time>2022-01-01T12:38:50Z</time>
      </trkpt>
      <trkpt lat="44.23532" lon="6.21236">
        <ele>1560.6</ele>
        <time>2022-01-01T12:38:52Z</time>
      </trkpt>
      <trkpt lat="44.2353" lon="6.21232">
        <ele>1561</ele>
        <time>2022-01-01T12:38:55Z</time>
      </trkpt>
      <trkpt lat="44.23529" lon="6.21229">
        <ele>1561.2</ele>
        <time>2022-01-01T12:38:57Z</time>
      </trkpt>
      <trkpt lat="44.23529" lon="6.21226">
        <ele>1561.2</ele>
        <time>2022-01-01T12:38:59Z</time>
      </trkpt>
      <trkpt lat="44.23529" lon="6.21218">
        <ele>1561</ele>
        <time>2022-01-01T12:39:04Z</time>
      </trkpt>
      <trkpt lat="44.23529" lon="6.21213">
        <ele>1560.8</ele>
        <time>2022-01-01T12:39:07Z</time>
      </trkpt>
      <trkpt lat="44.2353" lon="6.21208">
        <ele>1560.8</ele>
        <time>2022-01-01T12:39:10Z</time>
      </trkpt>
      <trkpt lat="44.2353" lon="6.21197">
        <ele>1561.2</ele>
        <time>2022-01-01T12:39:17Z</time>
      </trkpt>
      <trkpt lat="44.2353" lon="6.21194">
        <ele>1561.4</ele>
        <time>2022-01-01T12:39:19Z</time>
      </trkpt>
      <trkpt lat="44.23529" lon="6.21182">
        <ele>1560.8</ele>
        <time>2022-01-01T12:39:27Z</time>
      </trkpt>
      <trkpt lat="44.23527" lon="6.21173">
        <ele>1560.2</ele>
        <time>2022-01-01T12:39:33Z</time>
      </trkpt>
      <trkpt lat="44.23525" lon="6.21167">
        <ele>1559.4</ele>
        <time>2022-01-01T12:39:37Z</time>
      </trkpt>
      <trkpt lat="44.23525" lon="6.21166">
        <ele>1559</ele>
        <time>2022-01-01T12:39:38Z</time>
      </trkpt>
      <trkpt lat="44.23524" lon="6.21163">
        <ele>1558.4</ele>
        <time>2022-01-01T12:39:40Z</time>
      </trkpt>
      <trkpt lat="44.23524" lon="6.21161">
        <ele>1558.2</ele>
        <time>2022-01-01T12:39:41Z</time>
      </trkpt>
      <trkpt lat="44.23524" lon="6.2116">
        <ele>1558.2</ele>
        <time>2022-01-01T12:39:42Z</time>
      </trkpt>
      <trkpt lat="44.23524" lon="6.21158">
        <ele>1558</ele>
        <time>2022-01-01T12:39:44Z</time>
      </trkpt>
      <trkpt lat="44.23524" lon="6.21155">
        <ele>1557.6</ele>
        <time>2022-01-01T12:39:47Z</time>
      </trkpt>
      <trkpt lat="44.23524" lon="6.21154">
        <ele>1557.4</ele>
        <time>2022-01-01T12:39:48Z</time>
      </trkpt>
      <trkpt lat="44.23524" lon="6.21154">
        <ele>1557.2</ele>
        <time>2022-01-01T12:39:49Z</time>
      </trkpt>
      <trkpt lat="44.23524" lon="6.21153">
        <ele>1557.2</ele>
        <time>2022-01-01T12:39:50Z</time>
      </trkpt>
      <trkpt lat="44.23524" lon="6.2115">
        <ele>1556.8</ele>
        <time>2022-01-01T12:39:54Z</time>
      </trkpt>
      <trkpt lat="44.23524" lon="6.21148">
        <ele>1556.6</ele>
        <time>2022-01-01T12:39:56Z</time>
      </trkpt>
      <trkpt lat="44.23524" lon="6.21147">
        <ele>1556.2</ele>
        <time>2022-01-01T12:39:57Z</time>
      </trkpt>
      <trkpt lat="44.23523" lon="6.21146">
        <ele>1555.8</ele>
        <time>2022-01-01T12:39:59Z</time>
      </trkpt>
      <trkpt lat="44.23523" lon="6.21145">
        <ele>1555.8</ele>
        <time>2022-01-01T12:40:00Z</time>
      </trkpt>
      <trkpt lat="44.23523" lon="6.21144">
        <ele>1555.6</ele>
        <time>2022-01-01T12:40:01Z</time>
      </trkpt>
      <trkpt lat="44.23523" lon="6.21143">
        <ele>1555.6</ele>
        <time>2022-01-01T12:40:02Z</time>
      </trkpt>
      <trkpt lat="44.23523" lon="6.21142">
        <ele>1555.4</ele>
        <time>2022-01-01T12:40:03Z</time>
      </trkpt>
      <trkpt lat="44.23523" lon="6.2114">
        <ele>1555</ele>
        <time>2022-01-01T12:40:05Z</time>
      </trkpt>
      <trkpt lat="44.23523" lon="6.21138">
        <ele>1554.8</ele>
        <time>2022-01-01T12:40:07Z</time>
      </trkpt>
      <trkpt lat="44.23523" lon="6.21136">
        <ele>1554.8</ele>
        <time>2022-01-01T12:40:08Z</time>
      </trkpt>
      <trkpt lat="44.23524" lon="6.21132">
        <ele>1554.4</ele>
        <time>2022-01-01T12:40:16Z</time>
      </trkpt>
      <trkpt lat="44.23524" lon="6.21132">
        <ele>1554.4</ele>
        <time>2022-01-01T12:40:17Z</time>
      </trkpt>
      <trkpt lat="44.23525" lon="6.21132">
        <ele>1554.6</ele>
        <time>2022-01-01T12:40:21Z</time>
      </trkpt>
      <trkpt lat="44.23525" lon="6.2113">
        <ele>1555</ele>
        <time>2022-01-01T12:40:27Z</time>
      </trkpt>
      <trkpt lat="44.23526" lon="6.21126">
        <ele>1554.8</ele>
        <time>2022-01-01T12:40:31Z</time>
      </trkpt>
      <trkpt lat="44.23526" lon="6.21125">
        <ele>1554.8</ele>
        <time>2022-01-01T12:40:32Z</time>
      </trkpt>
      <trkpt lat="44.23525" lon="6.21121">
        <ele>1554</ele>
        <time>2022-01-01T12:40:37Z</time>
      </trkpt>
      <trkpt lat="44.23525" lon="6.2112">
        <ele>1553.8</ele>
        <time>2022-01-01T12:40:38Z</time>
      </trkpt>
      <trkpt lat="44.23525" lon="6.21118">
        <ele>1552.6</ele>
        <time>2022-01-01T12:40:43Z</time>
      </trkpt>
      <trkpt lat="44.23524" lon="6.21119">
        <ele>1552.4</ele>
        <time>2022-01-01T12:40:47Z</time>
      </trkpt>
      <trkpt lat="44.23523" lon="6.21117">
        <ele>1553</ele>
        <time>2022-01-01T12:40:57Z</time>
      </trkpt>
      <trkpt lat="44.23522" lon="6.21114">
        <ele>1552.2</ele>
        <time>2022-01-01T12:41:07Z</time>
      </trkpt>
      <trkpt lat="44.23521" lon="6.21107">
        <ele>1552</ele>
        <time>2022-01-01T12:41:17Z</time>
      </trkpt>
      <trkpt lat="44.23521" lon="6.21107">
        <ele>1551.8</ele>
        <time>2022-01-01T12:41:27Z</time>
      </trkpt>
      <trkpt lat="44.23521" lon="6.21107">
        <ele>1551.8</ele>
        <time>2022-01-01T12:41:31Z</time>
      </trkpt>
      <trkpt lat="44.23522" lon="6.21107">
        <ele>1551.4</ele>
        <time>2022-01-01T12:41:36Z</time>
      </trkpt>
      <trkpt lat="44.23522" lon="6.21107">
        <ele>1551.2</ele>
        <time>2022-01-01T12:41:37Z</time>
      </trkpt>
      <trkpt lat="44.23522" lon="6.21107">
        <ele>1551</ele>
        <time>2022-01-01T12:41:47Z</time>
      </trkpt>
      <trkpt lat="44.23522" lon="6.21106">
        <ele>1550.8</ele>
        <time>2022-01-01T12:41:57Z</time>
      </trkpt>
      <trkpt lat="44.2352" lon="6.21108">
        <ele>1551</ele>
        <time>2022-01-01T12:42:07Z</time>
      </trkpt>
      <trkpt lat="44.2352" lon="6.21108">
        <ele>1550.6</ele>
        <time>2022-01-01T12:42:17Z</time>
      </trkpt>
      <trkpt lat="44.2352" lon="6.21108">
        <ele>1550.6</ele>
        <time>2022-01-01T12:42:27Z</time>
      </trkpt>
      <trkpt lat="44.2352" lon="6.21108">
        <ele>1550.4</ele>
        <time>2022-01-01T12:42:32Z</time>
      </trkpt>
      <trkpt lat="44.2352" lon="6.21108">
        <ele>1550.4</ele>
        <time>2022-01-01T12:42:37Z</time>
      </trkpt>
      <trkpt lat="44.2352" lon="6.21108">
        <ele>1550.4</ele>
        <time>2022-01-01T12:42:44Z</time>
      </trkpt>
      <trkpt lat="44.2352" lon="6.21108">
        <ele>1550.2</ele>
        <time>2022-01-01T12:42:47Z</time>
      </trkpt>
      <trkpt lat="44.23519" lon="6.21108">
        <ele>1550.4</ele>
        <time>2022-01-01T12:42:57Z</time>
      </trkpt>
      <trkpt lat="44.23519" lon="6.21108">
        <ele>1550.6</ele>
        <time>2022-01-01T12:43:07Z</time>
      </trkpt>
      <trkpt lat="44.23519" lon="6.21108">
        <ele>1550.4</ele>
        <time>2022-01-01T12:43:14Z</time>
      </trkpt>
      <trkpt lat="44.23519" lon="6.21108">
        <ele>1550.6</ele>
        <time>2022-01-01T12:43:17Z</time>
      </trkpt>
      <trkpt lat="44.23519" lon="6.21108">
        <ele>1550.8</ele>
        <time>2022-01-01T12:43:21Z</time>
      </trkpt>
      <trkpt lat="44.23519" lon="6.21108">
        <ele>1551.2</ele>
        <time>2022-01-01T12:43:27Z</time>
      </trkpt>
      <trkpt lat="44.2352" lon="6.21108">
        <ele>1551.4</ele>
        <time>2022-01-01T12:43:33Z</time>
      </trkpt>
      <trkpt lat="44.2352" lon="6.21108">
        <ele>1551.4</ele>
        <time>2022-01-01T12:43:37Z</time>
      </trkpt>
      <trkpt lat="44.23519" lon="6.21107">
        <ele>1551.8</ele>
        <time>2022-01-01T12:43:47Z</time>
      </trkpt>
      <trkpt lat="44.2352" lon="6.21105">
        <ele>1552.4</ele>
        <time>2022-01-01T12:43:55Z</time>
      </trkpt>
      <trkpt lat="44.2352" lon="6.21105">
        <ele>1552.6</ele>
        <time>2022-01-01T12:43:57Z</time>
      </trkpt>
      <trkpt lat="44.2352" lon="6.21105">
        <ele>1552.6</ele>
        <time>2022-01-01T12:43:58Z</time>
      </trkpt>
      <trkpt lat="44.2352" lon="6.21105">
        <ele>1552.6</ele>
        <time>2022-01-01T12:43:59Z</time>
      </trkpt>
      <trkpt lat="44.2352" lon="6.21104">
        <ele>1552.8</ele>
        <time>2022-01-01T12:44:07Z</time>
      </trkpt>
      <trkpt lat="44.2352" lon="6.21104">
        <ele>1552.8</ele>
        <time>2022-01-01T12:44:17Z</time>
      </trkpt>
      <trkpt lat="44.2352" lon="6.21104">
        <ele>1553</ele>
        <time>2022-01-01T12:44:27Z</time>
      </trkpt>
      <trkpt lat="44.2352" lon="6.21105">
        <ele>1552.4</ele>
        <time>2022-01-01T12:44:34Z</time>
      </trkpt>
      <trkpt lat="44.23519" lon="6.21105">
        <ele>1552.2</ele>
        <time>2022-01-01T12:44:37Z</time>
      </trkpt>
      <trkpt lat="44.23518" lon="6.21106">
        <ele>1552</ele>
        <time>2022-01-01T12:44:47Z</time>
      </trkpt>
      <trkpt lat="44.23517" lon="6.21106">
        <ele>1552</ele>
        <time>2022-01-01T12:44:56Z</time>
      </trkpt>
      <trkpt lat="44.23517" lon="6.21106">
        <ele>1552</ele>
        <time>2022-01-01T12:44:57Z</time>
      </trkpt>
      <trkpt lat="44.23517" lon="6.21106">
        <ele>1552</ele>
        <time>2022-01-01T12:45:07Z</time>
      </trkpt>
      <trkpt lat="44.23518" lon="6.21106">
        <ele>1552</ele>
        <time>2022-01-01T12:45:17Z</time>
      </trkpt>
      <trkpt lat="44.23518" lon="6.21106">
        <ele>1552</ele>
        <time>2022-01-01T12:45:27Z</time>
      </trkpt>
      <trkpt lat="44.23518" lon="6.21106">
        <ele>1552</ele>
        <time>2022-01-01T12:45:37Z</time>
      </trkpt>
      <trkpt lat="44.23518" lon="6.21106">
        <ele>1552</ele>
        <time>2022-01-01T12:45:39Z</time>
      </trkpt>
      <trkpt lat="44.23518" lon="6.21106">
        <ele>1552</ele>
        <time>2022-01-01T12:45:47Z</time>
      </trkpt>
      <trkpt lat="44.23518" lon="6.21106">
        <ele>1552</ele>
        <time>2022-01-01T12:45:57Z</time>
      </trkpt>
      <trkpt lat="44.23519" lon="6.21106">
        <ele>1552</ele>
        <time>2022-01-01T12:45:59Z</time>
      </trkpt>
      <trkpt lat="44.23519" lon="6.21106">
        <ele>1552</ele>
        <time>2022-01-01T12:46:02Z</time>
      </trkpt>
      <trkpt lat="44.23519" lon="6.21107">
        <ele>1552</ele>
        <time>2022-01-01T12:46:07Z</time>
      </trkpt>
      <trkpt lat="44.23519" lon="6.21107">
        <ele>1552</ele>
        <time>2022-01-01T12:46:17Z</time>
      </trkpt>
      <trkpt lat="44.2352" lon="6.21108">
        <ele>1552</ele>
        <time>2022-01-01T12:46:23Z</time>
      </trkpt>
      <trkpt lat="44.2352" lon="6.21108">
        <ele>1552</ele>
        <time>2022-01-01T12:46:25Z</time>
      </trkpt>
      <trkpt lat="44.2352" lon="6.21108">
        <ele>1552</ele>
        <time>2022-01-01T12:46:27Z</time>
      </trkpt>
      <trkpt lat="44.2352" lon="6.21108">
        <ele>1552</ele>
        <time>2022-01-01T12:46:36Z</time>
      </trkpt>
      <trkpt lat="44.2352" lon="6.21104">
        <ele>1551.6</ele>
        <time>2022-01-01T12:50:33Z</time>
      </trkpt>
      <trkpt lat="44.2352" lon="6.21104">
        <ele>1550.8</ele>
        <time>2022-01-01T12:50:34Z</time>
      </trkpt>
      <trkpt lat="44.23519" lon="6.21103">
        <ele>1550.6</ele>
        <time>2022-01-01T12:50:35Z</time>
      </trkpt>
      <trkpt lat="44.23519" lon="6.21103">
        <ele>1550.4</ele>
        <time>2022-01-01T12:50:36Z</time>
      </trkpt>
      <trkpt lat="44.23519" lon="6.21102">
        <ele>1550.6</ele>
        <time>2022-01-01T12:50:37Z</time>
      </trkpt>
      <trkpt lat="44.23519" lon="6.21094">
        <ele>1550</ele>
        <time>2022-01-01T12:50:44Z</time>
      </trkpt>
      <trkpt lat="44.23518" lon="6.21092">
        <ele>1550</ele>
        <time>2022-01-01T12:50:46Z</time>
      </trkpt>
      <trkpt lat="44.23517" lon="6.2109">
        <ele>1549.8</ele>
        <time>2022-01-01T12:50:47Z</time>
      </trkpt>
      <trkpt lat="44.23516" lon="6.21088">
        <ele>1549.8</ele>
        <time>2022-01-01T12:50:49Z</time>
      </trkpt>
      <trkpt lat="44.23515" lon="6.21086">
        <ele>1549.4</ele>
        <time>2022-01-01T12:50:51Z</time>
      </trkpt>
      <trkpt lat="44.23512" lon="6.21081">
        <ele>1549</ele>
        <time>2022-01-01T12:50:56Z</time>
      </trkpt>
      <trkpt lat="44.23511" lon="6.2108">
        <ele>1549</ele>
        <time>2022-01-01T12:50:57Z</time>
      </trkpt>
      <trkpt lat="44.2351" lon="6.21079">
        <ele>1549</ele>
        <time>2022-01-01T12:50:59Z</time>
      </trkpt>
      <trkpt lat="44.23507" lon="6.21076">
        <ele>1548.6</ele>
        <time>2022-01-01T12:51:02Z</time>
      </trkpt>
      <trkpt lat="44.23506" lon="6.21075">
        <ele>1548.4</ele>
        <time>2022-01-01T12:51:03Z</time>
      </trkpt>
      <trkpt lat="44.23505" lon="6.21071">
        <ele>1547.8</ele>
        <time>2022-01-01T12:51:06Z</time>
      </trkpt>
      <trkpt lat="44.23505" lon="6.21069">
        <ele>1547.6</ele>
        <time>2022-01-01T12:51:07Z</time>
      </trkpt>
      <trkpt lat="44.23505" lon="6.21068">
        <ele>1547.6</ele>
        <time>2022-01-01T12:51:08Z</time>
      </trkpt>
      <trkpt lat="44.23505" lon="6.21058">
        <ele>1546.8</ele>
        <time>2022-01-01T12:51:15Z</time>
      </trkpt>
      <trkpt lat="44.23505" lon="6.21058">
        <ele>1546.8</ele>
        <time>2022-01-01T12:51:16Z</time>
      </trkpt>
      <trkpt lat="44.23505" lon="6.21057">
        <ele>1546.6</ele>
        <time>2022-01-01T12:51:17Z</time>
      </trkpt>
      <trkpt lat="44.23505" lon="6.21056">
        <ele>1546.6</ele>
        <time>2022-01-01T12:51:18Z</time>
      </trkpt>
      <trkpt lat="44.23505" lon="6.21055">
        <ele>1546.6</ele>
        <time>2022-01-01T12:51:19Z</time>
      </trkpt>
      <trkpt lat="44.23505" lon="6.21052">
        <ele>1546.2</ele>
        <time>2022-01-01T12:51:21Z</time>
      </trkpt>
      <trkpt lat="44.23506" lon="6.21051">
        <ele>1546.2</ele>
        <time>2022-01-01T12:51:22Z</time>
      </trkpt>
      <trkpt lat="44.23506" lon="6.2105">
        <ele>1546</ele>
        <time>2022-01-01T12:51:23Z</time>
      </trkpt>
      <trkpt lat="44.23506" lon="6.21049">
        <ele>1546</ele>
        <time>2022-01-01T12:51:24Z</time>
      </trkpt>
      <trkpt lat="44.23507" lon="6.21045">
        <ele>1545.6</ele>
        <time>2022-01-01T12:51:27Z</time>
      </trkpt>
      <trkpt lat="44.23508" lon="6.21044">
        <ele>1545.4</ele>
        <time>2022-01-01T12:51:28Z</time>
      </trkpt>
      <trkpt lat="44.23509" lon="6.21041">
        <ele>1545.2</ele>
        <time>2022-01-01T12:51:30Z</time>
      </trkpt>
      <trkpt lat="44.23511" lon="6.21039">
        <ele>1545.2</ele>
        <time>2022-01-01T12:51:32Z</time>
      </trkpt>
      <trkpt lat="44.23515" lon="6.21034">
        <ele>1545</ele>
        <time>2022-01-01T12:51:37Z</time>
      </trkpt>
      <trkpt lat="44.23522" lon="6.21028">
        <ele>1545.8</ele>
        <time>2022-01-01T12:51:47Z</time>
      </trkpt>
      <trkpt lat="44.23525" lon="6.2102">
        <ele>1546.4</ele>
        <time>2022-01-01T12:51:53Z</time>
      </trkpt>
      <trkpt lat="44.23527" lon="6.21016">
        <ele>1546</ele>
        <time>2022-01-01T12:51:57Z</time>
      </trkpt>
      <trkpt lat="44.23532" lon="6.21007">
        <ele>1544.6</ele>
        <time>2022-01-01T12:52:05Z</time>
      </trkpt>
      <trkpt lat="44.23534" lon="6.21005">
        <ele>1544.2</ele>
        <time>2022-01-01T12:52:07Z</time>
      </trkpt>
      <trkpt lat="44.23535" lon="6.21002">
        <ele>1543.2</ele>
        <time>2022-01-01T12:52:10Z</time>
      </trkpt>
      <trkpt lat="44.23539" lon="6.20997">
        <ele>1542.2</ele>
        <time>2022-01-01T12:52:16Z</time>
      </trkpt>
      <trkpt lat="44.23539" lon="6.20996">
        <ele>1542</ele>
        <time>2022-01-01T12:52:17Z</time>
      </trkpt>
      <trkpt lat="44.23542" lon="6.20989">
        <ele>1541</ele>
        <time>2022-01-01T12:52:21Z</time>
      </trkpt>
      <trkpt lat="44.23545" lon="6.2098">
        <ele>1540.4</ele>
        <time>2022-01-01T12:52:27Z</time>
      </trkpt>
      <trkpt lat="44.2355" lon="6.20971">
        <ele>1540</ele>
        <time>2022-01-01T12:52:35Z</time>
      </trkpt>
      <trkpt lat="44.23551" lon="6.20969">
        <ele>1539.8</ele>
        <time>2022-01-01T12:52:37Z</time>
      </trkpt>
      <trkpt lat="44.23552" lon="6.20963">
        <ele>1539.4</ele>
        <time>2022-01-01T12:52:41Z</time>
      </trkpt>
      <trkpt lat="44.23553" lon="6.20956">
        <ele>1539</ele>
        <time>2022-01-01T12:52:46Z</time>
      </trkpt>
      <trkpt lat="44.23553" lon="6.20955">
        <ele>1538.8</ele>
        <time>2022-01-01T12:52:47Z</time>
      </trkpt>
      <trkpt lat="44.23557" lon="6.20943">
        <ele>1538.2</ele>
        <time>2022-01-01T12:52:57Z</time>
      </trkpt>
      <trkpt lat="44.23561" lon="6.20938">
        <ele>1538.2</ele>
        <time>2022-01-01T12:53:03Z</time>
      </trkpt>
      <trkpt lat="44.23563" lon="6.20937">
        <ele>1538</ele>
        <time>2022-01-01T12:53:05Z</time>
      </trkpt>
      <trkpt lat="44.23564" lon="6.20934">
        <ele>1537.6</ele>
        <time>2022-01-01T12:53:07Z</time>
      </trkpt>
      <trkpt lat="44.23565" lon="6.20931">
        <ele>1537.2</ele>
        <time>2022-01-01T12:53:09Z</time>
      </trkpt>
      <trkpt lat="44.23564" lon="6.20927">
        <ele>1536.8</ele>
        <time>2022-01-01T12:53:13Z</time>
      </trkpt>
      <trkpt lat="44.23564" lon="6.20925">
        <ele>1536.4</ele>
        <time>2022-01-01T12:53:15Z</time>
      </trkpt>
      <trkpt lat="44.23562" lon="6.20922">
        <ele>1536.2</ele>
        <time>2022-01-01T12:53:17Z</time>
      </trkpt>
      <trkpt lat="44.2356" lon="6.20916">
        <ele>1535.8</ele>
        <time>2022-01-01T12:53:21Z</time>
      </trkpt>
      <trkpt lat="44.23559" lon="6.20913">
        <ele>1535.4</ele>
        <time>2022-01-01T12:53:23Z</time>
      </trkpt>
      <trkpt lat="44.23557" lon="6.20905">
        <ele>1535</ele>
        <time>2022-01-01T12:53:27Z</time>
      </trkpt>
      <trkpt lat="44.23559" lon="6.20902">
        <ele>1534.8</ele>
        <time>2022-01-01T12:53:29Z</time>
      </trkpt>
      <trkpt lat="44.2356" lon="6.20897">
        <ele>1533.8</ele>
        <time>2022-01-01T12:53:33Z</time>
      </trkpt>
      <trkpt lat="44.2356" lon="6.20896">
        <ele>1533.6</ele>
        <time>2022-01-01T12:53:34Z</time>
      </trkpt>
      <trkpt lat="44.23561" lon="6.20893">
        <ele>1533</ele>
        <time>2022-01-01T12:53:37Z</time>
      </trkpt>
      <trkpt lat="44.23563" lon="6.20891">
        <ele>1532.4</ele>
        <time>2022-01-01T12:53:40Z</time>
      </trkpt>
      <trkpt lat="44.23566" lon="6.2089">
        <ele>1531</ele>
        <time>2022-01-01T12:53:44Z</time>
      </trkpt>
      <trkpt lat="44.23568" lon="6.2089">
        <ele>1529.8</ele>
        <time>2022-01-01T12:53:47Z</time>
      </trkpt>
      <trkpt lat="44.23571" lon="6.20891">
        <ele>1528.8</ele>
        <time>2022-01-01T12:53:50Z</time>
      </trkpt>
      <trkpt lat="44.23576" lon="6.20893">
        <ele>1527.8</ele>
        <time>2022-01-01T12:53:55Z</time>
      </trkpt>
      <trkpt lat="44.23577" lon="6.20894">
        <ele>1527.4</ele>
        <time>2022-01-01T12:53:57Z</time>
      </trkpt>
      <trkpt lat="44.23578" lon="6.20894">
        <ele>1527.2</ele>
        <time>2022-01-01T12:53:58Z</time>
      </trkpt>
      <trkpt lat="44.2358" lon="6.20894">
        <ele>1526.6</ele>
        <time>2022-01-01T12:54:00Z</time>
      </trkpt>
      <trkpt lat="44.23584" lon="6.20895">
        <ele>1525.8</ele>
        <time>2022-01-01T12:54:03Z</time>
      </trkpt>
      <trkpt lat="44.23586" lon="6.20895">
        <ele>1525.4</ele>
        <time>2022-01-01T12:54:04Z</time>
      </trkpt>
      <trkpt lat="44.2359" lon="6.20894">
        <ele>1524.4</ele>
        <time>2022-01-01T12:54:07Z</time>
      </trkpt>
      <trkpt lat="44.23591" lon="6.20893">
        <ele>1524.2</ele>
        <time>2022-01-01T12:54:08Z</time>
      </trkpt>
      <trkpt lat="44.23594" lon="6.20891">
        <ele>1523.2</ele>
        <time>2022-01-01T12:54:11Z</time>
      </trkpt>
      <trkpt lat="44.23597" lon="6.20891">
        <ele>1522.8</ele>
        <time>2022-01-01T12:54:14Z</time>
      </trkpt>
      <trkpt lat="44.23598" lon="6.2089">
        <ele>1522.6</ele>
        <time>2022-01-01T12:54:16Z</time>
      </trkpt>
      <trkpt lat="44.23599" lon="6.2089">
        <ele>1522.4</ele>
        <time>2022-01-01T12:54:17Z</time>
      </trkpt>
      <trkpt lat="44.23598" lon="6.20889">
        <ele>1522.2</ele>
        <time>2022-01-01T12:54:18Z</time>
      </trkpt>
      <trkpt lat="44.23597" lon="6.20887">
        <ele>1521</ele>
        <time>2022-01-01T12:54:23Z</time>
      </trkpt>
      <trkpt lat="44.23595" lon="6.20883">
        <ele>1520</ele>
        <time>2022-01-01T12:54:27Z</time>
      </trkpt>
      <trkpt lat="44.23594" lon="6.20881">
        <ele>1519.6</ele>
        <time>2022-01-01T12:54:28Z</time>
      </trkpt>
      <trkpt lat="44.23592" lon="6.20875">
        <ele>1518.8</ele>
        <time>2022-01-01T12:54:31Z</time>
      </trkpt>
      <trkpt lat="44.23592" lon="6.20871">
        <ele>1518.6</ele>
        <time>2022-01-01T12:54:33Z</time>
      </trkpt>
      <trkpt lat="44.23594" lon="6.20868">
        <ele>1518.2</ele>
        <time>2022-01-01T12:54:35Z</time>
      </trkpt>
      <trkpt lat="44.23593" lon="6.20864">
        <ele>1517.8</ele>
        <time>2022-01-01T12:54:37Z</time>
      </trkpt>
      <trkpt lat="44.23593" lon="6.20861">
        <ele>1517.8</ele>
        <time>2022-01-01T12:54:38Z</time>
      </trkpt>
      <trkpt lat="44.23591" lon="6.20857">
        <ele>1517.4</ele>
        <time>2022-01-01T12:54:41Z</time>
      </trkpt>
      <trkpt lat="44.23591" lon="6.20856">
        <ele>1517.4</ele>
        <time>2022-01-01T12:54:43Z</time>
      </trkpt>
      <trkpt lat="44.23592" lon="6.20854">
        <ele>1517.2</ele>
        <time>2022-01-01T12:54:47Z</time>
      </trkpt>
      <trkpt lat="44.23591" lon="6.20847">
        <ele>1516.4</ele>
        <time>2022-01-01T12:54:57Z</time>
      </trkpt>
      <trkpt lat="44.23589" lon="6.20839">
        <ele>1516.6</ele>
        <time>2022-01-01T12:55:05Z</time>
      </trkpt>
      <trkpt lat="44.23587" lon="6.20836">
        <ele>1516.4</ele>
        <time>2022-01-01T12:55:07Z</time>
      </trkpt>
      <trkpt lat="44.23587" lon="6.20825">
        <ele>1516.2</ele>
        <time>2022-01-01T12:55:17Z</time>
      </trkpt>
      <trkpt lat="44.23586" lon="6.20819">
        <ele>1516.4</ele>
        <time>2022-01-01T12:55:22Z</time>
      </trkpt>
      <trkpt lat="44.23585" lon="6.20818">
        <ele>1516.4</ele>
        <time>2022-01-01T12:55:23Z</time>
      </trkpt>
      <trkpt lat="44.23584" lon="6.20813">
        <ele>1516.4</ele>
        <time>2022-01-01T12:55:27Z</time>
      </trkpt>
      <trkpt lat="44.2358" lon="6.20804">
        <ele>1516.6</ele>
        <time>2022-01-01T12:55:35Z</time>
      </trkpt>
      <trkpt lat="44.23579" lon="6.20803">
        <ele>1516.6</ele>
        <time>2022-01-01T12:55:37Z</time>
      </trkpt>
      <trkpt lat="44.23574" lon="6.208">
        <ele>1516</ele>
        <time>2022-01-01T12:55:42Z</time>
      </trkpt>
      <trkpt lat="44.23572" lon="6.20798">
        <ele>1515.4</ele>
        <time>2022-01-01T12:55:45Z</time>
      </trkpt>
      <trkpt lat="44.2357" lon="6.20797">
        <ele>1514.8</ele>
        <time>2022-01-01T12:55:47Z</time>
      </trkpt>
      <trkpt lat="44.23569" lon="6.20795">
        <ele>1514</ele>
        <time>2022-01-01T12:55:49Z</time>
      </trkpt>
      <trkpt lat="44.23564" lon="6.20787">
        <ele>1512.8</ele>
        <time>2022-01-01T12:55:56Z</time>
      </trkpt>
      <trkpt lat="44.23563" lon="6.20786">
        <ele>1512.4</ele>
        <time>2022-01-01T12:55:57Z</time>
      </trkpt>
      <trkpt lat="44.2356" lon="6.20782">
        <ele>1511.6</ele>
        <time>2022-01-01T12:56:00Z</time>
      </trkpt>
      <trkpt lat="44.23556" lon="6.20776">
        <ele>1510.4</ele>
        <time>2022-01-01T12:56:06Z</time>
      </trkpt>
      <trkpt lat="44.23555" lon="6.20775">
        <ele>1510.2</ele>
        <time>2022-01-01T12:56:07Z</time>
      </trkpt>
      <trkpt lat="44.23553" lon="6.20772">
        <ele>1509.6</ele>
        <time>2022-01-01T12:56:10Z</time>
      </trkpt>
      <trkpt lat="44.23552" lon="6.2077">
        <ele>1509.4</ele>
        <time>2022-01-01T12:56:13Z</time>
      </trkpt>
      <trkpt lat="44.23551" lon="6.2077">
        <ele>1509.4</ele>
        <time>2022-01-01T12:56:14Z</time>
      </trkpt>
      <trkpt lat="44.23548" lon="6.20767">
        <ele>1509</ele>
        <time>2022-01-01T12:56:17Z</time>
      </trkpt>
      <trkpt lat="44.23544" lon="6.20767">
        <ele>1508.2</ele>
        <time>2022-01-01T12:56:21Z</time>
      </trkpt>
      <trkpt lat="44.23541" lon="6.20767">
        <ele>1507</ele>
        <time>2022-01-01T12:56:24Z</time>
      </trkpt>
      <trkpt lat="44.23538" lon="6.20766">
        <ele>1506.6</ele>
        <time>2022-01-01T12:56:27Z</time>
      </trkpt>
      <trkpt lat="44.23537" lon="6.20766">
        <ele>1506</ele>
        <time>2022-01-01T12:56:29Z</time>
      </trkpt>
      <trkpt lat="44.2353" lon="6.20763">
        <ele>1504.8</ele>
        <time>2022-01-01T12:56:35Z</time>
      </trkpt>
      <trkpt lat="44.23527" lon="6.20762">
        <ele>1504.4</ele>
        <time>2022-01-01T12:56:37Z</time>
      </trkpt>
      <trkpt lat="44.23523" lon="6.20763">
        <ele>1503.8</ele>
        <time>2022-01-01T12:56:40Z</time>
      </trkpt>
      <trkpt lat="44.23516" lon="6.20763">
        <ele>1502.8</ele>
        <time>2022-01-01T12:56:46Z</time>
      </trkpt>
      <trkpt lat="44.23515" lon="6.20762">
        <ele>1502.4</ele>
        <time>2022-01-01T12:56:47Z</time>
      </trkpt>
      <trkpt lat="44.23513" lon="6.20761">
        <ele>1501.8</ele>
        <time>2022-01-01T12:56:49Z</time>
      </trkpt>
      <trkpt lat="44.23508" lon="6.20757">
        <ele>1500.4</ele>
        <time>2022-01-01T12:56:55Z</time>
      </trkpt>
      <trkpt lat="44.23507" lon="6.20756">
        <ele>1499.6</ele>
        <time>2022-01-01T12:56:57Z</time>
      </trkpt>
      <trkpt lat="44.23506" lon="6.20756">
        <ele>1499.2</ele>
        <time>2022-01-01T12:56:58Z</time>
      </trkpt>
      <trkpt lat="44.23503" lon="6.20755">
        <ele>1498</ele>
        <time>2022-01-01T12:57:01Z</time>
      </trkpt>
      <trkpt lat="44.23499" lon="6.20756">
        <ele>1497</ele>
        <time>2022-01-01T12:57:05Z</time>
      </trkpt>
      <trkpt lat="44.23498" lon="6.20756">
        <ele>1496.6</ele>
        <time>2022-01-01T12:57:07Z</time>
      </trkpt>
      <trkpt lat="44.23495" lon="6.20756">
        <ele>1496</ele>
        <time>2022-01-01T12:57:10Z</time>
      </trkpt>
      <trkpt lat="44.23489" lon="6.20756">
        <ele>1494.8</ele>
        <time>2022-01-01T12:57:16Z</time>
      </trkpt>
      <trkpt lat="44.23487" lon="6.20756">
        <ele>1494.4</ele>
        <time>2022-01-01T12:57:17Z</time>
      </trkpt>
      <trkpt lat="44.23479" lon="6.20757">
        <ele>1493.8</ele>
        <time>2022-01-01T12:57:24Z</time>
      </trkpt>
      <trkpt lat="44.23476" lon="6.20757">
        <ele>1493.2</ele>
        <time>2022-01-01T12:57:27Z</time>
      </trkpt>
      <trkpt lat="44.23474" lon="6.20755">
        <ele>1492.6</ele>
        <time>2022-01-01T12:57:31Z</time>
      </trkpt>
      <trkpt lat="44.23474" lon="6.20755">
        <ele>1492.4</ele>
        <time>2022-01-01T12:57:32Z</time>
      </trkpt>
      <trkpt lat="44.23472" lon="6.20753">
        <ele>1491.4</ele>
        <time>2022-01-01T12:57:36Z</time>
      </trkpt>
      <trkpt lat="44.23471" lon="6.20752">
        <ele>1491</ele>
        <time>2022-01-01T12:57:37Z</time>
      </trkpt>
      <trkpt lat="44.2347" lon="6.20752">
        <ele>1490.2</ele>
        <time>2022-01-01T12:57:40Z</time>
      </trkpt>
      <trkpt lat="44.23469" lon="6.20751">
        <ele>1489.6</ele>
        <time>2022-01-01T12:57:47Z</time>
      </trkpt>
      <trkpt lat="44.23469" lon="6.20751">
        <ele>1489.4</ele>
        <time>2022-01-01T12:57:56Z</time>
      </trkpt>
      <trkpt lat="44.2347" lon="6.20751">
        <ele>1489.4</ele>
        <time>2022-01-01T12:57:57Z</time>
      </trkpt>
      <trkpt lat="44.2347" lon="6.20751">
        <ele>1489.4</ele>
        <time>2022-01-01T12:58:01Z</time>
      </trkpt>
      <trkpt lat="44.2347" lon="6.20751">
        <ele>1489.4</ele>
        <time>2022-01-01T12:58:03Z</time>
      </trkpt>
      <trkpt lat="44.23469" lon="6.20751">
        <ele>1489.2</ele>
        <time>2022-01-01T12:58:04Z</time>
      </trkpt>
      <trkpt lat="44.23468" lon="6.2075">
        <ele>1489</ele>
        <time>2022-01-01T12:58:06Z</time>
      </trkpt>
      <trkpt lat="44.23468" lon="6.2075">
        <ele>1489</ele>
        <time>2022-01-01T12:58:07Z</time>
      </trkpt>
      <trkpt lat="44.23464" lon="6.20748">
        <ele>1488.2</ele>
        <time>2022-01-01T12:58:11Z</time>
      </trkpt>
      <trkpt lat="44.23464" lon="6.20748">
        <ele>1488</ele>
        <time>2022-01-01T12:58:12Z</time>
      </trkpt>
      <trkpt lat="44.23461" lon="6.20746">
        <ele>1487.2</ele>
        <time>2022-01-01T12:58:15Z</time>
      </trkpt>
      <trkpt lat="44.23461" lon="6.20746">
        <ele>1486.8</ele>
        <time>2022-01-01T12:58:16Z</time>
      </trkpt>
      <trkpt lat="44.2346" lon="6.20745">
        <ele>1486.6</ele>
        <time>2022-01-01T12:58:17Z</time>
      </trkpt>
      <trkpt lat="44.23457" lon="6.20744">
        <ele>1485.8</ele>
        <time>2022-01-01T12:58:20Z</time>
      </trkpt>
      <trkpt lat="44.23453" lon="6.20741">
        <ele>1485.2</ele>
        <time>2022-01-01T12:58:25Z</time>
      </trkpt>
      <trkpt lat="44.23452" lon="6.20741">
        <ele>1485.2</ele>
        <time>2022-01-01T12:58:26Z</time>
      </trkpt>
      <trkpt lat="44.23451" lon="6.2074">
        <ele>1484.8</ele>
        <time>2022-01-01T12:58:27Z</time>
      </trkpt>
      <trkpt lat="44.2345" lon="6.2074">
        <ele>1484.6</ele>
        <time>2022-01-01T12:58:28Z</time>
      </trkpt>
      <trkpt lat="44.23447" lon="6.20738">
        <ele>1483.4</ele>
        <time>2022-01-01T12:58:32Z</time>
      </trkpt>
      <trkpt lat="44.23443" lon="6.20736">
        <ele>1482.4</ele>
        <time>2022-01-01T12:58:36Z</time>
      </trkpt>
      <trkpt lat="44.23442" lon="6.20735">
        <ele>1482.2</ele>
        <time>2022-01-01T12:58:37Z</time>
      </trkpt>
      <trkpt lat="44.2344" lon="6.20733">
        <ele>1481.8</ele>
        <time>2022-01-01T12:58:40Z</time>
      </trkpt>
      <trkpt lat="44.23438" lon="6.20731">
        <ele>1481.4</ele>
        <time>2022-01-01T12:58:42Z</time>
      </trkpt>
      <trkpt lat="44.23437" lon="6.2073">
        <ele>1481.2</ele>
        <time>2022-01-01T12:58:43Z</time>
      </trkpt>
      <trkpt lat="44.23437" lon="6.2073">
        <ele>1481</ele>
        <time>2022-01-01T12:58:44Z</time>
      </trkpt>
      <trkpt lat="44.23435" lon="6.20729">
        <ele>1480.4</ele>
        <time>2022-01-01T12:58:46Z</time>
      </trkpt>
      <trkpt lat="44.23434" lon="6.20729">
        <ele>1480</ele>
        <time>2022-01-01T12:58:47Z</time>
      </trkpt>
      <trkpt lat="44.23432" lon="6.20726">
        <ele>1479.2</ele>
        <time>2022-01-01T12:58:50Z</time>
      </trkpt>
      <trkpt lat="44.23431" lon="6.20725">
        <ele>1478.6</ele>
        <time>2022-01-01T12:58:52Z</time>
      </trkpt>
      <trkpt lat="44.2343" lon="6.20725">
        <ele>1478.4</ele>
        <time>2022-01-01T12:58:53Z</time>
      </trkpt>
      <trkpt lat="44.23429" lon="6.20724">
        <ele>1478.2</ele>
        <time>2022-01-01T12:58:54Z</time>
      </trkpt>
      <trkpt lat="44.23428" lon="6.20724">
        <ele>1478</ele>
        <time>2022-01-01T12:58:55Z</time>
      </trkpt>
      <trkpt lat="44.23427" lon="6.20722">
        <ele>1477.4</ele>
        <time>2022-01-01T12:58:57Z</time>
      </trkpt>
      <trkpt lat="44.23426" lon="6.20722">
        <ele>1477</ele>
        <time>2022-01-01T12:58:58Z</time>
      </trkpt>
      <trkpt lat="44.23422" lon="6.20718">
        <ele>1475.8</ele>
        <time>2022-01-01T12:59:03Z</time>
      </trkpt>
      <trkpt lat="44.23419" lon="6.20714">
        <ele>1474.8</ele>
        <time>2022-01-01T12:59:07Z</time>
      </trkpt>
      <trkpt lat="44.23418" lon="6.20713">
        <ele>1474.6</ele>
        <time>2022-01-01T12:59:08Z</time>
      </trkpt>
      <trkpt lat="44.23412" lon="6.2071">
        <ele>1473.6</ele>
        <time>2022-01-01T12:59:14Z</time>
      </trkpt>
      <trkpt lat="44.23411" lon="6.20708">
        <ele>1472.8</ele>
        <time>2022-01-01T12:59:17Z</time>
      </trkpt>
      <trkpt lat="44.2341" lon="6.20706">
        <ele>1472.2</ele>
        <time>2022-01-01T12:59:19Z</time>
      </trkpt>
      <trkpt lat="44.23407" lon="6.20702">
        <ele>1471.2</ele>
        <time>2022-01-01T12:59:23Z</time>
      </trkpt>
      <trkpt lat="44.23404" lon="6.20698">
        <ele>1470.4</ele>
        <time>2022-01-01T12:59:27Z</time>
      </trkpt>
      <trkpt lat="44.23403" lon="6.20697">
        <ele>1470.2</ele>
        <time>2022-01-01T12:59:29Z</time>
      </trkpt>
      <trkpt lat="44.23402" lon="6.20696">
        <ele>1470.2</ele>
        <time>2022-01-01T12:59:30Z</time>
      </trkpt>
      <trkpt lat="44.23398" lon="6.20692">
        <ele>1469</ele>
        <time>2022-01-01T12:59:34Z</time>
      </trkpt>
      <trkpt lat="44.23395" lon="6.2069">
        <ele>1468.2</ele>
        <time>2022-01-01T12:59:37Z</time>
      </trkpt>
      <trkpt lat="44.23394" lon="6.20689">
        <ele>1468</ele>
        <time>2022-01-01T12:59:39Z</time>
      </trkpt>
      <trkpt lat="44.23388" lon="6.20682">
        <ele>1467</ele>
        <time>2022-01-01T12:59:45Z</time>
      </trkpt>
      <trkpt lat="44.23386" lon="6.20679">
        <ele>1466.6</ele>
        <time>2022-01-01T12:59:47Z</time>
      </trkpt>
      <trkpt lat="44.23384" lon="6.20677">
        <ele>1466.4</ele>
        <time>2022-01-01T12:59:49Z</time>
      </trkpt>
      <trkpt lat="44.23381" lon="6.20674">
        <ele>1466</ele>
        <time>2022-01-01T12:59:53Z</time>
      </trkpt>
      <trkpt lat="44.23376" lon="6.20669">
        <ele>1465.6</ele>
        <time>2022-01-01T12:59:57Z</time>
      </trkpt>
      <trkpt lat="44.23371" lon="6.20665">
        <ele>1465.4</ele>
        <time>2022-01-01T13:00:01Z</time>
      </trkpt>
      <trkpt lat="44.23366" lon="6.20661">
        <ele>1465</ele>
        <time>2022-01-01T13:00:05Z</time>
      </trkpt>
      <trkpt lat="44.23364" lon="6.20659">
        <ele>1464.8</ele>
        <time>2022-01-01T13:00:07Z</time>
      </trkpt>
      <trkpt lat="44.23353" lon="6.20649">
        <ele>1464</ele>
        <time>2022-01-01T13:00:17Z</time>
      </trkpt>
      <trkpt lat="44.23352" lon="6.20648">
        <ele>1463.8</ele>
        <time>2022-01-01T13:00:18Z</time>
      </trkpt>
      <trkpt lat="44.23344" lon="6.20637">
        <ele>1463.2</ele>
        <time>2022-01-01T13:00:27Z</time>
      </trkpt>
      <trkpt lat="44.23342" lon="6.20635">
        <ele>1463.2</ele>
        <time>2022-01-01T13:00:29Z</time>
      </trkpt>
      <trkpt lat="44.23335" lon="6.2063">
        <ele>1462.8</ele>
        <time>2022-01-01T13:00:34Z</time>
      </trkpt>
      <trkpt lat="44.23332" lon="6.20627">
        <ele>1462.4</ele>
        <time>2022-01-01T13:00:37Z</time>
      </trkpt>
      <trkpt lat="44.23327" lon="6.20621">
        <ele>1461.8</ele>
        <time>2022-01-01T13:00:42Z</time>
      </trkpt>
      <trkpt lat="44.23322" lon="6.20616">
        <ele>1461.2</ele>
        <time>2022-01-01T13:00:47Z</time>
      </trkpt>
      <trkpt lat="44.2332" lon="6.20614">
        <ele>1460.8</ele>
        <time>2022-01-01T13:00:50Z</time>
      </trkpt>
      <trkpt lat="44.23318" lon="6.20612">
        <ele>1460.8</ele>
        <time>2022-01-01T13:00:52Z</time>
      </trkpt>
      <trkpt lat="44.23314" lon="6.20607">
        <ele>1460.2</ele>
        <time>2022-01-01T13:00:57Z</time>
      </trkpt>
      <trkpt lat="44.23309" lon="6.20603">
        <ele>1459.6</ele>
        <time>2022-01-01T13:01:02Z</time>
      </trkpt>
      <trkpt lat="44.23304" lon="6.20598">
        <ele>1458.4</ele>
        <time>2022-01-01T13:01:07Z</time>
      </trkpt>
      <trkpt lat="44.23291" lon="6.20596">
        <ele>1457.4</ele>
        <time>2022-01-01T13:01:17Z</time>
      </trkpt>
      <trkpt lat="44.23281" lon="6.20593">
        <ele>1456.4</ele>
        <time>2022-01-01T13:01:25Z</time>
      </trkpt>
      <trkpt lat="44.2328" lon="6.20593">
        <ele>1456.2</ele>
        <time>2022-01-01T13:01:26Z</time>
      </trkpt>
      <trkpt lat="44.23278" lon="6.20592">
        <ele>1456.2</ele>
        <time>2022-01-01T13:01:27Z</time>
      </trkpt>
      <trkpt lat="44.23272" lon="6.20589">
        <ele>1455.2</ele>
        <time>2022-01-01T13:01:33Z</time>
      </trkpt>
      <trkpt lat="44.23268" lon="6.20587">
        <ele>1454.6</ele>
        <time>2022-01-01T13:01:37Z</time>
      </trkpt>
      <trkpt lat="44.23263" lon="6.20582">
        <ele>1454.2</ele>
        <time>2022-01-01T13:01:42Z</time>
      </trkpt>
      <trkpt lat="44.23259" lon="6.20577">
        <ele>1453.2</ele>
        <time>2022-01-01T13:01:47Z</time>
      </trkpt>
      <trkpt lat="44.23258" lon="6.20576">
        <ele>1453</ele>
        <time>2022-01-01T13:01:48Z</time>
      </trkpt>
      <trkpt lat="44.23255" lon="6.20574">
        <ele>1452.6</ele>
        <time>2022-01-01T13:01:51Z</time>
      </trkpt>
      <trkpt lat="44.2325" lon="6.20572">
        <ele>1452</ele>
        <time>2022-01-01T13:01:55Z</time>
      </trkpt>
      <trkpt lat="44.23248" lon="6.20571">
        <ele>1451.4</ele>
        <time>2022-01-01T13:01:57Z</time>
      </trkpt>
      <trkpt lat="44.23246" lon="6.2057">
        <ele>1450.8</ele>
        <time>2022-01-01T13:01:59Z</time>
      </trkpt>
      <trkpt lat="44.23245" lon="6.20569">
        <ele>1450.6</ele>
        <time>2022-01-01T13:02:00Z</time>
      </trkpt>
      <trkpt lat="44.2324" lon="6.20567">
        <ele>1449.8</ele>
        <time>2022-01-01T13:02:04Z</time>
      </trkpt>
      <trkpt lat="44.23239" lon="6.20566">
        <ele>1449.8</ele>
        <time>2022-01-01T13:02:05Z</time>
      </trkpt>
      <trkpt lat="44.23237" lon="6.20565">
        <ele>1449.4</ele>
        <time>2022-01-01T13:02:07Z</time>
      </trkpt>
      <trkpt lat="44.23235" lon="6.20565">
        <ele>1449</ele>
        <time>2022-01-01T13:02:10Z</time>
      </trkpt>
      <trkpt lat="44.23233" lon="6.20565">
        <ele>1448.4</ele>
        <time>2022-01-01T13:02:12Z</time>
      </trkpt>
      <trkpt lat="44.2323" lon="6.20565">
        <ele>1448</ele>
        <time>2022-01-01T13:02:15Z</time>
      </trkpt>
      <trkpt lat="44.23227" lon="6.20566">
        <ele>1447.8</ele>
        <time>2022-01-01T13:02:17Z</time>
      </trkpt>
      <trkpt lat="44.23225" lon="6.20566">
        <ele>1447.4</ele>
        <time>2022-01-01T13:02:19Z</time>
      </trkpt>
      <trkpt lat="44.23218" lon="6.20571">
        <ele>1446.4</ele>
        <time>2022-01-01T13:02:26Z</time>
      </trkpt>
      <trkpt lat="44.23217" lon="6.20572">
        <ele>1446</ele>
        <time>2022-01-01T13:02:27Z</time>
      </trkpt>
      <trkpt lat="44.23212" lon="6.20572">
        <ele>1445.2</ele>
        <time>2022-01-01T13:02:30Z</time>
      </trkpt>
      <trkpt lat="44.23209" lon="6.20573">
        <ele>1444.6</ele>
        <time>2022-01-01T13:02:33Z</time>
      </trkpt>
      <trkpt lat="44.23207" lon="6.20573">
        <ele>1444.2</ele>
        <time>2022-01-01T13:02:35Z</time>
      </trkpt>
      <trkpt lat="44.23206" lon="6.20573">
        <ele>1444</ele>
        <time>2022-01-01T13:02:36Z</time>
      </trkpt>
      <trkpt lat="44.23204" lon="6.20574">
        <ele>1443.8</ele>
        <time>2022-01-01T13:02:37Z</time>
      </trkpt>
      <trkpt lat="44.23201" lon="6.20575">
        <ele>1443.4</ele>
        <time>2022-01-01T13:02:39Z</time>
      </trkpt>
      <trkpt lat="44.23199" lon="6.20575">
        <ele>1443</ele>
        <time>2022-01-01T13:02:41Z</time>
      </trkpt>
      <trkpt lat="44.23193" lon="6.20577">
        <ele>1441.8</ele>
        <time>2022-01-01T13:02:46Z</time>
      </trkpt>
      <trkpt lat="44.23192" lon="6.20578">
        <ele>1441.6</ele>
        <time>2022-01-01T13:02:47Z</time>
      </trkpt>
      <trkpt lat="44.23188" lon="6.20583">
        <ele>1440.8</ele>
        <time>2022-01-01T13:02:52Z</time>
      </trkpt>
      <trkpt lat="44.23185" lon="6.20589">
        <ele>1440.4</ele>
        <time>2022-01-01T13:02:57Z</time>
      </trkpt>
      <trkpt lat="44.23183" lon="6.20597">
        <ele>1439.8</ele>
        <time>2022-01-01T13:03:03Z</time>
      </trkpt>
      <trkpt lat="44.23181" lon="6.20603">
        <ele>1439.2</ele>
        <time>2022-01-01T13:03:07Z</time>
      </trkpt>
      <trkpt lat="44.23179" lon="6.20606">
        <ele>1438.8</ele>
        <time>2022-01-01T13:03:09Z</time>
      </trkpt>
      <trkpt lat="44.23176" lon="6.20611">
        <ele>1437.8</ele>
        <time>2022-01-01T13:03:15Z</time>
      </trkpt>
      <trkpt lat="44.23176" lon="6.20612">
        <ele>1437.6</ele>
        <time>2022-01-01T13:03:16Z</time>
      </trkpt>
      <trkpt lat="44.23175" lon="6.20612">
        <ele>1437.6</ele>
        <time>2022-01-01T13:03:17Z</time>
      </trkpt>
      <trkpt lat="44.23174" lon="6.20616">
        <ele>1437.4</ele>
        <time>2022-01-01T13:03:20Z</time>
      </trkpt>
      <trkpt lat="44.23171" lon="6.20619">
        <ele>1436.6</ele>
        <time>2022-01-01T13:03:24Z</time>
      </trkpt>
      <trkpt lat="44.2317" lon="6.2062">
        <ele>1436.4</ele>
        <time>2022-01-01T13:03:25Z</time>
      </trkpt>
      <trkpt lat="44.23168" lon="6.20626">
        <ele>1435.6</ele>
        <time>2022-01-01T13:03:29Z</time>
      </trkpt>
      <trkpt lat="44.23167" lon="6.20627">
        <ele>1435.2</ele>
        <time>2022-01-01T13:03:30Z</time>
      </trkpt>
      <trkpt lat="44.23164" lon="6.20637">
        <ele>1434.6</ele>
        <time>2022-01-01T13:03:36Z</time>
      </trkpt>
      <trkpt lat="44.23163" lon="6.20639">
        <ele>1434.4</ele>
        <time>2022-01-01T13:03:37Z</time>
      </trkpt>
      <trkpt lat="44.23162" lon="6.2064">
        <ele>1434.2</ele>
        <time>2022-01-01T13:03:38Z</time>
      </trkpt>
      <trkpt lat="44.2316" lon="6.20649">
        <ele>1433.4</ele>
        <time>2022-01-01T13:03:43Z</time>
      </trkpt>
      <trkpt lat="44.23158" lon="6.20655">
        <ele>1432.8</ele>
        <time>2022-01-01T13:03:46Z</time>
      </trkpt>
      <trkpt lat="44.23157" lon="6.20656">
        <ele>1432.6</ele>
        <time>2022-01-01T13:03:47Z</time>
      </trkpt>
      <trkpt lat="44.23156" lon="6.20661">
        <ele>1432.2</ele>
        <time>2022-01-01T13:03:50Z</time>
      </trkpt>
      <trkpt lat="44.23157" lon="6.2067">
        <ele>1431.6</ele>
        <time>2022-01-01T13:03:56Z</time>
      </trkpt>
      <trkpt lat="44.23158" lon="6.20677">
        <ele>1431.4</ele>
        <time>2022-01-01T13:04:01Z</time>
      </trkpt>
      <trkpt lat="44.23157" lon="6.2068">
        <ele>1431.2</ele>
        <time>2022-01-01T13:04:03Z</time>
      </trkpt>
      <trkpt lat="44.23157" lon="6.20684">
        <ele>1431</ele>
        <time>2022-01-01T13:04:06Z</time>
      </trkpt>
      <trkpt lat="44.23156" lon="6.20686">
        <ele>1430.8</ele>
        <time>2022-01-01T13:04:07Z</time>
      </trkpt>
      <trkpt lat="44.23155" lon="6.20689">
        <ele>1430.8</ele>
        <time>2022-01-01T13:04:09Z</time>
      </trkpt>
      <trkpt lat="44.23152" lon="6.20697">
        <ele>1430.2</ele>
        <time>2022-01-01T13:04:14Z</time>
      </trkpt>
      <trkpt lat="44.23152" lon="6.20698">
        <ele>1430</ele>
        <time>2022-01-01T13:04:15Z</time>
      </trkpt>
      <trkpt lat="44.23151" lon="6.207">
        <ele>1430</ele>
        <time>2022-01-01T13:04:16Z</time>
      </trkpt>
      <trkpt lat="44.23149" lon="6.20704">
        <ele>1429.6</ele>
        <time>2022-01-01T13:04:19Z</time>
      </trkpt>
      <trkpt lat="44.23146" lon="6.20708">
        <ele>1429.2</ele>
        <time>2022-01-01T13:04:23Z</time>
      </trkpt>
      <trkpt lat="44.23145" lon="6.20708">
        <ele>1429</ele>
        <time>2022-01-01T13:04:24Z</time>
      </trkpt>
      <trkpt lat="44.23144" lon="6.2071">
        <ele>1429</ele>
        <time>2022-01-01T13:04:25Z</time>
      </trkpt>
      <trkpt lat="44.23144" lon="6.20714">
        <ele>1428.4</ele>
        <time>2022-01-01T13:04:28Z</time>
      </trkpt>
      <trkpt lat="44.23144" lon="6.20715">
        <ele>1428.2</ele>
        <time>2022-01-01T13:04:29Z</time>
      </trkpt>
      <trkpt lat="44.23143" lon="6.20717">
        <ele>1428</ele>
        <time>2022-01-01T13:04:30Z</time>
      </trkpt>
      <trkpt lat="44.23143" lon="6.20718">
        <ele>1427.8</ele>
        <time>2022-01-01T13:04:31Z</time>
      </trkpt>
      <trkpt lat="44.23139" lon="6.20722">
        <ele>1427.4</ele>
        <time>2022-01-01T13:04:35Z</time>
      </trkpt>
      <trkpt lat="44.23138" lon="6.20723">
        <ele>1427.2</ele>
        <time>2022-01-01T13:04:36Z</time>
      </trkpt>
      <trkpt lat="44.23137" lon="6.20724">
        <ele>1427.2</ele>
        <time>2022-01-01T13:04:37Z</time>
      </trkpt>
      <trkpt lat="44.23131" lon="6.20727">
        <ele>1426.4</ele>
        <time>2022-01-01T13:04:42Z</time>
      </trkpt>
      <trkpt lat="44.2313" lon="6.20731">
        <ele>1426.2</ele>
        <time>2022-01-01T13:04:44Z</time>
      </trkpt>
      <trkpt lat="44.23129" lon="6.20734">
        <ele>1425.6</ele>
        <time>2022-01-01T13:04:46Z</time>
      </trkpt>
      <trkpt lat="44.23129" lon="6.20737">
        <ele>1425</ele>
        <time>2022-01-01T13:04:48Z</time>
      </trkpt>
      <trkpt lat="44.23129" lon="6.20738">
        <ele>1425</ele>
        <time>2022-01-01T13:04:49Z</time>
      </trkpt>
      <trkpt lat="44.23127" lon="6.20741">
        <ele>1424.2</ele>
        <time>2022-01-01T13:04:54Z</time>
      </trkpt>
      <trkpt lat="44.23127" lon="6.20741">
        <ele>1424</ele>
        <time>2022-01-01T13:04:55Z</time>
      </trkpt>
      <trkpt lat="44.23126" lon="6.20742">
        <ele>1423.8</ele>
        <time>2022-01-01T13:04:56Z</time>
      </trkpt>
      <trkpt lat="44.23125" lon="6.20744">
        <ele>1423.6</ele>
        <time>2022-01-01T13:04:58Z</time>
      </trkpt>
      <trkpt lat="44.23123" lon="6.20746">
        <ele>1423</ele>
        <time>2022-01-01T13:05:01Z</time>
      </trkpt>
      <trkpt lat="44.23123" lon="6.20747">
        <ele>1423</ele>
        <time>2022-01-01T13:05:02Z</time>
      </trkpt>
      <trkpt lat="44.23121" lon="6.2075">
        <ele>1422.4</ele>
        <time>2022-01-01T13:05:05Z</time>
      </trkpt>
      <trkpt lat="44.2312" lon="6.2075">
        <ele>1422</ele>
        <time>2022-01-01T13:05:06Z</time>
      </trkpt>
      <trkpt lat="44.23119" lon="6.20751">
        <ele>1421.8</ele>
        <time>2022-01-01T13:05:07Z</time>
      </trkpt>
      <trkpt lat="44.23118" lon="6.20752">
        <ele>1421.4</ele>
        <time>2022-01-01T13:05:09Z</time>
      </trkpt>
      <trkpt lat="44.23116" lon="6.20756">
        <ele>1420.8</ele>
        <time>2022-01-01T13:05:12Z</time>
      </trkpt>
      <trkpt lat="44.23115" lon="6.20757">
        <ele>1420.4</ele>
        <time>2022-01-01T13:05:13Z</time>
      </trkpt>
      <trkpt lat="44.23115" lon="6.20761">
        <ele>1419.6</ele>
        <time>2022-01-01T13:05:16Z</time>
      </trkpt>
      <trkpt lat="44.23115" lon="6.20762">
        <ele>1419.4</ele>
        <time>2022-01-01T13:05:17Z</time>
      </trkpt>
      <trkpt lat="44.23114" lon="6.20765">
        <ele>1419.2</ele>
        <time>2022-01-01T13:05:19Z</time>
      </trkpt>
      <trkpt lat="44.23115" lon="6.20768">
        <ele>1418.4</ele>
        <time>2022-01-01T13:05:22Z</time>
      </trkpt>
      <trkpt lat="44.23116" lon="6.20772">
        <ele>1418</ele>
        <time>2022-01-01T13:05:25Z</time>
      </trkpt>
      <trkpt lat="44.23116" lon="6.20774">
        <ele>1417.8</ele>
        <time>2022-01-01T13:05:26Z</time>
      </trkpt>
      <trkpt lat="44.23116" lon="6.20776">
        <ele>1417.6</ele>
        <time>2022-01-01T13:05:28Z</time>
      </trkpt>
      <trkpt lat="44.23116" lon="6.20777">
        <ele>1417.2</ele>
        <time>2022-01-01T13:05:29Z</time>
      </trkpt>
      <trkpt lat="44.23116" lon="6.20777">
        <ele>1417</ele>
        <time>2022-01-01T13:05:30Z</time>
      </trkpt>
      <trkpt lat="44.23115" lon="6.2078">
        <ele>1416.2</ele>
        <time>2022-01-01T13:05:33Z</time>
      </trkpt>
      <trkpt lat="44.23116" lon="6.20783">
        <ele>1415.6</ele>
        <time>2022-01-01T13:05:36Z</time>
      </trkpt>
      <trkpt lat="44.23116" lon="6.20787">
        <ele>1415</ele>
        <time>2022-01-01T13:05:39Z</time>
      </trkpt>
      <trkpt lat="44.23118" lon="6.20792">
        <ele>1413.8</ele>
        <time>2022-01-01T13:05:43Z</time>
      </trkpt>
      <trkpt lat="44.23118" lon="6.20794">
        <ele>1413.4</ele>
        <time>2022-01-01T13:05:45Z</time>
      </trkpt>
      <trkpt lat="44.23119" lon="6.20795">
        <ele>1413.2</ele>
        <time>2022-01-01T13:05:46Z</time>
      </trkpt>
      <trkpt lat="44.2312" lon="6.20797">
        <ele>1412.8</ele>
        <time>2022-01-01T13:05:48Z</time>
      </trkpt>
      <trkpt lat="44.2312" lon="6.20799">
        <ele>1412.2</ele>
        <time>2022-01-01T13:05:50Z</time>
      </trkpt>
      <trkpt lat="44.2312" lon="6.20801">
        <ele>1411.8</ele>
        <time>2022-01-01T13:05:52Z</time>
      </trkpt>
      <trkpt lat="44.23119" lon="6.20803">
        <ele>1411.4</ele>
        <time>2022-01-01T13:05:54Z</time>
      </trkpt>
      <trkpt lat="44.23119" lon="6.20806">
        <ele>1411</ele>
        <time>2022-01-01T13:05:56Z</time>
      </trkpt>
      <trkpt lat="44.23119" lon="6.20807">
        <ele>1410.8</ele>
        <time>2022-01-01T13:05:57Z</time>
      </trkpt>
      <trkpt lat="44.23118" lon="6.20811">
        <ele>1410</ele>
        <time>2022-01-01T13:06:00Z</time>
      </trkpt>
      <trkpt lat="44.23117" lon="6.20813">
        <ele>1409.6</ele>
        <time>2022-01-01T13:06:03Z</time>
      </trkpt>
      <trkpt lat="44.23116" lon="6.20816">
        <ele>1408.4</ele>
        <time>2022-01-01T13:06:06Z</time>
      </trkpt>
      <trkpt lat="44.23116" lon="6.20821">
        <ele>1407.2</ele>
        <time>2022-01-01T13:06:09Z</time>
      </trkpt>
      <trkpt lat="44.23116" lon="6.20822">
        <ele>1407</ele>
        <time>2022-01-01T13:06:10Z</time>
      </trkpt>
      <trkpt lat="44.23116" lon="6.20823">
        <ele>1406.6</ele>
        <time>2022-01-01T13:06:11Z</time>
      </trkpt>
      <trkpt lat="44.23115" lon="6.20826">
        <ele>1406.2</ele>
        <time>2022-01-01T13:06:14Z</time>
      </trkpt>
      <trkpt lat="44.23115" lon="6.20828">
        <ele>1406</ele>
        <time>2022-01-01T13:06:15Z</time>
      </trkpt>
      <trkpt lat="44.23114" lon="6.2083">
        <ele>1406</ele>
        <time>2022-01-01T13:06:16Z</time>
      </trkpt>
      <trkpt lat="44.23114" lon="6.20831">
        <ele>1405.8</ele>
        <time>2022-01-01T13:06:17Z</time>
      </trkpt>
      <trkpt lat="44.23113" lon="6.20833">
        <ele>1405.2</ele>
        <time>2022-01-01T13:06:19Z</time>
      </trkpt>
      <trkpt lat="44.23113" lon="6.20833">
        <ele>1405</ele>
        <time>2022-01-01T13:06:20Z</time>
      </trkpt>
      <trkpt lat="44.23109" lon="6.20836">
        <ele>1404</ele>
        <time>2022-01-01T13:06:24Z</time>
      </trkpt>
      <trkpt lat="44.23108" lon="6.20837">
        <ele>1403.6</ele>
        <time>2022-01-01T13:06:26Z</time>
      </trkpt>
      <trkpt lat="44.23106" lon="6.2084">
        <ele>1403</ele>
        <time>2022-01-01T13:06:29Z</time>
      </trkpt>
      <trkpt lat="44.23102" lon="6.20842">
        <ele>1401.8</ele>
        <time>2022-01-01T13:06:34Z</time>
      </trkpt>
      <trkpt lat="44.23102" lon="6.20842">
        <ele>1401.6</ele>
        <time>2022-01-01T13:06:35Z</time>
      </trkpt>
      <trkpt lat="44.23101" lon="6.20842">
        <ele>1401.4</ele>
        <time>2022-01-01T13:06:36Z</time>
      </trkpt>
      <trkpt lat="44.231" lon="6.20843">
        <ele>1401</ele>
        <time>2022-01-01T13:06:38Z</time>
      </trkpt>
      <trkpt lat="44.23099" lon="6.20843">
        <ele>1400.6</ele>
        <time>2022-01-01T13:06:39Z</time>
      </trkpt>
      <trkpt lat="44.23096" lon="6.20844">
        <ele>1400</ele>
        <time>2022-01-01T13:06:41Z</time>
      </trkpt>
      <trkpt lat="44.23094" lon="6.20844">
        <ele>1399.4</ele>
        <time>2022-01-01T13:06:43Z</time>
      </trkpt>
      <trkpt lat="44.23092" lon="6.20845">
        <ele>1398.6</ele>
        <time>2022-01-01T13:06:46Z</time>
      </trkpt>
      <trkpt lat="44.23092" lon="6.20846">
        <ele>1398.2</ele>
        <time>2022-01-01T13:06:48Z</time>
      </trkpt>
      <trkpt lat="44.23094" lon="6.2085">
        <ele>1397.2</ele>
        <time>2022-01-01T13:06:53Z</time>
      </trkpt>
      <trkpt lat="44.23095" lon="6.20851">
        <ele>1397</ele>
        <time>2022-01-01T13:06:54Z</time>
      </trkpt>
      <trkpt lat="44.23095" lon="6.20852">
        <ele>1396.6</ele>
        <time>2022-01-01T13:06:56Z</time>
      </trkpt>
      <trkpt lat="44.23095" lon="6.20854">
        <ele>1396.4</ele>
        <time>2022-01-01T13:06:58Z</time>
      </trkpt>
      <trkpt lat="44.23095" lon="6.20856">
        <ele>1396</ele>
        <time>2022-01-01T13:07:00Z</time>
      </trkpt>
      <trkpt lat="44.23092" lon="6.20858">
        <ele>1394.6</ele>
        <time>2022-01-01T13:07:05Z</time>
      </trkpt>
      <trkpt lat="44.23091" lon="6.20858">
        <ele>1394.4</ele>
        <time>2022-01-01T13:07:06Z</time>
      </trkpt>
      <trkpt lat="44.23089" lon="6.20856">
        <ele>1393.6</ele>
        <time>2022-01-01T13:07:11Z</time>
      </trkpt>
      <trkpt lat="44.23085" lon="6.20856">
        <ele>1392.4</ele>
        <time>2022-01-01T13:07:16Z</time>
      </trkpt>
      <trkpt lat="44.2308" lon="6.20855">
        <ele>1391.6</ele>
        <time>2022-01-01T13:07:26Z</time>
      </trkpt>
      <trkpt lat="44.23078" lon="6.20855">
        <ele>1391.2</ele>
        <time>2022-01-01T13:07:28Z</time>
      </trkpt>
      <trkpt lat="44.23076" lon="6.20853">
        <ele>1390</ele>
        <time>2022-01-01T13:07:32Z</time>
      </trkpt>
      <trkpt lat="44.23073" lon="6.2085">
        <ele>1389.2</ele>
        <time>2022-01-01T13:07:36Z</time>
      </trkpt>
      <trkpt lat="44.23073" lon="6.2085">
        <ele>1389</ele>
        <time>2022-01-01T13:07:37Z</time>
      </trkpt>
      <trkpt lat="44.23072" lon="6.20843">
        <ele>1387.8</ele>
        <time>2022-01-01T13:07:44Z</time>
      </trkpt>
      <trkpt lat="44.23072" lon="6.20841">
        <ele>1387.6</ele>
        <time>2022-01-01T13:07:46Z</time>
      </trkpt>
      <trkpt lat="44.23066" lon="6.20837">
        <ele>1386.8</ele>
        <time>2022-01-01T13:07:50Z</time>
      </trkpt>
      <trkpt lat="44.23066" lon="6.20837">
        <ele>1386.6</ele>
        <time>2022-01-01T13:07:51Z</time>
      </trkpt>
      <trkpt lat="44.23061" lon="6.20836">
        <ele>1386</ele>
        <time>2022-01-01T13:07:56Z</time>
      </trkpt>
      <trkpt lat="44.2306" lon="6.20837">
        <ele>1385.8</ele>
        <time>2022-01-01T13:07:57Z</time>
      </trkpt>
      <trkpt lat="44.23055" lon="6.2084">
        <ele>1384.6</ele>
        <time>2022-01-01T13:08:03Z</time>
      </trkpt>
      <trkpt lat="44.23052" lon="6.20843">
        <ele>1383.8</ele>
        <time>2022-01-01T13:08:06Z</time>
      </trkpt>
      <trkpt lat="44.23051" lon="6.20844">
        <ele>1383.6</ele>
        <time>2022-01-01T13:08:07Z</time>
      </trkpt>
      <trkpt lat="44.23048" lon="6.20851">
        <ele>1382.2</ele>
        <time>2022-01-01T13:08:12Z</time>
      </trkpt>
      <trkpt lat="44.23045" lon="6.20853">
        <ele>1381.2</ele>
        <time>2022-01-01T13:08:15Z</time>
      </trkpt>
      <trkpt lat="44.23043" lon="6.20854">
        <ele>1381</ele>
        <time>2022-01-01T13:08:16Z</time>
      </trkpt>
      <trkpt lat="44.23041" lon="6.20858">
        <ele>1380.2</ele>
        <time>2022-01-01T13:08:19Z</time>
      </trkpt>
      <trkpt lat="44.23036" lon="6.20864">
        <ele>1379</ele>
        <time>2022-01-01T13:08:24Z</time>
      </trkpt>
      <trkpt lat="44.23033" lon="6.20865">
        <ele>1378.6</ele>
        <time>2022-01-01T13:08:26Z</time>
      </trkpt>
      <trkpt lat="44.23028" lon="6.2087">
        <ele>1378</ele>
        <time>2022-01-01T13:08:30Z</time>
      </trkpt>
      <trkpt lat="44.23021" lon="6.20877">
        <ele>1376.8</ele>
        <time>2022-01-01T13:08:35Z</time>
      </trkpt>
      <trkpt lat="44.2302" lon="6.20879">
        <ele>1376.8</ele>
        <time>2022-01-01T13:08:36Z</time>
      </trkpt>
      <trkpt lat="44.23014" lon="6.20884">
        <ele>1376.2</ele>
        <time>2022-01-01T13:08:40Z</time>
      </trkpt>
      <trkpt lat="44.23011" lon="6.20885">
        <ele>1375.6</ele>
        <time>2022-01-01T13:08:42Z</time>
      </trkpt>
      <trkpt lat="44.23007" lon="6.20888">
        <ele>1374.8</ele>
        <time>2022-01-01T13:08:45Z</time>
      </trkpt>
      <trkpt lat="44.23004" lon="6.20889">
        <ele>1374.4</ele>
        <time>2022-01-01T13:08:47Z</time>
      </trkpt>
      <trkpt lat="44.23" lon="6.20891">
        <ele>1374.2</ele>
        <time>2022-01-01T13:08:50Z</time>
      </trkpt>
      <trkpt lat="44.22991" lon="6.20897">
        <ele>1373.4</ele>
        <time>2022-01-01T13:08:56Z</time>
      </trkpt>
      <trkpt lat="44.22986" lon="6.209">
        <ele>1372.4</ele>
        <time>2022-01-01T13:09:00Z</time>
      </trkpt>
      <trkpt lat="44.22985" lon="6.20902">
        <ele>1372.2</ele>
        <time>2022-01-01T13:09:01Z</time>
      </trkpt>
      <trkpt lat="44.22981" lon="6.20908">
        <ele>1371</ele>
        <time>2022-01-01T13:09:06Z</time>
      </trkpt>
      <trkpt lat="44.22975" lon="6.20914">
        <ele>1370.2</ele>
        <time>2022-01-01T13:09:10Z</time>
      </trkpt>
      <trkpt lat="44.22972" lon="6.20917">
        <ele>1369.8</ele>
        <time>2022-01-01T13:09:12Z</time>
      </trkpt>
      <trkpt lat="44.22968" lon="6.2092">
        <ele>1368.8</ele>
        <time>2022-01-01T13:09:15Z</time>
      </trkpt>
      <trkpt lat="44.22961" lon="6.20922">
        <ele>1367.6</ele>
        <time>2022-01-01T13:09:20Z</time>
      </trkpt>
      <trkpt lat="44.22956" lon="6.20926">
        <ele>1366.4</ele>
        <time>2022-01-01T13:09:24Z</time>
      </trkpt>
      <trkpt lat="44.22951" lon="6.20929">
        <ele>1365.4</ele>
        <time>2022-01-01T13:09:28Z</time>
      </trkpt>
      <trkpt lat="44.22949" lon="6.20929">
        <ele>1365</ele>
        <time>2022-01-01T13:09:30Z</time>
      </trkpt>
      <trkpt lat="44.22946" lon="6.2093">
        <ele>1364.4</ele>
        <time>2022-01-01T13:09:32Z</time>
      </trkpt>
      <trkpt lat="44.22941" lon="6.20932">
        <ele>1363.2</ele>
        <time>2022-01-01T13:09:36Z</time>
      </trkpt>
      <trkpt lat="44.22937" lon="6.20936">
        <ele>1362.2</ele>
        <time>2022-01-01T13:09:40Z</time>
      </trkpt>
      <trkpt lat="44.22936" lon="6.20936">
        <ele>1362</ele>
        <time>2022-01-01T13:09:41Z</time>
      </trkpt>
      <trkpt lat="44.22935" lon="6.2094">
        <ele>1361.6</ele>
        <time>2022-01-01T13:09:44Z</time>
      </trkpt>
      <trkpt lat="44.22933" lon="6.20943">
        <ele>1361.2</ele>
        <time>2022-01-01T13:09:46Z</time>
      </trkpt>
      <trkpt lat="44.22933" lon="6.20945">
        <ele>1361</ele>
        <time>2022-01-01T13:09:47Z</time>
      </trkpt>
      <trkpt lat="44.22932" lon="6.20946">
        <ele>1360.8</ele>
        <time>2022-01-01T13:09:48Z</time>
      </trkpt>
      <trkpt lat="44.22929" lon="6.20948">
        <ele>1360.6</ele>
        <time>2022-01-01T13:09:50Z</time>
      </trkpt>
      <trkpt lat="44.22926" lon="6.20951">
        <ele>1359.8</ele>
        <time>2022-01-01T13:09:53Z</time>
      </trkpt>
      <trkpt lat="44.22925" lon="6.20952">
        <ele>1359.6</ele>
        <time>2022-01-01T13:09:54Z</time>
      </trkpt>
      <trkpt lat="44.22922" lon="6.20955">
        <ele>1359</ele>
        <time>2022-01-01T13:09:56Z</time>
      </trkpt>
      <trkpt lat="44.2292" lon="6.20955">
        <ele>1358.8</ele>
        <time>2022-01-01T13:09:57Z</time>
      </trkpt>
      <trkpt lat="44.22917" lon="6.20956">
        <ele>1358.4</ele>
        <time>2022-01-01T13:09:59Z</time>
      </trkpt>
      <trkpt lat="44.22916" lon="6.20957">
        <ele>1358.2</ele>
        <time>2022-01-01T13:10:00Z</time>
      </trkpt>
      <trkpt lat="44.22911" lon="6.20956">
        <ele>1357.6</ele>
        <time>2022-01-01T13:10:04Z</time>
      </trkpt>
      <trkpt lat="44.22907" lon="6.20955">
        <ele>1357</ele>
        <time>2022-01-01T13:10:07Z</time>
      </trkpt>
      <trkpt lat="44.22905" lon="6.20956">
        <ele>1356.6</ele>
        <time>2022-01-01T13:10:09Z</time>
      </trkpt>
      <trkpt lat="44.22904" lon="6.20957">
        <ele>1356.2</ele>
        <time>2022-01-01T13:10:10Z</time>
      </trkpt>
      <trkpt lat="44.22902" lon="6.20956">
        <ele>1356</ele>
        <time>2022-01-01T13:10:11Z</time>
      </trkpt>
      <trkpt lat="44.229" lon="6.20956">
        <ele>1355.4</ele>
        <time>2022-01-01T13:10:13Z</time>
      </trkpt>
      <trkpt lat="44.22895" lon="6.20956">
        <ele>1354.4</ele>
        <time>2022-01-01T13:10:17Z</time>
      </trkpt>
      <trkpt lat="44.22893" lon="6.20956">
        <ele>1354.2</ele>
        <time>2022-01-01T13:10:18Z</time>
      </trkpt>
      <trkpt lat="44.22892" lon="6.20956">
        <ele>1354</ele>
        <time>2022-01-01T13:10:19Z</time>
      </trkpt>
      <trkpt lat="44.22891" lon="6.20956">
        <ele>1353.8</ele>
        <time>2022-01-01T13:10:20Z</time>
      </trkpt>
      <trkpt lat="44.22889" lon="6.20958">
        <ele>1353.2</ele>
        <time>2022-01-01T13:10:23Z</time>
      </trkpt>
      <trkpt lat="44.22887" lon="6.20959">
        <ele>1353</ele>
        <time>2022-01-01T13:10:24Z</time>
      </trkpt>
      <trkpt lat="44.2288" lon="6.20961">
        <ele>1352</ele>
        <time>2022-01-01T13:10:30Z</time>
      </trkpt>
      <trkpt lat="44.22877" lon="6.20961">
        <ele>1351.8</ele>
        <time>2022-01-01T13:10:32Z</time>
      </trkpt>
      <trkpt lat="44.22871" lon="6.20961">
        <ele>1351</ele>
        <time>2022-01-01T13:10:36Z</time>
      </trkpt>
      <trkpt lat="44.2287" lon="6.20961">
        <ele>1350.8</ele>
        <time>2022-01-01T13:10:37Z</time>
      </trkpt>
      <trkpt lat="44.22865" lon="6.20962">
        <ele>1350.2</ele>
        <time>2022-01-01T13:10:40Z</time>
      </trkpt>
      <trkpt lat="44.22864" lon="6.20962">
        <ele>1350</ele>
        <time>2022-01-01T13:10:41Z</time>
      </trkpt>
      <trkpt lat="44.22856" lon="6.2096">
        <ele>1349.2</ele>
        <time>2022-01-01T13:10:47Z</time>
      </trkpt>
      <trkpt lat="44.22854" lon="6.20961">
        <ele>1348.8</ele>
        <time>2022-01-01T13:10:49Z</time>
      </trkpt>
      <trkpt lat="44.22852" lon="6.20962">
        <ele>1348.6</ele>
        <time>2022-01-01T13:10:50Z</time>
      </trkpt>
      <trkpt lat="44.22849" lon="6.20964">
        <ele>1348.2</ele>
        <time>2022-01-01T13:10:53Z</time>
      </trkpt>
      <trkpt lat="44.22848" lon="6.20965">
        <ele>1347.8</ele>
        <time>2022-01-01T13:10:55Z</time>
      </trkpt>
      <trkpt lat="44.22847" lon="6.20965">
        <ele>1347.6</ele>
        <time>2022-01-01T13:10:56Z</time>
      </trkpt>
      <trkpt lat="44.22842" lon="6.20964">
        <ele>1347.2</ele>
        <time>2022-01-01T13:11:00Z</time>
      </trkpt>
      <trkpt lat="44.22836" lon="6.20962">
        <ele>1346.6</ele>
        <time>2022-01-01T13:11:04Z</time>
      </trkpt>
      <trkpt lat="44.22835" lon="6.20961">
        <ele>1346.6</ele>
        <time>2022-01-01T13:11:05Z</time>
      </trkpt>
      <trkpt lat="44.2283" lon="6.20956">
        <ele>1346.4</ele>
        <time>2022-01-01T13:11:10Z</time>
      </trkpt>
      <trkpt lat="44.22826" lon="6.20953">
        <ele>1346.2</ele>
        <time>2022-01-01T13:11:13Z</time>
      </trkpt>
      <trkpt lat="44.2282" lon="6.20951">
        <ele>1345.6</ele>
        <time>2022-01-01T13:11:18Z</time>
      </trkpt>
      <trkpt lat="44.22819" lon="6.2095">
        <ele>1345.4</ele>
        <time>2022-01-01T13:11:19Z</time>
      </trkpt>
      <trkpt lat="44.22818" lon="6.2095">
        <ele>1345</ele>
        <time>2022-01-01T13:11:20Z</time>
      </trkpt>
      <trkpt lat="44.22809" lon="6.20945">
        <ele>1344.4</ele>
        <time>2022-01-01T13:11:30Z</time>
      </trkpt>
      <trkpt lat="44.22808" lon="6.20944">
        <ele>1344.4</ele>
        <time>2022-01-01T13:11:31Z</time>
      </trkpt>
      <trkpt lat="44.22804" lon="6.20945">
        <ele>1344.6</ele>
        <time>2022-01-01T13:11:35Z</time>
      </trkpt>
      <trkpt lat="44.22799" lon="6.20948">
        <ele>1344.8</ele>
        <time>2022-01-01T13:11:40Z</time>
      </trkpt>
      <trkpt lat="44.22797" lon="6.20949">
        <ele>1344.8</ele>
        <time>2022-01-01T13:11:42Z</time>
      </trkpt>
      <trkpt lat="44.2279" lon="6.20953">
        <ele>1344.2</ele>
        <time>2022-01-01T13:11:47Z</time>
      </trkpt>
      <trkpt lat="44.22787" lon="6.20955">
        <ele>1344</ele>
        <time>2022-01-01T13:11:50Z</time>
      </trkpt>
      <trkpt lat="44.2278" lon="6.20959">
        <ele>1343.8</ele>
        <time>2022-01-01T13:11:55Z</time>
      </trkpt>
      <trkpt lat="44.22775" lon="6.20965">
        <ele>1343.6</ele>
        <time>2022-01-01T13:12:00Z</time>
      </trkpt>
      <trkpt lat="44.22774" lon="6.20967">
        <ele>1343.4</ele>
        <time>2022-01-01T13:12:02Z</time>
      </trkpt>
      <trkpt lat="44.22771" lon="6.20971">
        <ele>1343.2</ele>
        <time>2022-01-01T13:12:05Z</time>
      </trkpt>
      <trkpt lat="44.22766" lon="6.20976">
        <ele>1342.8</ele>
        <time>2022-01-01T13:12:10Z</time>
      </trkpt>
      <trkpt lat="44.22766" lon="6.20976">
        <ele>1342.8</ele>
        <time>2022-01-01T13:12:11Z</time>
      </trkpt>
      <trkpt lat="44.22759" lon="6.2098">
        <ele>1342.6</ele>
        <time>2022-01-01T13:12:15Z</time>
      </trkpt>
      <trkpt lat="44.22752" lon="6.20985">
        <ele>1342.4</ele>
        <time>2022-01-01T13:12:20Z</time>
      </trkpt>
      <trkpt lat="44.22751" lon="6.20986">
        <ele>1342.2</ele>
        <time>2022-01-01T13:12:21Z</time>
      </trkpt>
      <trkpt lat="44.22747" lon="6.2099">
        <ele>1341.2</ele>
        <time>2022-01-01T13:12:25Z</time>
      </trkpt>
      <trkpt lat="44.22741" lon="6.20992">
        <ele>1340.6</ele>
        <time>2022-01-01T13:12:30Z</time>
      </trkpt>
      <trkpt lat="44.22733" lon="6.20995">
        <ele>1340</ele>
        <time>2022-01-01T13:12:36Z</time>
      </trkpt>
      <trkpt lat="44.22726" lon="6.20997">
        <ele>1339.8</ele>
        <time>2022-01-01T13:12:40Z</time>
      </trkpt>
      <trkpt lat="44.22716" lon="6.21003">
        <ele>1339.2</ele>
        <time>2022-01-01T13:12:47Z</time>
      </trkpt>
      <trkpt lat="44.22713" lon="6.21006">
        <ele>1339.2</ele>
        <time>2022-01-01T13:12:50Z</time>
      </trkpt>
      <trkpt lat="44.22712" lon="6.21007">
        <ele>1339</ele>
        <time>2022-01-01T13:12:51Z</time>
      </trkpt>
      <trkpt lat="44.22711" lon="6.21008">
        <ele>1338.8</ele>
        <time>2022-01-01T13:12:52Z</time>
      </trkpt>
      <trkpt lat="44.22708" lon="6.21016">
        <ele>1337.8</ele>
        <time>2022-01-01T13:12:56Z</time>
      </trkpt>
      <trkpt lat="44.22706" lon="6.2102">
        <ele>1336.4</ele>
        <time>2022-01-01T13:12:59Z</time>
      </trkpt>
      <trkpt lat="44.22706" lon="6.21021">
        <ele>1336.2</ele>
        <time>2022-01-01T13:13:00Z</time>
      </trkpt>
      <trkpt lat="44.22704" lon="6.21027">
        <ele>1335.4</ele>
        <time>2022-01-01T13:13:04Z</time>
      </trkpt>
      <trkpt lat="44.22703" lon="6.21028">
        <ele>1335.4</ele>
        <time>2022-01-01T13:13:06Z</time>
      </trkpt>
      <trkpt lat="44.22701" lon="6.21033">
        <ele>1334.2</ele>
        <time>2022-01-01T13:13:10Z</time>
      </trkpt>
      <trkpt lat="44.22697" lon="6.21037">
        <ele>1333.2</ele>
        <time>2022-01-01T13:13:15Z</time>
      </trkpt>
      <trkpt lat="44.22694" lon="6.21041">
        <ele>1332</ele>
        <time>2022-01-01T13:13:20Z</time>
      </trkpt>
      <trkpt lat="44.22694" lon="6.21041">
        <ele>1331.8</ele>
        <time>2022-01-01T13:13:21Z</time>
      </trkpt>
      <trkpt lat="44.22693" lon="6.2104">
        <ele>1331</ele>
        <time>2022-01-01T13:13:25Z</time>
      </trkpt>
      <trkpt lat="44.22693" lon="6.21039">
        <ele>1331</ele>
        <time>2022-01-01T13:13:26Z</time>
      </trkpt>
      <trkpt lat="44.2269" lon="6.21039">
        <ele>1330.4</ele>
        <time>2022-01-01T13:13:30Z</time>
      </trkpt>
      <trkpt lat="44.22688" lon="6.21039">
        <ele>1329.6</ele>
        <time>2022-01-01T13:13:33Z</time>
      </trkpt>
      <trkpt lat="44.22686" lon="6.21041">
        <ele>1328.6</ele>
        <time>2022-01-01T13:13:36Z</time>
      </trkpt>
      <trkpt lat="44.22685" lon="6.21043">
        <ele>1328.2</ele>
        <time>2022-01-01T13:13:38Z</time>
      </trkpt>
      <trkpt lat="44.22685" lon="6.21044">
        <ele>1328</ele>
        <time>2022-01-01T13:13:40Z</time>
      </trkpt>
      <trkpt lat="44.22686" lon="6.21048">
        <ele>1327.8</ele>
        <time>2022-01-01T13:13:50Z</time>
      </trkpt>
      <trkpt lat="44.22684" lon="6.21052">
        <ele>1328.2</ele>
        <time>2022-01-01T13:14:00Z</time>
      </trkpt>
      <trkpt lat="44.22682" lon="6.21054">
        <ele>1328.2</ele>
        <time>2022-01-01T13:14:03Z</time>
      </trkpt>
      <trkpt lat="44.2268" lon="6.21053">
        <ele>1327.6</ele>
        <time>2022-01-01T13:14:08Z</time>
      </trkpt>
      <trkpt lat="44.2268" lon="6.21053">
        <ele>1327.4</ele>
        <time>2022-01-01T13:14:09Z</time>
      </trkpt>
      <trkpt lat="44.22679" lon="6.21052">
        <ele>1327.4</ele>
        <time>2022-01-01T13:14:10Z</time>
      </trkpt>
      <trkpt lat="44.22679" lon="6.21052">
        <ele>1327.4</ele>
        <time>2022-01-01T13:14:14Z</time>
      </trkpt>
      <trkpt lat="44.22677" lon="6.21054">
        <ele>1327.6</ele>
        <time>2022-01-01T13:14:20Z</time>
      </trkpt>
      <trkpt lat="44.22676" lon="6.21056">
        <ele>1328.6</ele>
        <time>2022-01-01T13:14:26Z</time>
      </trkpt>
      <trkpt lat="44.22672" lon="6.21057">
        <ele>1328.6</ele>
        <time>2022-01-01T13:14:30Z</time>
      </trkpt>
      <trkpt lat="44.22668" lon="6.21055">
        <ele>1328.4</ele>
        <time>2022-01-01T13:14:34Z</time>
      </trkpt>
      <trkpt lat="44.2266" lon="6.21054">
        <ele>1328.6</ele>
        <time>2022-01-01T13:14:40Z</time>
      </trkpt>
      <trkpt lat="44.22654" lon="6.21053">
        <ele>1328.6</ele>
        <time>2022-01-01T13:14:44Z</time>
      </trkpt>
      <trkpt lat="44.2265" lon="6.21052">
        <ele>1328.6</ele>
        <time>2022-01-01T13:14:47Z</time>
      </trkpt>
      <trkpt lat="44.22647" lon="6.21052">
        <ele>1328.6</ele>
        <time>2022-01-01T13:14:50Z</time>
      </trkpt>
      <trkpt lat="44.22646" lon="6.21051">
        <ele>1328.6</ele>
        <time>2022-01-01T13:14:51Z</time>
      </trkpt>
      <trkpt lat="44.22644" lon="6.21049">
        <ele>1328.2</ele>
        <time>2022-01-01T13:14:54Z</time>
      </trkpt>
      <trkpt lat="44.22642" lon="6.21048">
        <ele>1327.4</ele>
        <time>2022-01-01T13:14:56Z</time>
      </trkpt>
      <trkpt lat="44.22639" lon="6.21047">
        <ele>1326.4</ele>
        <time>2022-01-01T13:15:00Z</time>
      </trkpt>
      <trkpt lat="44.22635" lon="6.2105">
        <ele>1326.2</ele>
        <time>2022-01-01T13:15:05Z</time>
      </trkpt>
      <trkpt lat="44.22631" lon="6.2105">
        <ele>1326.2</ele>
        <time>2022-01-01T13:15:08Z</time>
      </trkpt>
      <trkpt lat="44.2263" lon="6.21052">
        <ele>1326</ele>
        <time>2022-01-01T13:15:10Z</time>
      </trkpt>
      <trkpt lat="44.22629" lon="6.21053">
        <ele>1326</ele>
        <time>2022-01-01T13:15:11Z</time>
      </trkpt>
      <trkpt lat="44.22627" lon="6.21054">
        <ele>1325.8</ele>
        <time>2022-01-01T13:15:13Z</time>
      </trkpt>
      <trkpt lat="44.22624" lon="6.21054">
        <ele>1325.2</ele>
        <time>2022-01-01T13:15:18Z</time>
      </trkpt>
      <trkpt lat="44.22623" lon="6.21053">
        <ele>1324.8</ele>
        <time>2022-01-01T13:15:19Z</time>
      </trkpt>
      <trkpt lat="44.22622" lon="6.21053">
        <ele>1324.4</ele>
        <time>2022-01-01T13:15:20Z</time>
      </trkpt>
      <trkpt lat="44.22621" lon="6.21053">
        <ele>1324.2</ele>
        <time>2022-01-01T13:15:21Z</time>
      </trkpt>
      <trkpt lat="44.22619" lon="6.21056">
        <ele>1323.4</ele>
        <time>2022-01-01T13:15:24Z</time>
      </trkpt>
      <trkpt lat="44.22618" lon="6.21056">
        <ele>1323</ele>
        <time>2022-01-01T13:15:25Z</time>
      </trkpt>
      <trkpt lat="44.22617" lon="6.21058">
        <ele>1322.8</ele>
        <time>2022-01-01T13:15:27Z</time>
      </trkpt>
      <trkpt lat="44.22616" lon="6.21058">
        <ele>1322.8</ele>
        <time>2022-01-01T13:15:29Z</time>
      </trkpt>
      <trkpt lat="44.22615" lon="6.21058">
        <ele>1322.6</ele>
        <time>2022-01-01T13:15:30Z</time>
      </trkpt>
      <trkpt lat="44.22611" lon="6.21057">
        <ele>1322</ele>
        <time>2022-01-01T13:15:36Z</time>
      </trkpt>
      <trkpt lat="44.22611" lon="6.21056">
        <ele>1322</ele>
        <time>2022-01-01T13:15:37Z</time>
      </trkpt>
      <trkpt lat="44.2261" lon="6.21056">
        <ele>1321.8</ele>
        <time>2022-01-01T13:15:39Z</time>
      </trkpt>
      <trkpt lat="44.22609" lon="6.21057">
        <ele>1321.8</ele>
        <time>2022-01-01T13:15:40Z</time>
      </trkpt>
      <trkpt lat="44.22607" lon="6.21057">
        <ele>1321.8</ele>
        <time>2022-01-01T13:15:43Z</time>
      </trkpt>
      <trkpt lat="44.226" lon="6.2106">
        <ele>1322.2</ele>
        <time>2022-01-01T13:15:50Z</time>
      </trkpt>
      <trkpt lat="44.22599" lon="6.21061">
        <ele>1322.2</ele>
        <time>2022-01-01T13:15:51Z</time>
      </trkpt>
      <trkpt lat="44.22596" lon="6.21064">
        <ele>1321.8</ele>
        <time>2022-01-01T13:15:56Z</time>
      </trkpt>
      <trkpt lat="44.22594" lon="6.21063">
        <ele>1321.6</ele>
        <time>2022-01-01T13:15:58Z</time>
      </trkpt>
      <trkpt lat="44.22592" lon="6.21064">
        <ele>1321.6</ele>
        <time>2022-01-01T13:16:00Z</time>
      </trkpt>
      <trkpt lat="44.22586" lon="6.21065">
        <ele>1321</ele>
        <time>2022-01-01T13:16:06Z</time>
      </trkpt>
      <trkpt lat="44.22584" lon="6.21066">
        <ele>1320.6</ele>
        <time>2022-01-01T13:16:08Z</time>
      </trkpt>
      <trkpt lat="44.22582" lon="6.21068">
        <ele>1320.4</ele>
        <time>2022-01-01T13:16:10Z</time>
      </trkpt>
      <trkpt lat="44.22579" lon="6.21071">
        <ele>1320</ele>
        <time>2022-01-01T13:16:13Z</time>
      </trkpt>
      <trkpt lat="44.22577" lon="6.21074">
        <ele>1319.6</ele>
        <time>2022-01-01T13:16:16Z</time>
      </trkpt>
      <trkpt lat="44.22576" lon="6.21075">
        <ele>1319.6</ele>
        <time>2022-01-01T13:16:17Z</time>
      </trkpt>
      <trkpt lat="44.22576" lon="6.21076">
        <ele>1319.4</ele>
        <time>2022-01-01T13:16:18Z</time>
      </trkpt>
      <trkpt lat="44.22576" lon="6.21077">
        <ele>1319.2</ele>
        <time>2022-01-01T13:16:20Z</time>
      </trkpt>
      <trkpt lat="44.22577" lon="6.21078">
        <ele>1319.2</ele>
        <time>2022-01-01T13:16:22Z</time>
      </trkpt>
      <trkpt lat="44.22576" lon="6.21079">
        <ele>1319.2</ele>
        <time>2022-01-01T13:16:23Z</time>
      </trkpt>
      <trkpt lat="44.22576" lon="6.21082">
        <ele>1319.2</ele>
        <time>2022-01-01T13:16:27Z</time>
      </trkpt>
      <trkpt lat="44.22573" lon="6.21086">
        <ele>1319.4</ele>
        <time>2022-01-01T13:16:37Z</time>
      </trkpt>
      <trkpt lat="44.2257" lon="6.21085">
        <ele>1319.6</ele>
        <time>2022-01-01T13:16:47Z</time>
      </trkpt>
      <trkpt lat="44.22569" lon="6.21088">
        <ele>1319.4</ele>
        <time>2022-01-01T13:16:52Z</time>
      </trkpt>
      <trkpt lat="44.22567" lon="6.21094">
        <ele>1319.8</ele>
        <time>2022-01-01T13:16:58Z</time>
      </trkpt>
      <trkpt lat="44.22563" lon="6.21095">
        <ele>1319.2</ele>
        <time>2022-01-01T13:17:03Z</time>
      </trkpt>
      <trkpt lat="44.22562" lon="6.21095">
        <ele>1318.8</ele>
        <time>2022-01-01T13:17:04Z</time>
      </trkpt>
      <trkpt lat="44.22561" lon="6.21095">
        <ele>1318.6</ele>
        <time>2022-01-01T13:17:05Z</time>
      </trkpt>
      <trkpt lat="44.22559" lon="6.21096">
        <ele>1317.8</ele>
        <time>2022-01-01T13:17:09Z</time>
      </trkpt>
      <trkpt lat="44.22557" lon="6.211">
        <ele>1317.6</ele>
        <time>2022-01-01T13:17:13Z</time>
      </trkpt>
      <trkpt lat="44.22554" lon="6.21104">
        <ele>1317.2</ele>
        <time>2022-01-01T13:17:17Z</time>
      </trkpt>
      <trkpt lat="44.22553" lon="6.21104">
        <ele>1316.8</ele>
        <time>2022-01-01T13:17:19Z</time>
      </trkpt>
      <trkpt lat="44.22551" lon="6.21107">
        <ele>1316.4</ele>
        <time>2022-01-01T13:17:23Z</time>
      </trkpt>
      <trkpt lat="44.2255" lon="6.21109">
        <ele>1316</ele>
        <time>2022-01-01T13:17:25Z</time>
      </trkpt>
      <trkpt lat="44.2255" lon="6.21111">
        <ele>1315.6</ele>
        <time>2022-01-01T13:17:26Z</time>
      </trkpt>
      <trkpt lat="44.22548" lon="6.21114">
        <ele>1314.8</ele>
        <time>2022-01-01T13:17:29Z</time>
      </trkpt>
      <trkpt lat="44.22547" lon="6.21117">
        <ele>1314.6</ele>
        <time>2022-01-01T13:17:31Z</time>
      </trkpt>
      <trkpt lat="44.22547" lon="6.21117">
        <ele>1314.6</ele>
        <time>2022-01-01T13:17:32Z</time>
      </trkpt>
      <trkpt lat="44.22547" lon="6.21118">
        <ele>1314.6</ele>
        <time>2022-01-01T13:17:33Z</time>
      </trkpt>
      <trkpt lat="44.22547" lon="6.2112">
        <ele>1314.4</ele>
        <time>2022-01-01T13:17:34Z</time>
      </trkpt>
      <trkpt lat="44.22546" lon="6.21122">
        <ele>1314.2</ele>
        <time>2022-01-01T13:17:36Z</time>
      </trkpt>
      <trkpt lat="44.22543" lon="6.21126">
        <ele>1314.2</ele>
        <time>2022-01-01T13:17:40Z</time>
      </trkpt>
      <trkpt lat="44.22541" lon="6.21129">
        <ele>1314.6</ele>
        <time>2022-01-01T13:17:43Z</time>
      </trkpt>
      <trkpt lat="44.22534" lon="6.21133">
        <ele>1315.2</ele>
        <time>2022-01-01T13:17:50Z</time>
      </trkpt>
      <trkpt lat="44.22532" lon="6.21135">
        <ele>1315</ele>
        <time>2022-01-01T13:17:52Z</time>
      </trkpt>
      <trkpt lat="44.22531" lon="6.21136">
        <ele>1314.8</ele>
        <time>2022-01-01T13:17:53Z</time>
      </trkpt>
      <trkpt lat="44.22529" lon="6.21136">
        <ele>1314.6</ele>
        <time>2022-01-01T13:17:54Z</time>
      </trkpt>
      <trkpt lat="44.22528" lon="6.21137">
        <ele>1314.4</ele>
        <time>2022-01-01T13:17:55Z</time>
      </trkpt>
      <trkpt lat="44.2252" lon="6.21142">
        <ele>1313.4</ele>
        <time>2022-01-01T13:18:01Z</time>
      </trkpt>
      <trkpt lat="44.22518" lon="6.21144">
        <ele>1313.4</ele>
        <time>2022-01-01T13:18:03Z</time>
      </trkpt>
      <trkpt lat="44.22517" lon="6.21146">
        <ele>1313.2</ele>
        <time>2022-01-01T13:18:05Z</time>
      </trkpt>
      <trkpt lat="44.22515" lon="6.21149">
        <ele>1312.8</ele>
        <time>2022-01-01T13:18:08Z</time>
      </trkpt>
      <trkpt lat="44.22512" lon="6.21152">
        <ele>1312.4</ele>
        <time>2022-01-01T13:18:11Z</time>
      </trkpt>
      <trkpt lat="44.2251" lon="6.2116">
        <ele>1311.4</ele>
        <time>2022-01-01T13:18:16Z</time>
      </trkpt>
      <trkpt lat="44.22509" lon="6.21161">
        <ele>1311.2</ele>
        <time>2022-01-01T13:18:17Z</time>
      </trkpt>
      <trkpt lat="44.22507" lon="6.21163">
        <ele>1310.8</ele>
        <time>2022-01-01T13:18:20Z</time>
      </trkpt>
      <trkpt lat="44.22506" lon="6.21164">
        <ele>1310.8</ele>
        <time>2022-01-01T13:18:21Z</time>
      </trkpt>
      <trkpt lat="44.22495" lon="6.21166">
        <ele>1310.6</ele>
        <time>2022-01-01T13:18:30Z</time>
      </trkpt>
      <trkpt lat="44.22494" lon="6.21165">
        <ele>1310.6</ele>
        <time>2022-01-01T13:18:31Z</time>
      </trkpt>
      <trkpt lat="44.22491" lon="6.21164">
        <ele>1310.4</ele>
        <time>2022-01-01T13:18:33Z</time>
      </trkpt>
      <trkpt lat="44.22489" lon="6.21164">
        <ele>1310</ele>
        <time>2022-01-01T13:18:35Z</time>
      </trkpt>
      <trkpt lat="44.22483" lon="6.21161">
        <ele>1309.4</ele>
        <time>2022-01-01T13:18:41Z</time>
      </trkpt>
      <trkpt lat="44.2248" lon="6.21161">
        <ele>1309.2</ele>
        <time>2022-01-01T13:18:45Z</time>
      </trkpt>
      <trkpt lat="44.22472" lon="6.21158">
        <ele>1308.2</ele>
        <time>2022-01-01T13:18:52Z</time>
      </trkpt>
      <trkpt lat="44.22468" lon="6.21157">
        <ele>1308.4</ele>
        <time>2022-01-01T13:18:55Z</time>
      </trkpt>
      <trkpt lat="44.22457" lon="6.21151">
        <ele>1307.2</ele>
        <time>2022-01-01T13:19:05Z</time>
      </trkpt>
      <trkpt lat="44.22456" lon="6.21151">
        <ele>1307.2</ele>
        <time>2022-01-01T13:19:06Z</time>
      </trkpt>
      <trkpt lat="44.22454" lon="6.21149">
        <ele>1306.8</ele>
        <time>2022-01-01T13:19:08Z</time>
      </trkpt>
      <trkpt lat="44.22451" lon="6.21147">
        <ele>1306.4</ele>
        <time>2022-01-01T13:19:11Z</time>
      </trkpt>
      <trkpt lat="44.22447" lon="6.21144">
        <ele>1306.2</ele>
        <time>2022-01-01T13:19:15Z</time>
      </trkpt>
      <trkpt lat="44.22444" lon="6.21142">
        <ele>1306</ele>
        <time>2022-01-01T13:19:17Z</time>
      </trkpt>
      <trkpt lat="44.22438" lon="6.21141">
        <ele>1304.8</ele>
        <time>2022-01-01T13:19:22Z</time>
      </trkpt>
      <trkpt lat="44.22434" lon="6.21139">
        <ele>1303.8</ele>
        <time>2022-01-01T13:19:25Z</time>
      </trkpt>
      <trkpt lat="44.22433" lon="6.21139">
        <ele>1303.6</ele>
        <time>2022-01-01T13:19:26Z</time>
      </trkpt>
      <trkpt lat="44.22427" lon="6.21135">
        <ele>1302.4</ele>
        <time>2022-01-01T13:19:32Z</time>
      </trkpt>
      <trkpt lat="44.22424" lon="6.21133">
        <ele>1301.6</ele>
        <time>2022-01-01T13:19:35Z</time>
      </trkpt>
      <trkpt lat="44.22421" lon="6.21133">
        <ele>1301.2</ele>
        <time>2022-01-01T13:19:37Z</time>
      </trkpt>
      <trkpt lat="44.2242" lon="6.21132">
        <ele>1301.2</ele>
        <time>2022-01-01T13:19:38Z</time>
      </trkpt>
      <trkpt lat="44.22415" lon="6.21127">
        <ele>1300.2</ele>
        <time>2022-01-01T13:19:43Z</time>
      </trkpt>
      <trkpt lat="44.22413" lon="6.21127">
        <ele>1299.8</ele>
        <time>2022-01-01T13:19:45Z</time>
      </trkpt>
      <trkpt lat="44.22409" lon="6.21128">
        <ele>1299</ele>
        <time>2022-01-01T13:19:49Z</time>
      </trkpt>
      <trkpt lat="44.22405" lon="6.21129">
        <ele>1298</ele>
        <time>2022-01-01T13:19:54Z</time>
      </trkpt>
      <trkpt lat="44.22405" lon="6.2113">
        <ele>1297.8</ele>
        <time>2022-01-01T13:19:55Z</time>
      </trkpt>
      <trkpt lat="44.22404" lon="6.21131">
        <ele>1297.6</ele>
        <time>2022-01-01T13:19:56Z</time>
      </trkpt>
      <trkpt lat="44.22403" lon="6.21133">
        <ele>1297</ele>
        <time>2022-01-01T13:19:58Z</time>
      </trkpt>
      <trkpt lat="44.224" lon="6.21139">
        <ele>1296</ele>
        <time>2022-01-01T13:20:02Z</time>
      </trkpt>
      <trkpt lat="44.22399" lon="6.21142">
        <ele>1295.4</ele>
        <time>2022-01-01T13:20:05Z</time>
      </trkpt>
      <trkpt lat="44.22397" lon="6.21146">
        <ele>1294.8</ele>
        <time>2022-01-01T13:20:08Z</time>
      </trkpt>
      <trkpt lat="44.22396" lon="6.21149">
        <ele>1294.6</ele>
        <time>2022-01-01T13:20:10Z</time>
      </trkpt>
      <trkpt lat="44.22397" lon="6.21155">
        <ele>1293.8</ele>
        <time>2022-01-01T13:20:15Z</time>
      </trkpt>
      <trkpt lat="44.22399" lon="6.21159">
        <ele>1293.4</ele>
        <time>2022-01-01T13:20:18Z</time>
      </trkpt>
      <trkpt lat="44.22398" lon="6.21165">
        <ele>1293.8</ele>
        <time>2022-01-01T13:20:25Z</time>
      </trkpt>
      <trkpt lat="44.22396" lon="6.21168">
        <ele>1293.8</ele>
        <time>2022-01-01T13:20:27Z</time>
      </trkpt>
      <trkpt lat="44.22394" lon="6.21168">
        <ele>1293.8</ele>
        <time>2022-01-01T13:20:31Z</time>
      </trkpt>
      <trkpt lat="44.2239" lon="6.21168">
        <ele>1293.8</ele>
        <time>2022-01-01T13:20:35Z</time>
      </trkpt>
      <trkpt lat="44.22387" lon="6.21167">
        <ele>1293.6</ele>
        <time>2022-01-01T13:20:38Z</time>
      </trkpt>
      <trkpt lat="44.22385" lon="6.21166">
        <ele>1293.6</ele>
        <time>2022-01-01T13:20:42Z</time>
      </trkpt>
      <trkpt lat="44.22382" lon="6.21164">
        <ele>1293.8</ele>
        <time>2022-01-01T13:20:45Z</time>
      </trkpt>
      <trkpt lat="44.2238" lon="6.21162">
        <ele>1293.8</ele>
        <time>2022-01-01T13:20:47Z</time>
      </trkpt>
      <trkpt lat="44.22373" lon="6.21157">
        <ele>1293.4</ele>
        <time>2022-01-01T13:20:52Z</time>
      </trkpt>
      <trkpt lat="44.22372" lon="6.21153">
        <ele>1293.4</ele>
        <time>2022-01-01T13:20:55Z</time>
      </trkpt>
      <trkpt lat="44.2237" lon="6.2115">
        <ele>1293.4</ele>
        <time>2022-01-01T13:20:57Z</time>
      </trkpt>
      <trkpt lat="44.22363" lon="6.21148">
        <ele>1292.8</ele>
        <time>2022-01-01T13:21:04Z</time>
      </trkpt>
      <trkpt lat="44.22362" lon="6.21148">
        <ele>1292.8</ele>
        <time>2022-01-01T13:21:05Z</time>
      </trkpt>
      <trkpt lat="44.2236" lon="6.21148">
        <ele>1292.8</ele>
        <time>2022-01-01T13:21:07Z</time>
      </trkpt>
      <trkpt lat="44.22354" lon="6.21146">
        <ele>1293</ele>
        <time>2022-01-01T13:21:11Z</time>
      </trkpt>
      <trkpt lat="44.2235" lon="6.21145">
        <ele>1292.8</ele>
        <time>2022-01-01T13:21:14Z</time>
      </trkpt>
      <trkpt lat="44.22349" lon="6.21146">
        <ele>1292.8</ele>
        <time>2022-01-01T13:21:15Z</time>
      </trkpt>
      <trkpt lat="44.22338" lon="6.21146">
        <ele>1293.8</ele>
        <time>2022-01-01T13:21:23Z</time>
      </trkpt>
      <trkpt lat="44.22335" lon="6.21146">
        <ele>1293.8</ele>
        <time>2022-01-01T13:21:25Z</time>
      </trkpt>
      <trkpt lat="44.22325" lon="6.21147">
        <ele>1293</ele>
        <time>2022-01-01T13:21:35Z</time>
      </trkpt>
      <trkpt lat="44.22323" lon="6.21148">
        <ele>1292.6</ele>
        <time>2022-01-01T13:21:37Z</time>
      </trkpt>
      <trkpt lat="44.22318" lon="6.21149">
        <ele>1292.4</ele>
        <time>2022-01-01T13:21:41Z</time>
      </trkpt>
      <trkpt lat="44.22313" lon="6.21152">
        <ele>1291.6</ele>
        <time>2022-01-01T13:21:45Z</time>
      </trkpt>
      <trkpt lat="44.22304" lon="6.21156">
        <ele>1290.6</ele>
        <time>2022-01-01T13:21:54Z</time>
      </trkpt>
      <trkpt lat="44.22302" lon="6.21155">
        <ele>1290.6</ele>
        <time>2022-01-01T13:21:55Z</time>
      </trkpt>
      <trkpt lat="44.22301" lon="6.21154">
        <ele>1290.4</ele>
        <time>2022-01-01T13:21:56Z</time>
      </trkpt>
      <trkpt lat="44.22289" lon="6.21152">
        <ele>1290.8</ele>
        <time>2022-01-01T13:22:05Z</time>
      </trkpt>
      <trkpt lat="44.2228" lon="6.21156">
        <ele>1291.6</ele>
        <time>2022-01-01T13:22:13Z</time>
      </trkpt>
      <trkpt lat="44.22278" lon="6.21157">
        <ele>1291.6</ele>
        <time>2022-01-01T13:22:15Z</time>
      </trkpt>
      <trkpt lat="44.22268" lon="6.2116">
        <ele>1290.4</ele>
        <time>2022-01-01T13:22:24Z</time>
      </trkpt>
      <trkpt lat="44.22267" lon="6.21161">
        <ele>1290.2</ele>
        <time>2022-01-01T13:22:25Z</time>
      </trkpt>
      <trkpt lat="44.22264" lon="6.21165">
        <ele>1289.2</ele>
        <time>2022-01-01T13:22:29Z</time>
      </trkpt>
      <trkpt lat="44.22264" lon="6.21164">
        <ele>1288.8</ele>
        <time>2022-01-01T13:22:30Z</time>
      </trkpt>
      <trkpt lat="44.22264" lon="6.21163">
        <ele>1288.2</ele>
        <time>2022-01-01T13:22:35Z</time>
      </trkpt>
      <trkpt lat="44.22263" lon="6.21166">
        <ele>1288.2</ele>
        <time>2022-01-01T13:22:42Z</time>
      </trkpt>
      <trkpt lat="44.22263" lon="6.21168">
        <ele>1288</ele>
        <time>2022-01-01T13:22:43Z</time>
      </trkpt>
      <trkpt lat="44.22262" lon="6.21169">
        <ele>1288</ele>
        <time>2022-01-01T13:22:44Z</time>
      </trkpt>
      <trkpt lat="44.22261" lon="6.2117">
        <ele>1287.8</ele>
        <time>2022-01-01T13:22:45Z</time>
      </trkpt>
      <trkpt lat="44.22257" lon="6.21175">
        <ele>1287</ele>
        <time>2022-01-01T13:22:50Z</time>
      </trkpt>
      <trkpt lat="44.22256" lon="6.21175">
        <ele>1286.8</ele>
        <time>2022-01-01T13:22:51Z</time>
      </trkpt>
      <trkpt lat="44.22253" lon="6.21179">
        <ele>1286</ele>
        <time>2022-01-01T13:22:55Z</time>
      </trkpt>
      <trkpt lat="44.22251" lon="6.21181">
        <ele>1285.8</ele>
        <time>2022-01-01T13:22:57Z</time>
      </trkpt>
      <trkpt lat="44.2225" lon="6.21182">
        <ele>1285.4</ele>
        <time>2022-01-01T13:22:59Z</time>
      </trkpt>
      <trkpt lat="44.22246" lon="6.21179">
        <ele>1285.8</ele>
        <time>2022-01-01T13:23:05Z</time>
      </trkpt>
      <trkpt lat="44.22244" lon="6.21177">
        <ele>1286</ele>
        <time>2022-01-01T13:23:07Z</time>
      </trkpt>
      <trkpt lat="44.22236" lon="6.21179">
        <ele>1286.6</ele>
        <time>2022-01-01T13:23:15Z</time>
      </trkpt>
      <trkpt lat="44.22233" lon="6.21178">
        <ele>1286.4</ele>
        <time>2022-01-01T13:23:18Z</time>
      </trkpt>
      <trkpt lat="44.2223" lon="6.21175">
        <ele>1284.8</ele>
        <time>2022-01-01T13:23:25Z</time>
      </trkpt>
      <trkpt lat="44.22229" lon="6.21174">
        <ele>1284.6</ele>
        <time>2022-01-01T13:23:26Z</time>
      </trkpt>
      <trkpt lat="44.22225" lon="6.21172">
        <ele>1283.2</ele>
        <time>2022-01-01T13:23:31Z</time>
      </trkpt>
      <trkpt lat="44.22224" lon="6.21172">
        <ele>1283</ele>
        <time>2022-01-01T13:23:32Z</time>
      </trkpt>
      <trkpt lat="44.22223" lon="6.21172">
        <ele>1282.2</ele>
        <time>2022-01-01T13:23:34Z</time>
      </trkpt>
      <trkpt lat="44.22222" lon="6.21172">
        <ele>1282</ele>
        <time>2022-01-01T13:23:35Z</time>
      </trkpt>
      <trkpt lat="44.2222" lon="6.21171">
        <ele>1280.8</ele>
        <time>2022-01-01T13:23:40Z</time>
      </trkpt>
      <trkpt lat="44.22219" lon="6.21168">
        <ele>1280</ele>
        <time>2022-01-01T13:23:45Z</time>
      </trkpt>
      <trkpt lat="44.22219" lon="6.21167">
        <ele>1279.6</ele>
        <time>2022-01-01T13:23:46Z</time>
      </trkpt>
      <trkpt lat="44.22217" lon="6.21166">
        <ele>1278.4</ele>
        <time>2022-01-01T13:23:50Z</time>
      </trkpt>
      <trkpt lat="44.22215" lon="6.21165">
        <ele>1277.6</ele>
        <time>2022-01-01T13:23:55Z</time>
      </trkpt>
      <trkpt lat="44.22214" lon="6.21164">
        <ele>1277.4</ele>
        <time>2022-01-01T13:23:56Z</time>
      </trkpt>
      <trkpt lat="44.22212" lon="6.21159">
        <ele>1276.2</ele>
        <time>2022-01-01T13:24:02Z</time>
      </trkpt>
      <trkpt lat="44.22213" lon="6.21156">
        <ele>1275.6</ele>
        <time>2022-01-01T13:24:05Z</time>
      </trkpt>
      <trkpt lat="44.22213" lon="6.21154">
        <ele>1275.2</ele>
        <time>2022-01-01T13:24:07Z</time>
      </trkpt>
      <trkpt lat="44.22215" lon="6.21151">
        <ele>1274</ele>
        <time>2022-01-01T13:24:12Z</time>
      </trkpt>
      <trkpt lat="44.22215" lon="6.2115">
        <ele>1273.2</ele>
        <time>2022-01-01T13:24:15Z</time>
      </trkpt>
      <trkpt lat="44.22214" lon="6.2115">
        <ele>1272.8</ele>
        <time>2022-01-01T13:24:17Z</time>
      </trkpt>
      <trkpt lat="44.2221" lon="6.2115">
        <ele>1271.6</ele>
        <time>2022-01-01T13:24:22Z</time>
      </trkpt>
      <trkpt lat="44.22207" lon="6.2115">
        <ele>1270.8</ele>
        <time>2022-01-01T13:24:25Z</time>
      </trkpt>
      <trkpt lat="44.22207" lon="6.2115">
        <ele>1270.6</ele>
        <time>2022-01-01T13:24:26Z</time>
      </trkpt>
      <trkpt lat="44.22204" lon="6.21146">
        <ele>1269.4</ele>
        <time>2022-01-01T13:24:31Z</time>
      </trkpt>
      <trkpt lat="44.22205" lon="6.21143">
        <ele>1268.6</ele>
        <time>2022-01-01T13:24:35Z</time>
      </trkpt>
      <trkpt lat="44.22205" lon="6.21142">
        <ele>1268.4</ele>
        <time>2022-01-01T13:24:36Z</time>
      </trkpt>
      <trkpt lat="44.22205" lon="6.21137">
        <ele>1267.2</ele>
        <time>2022-01-01T13:24:41Z</time>
      </trkpt>
      <trkpt lat="44.22205" lon="6.21133">
        <ele>1266.4</ele>
        <time>2022-01-01T13:24:45Z</time>
      </trkpt>
      <trkpt lat="44.22205" lon="6.21132">
        <ele>1266.2</ele>
        <time>2022-01-01T13:24:46Z</time>
      </trkpt>
      <trkpt lat="44.22202" lon="6.21127">
        <ele>1265</ele>
        <time>2022-01-01T13:24:50Z</time>
      </trkpt>
      <trkpt lat="44.22198" lon="6.21127">
        <ele>1264.2</ele>
        <time>2022-01-01T13:24:53Z</time>
      </trkpt>
      <trkpt lat="44.22195" lon="6.21127">
        <ele>1263.8</ele>
        <time>2022-01-01T13:24:55Z</time>
      </trkpt>
      <trkpt lat="44.2219" lon="6.21127">
        <ele>1262.8</ele>
        <time>2022-01-01T13:24:59Z</time>
      </trkpt>
      <trkpt lat="44.22186" lon="6.21127">
        <ele>1261.6</ele>
        <time>2022-01-01T13:25:03Z</time>
      </trkpt>
      <trkpt lat="44.22184" lon="6.21129">
        <ele>1261.2</ele>
        <time>2022-01-01T13:25:05Z</time>
      </trkpt>
      <trkpt lat="44.22182" lon="6.21128">
        <ele>1260.6</ele>
        <time>2022-01-01T13:25:07Z</time>
      </trkpt>
      <trkpt lat="44.22182" lon="6.21127">
        <ele>1260.4</ele>
        <time>2022-01-01T13:25:08Z</time>
      </trkpt>
      <trkpt lat="44.22184" lon="6.21124">
        <ele>1259.6</ele>
        <time>2022-01-01T13:25:12Z</time>
      </trkpt>
      <trkpt lat="44.22186" lon="6.21123">
        <ele>1259.2</ele>
        <time>2022-01-01T13:25:14Z</time>
      </trkpt>
      <trkpt lat="44.22187" lon="6.21121">
        <ele>1259</ele>
        <time>2022-01-01T13:25:15Z</time>
      </trkpt>
      <trkpt lat="44.2219" lon="6.21117">
        <ele>1258.6</ele>
        <time>2022-01-01T13:25:20Z</time>
      </trkpt>
      <trkpt lat="44.22188" lon="6.21113">
        <ele>1258</ele>
        <time>2022-01-01T13:25:23Z</time>
      </trkpt>
      <trkpt lat="44.22186" lon="6.21112">
        <ele>1257.4</ele>
        <time>2022-01-01T13:25:25Z</time>
      </trkpt>
      <trkpt lat="44.22185" lon="6.21112">
        <ele>1256.8</ele>
        <time>2022-01-01T13:25:26Z</time>
      </trkpt>
      <trkpt lat="44.22181" lon="6.21111">
        <ele>1255.6</ele>
        <time>2022-01-01T13:25:29Z</time>
      </trkpt>
      <trkpt lat="44.2218" lon="6.2111">
        <ele>1255.2</ele>
        <time>2022-01-01T13:25:30Z</time>
      </trkpt>
      <trkpt lat="44.22178" lon="6.21109">
        <ele>1254.8</ele>
        <time>2022-01-01T13:25:32Z</time>
      </trkpt>
      <trkpt lat="44.22178" lon="6.21108">
        <ele>1254.4</ele>
        <time>2022-01-01T13:25:33Z</time>
      </trkpt>
      <trkpt lat="44.22175" lon="6.21108">
        <ele>1254</ele>
        <time>2022-01-01T13:25:35Z</time>
      </trkpt>
      <trkpt lat="44.22172" lon="6.21108">
        <ele>1253.4</ele>
        <time>2022-01-01T13:25:37Z</time>
      </trkpt>
      <trkpt lat="44.22171" lon="6.21107">
        <ele>1252.8</ele>
        <time>2022-01-01T13:25:39Z</time>
      </trkpt>
      <trkpt lat="44.22168" lon="6.21107">
        <ele>1252.4</ele>
        <time>2022-01-01T13:25:42Z</time>
      </trkpt>
      <trkpt lat="44.22167" lon="6.21108">
        <ele>1251.8</ele>
        <time>2022-01-01T13:25:45Z</time>
      </trkpt>
      <trkpt lat="44.22166" lon="6.21107">
        <ele>1251.6</ele>
        <time>2022-01-01T13:25:46Z</time>
      </trkpt>
      <trkpt lat="44.22164" lon="6.21107">
        <ele>1251.2</ele>
        <time>2022-01-01T13:25:48Z</time>
      </trkpt>
      <trkpt lat="44.22162" lon="6.21107">
        <ele>1250.6</ele>
        <time>2022-01-01T13:25:50Z</time>
      </trkpt>
      <trkpt lat="44.2216" lon="6.21107">
        <ele>1250.2</ele>
        <time>2022-01-01T13:25:52Z</time>
      </trkpt>
      <trkpt lat="44.22158" lon="6.21107">
        <ele>1249.4</ele>
        <time>2022-01-01T13:25:55Z</time>
      </trkpt>
      <trkpt lat="44.22157" lon="6.21107">
        <ele>1249.4</ele>
        <time>2022-01-01T13:25:56Z</time>
      </trkpt>
      <trkpt lat="44.22155" lon="6.21107">
        <ele>1249</ele>
        <time>2022-01-01T13:25:58Z</time>
      </trkpt>
      <trkpt lat="44.22148" lon="6.2111">
        <ele>1248.4</ele>
        <time>2022-01-01T13:26:05Z</time>
      </trkpt>
      <trkpt lat="44.22145" lon="6.21112">
        <ele>1248</ele>
        <time>2022-01-01T13:26:09Z</time>
      </trkpt>
      <trkpt lat="44.22141" lon="6.21118">
        <ele>1247.4</ele>
        <time>2022-01-01T13:26:14Z</time>
      </trkpt>
      <trkpt lat="44.22141" lon="6.21119">
        <ele>1247.2</ele>
        <time>2022-01-01T13:26:15Z</time>
      </trkpt>
      <trkpt lat="44.2214" lon="6.21119">
        <ele>1247</ele>
        <time>2022-01-01T13:26:16Z</time>
      </trkpt>
      <trkpt lat="44.22137" lon="6.21121">
        <ele>1246.2</ele>
        <time>2022-01-01T13:26:20Z</time>
      </trkpt>
      <trkpt lat="44.22137" lon="6.21122">
        <ele>1245.8</ele>
        <time>2022-01-01T13:26:21Z</time>
      </trkpt>
      <trkpt lat="44.22134" lon="6.21123">
        <ele>1245.4</ele>
        <time>2022-01-01T13:26:24Z</time>
      </trkpt>
      <trkpt lat="44.22133" lon="6.21123">
        <ele>1245.4</ele>
        <time>2022-01-01T13:26:25Z</time>
      </trkpt>
      <trkpt lat="44.22128" lon="6.21126">
        <ele>1244.8</ele>
        <time>2022-01-01T13:26:30Z</time>
      </trkpt>
      <trkpt lat="44.22122" lon="6.21129">
        <ele>1244.2</ele>
        <time>2022-01-01T13:26:35Z</time>
      </trkpt>
      <trkpt lat="44.2212" lon="6.21131">
        <ele>1243.6</ele>
        <time>2022-01-01T13:26:37Z</time>
      </trkpt>
      <trkpt lat="44.22118" lon="6.21129">
        <ele>1242.4</ele>
        <time>2022-01-01T13:26:41Z</time>
      </trkpt>
      <trkpt lat="44.22121" lon="6.21126">
        <ele>1242</ele>
        <time>2022-01-01T13:26:45Z</time>
      </trkpt>
      <trkpt lat="44.22124" lon="6.21121">
        <ele>1241.4</ele>
        <time>2022-01-01T13:26:50Z</time>
      </trkpt>
      <trkpt lat="44.22127" lon="6.21115">
        <ele>1240.4</ele>
        <time>2022-01-01T13:26:55Z</time>
      </trkpt>
      <trkpt lat="44.22127" lon="6.21113">
        <ele>1240</ele>
        <time>2022-01-01T13:26:56Z</time>
      </trkpt>
      <trkpt lat="44.2213" lon="6.21107">
        <ele>1239</ele>
        <time>2022-01-01T13:27:02Z</time>
      </trkpt>
      <trkpt lat="44.22131" lon="6.21103">
        <ele>1238.6</ele>
        <time>2022-01-01T13:27:04Z</time>
      </trkpt>
      <trkpt lat="44.22135" lon="6.21097">
        <ele>1238</ele>
        <time>2022-01-01T13:27:09Z</time>
      </trkpt>
      <trkpt lat="44.22136" lon="6.21096">
        <ele>1237.8</ele>
        <time>2022-01-01T13:27:10Z</time>
      </trkpt>
      <trkpt lat="44.22138" lon="6.21093">
        <ele>1237.4</ele>
        <time>2022-01-01T13:27:13Z</time>
      </trkpt>
      <trkpt lat="44.2214" lon="6.21089">
        <ele>1237.2</ele>
        <time>2022-01-01T13:27:15Z</time>
      </trkpt>
      <trkpt lat="44.22142" lon="6.21082">
        <ele>1236.6</ele>
        <time>2022-01-01T13:27:19Z</time>
      </trkpt>
      <trkpt lat="44.22141" lon="6.21077">
        <ele>1236.4</ele>
        <time>2022-01-01T13:27:21Z</time>
      </trkpt>
      <trkpt lat="44.22142" lon="6.21073">
        <ele>1235.6</ele>
        <time>2022-01-01T13:27:25Z</time>
      </trkpt>
      <trkpt lat="44.22141" lon="6.2107">
        <ele>1235.2</ele>
        <time>2022-01-01T13:27:27Z</time>
      </trkpt>
      <trkpt lat="44.22136" lon="6.21068">
        <ele>1235</ele>
        <time>2022-01-01T13:27:30Z</time>
      </trkpt>
      <trkpt lat="44.22135" lon="6.21072">
        <ele>1234.6</ele>
        <time>2022-01-01T13:27:32Z</time>
      </trkpt>
      <trkpt lat="44.22134" lon="6.21073">
        <ele>1234.6</ele>
        <time>2022-01-01T13:27:33Z</time>
      </trkpt>
      <trkpt lat="44.22132" lon="6.21076">
        <ele>1234.4</ele>
        <time>2022-01-01T13:27:35Z</time>
      </trkpt>
      <trkpt lat="44.22131" lon="6.21078">
        <ele>1234</ele>
        <time>2022-01-01T13:27:37Z</time>
      </trkpt>
      <trkpt lat="44.2213" lon="6.2108">
        <ele>1233.4</ele>
        <time>2022-01-01T13:27:39Z</time>
      </trkpt>
      <trkpt lat="44.22129" lon="6.21081">
        <ele>1233</ele>
        <time>2022-01-01T13:27:42Z</time>
      </trkpt>
      <trkpt lat="44.22127" lon="6.21083">
        <ele>1232.2</ele>
        <time>2022-01-01T13:27:45Z</time>
      </trkpt>
      <trkpt lat="44.22123" lon="6.21086">
        <ele>1231.2</ele>
        <time>2022-01-01T13:27:51Z</time>
      </trkpt>
      <trkpt lat="44.2212" lon="6.2109">
        <ele>1230.2</ele>
        <time>2022-01-01T13:27:55Z</time>
      </trkpt>
      <trkpt lat="44.22119" lon="6.2109">
        <ele>1230.2</ele>
        <time>2022-01-01T13:27:56Z</time>
      </trkpt>
      <trkpt lat="44.22116" lon="6.21094">
        <ele>1229.4</ele>
        <time>2022-01-01T13:28:00Z</time>
      </trkpt>
      <trkpt lat="44.22114" lon="6.21095">
        <ele>1229</ele>
        <time>2022-01-01T13:28:02Z</time>
      </trkpt>
      <trkpt lat="44.22113" lon="6.21095">
        <ele>1229</ele>
        <time>2022-01-01T13:28:03Z</time>
      </trkpt>
      <trkpt lat="44.22111" lon="6.21096">
        <ele>1228.6</ele>
        <time>2022-01-01T13:28:05Z</time>
      </trkpt>
      <trkpt lat="44.22109" lon="6.21099">
        <ele>1228.2</ele>
        <time>2022-01-01T13:28:08Z</time>
      </trkpt>
      <trkpt lat="44.22108" lon="6.211">
        <ele>1227.8</ele>
        <time>2022-01-01T13:28:10Z</time>
      </trkpt>
      <trkpt lat="44.22104" lon="6.21103">
        <ele>1226.8</ele>
        <time>2022-01-01T13:28:15Z</time>
      </trkpt>
      <trkpt lat="44.22103" lon="6.21104">
        <ele>1226.8</ele>
        <time>2022-01-01T13:28:16Z</time>
      </trkpt>
      <trkpt lat="44.22096" lon="6.21108">
        <ele>1225.6</ele>
        <time>2022-01-01T13:28:24Z</time>
      </trkpt>
      <trkpt lat="44.22095" lon="6.21109">
        <ele>1225.4</ele>
        <time>2022-01-01T13:28:25Z</time>
      </trkpt>
      <trkpt lat="44.22092" lon="6.21112">
        <ele>1225</ele>
        <time>2022-01-01T13:28:28Z</time>
      </trkpt>
      <trkpt lat="44.22087" lon="6.2112">
        <ele>1224.6</ele>
        <time>2022-01-01T13:28:34Z</time>
      </trkpt>
      <trkpt lat="44.22086" lon="6.21122">
        <ele>1224.6</ele>
        <time>2022-01-01T13:28:35Z</time>
      </trkpt>
      <trkpt lat="44.22081" lon="6.21124">
        <ele>1223.4</ele>
        <time>2022-01-01T13:28:40Z</time>
      </trkpt>
      <trkpt lat="44.22077" lon="6.21127">
        <ele>1222.4</ele>
        <time>2022-01-01T13:28:44Z</time>
      </trkpt>
      <trkpt lat="44.22076" lon="6.21127">
        <ele>1222.2</ele>
        <time>2022-01-01T13:28:45Z</time>
      </trkpt>
      <trkpt lat="44.22071" lon="6.2113">
        <ele>1221.4</ele>
        <time>2022-01-01T13:28:50Z</time>
      </trkpt>
      <trkpt lat="44.2207" lon="6.21131">
        <ele>1221</ele>
        <time>2022-01-01T13:28:51Z</time>
      </trkpt>
      <trkpt lat="44.22067" lon="6.21131">
        <ele>1220.2</ele>
        <time>2022-01-01T13:28:54Z</time>
      </trkpt>
      <trkpt lat="44.22066" lon="6.21131">
        <ele>1220</ele>
        <time>2022-01-01T13:28:55Z</time>
      </trkpt>
      <trkpt lat="44.22063" lon="6.21133">
        <ele>1219.4</ele>
        <time>2022-01-01T13:28:58Z</time>
      </trkpt>
      <trkpt lat="44.22062" lon="6.21133">
        <ele>1219.2</ele>
        <time>2022-01-01T13:28:59Z</time>
      </trkpt>
      <trkpt lat="44.22059" lon="6.21135">
        <ele>1219</ele>
        <time>2022-01-01T13:29:02Z</time>
      </trkpt>
      <trkpt lat="44.22055" lon="6.21137">
        <ele>1218.4</ele>
        <time>2022-01-01T13:29:05Z</time>
      </trkpt>
      <trkpt lat="44.22054" lon="6.21137">
        <ele>1218.2</ele>
        <time>2022-01-01T13:29:06Z</time>
      </trkpt>
      <trkpt lat="44.22054" lon="6.21138">
        <ele>1218</ele>
        <time>2022-01-01T13:29:07Z</time>
      </trkpt>
      <trkpt lat="44.2205" lon="6.21136">
        <ele>1217</ele>
        <time>2022-01-01T13:29:11Z</time>
      </trkpt>
      <trkpt lat="44.22047" lon="6.21138">
        <ele>1216.6</ele>
        <time>2022-01-01T13:29:15Z</time>
      </trkpt>
      <trkpt lat="44.22042" lon="6.2114">
        <ele>1215.8</ele>
        <time>2022-01-01T13:29:19Z</time>
      </trkpt>
      <trkpt lat="44.22038" lon="6.21141">
        <ele>1214.6</ele>
        <time>2022-01-01T13:29:24Z</time>
      </trkpt>
      <trkpt lat="44.22037" lon="6.2114">
        <ele>1214.4</ele>
        <time>2022-01-01T13:29:25Z</time>
      </trkpt>
      <trkpt lat="44.22034" lon="6.2114">
        <ele>1214</ele>
        <time>2022-01-01T13:29:27Z</time>
      </trkpt>
      <trkpt lat="44.22029" lon="6.21141">
        <ele>1213.6</ele>
        <time>2022-01-01T13:29:31Z</time>
      </trkpt>
      <trkpt lat="44.22024" lon="6.21141">
        <ele>1213</ele>
        <time>2022-01-01T13:29:35Z</time>
      </trkpt>
      <trkpt lat="44.22022" lon="6.21143">
        <ele>1212.6</ele>
        <time>2022-01-01T13:29:38Z</time>
      </trkpt>
      <trkpt lat="44.22021" lon="6.21144">
        <ele>1212.2</ele>
        <time>2022-01-01T13:29:39Z</time>
      </trkpt>
      <trkpt lat="44.22019" lon="6.2115">
        <ele>1211.6</ele>
        <time>2022-01-01T13:29:44Z</time>
      </trkpt>
      <trkpt lat="44.22018" lon="6.21151">
        <ele>1211.4</ele>
        <time>2022-01-01T13:29:45Z</time>
      </trkpt>
      <trkpt lat="44.22018" lon="6.21153">
        <ele>1211.2</ele>
        <time>2022-01-01T13:29:46Z</time>
      </trkpt>
      <trkpt lat="44.22018" lon="6.21154">
        <ele>1210.8</ele>
        <time>2022-01-01T13:29:48Z</time>
      </trkpt>
      <trkpt lat="44.22019" lon="6.21156">
        <ele>1210.2</ele>
        <time>2022-01-01T13:29:53Z</time>
      </trkpt>
      <trkpt lat="44.22019" lon="6.21156">
        <ele>1210.2</ele>
        <time>2022-01-01T13:29:55Z</time>
      </trkpt>
      <trkpt lat="44.22018" lon="6.21164">
        <ele>1209.6</ele>
        <time>2022-01-01T13:30:04Z</time>
      </trkpt>
      <trkpt lat="44.22017" lon="6.21164">
        <ele>1209.6</ele>
        <time>2022-01-01T13:30:05Z</time>
      </trkpt>
      <trkpt lat="44.22016" lon="6.21166">
        <ele>1209</ele>
        <time>2022-01-01T13:30:08Z</time>
      </trkpt>
      <trkpt lat="44.22016" lon="6.21169">
        <ele>1208.6</ele>
        <time>2022-01-01T13:30:11Z</time>
      </trkpt>
      <trkpt lat="44.22016" lon="6.21172">
        <ele>1208</ele>
        <time>2022-01-01T13:30:14Z</time>
      </trkpt>
      <trkpt lat="44.22015" lon="6.21173">
        <ele>1207.8</ele>
        <time>2022-01-01T13:30:15Z</time>
      </trkpt>
      <trkpt lat="44.22015" lon="6.21175">
        <ele>1207.2</ele>
        <time>2022-01-01T13:30:17Z</time>
      </trkpt>
      <trkpt lat="44.22014" lon="6.21178">
        <ele>1206.8</ele>
        <time>2022-01-01T13:30:19Z</time>
      </trkpt>
      <trkpt lat="44.22014" lon="6.2118">
        <ele>1206.6</ele>
        <time>2022-01-01T13:30:21Z</time>
      </trkpt>
      <trkpt lat="44.22015" lon="6.21182">
        <ele>1206.2</ele>
        <time>2022-01-01T13:30:23Z</time>
      </trkpt>
      <trkpt lat="44.22014" lon="6.21183">
        <ele>1206</ele>
        <time>2022-01-01T13:30:25Z</time>
      </trkpt>
      <trkpt lat="44.22014" lon="6.21183">
        <ele>1205.8</ele>
        <time>2022-01-01T13:30:28Z</time>
      </trkpt>
      <trkpt lat="44.22013" lon="6.2119">
        <ele>1205.8</ele>
        <time>2022-01-01T13:30:35Z</time>
      </trkpt>
      <trkpt lat="44.22014" lon="6.21191">
        <ele>1205.6</ele>
        <time>2022-01-01T13:30:45Z</time>
      </trkpt>
      <trkpt lat="44.22011" lon="6.21188">
        <ele>1205.6</ele>
        <time>2022-01-01T13:30:54Z</time>
      </trkpt>
      <trkpt lat="44.22011" lon="6.21188">
        <ele>1205.6</ele>
        <time>2022-01-01T13:30:55Z</time>
      </trkpt>
      <trkpt lat="44.22011" lon="6.21188">
        <ele>1205.6</ele>
        <time>2022-01-01T13:31:05Z</time>
      </trkpt>
      <trkpt lat="44.22009" lon="6.21186">
        <ele>1206</ele>
        <time>2022-01-01T13:31:15Z</time>
      </trkpt>
      <trkpt lat="44.22011" lon="6.21193">
        <ele>1206</ele>
        <time>2022-01-01T13:31:21Z</time>
      </trkpt>
      <trkpt lat="44.22013" lon="6.21195">
        <ele>1205.6</ele>
        <time>2022-01-01T13:31:24Z</time>
      </trkpt>
      <trkpt lat="44.22013" lon="6.21195">
        <ele>1205.6</ele>
        <time>2022-01-01T13:31:25Z</time>
      </trkpt>
      <trkpt lat="44.22014" lon="6.212">
        <ele>1205</ele>
        <time>2022-01-01T13:31:31Z</time>
      </trkpt>
      <trkpt lat="44.22014" lon="6.212">
        <ele>1205</ele>
        <time>2022-01-01T13:31:32Z</time>
      </trkpt>
      <trkpt lat="44.22014" lon="6.21201">
        <ele>1204.8</ele>
        <time>2022-01-01T13:31:33Z</time>
      </trkpt>
      <trkpt lat="44.22015" lon="6.21202">
        <ele>1204.6</ele>
        <time>2022-01-01T13:31:35Z</time>
      </trkpt>
      <trkpt lat="44.22014" lon="6.21204">
        <ele>1204.4</ele>
        <time>2022-01-01T13:31:37Z</time>
      </trkpt>
      <trkpt lat="44.22014" lon="6.21208">
        <ele>1204.2</ele>
        <time>2022-01-01T13:31:41Z</time>
      </trkpt>
      <trkpt lat="44.22014" lon="6.21209">
        <ele>1204.2</ele>
        <time>2022-01-01T13:31:42Z</time>
      </trkpt>
      <trkpt lat="44.22015" lon="6.2121">
        <ele>1204.2</ele>
        <time>2022-01-01T13:31:43Z</time>
      </trkpt>
      <trkpt lat="44.22015" lon="6.21213">
        <ele>1204</ele>
        <time>2022-01-01T13:31:45Z</time>
      </trkpt>
      <trkpt lat="44.22014" lon="6.21216">
        <ele>1203.6</ele>
        <time>2022-01-01T13:31:47Z</time>
      </trkpt>
      <trkpt lat="44.22012" lon="6.21224">
        <ele>1202.6</ele>
        <time>2022-01-01T13:31:52Z</time>
      </trkpt>
      <trkpt lat="44.22011" lon="6.21225">
        <ele>1202.4</ele>
        <time>2022-01-01T13:31:53Z</time>
      </trkpt>
      <trkpt lat="44.22011" lon="6.21226">
        <ele>1202.2</ele>
        <time>2022-01-01T13:31:54Z</time>
      </trkpt>
      <trkpt lat="44.22011" lon="6.21228">
        <ele>1202</ele>
        <time>2022-01-01T13:31:55Z</time>
      </trkpt>
      <trkpt lat="44.2201" lon="6.2123">
        <ele>1201.6</ele>
        <time>2022-01-01T13:31:58Z</time>
      </trkpt>
      <trkpt lat="44.22008" lon="6.21233">
        <ele>1201.4</ele>
        <time>2022-01-01T13:32:01Z</time>
      </trkpt>
      <trkpt lat="44.22006" lon="6.21239">
        <ele>1200.8</ele>
        <time>2022-01-01T13:32:05Z</time>
      </trkpt>
      <trkpt lat="44.22003" lon="6.21243">
        <ele>1200.2</ele>
        <time>2022-01-01T13:32:08Z</time>
      </trkpt>
      <trkpt lat="44.21998" lon="6.21252">
        <ele>1199</ele>
        <time>2022-01-01T13:32:15Z</time>
      </trkpt>
      <trkpt lat="44.21995" lon="6.21256">
        <ele>1198.8</ele>
        <time>2022-01-01T13:32:20Z</time>
      </trkpt>
      <trkpt lat="44.21994" lon="6.21258">
        <ele>1198.8</ele>
        <time>2022-01-01T13:32:22Z</time>
      </trkpt>
      <trkpt lat="44.21991" lon="6.2126">
        <ele>1198.6</ele>
        <time>2022-01-01T13:32:25Z</time>
      </trkpt>
      <trkpt lat="44.21985" lon="6.21265">
        <ele>1199.4</ele>
        <time>2022-01-01T13:32:33Z</time>
      </trkpt>
      <trkpt lat="44.21983" lon="6.21266">
        <ele>1199.4</ele>
        <time>2022-01-01T13:32:35Z</time>
      </trkpt>
      <trkpt lat="44.21979" lon="6.21261">
        <ele>1198.2</ele>
        <time>2022-01-01T13:32:41Z</time>
      </trkpt>
      <trkpt lat="44.21979" lon="6.2126">
        <ele>1198</ele>
        <time>2022-01-01T13:32:43Z</time>
      </trkpt>
      <trkpt lat="44.21977" lon="6.21259">
        <ele>1197.6</ele>
        <time>2022-01-01T13:32:45Z</time>
      </trkpt>
      <trkpt lat="44.21976" lon="6.21255">
        <ele>1196.8</ele>
        <time>2022-01-01T13:32:50Z</time>
      </trkpt>
      <trkpt lat="44.21974" lon="6.2125">
        <ele>1196.2</ele>
        <time>2022-01-01T13:32:55Z</time>
      </trkpt>
      <trkpt lat="44.21972" lon="6.21248">
        <ele>1195.8</ele>
        <time>2022-01-01T13:32:57Z</time>
      </trkpt>
      <trkpt lat="44.21966" lon="6.21244">
        <ele>1194.6</ele>
        <time>2022-01-01T13:33:02Z</time>
      </trkpt>
      <trkpt lat="44.21963" lon="6.21242">
        <ele>1194</ele>
        <time>2022-01-01T13:33:05Z</time>
      </trkpt>
      <trkpt lat="44.21962" lon="6.21242">
        <ele>1193.8</ele>
        <time>2022-01-01T13:33:06Z</time>
      </trkpt>
      <trkpt lat="44.21961" lon="6.21242">
        <ele>1193.6</ele>
        <time>2022-01-01T13:33:07Z</time>
      </trkpt>
      <trkpt lat="44.21956" lon="6.21243">
        <ele>1192.6</ele>
        <time>2022-01-01T13:33:12Z</time>
      </trkpt>
      <trkpt lat="44.21955" lon="6.21244">
        <ele>1192.4</ele>
        <time>2022-01-01T13:33:13Z</time>
      </trkpt>
      <trkpt lat="44.21954" lon="6.21244">
        <ele>1192.2</ele>
        <time>2022-01-01T13:33:14Z</time>
      </trkpt>
      <trkpt lat="44.21953" lon="6.21245">
        <ele>1192.2</ele>
        <time>2022-01-01T13:33:15Z</time>
      </trkpt>
      <trkpt lat="44.21952" lon="6.21247">
        <ele>1191.8</ele>
        <time>2022-01-01T13:33:17Z</time>
      </trkpt>
      <trkpt lat="44.21951" lon="6.2125">
        <ele>1191.4</ele>
        <time>2022-01-01T13:33:19Z</time>
      </trkpt>
      <trkpt lat="44.2195" lon="6.21251">
        <ele>1191.2</ele>
        <time>2022-01-01T13:33:20Z</time>
      </trkpt>
      <trkpt lat="44.21948" lon="6.21255">
        <ele>1190.8</ele>
        <time>2022-01-01T13:33:24Z</time>
      </trkpt>
      <trkpt lat="44.21948" lon="6.21256">
        <ele>1190.8</ele>
        <time>2022-01-01T13:33:25Z</time>
      </trkpt>
      <trkpt lat="44.21947" lon="6.21258">
        <ele>1191</ele>
        <time>2022-01-01T13:33:27Z</time>
      </trkpt>
      <trkpt lat="44.21946" lon="6.21259">
        <ele>1191.2</ele>
        <time>2022-01-01T13:33:30Z</time>
      </trkpt>
      <trkpt lat="44.21946" lon="6.21259">
        <ele>1191.2</ele>
        <time>2022-01-01T13:33:31Z</time>
      </trkpt>
      <trkpt lat="44.21944" lon="6.2126">
        <ele>1191.2</ele>
        <time>2022-01-01T13:33:34Z</time>
      </trkpt>
      <trkpt lat="44.21943" lon="6.21262">
        <ele>1191.2</ele>
        <time>2022-01-01T13:33:35Z</time>
      </trkpt>
      <trkpt lat="44.21942" lon="6.21262">
        <ele>1191.2</ele>
        <time>2022-01-01T13:33:37Z</time>
      </trkpt>
      <trkpt lat="44.2194" lon="6.21261">
        <ele>1191.2</ele>
        <time>2022-01-01T13:33:40Z</time>
      </trkpt>
      <trkpt lat="44.21938" lon="6.21259">
        <ele>1190.8</ele>
        <time>2022-01-01T13:33:42Z</time>
      </trkpt>
      <trkpt lat="44.21936" lon="6.21257">
        <ele>1190.8</ele>
        <time>2022-01-01T13:33:44Z</time>
      </trkpt>
      <trkpt lat="44.21936" lon="6.21256">
        <ele>1190.8</ele>
        <time>2022-01-01T13:33:45Z</time>
      </trkpt>
      <trkpt lat="44.21935" lon="6.21253">
        <ele>1190.8</ele>
        <time>2022-01-01T13:33:47Z</time>
      </trkpt>
      <trkpt lat="44.21933" lon="6.21249">
        <ele>1190.8</ele>
        <time>2022-01-01T13:33:51Z</time>
      </trkpt>
      <trkpt lat="44.21932" lon="6.21246">
        <ele>1190.8</ele>
        <time>2022-01-01T13:33:53Z</time>
      </trkpt>
      <trkpt lat="44.21932" lon="6.21245">
        <ele>1190.8</ele>
        <time>2022-01-01T13:33:55Z</time>
      </trkpt>
      <trkpt lat="44.21931" lon="6.21242">
        <ele>1190.8</ele>
        <time>2022-01-01T13:33:56Z</time>
      </trkpt>
      <trkpt lat="44.21924" lon="6.21233">
        <ele>1190.4</ele>
        <time>2022-01-01T13:34:05Z</time>
      </trkpt>
      <trkpt lat="44.21921" lon="6.2123">
        <ele>1190</ele>
        <time>2022-01-01T13:34:07Z</time>
      </trkpt>
      <trkpt lat="44.21915" lon="6.21223">
        <ele>1189.2</ele>
        <time>2022-01-01T13:34:12Z</time>
      </trkpt>
      <trkpt lat="44.2191" lon="6.2122">
        <ele>1188.8</ele>
        <time>2022-01-01T13:34:15Z</time>
      </trkpt>
      <trkpt lat="44.21906" lon="6.21218">
        <ele>1188.2</ele>
        <time>2022-01-01T13:34:18Z</time>
      </trkpt>
      <trkpt lat="44.21899" lon="6.21217">
        <ele>1187</ele>
        <time>2022-01-01T13:34:23Z</time>
      </trkpt>
      <trkpt lat="44.21898" lon="6.21217">
        <ele>1187</ele>
        <time>2022-01-01T13:34:24Z</time>
      </trkpt>
      <trkpt lat="44.21897" lon="6.21217">
        <ele>1187</ele>
        <time>2022-01-01T13:34:25Z</time>
      </trkpt>
      <trkpt lat="44.21895" lon="6.21218">
        <ele>1186.8</ele>
        <time>2022-01-01T13:34:28Z</time>
      </trkpt>
      <trkpt lat="44.21891" lon="6.21217">
        <ele>1186.2</ele>
        <time>2022-01-01T13:34:34Z</time>
      </trkpt>
      <trkpt lat="44.2189" lon="6.21217">
        <ele>1186.2</ele>
        <time>2022-01-01T13:34:35Z</time>
      </trkpt>
      <trkpt lat="44.21889" lon="6.21217">
        <ele>1186.2</ele>
        <time>2022-01-01T13:34:37Z</time>
      </trkpt>
      <trkpt lat="44.21887" lon="6.21215">
        <ele>1186</ele>
        <time>2022-01-01T13:34:39Z</time>
      </trkpt>
      <trkpt lat="44.21878" lon="6.2121">
        <ele>1185.2</ele>
        <time>2022-01-01T13:34:45Z</time>
      </trkpt>
      <trkpt lat="44.21876" lon="6.2121">
        <ele>1185</ele>
        <time>2022-01-01T13:34:46Z</time>
      </trkpt>
      <trkpt lat="44.21874" lon="6.21209">
        <ele>1184.8</ele>
        <time>2022-01-01T13:34:47Z</time>
      </trkpt>
      <trkpt lat="44.21864" lon="6.21208">
        <ele>1185</ele>
        <time>2022-01-01T13:34:55Z</time>
      </trkpt>
      <trkpt lat="44.21854" lon="6.21211">
        <ele>1184</ele>
        <time>2022-01-01T13:35:03Z</time>
      </trkpt>
      <trkpt lat="44.21852" lon="6.21212">
        <ele>1183.6</ele>
        <time>2022-01-01T13:35:05Z</time>
      </trkpt>
      <trkpt lat="44.21845" lon="6.21217">
        <ele>1182.8</ele>
        <time>2022-01-01T13:35:11Z</time>
      </trkpt>
      <trkpt lat="44.21841" lon="6.21218">
        <ele>1181.6</ele>
        <time>2022-01-01T13:35:15Z</time>
      </trkpt>
      <trkpt lat="44.2184" lon="6.21219">
        <ele>1181.6</ele>
        <time>2022-01-01T13:35:16Z</time>
      </trkpt>
      <trkpt lat="44.21835" lon="6.21223">
        <ele>1180.6</ele>
        <time>2022-01-01T13:35:20Z</time>
      </trkpt>
      <trkpt lat="44.21835" lon="6.21224">
        <ele>1180.4</ele>
        <time>2022-01-01T13:35:21Z</time>
      </trkpt>
      <trkpt lat="44.21831" lon="6.21228">
        <ele>1179.8</ele>
        <time>2022-01-01T13:35:25Z</time>
      </trkpt>
      <trkpt lat="44.2183" lon="6.21229">
        <ele>1179.6</ele>
        <time>2022-01-01T13:35:27Z</time>
      </trkpt>
      <trkpt lat="44.21824" lon="6.21235">
        <ele>1178.4</ele>
        <time>2022-01-01T13:35:34Z</time>
      </trkpt>
      <trkpt lat="44.21823" lon="6.21236">
        <ele>1178.2</ele>
        <time>2022-01-01T13:35:35Z</time>
      </trkpt>
      <trkpt lat="44.21821" lon="6.21239">
        <ele>1177.4</ele>
        <time>2022-01-01T13:35:39Z</time>
      </trkpt>
      <trkpt lat="44.21819" lon="6.2124">
        <ele>1177</ele>
        <time>2022-01-01T13:35:42Z</time>
      </trkpt>
      <trkpt lat="44.21817" lon="6.21242">
        <ele>1176.8</ele>
        <time>2022-01-01T13:35:45Z</time>
      </trkpt>
      <trkpt lat="44.21816" lon="6.21244">
        <ele>1176.6</ele>
        <time>2022-01-01T13:35:47Z</time>
      </trkpt>
      <trkpt lat="44.21815" lon="6.21245">
        <ele>1176.2</ele>
        <time>2022-01-01T13:35:49Z</time>
      </trkpt>
      <trkpt lat="44.21814" lon="6.21247">
        <ele>1176</ele>
        <time>2022-01-01T13:35:52Z</time>
      </trkpt>
      <trkpt lat="44.21812" lon="6.21249">
        <ele>1175.4</ele>
        <time>2022-01-01T13:35:55Z</time>
      </trkpt>
      <trkpt lat="44.21811" lon="6.2125">
        <ele>1175.2</ele>
        <time>2022-01-01T13:35:56Z</time>
      </trkpt>
      <trkpt lat="44.21805" lon="6.21256">
        <ele>1174</ele>
        <time>2022-01-01T13:36:04Z</time>
      </trkpt>
      <trkpt lat="44.21805" lon="6.21257">
        <ele>1174</ele>
        <time>2022-01-01T13:36:05Z</time>
      </trkpt>
      <trkpt lat="44.21799" lon="6.21267">
        <ele>1173</ele>
        <time>2022-01-01T13:36:13Z</time>
      </trkpt>
      <trkpt lat="44.21798" lon="6.21269">
        <ele>1172.8</ele>
        <time>2022-01-01T13:36:15Z</time>
      </trkpt>
      <trkpt lat="44.21797" lon="6.21272">
        <ele>1172.6</ele>
        <time>2022-01-01T13:36:18Z</time>
      </trkpt>
      <trkpt lat="44.21796" lon="6.21275">
        <ele>1172</ele>
        <time>2022-01-01T13:36:21Z</time>
      </trkpt>
      <trkpt lat="44.21795" lon="6.21277">
        <ele>1171.8</ele>
        <time>2022-01-01T13:36:23Z</time>
      </trkpt>
      <trkpt lat="44.21794" lon="6.21279">
        <ele>1171.6</ele>
        <time>2022-01-01T13:36:25Z</time>
      </trkpt>
      <trkpt lat="44.21791" lon="6.21284">
        <ele>1170.8</ele>
        <time>2022-01-01T13:36:30Z</time>
      </trkpt>
      <trkpt lat="44.21788" lon="6.21286">
        <ele>1170.6</ele>
        <time>2022-01-01T13:36:32Z</time>
      </trkpt>
      <trkpt lat="44.21785" lon="6.21288">
        <ele>1170</ele>
        <time>2022-01-01T13:36:35Z</time>
      </trkpt>
      <trkpt lat="44.21784" lon="6.21289">
        <ele>1169.8</ele>
        <time>2022-01-01T13:36:36Z</time>
      </trkpt>
      <trkpt lat="44.21781" lon="6.2129">
        <ele>1169.2</ele>
        <time>2022-01-01T13:36:39Z</time>
      </trkpt>
      <trkpt lat="44.21779" lon="6.21291">
        <ele>1168.8</ele>
        <time>2022-01-01T13:36:41Z</time>
      </trkpt>
      <trkpt lat="44.21775" lon="6.2129">
        <ele>1168</ele>
        <time>2022-01-01T13:36:45Z</time>
      </trkpt>
      <trkpt lat="44.21774" lon="6.21289">
        <ele>1167.8</ele>
        <time>2022-01-01T13:36:46Z</time>
      </trkpt>
      <trkpt lat="44.2177" lon="6.21289">
        <ele>1166.8</ele>
        <time>2022-01-01T13:36:51Z</time>
      </trkpt>
      <trkpt lat="44.21768" lon="6.21289">
        <ele>1166.6</ele>
        <time>2022-01-01T13:36:53Z</time>
      </trkpt>
      <trkpt lat="44.21767" lon="6.2129">
        <ele>1166.4</ele>
        <time>2022-01-01T13:36:55Z</time>
      </trkpt>
      <trkpt lat="44.21763" lon="6.21291">
        <ele>1165.4</ele>
        <time>2022-01-01T13:37:01Z</time>
      </trkpt>
      <trkpt lat="44.21759" lon="6.21291">
        <ele>1164.6</ele>
        <time>2022-01-01T13:37:05Z</time>
      </trkpt>
      <trkpt lat="44.21759" lon="6.21292">
        <ele>1164.4</ele>
        <time>2022-01-01T13:37:06Z</time>
      </trkpt>
      <trkpt lat="44.21754" lon="6.21293">
        <ele>1163.2</ele>
        <time>2022-01-01T13:37:13Z</time>
      </trkpt>
      <trkpt lat="44.21753" lon="6.21294">
        <ele>1162.8</ele>
        <time>2022-01-01T13:37:15Z</time>
      </trkpt>
      <trkpt lat="44.21749" lon="6.21297">
        <ele>1162.2</ele>
        <time>2022-01-01T13:37:19Z</time>
      </trkpt>
      <trkpt lat="44.21749" lon="6.21297">
        <ele>1162</ele>
        <time>2022-01-01T13:37:20Z</time>
      </trkpt>
      <trkpt lat="44.21746" lon="6.21301">
        <ele>1161.2</ele>
        <time>2022-01-01T13:37:24Z</time>
      </trkpt>
      <trkpt lat="44.21746" lon="6.21301">
        <ele>1161.2</ele>
        <time>2022-01-01T13:37:25Z</time>
      </trkpt>
      <trkpt lat="44.21742" lon="6.21305">
        <ele>1160</ele>
        <time>2022-01-01T13:37:32Z</time>
      </trkpt>
      <trkpt lat="44.21742" lon="6.21307">
        <ele>1159.6</ele>
        <time>2022-01-01T13:37:35Z</time>
      </trkpt>
      <trkpt lat="44.21739" lon="6.21314">
        <ele>1159</ele>
        <time>2022-01-01T13:37:42Z</time>
      </trkpt>
      <trkpt lat="44.21736" lon="6.21316">
        <ele>1158.4</ele>
        <time>2022-01-01T13:37:45Z</time>
      </trkpt>
      <trkpt lat="44.21735" lon="6.21318">
        <ele>1158.2</ele>
        <time>2022-01-01T13:37:47Z</time>
      </trkpt>
      <trkpt lat="44.21735" lon="6.21321">
        <ele>1158</ele>
        <time>2022-01-01T13:37:49Z</time>
      </trkpt>
      <trkpt lat="44.21735" lon="6.21322">
        <ele>1157.8</ele>
        <time>2022-01-01T13:37:50Z</time>
      </trkpt>
      <trkpt lat="44.21735" lon="6.21325">
        <ele>1157.6</ele>
        <time>2022-01-01T13:37:52Z</time>
      </trkpt>
      <trkpt lat="44.21735" lon="6.21329">
        <ele>1157.4</ele>
        <time>2022-01-01T13:37:55Z</time>
      </trkpt>
      <trkpt lat="44.21735" lon="6.2133">
        <ele>1157.2</ele>
        <time>2022-01-01T13:37:56Z</time>
      </trkpt>
      <trkpt lat="44.21734" lon="6.21337">
        <ele>1156.8</ele>
        <time>2022-01-01T13:38:01Z</time>
      </trkpt>
      <trkpt lat="44.21732" lon="6.21343">
        <ele>1156.8</ele>
        <time>2022-01-01T13:38:05Z</time>
      </trkpt>
      <trkpt lat="44.21731" lon="6.21347">
        <ele>1156.8</ele>
        <time>2022-01-01T13:38:08Z</time>
      </trkpt>
      <trkpt lat="44.21731" lon="6.2135">
        <ele>1156.6</ele>
        <time>2022-01-01T13:38:15Z</time>
      </trkpt>
      <trkpt lat="44.21731" lon="6.2135">
        <ele>1156.6</ele>
        <time>2022-01-01T13:38:17Z</time>
      </trkpt>
      <trkpt lat="44.2173" lon="6.21357">
        <ele>1156.6</ele>
        <time>2022-01-01T13:38:25Z</time>
      </trkpt>
      <trkpt lat="44.21728" lon="6.21368">
        <ele>1156.8</ele>
        <time>2022-01-01T13:38:31Z</time>
      </trkpt>
      <trkpt lat="44.21727" lon="6.21374">
        <ele>1157</ele>
        <time>2022-01-01T13:38:35Z</time>
      </trkpt>
      <trkpt lat="44.21726" lon="6.21375">
        <ele>1157</ele>
        <time>2022-01-01T13:38:36Z</time>
      </trkpt>
      <trkpt lat="44.21724" lon="6.21389">
        <ele>1157.2</ele>
        <time>2022-01-01T13:38:45Z</time>
      </trkpt>
      <trkpt lat="44.21723" lon="6.21391">
        <ele>1157.2</ele>
        <time>2022-01-01T13:38:47Z</time>
      </trkpt>
      <trkpt lat="44.21722" lon="6.21394">
        <ele>1157</ele>
        <time>2022-01-01T13:38:49Z</time>
      </trkpt>
      <trkpt lat="44.21722" lon="6.21398">
        <ele>1156.8</ele>
        <time>2022-01-01T13:38:53Z</time>
      </trkpt>
      <trkpt lat="44.21722" lon="6.21401">
        <ele>1156.8</ele>
        <time>2022-01-01T13:38:55Z</time>
      </trkpt>
      <trkpt lat="44.21722" lon="6.21408">
        <ele>1157.2</ele>
        <time>2022-01-01T13:38:59Z</time>
      </trkpt>
      <trkpt lat="44.2172" lon="6.21412">
        <ele>1157.4</ele>
        <time>2022-01-01T13:39:02Z</time>
      </trkpt>
      <trkpt lat="44.2172" lon="6.21417">
        <ele>1157.6</ele>
        <time>2022-01-01T13:39:05Z</time>
      </trkpt>
      <trkpt lat="44.21723" lon="6.21422">
        <ele>1157.6</ele>
        <time>2022-01-01T13:39:09Z</time>
      </trkpt>
      <trkpt lat="44.21722" lon="6.21426">
        <ele>1157.6</ele>
        <time>2022-01-01T13:39:11Z</time>
      </trkpt>
      <trkpt lat="44.21721" lon="6.21434">
        <ele>1157.4</ele>
        <time>2022-01-01T13:39:15Z</time>
      </trkpt>
      <trkpt lat="44.21721" lon="6.21442">
        <ele>1157.4</ele>
        <time>2022-01-01T13:39:19Z</time>
      </trkpt>
      <trkpt lat="44.21719" lon="6.21453">
        <ele>1157.6</ele>
        <time>2022-01-01T13:39:25Z</time>
      </trkpt>
      <trkpt lat="44.21715" lon="6.2147">
        <ele>1157.2</ele>
        <time>2022-01-01T13:39:35Z</time>
      </trkpt>
      <trkpt lat="44.21707" lon="6.21486">
        <ele>1157.2</ele>
        <time>2022-01-01T13:39:45Z</time>
      </trkpt>
      <trkpt lat="44.21706" lon="6.21491">
        <ele>1157.2</ele>
        <time>2022-01-01T13:39:48Z</time>
      </trkpt>
      <trkpt lat="44.21705" lon="6.215">
        <ele>1157</ele>
        <time>2022-01-01T13:39:53Z</time>
      </trkpt>
      <trkpt lat="44.21704" lon="6.21504">
        <ele>1156.8</ele>
        <time>2022-01-01T13:39:55Z</time>
      </trkpt>
      <trkpt lat="44.21701" lon="6.21519">
        <ele>1156.8</ele>
        <time>2022-01-01T13:40:04Z</time>
      </trkpt>
      <trkpt lat="44.217" lon="6.2152">
        <ele>1156.8</ele>
        <time>2022-01-01T13:40:05Z</time>
      </trkpt>
      <trkpt lat="44.217" lon="6.21522">
        <ele>1156.8</ele>
        <time>2022-01-01T13:40:06Z</time>
      </trkpt>
      <trkpt lat="44.21698" lon="6.21528">
        <ele>1156.6</ele>
        <time>2022-01-01T13:40:09Z</time>
      </trkpt>
      <trkpt lat="44.21697" lon="6.21531">
        <ele>1156.4</ele>
        <time>2022-01-01T13:40:11Z</time>
      </trkpt>
      <trkpt lat="44.21697" lon="6.2154">
        <ele>1156</ele>
        <time>2022-01-01T13:40:15Z</time>
      </trkpt>
      <trkpt lat="44.21697" lon="6.21543">
        <ele>1155.8</ele>
        <time>2022-01-01T13:40:17Z</time>
      </trkpt>
      <trkpt lat="44.21697" lon="6.21545">
        <ele>1155.6</ele>
        <time>2022-01-01T13:40:18Z</time>
      </trkpt>
      <trkpt lat="44.21695" lon="6.21551">
        <ele>1155.2</ele>
        <time>2022-01-01T13:40:23Z</time>
      </trkpt>
      <trkpt lat="44.21693" lon="6.21553">
        <ele>1155.2</ele>
        <time>2022-01-01T13:40:25Z</time>
      </trkpt>
      <trkpt lat="44.21693" lon="6.21554">
        <ele>1155.2</ele>
        <time>2022-01-01T13:40:26Z</time>
      </trkpt>
      <trkpt lat="44.21691" lon="6.21557">
        <ele>1155.2</ele>
        <time>2022-01-01T13:40:28Z</time>
      </trkpt>
      <trkpt lat="44.21688" lon="6.21562">
        <ele>1154.8</ele>
        <time>2022-01-01T13:40:32Z</time>
      </trkpt>
      <trkpt lat="44.21686" lon="6.21567">
        <ele>1154.4</ele>
        <time>2022-01-01T13:40:35Z</time>
      </trkpt>
      <trkpt lat="44.21677" lon="6.2158">
        <ele>1154</ele>
        <time>2022-01-01T13:40:44Z</time>
      </trkpt>
      <trkpt lat="44.21677" lon="6.21581">
        <ele>1154</ele>
        <time>2022-01-01T13:40:45Z</time>
      </trkpt>
      <trkpt lat="44.21673" lon="6.21591">
        <ele>1154.4</ele>
        <time>2022-01-01T13:40:53Z</time>
      </trkpt>
      <trkpt lat="44.21671" lon="6.21592">
        <ele>1154.4</ele>
        <time>2022-01-01T13:40:55Z</time>
      </trkpt>
      <trkpt lat="44.2167" lon="6.21592">
        <ele>1154.4</ele>
        <time>2022-01-01T13:40:57Z</time>
      </trkpt>
      <trkpt lat="44.21669" lon="6.21591">
        <ele>1154</ele>
        <time>2022-01-01T13:40:59Z</time>
      </trkpt>
      <trkpt lat="44.21668" lon="6.21591">
        <ele>1153.8</ele>
        <time>2022-01-01T13:41:00Z</time>
      </trkpt>
      <trkpt lat="44.21667" lon="6.21592">
        <ele>1153.2</ele>
        <time>2022-01-01T13:41:05Z</time>
      </trkpt>
      <trkpt lat="44.21667" lon="6.2159">
        <ele>1153</ele>
        <time>2022-01-01T13:41:15Z</time>
      </trkpt>
      <trkpt lat="44.21665" lon="6.2159">
        <ele>1152.6</ele>
        <time>2022-01-01T13:41:22Z</time>
      </trkpt>
      <trkpt lat="44.21663" lon="6.2159">
        <ele>1152.4</ele>
        <time>2022-01-01T13:41:25Z</time>
      </trkpt>
      <trkpt lat="44.21657" lon="6.21593">
        <ele>1151.8</ele>
        <time>2022-01-01T13:41:31Z</time>
      </trkpt>
      <trkpt lat="44.21656" lon="6.21592">
        <ele>1151.6</ele>
        <time>2022-01-01T13:41:34Z</time>
      </trkpt>
      <trkpt lat="44.21656" lon="6.21593">
        <ele>1151.4</ele>
        <time>2022-01-01T13:41:35Z</time>
      </trkpt>
      <trkpt lat="44.21655" lon="6.21596">
        <ele>1150.6</ele>
        <time>2022-01-01T13:41:42Z</time>
      </trkpt>
      <trkpt lat="44.21653" lon="6.21598">
        <ele>1150.6</ele>
        <time>2022-01-01T13:41:45Z</time>
      </trkpt>
      <trkpt lat="44.21654" lon="6.21599">
        <ele>1150.8</ele>
        <time>2022-01-01T13:41:55Z</time>
      </trkpt>
      <trkpt lat="44.21653" lon="6.21597">
        <ele>1150.8</ele>
        <time>2022-01-01T13:42:05Z</time>
      </trkpt>
      <trkpt lat="44.21652" lon="6.21592">
        <ele>1150.6</ele>
        <time>2022-01-01T13:42:15Z</time>
      </trkpt>
      <trkpt lat="44.2165" lon="6.216">
        <ele>1150</ele>
        <time>2022-01-01T13:42:22Z</time>
      </trkpt>
      <trkpt lat="44.21649" lon="6.21604">
        <ele>1149.6</ele>
        <time>2022-01-01T13:42:25Z</time>
      </trkpt>
      <trkpt lat="44.21648" lon="6.21605">
        <ele>1149.6</ele>
        <time>2022-01-01T13:42:26Z</time>
      </trkpt>
      <trkpt lat="44.21646" lon="6.21613">
        <ele>1149</ele>
        <time>2022-01-01T13:42:31Z</time>
      </trkpt>
      <trkpt lat="44.21645" lon="6.21617">
        <ele>1148.4</ele>
        <time>2022-01-01T13:42:35Z</time>
      </trkpt>
      <trkpt lat="44.21645" lon="6.21618">
        <ele>1148.2</ele>
        <time>2022-01-01T13:42:36Z</time>
      </trkpt>
      <trkpt lat="44.21645" lon="6.21619">
        <ele>1147.8</ele>
        <time>2022-01-01T13:42:37Z</time>
      </trkpt>
      <trkpt lat="44.21644" lon="6.2162">
        <ele>1147.8</ele>
        <time>2022-01-01T13:42:38Z</time>
      </trkpt>
      <trkpt lat="44.21644" lon="6.21624">
        <ele>1147.4</ele>
        <time>2022-01-01T13:42:41Z</time>
      </trkpt>
      <trkpt lat="44.21643" lon="6.21627">
        <ele>1147.2</ele>
        <time>2022-01-01T13:42:43Z</time>
      </trkpt>
      <trkpt lat="44.21642" lon="6.21628">
        <ele>1147</ele>
        <time>2022-01-01T13:42:44Z</time>
      </trkpt>
      <trkpt lat="44.21642" lon="6.21629">
        <ele>1146.8</ele>
        <time>2022-01-01T13:42:45Z</time>
      </trkpt>
      <trkpt lat="44.21641" lon="6.21632">
        <ele>1146.6</ele>
        <time>2022-01-01T13:42:47Z</time>
      </trkpt>
      <trkpt lat="44.2164" lon="6.21633">
        <ele>1146.4</ele>
        <time>2022-01-01T13:42:48Z</time>
      </trkpt>
      <trkpt lat="44.21639" lon="6.21634">
        <ele>1146.4</ele>
        <time>2022-01-01T13:42:49Z</time>
      </trkpt>
      <trkpt lat="44.21638" lon="6.21635">
        <ele>1146.2</ele>
        <time>2022-01-01T13:42:50Z</time>
      </trkpt>
      <trkpt lat="44.21632" lon="6.21639">
        <ele>1145.6</ele>
        <time>2022-01-01T13:42:55Z</time>
      </trkpt>
      <trkpt lat="44.21626" lon="6.21642">
        <ele>1145.2</ele>
        <time>2022-01-01T13:42:59Z</time>
      </trkpt>
      <trkpt lat="44.21622" lon="6.21646">
        <ele>1145.4</ele>
        <time>2022-01-01T13:43:04Z</time>
      </trkpt>
      <trkpt lat="44.21621" lon="6.21647">
        <ele>1145.2</ele>
        <time>2022-01-01T13:43:05Z</time>
      </trkpt>
      <trkpt lat="44.21621" lon="6.21649">
        <ele>1145.2</ele>
        <time>2022-01-01T13:43:07Z</time>
      </trkpt>
      <trkpt lat="44.21619" lon="6.21653">
        <ele>1144.8</ele>
        <time>2022-01-01T13:43:11Z</time>
      </trkpt>
      <trkpt lat="44.21616" lon="6.21659">
        <ele>1144.8</ele>
        <time>2022-01-01T13:43:15Z</time>
      </trkpt>
      <trkpt lat="44.21615" lon="6.21662">
        <ele>1144.8</ele>
        <time>2022-01-01T13:43:18Z</time>
      </trkpt>
      <trkpt lat="44.21613" lon="6.21671">
        <ele>1144.6</ele>
        <time>2022-01-01T13:43:23Z</time>
      </trkpt>
      <trkpt lat="44.21613" lon="6.21674">
        <ele>1144.6</ele>
        <time>2022-01-01T13:43:25Z</time>
      </trkpt>
      <trkpt lat="44.21612" lon="6.21678">
        <ele>1144.6</ele>
        <time>2022-01-01T13:43:27Z</time>
      </trkpt>
      <trkpt lat="44.2161" lon="6.21687">
        <ele>1144.6</ele>
        <time>2022-01-01T13:43:31Z</time>
      </trkpt>
      <trkpt lat="44.2161" lon="6.21689">
        <ele>1144.6</ele>
        <time>2022-01-01T13:43:32Z</time>
      </trkpt>
      <trkpt lat="44.21609" lon="6.21693">
        <ele>1144.6</ele>
        <time>2022-01-01T13:43:34Z</time>
      </trkpt>
      <trkpt lat="44.2161" lon="6.21695">
        <ele>1144.8</ele>
        <time>2022-01-01T13:43:35Z</time>
      </trkpt>
      <trkpt lat="44.2161" lon="6.21699">
        <ele>1144.6</ele>
        <time>2022-01-01T13:43:38Z</time>
      </trkpt>
      <trkpt lat="44.2161" lon="6.21701">
        <ele>1144.6</ele>
        <time>2022-01-01T13:43:39Z</time>
      </trkpt>
      <trkpt lat="44.2161" lon="6.21704">
        <ele>1144.6</ele>
        <time>2022-01-01T13:43:41Z</time>
      </trkpt>
      <trkpt lat="44.2161" lon="6.21709">
        <ele>1144.6</ele>
        <time>2022-01-01T13:43:45Z</time>
      </trkpt>
      <trkpt lat="44.21616" lon="6.2172">
        <ele>1144</ele>
        <time>2022-01-01T13:43:53Z</time>
      </trkpt>
      <trkpt lat="44.21617" lon="6.21722">
        <ele>1144</ele>
        <time>2022-01-01T13:43:55Z</time>
      </trkpt>
      <trkpt lat="44.21619" lon="6.21725">
        <ele>1144</ele>
        <time>2022-01-01T13:43:58Z</time>
      </trkpt>
      <trkpt lat="44.21619" lon="6.21726">
        <ele>1144</ele>
        <time>2022-01-01T13:43:59Z</time>
      </trkpt>
      <trkpt lat="44.2162" lon="6.2173">
        <ele>1144.2</ele>
        <time>2022-01-01T13:44:02Z</time>
      </trkpt>
      <trkpt lat="44.21621" lon="6.21734">
        <ele>1144.2</ele>
        <time>2022-01-01T13:44:05Z</time>
      </trkpt>
      <trkpt lat="44.2162" lon="6.21737">
        <ele>1144.2</ele>
        <time>2022-01-01T13:44:07Z</time>
      </trkpt>
      <trkpt lat="44.21621" lon="6.21739">
        <ele>1144.2</ele>
        <time>2022-01-01T13:44:09Z</time>
      </trkpt>
      <trkpt lat="44.2162" lon="6.21746">
        <ele>1143.8</ele>
        <time>2022-01-01T13:44:13Z</time>
      </trkpt>
      <trkpt lat="44.2162" lon="6.21748">
        <ele>1143.6</ele>
        <time>2022-01-01T13:44:15Z</time>
      </trkpt>
      <trkpt lat="44.21619" lon="6.21749">
        <ele>1143.6</ele>
        <time>2022-01-01T13:44:16Z</time>
      </trkpt>
      <trkpt lat="44.21617" lon="6.21755">
        <ele>1143.6</ele>
        <time>2022-01-01T13:44:19Z</time>
      </trkpt>
      <trkpt lat="44.21615" lon="6.21763">
        <ele>1143.8</ele>
        <time>2022-01-01T13:44:25Z</time>
      </trkpt>
      <trkpt lat="44.21614" lon="6.21765">
        <ele>1143.8</ele>
        <time>2022-01-01T13:44:27Z</time>
      </trkpt>
      <trkpt lat="44.21612" lon="6.2177">
        <ele>1143.6</ele>
        <time>2022-01-01T13:44:30Z</time>
      </trkpt>
      <trkpt lat="44.21611" lon="6.21773">
        <ele>1143.6</ele>
        <time>2022-01-01T13:44:32Z</time>
      </trkpt>
      <trkpt lat="44.21609" lon="6.21777">
        <ele>1143.4</ele>
        <time>2022-01-01T13:44:35Z</time>
      </trkpt>
      <trkpt lat="44.21598" lon="6.21787">
        <ele>1143.2</ele>
        <time>2022-01-01T13:44:45Z</time>
      </trkpt>
      <trkpt lat="44.21594" lon="6.21798">
        <ele>1143</ele>
        <time>2022-01-01T13:44:54Z</time>
      </trkpt>
      <trkpt lat="44.21594" lon="6.218">
        <ele>1143</ele>
        <time>2022-01-01T13:44:55Z</time>
      </trkpt>
      <trkpt lat="44.21593" lon="6.21803">
        <ele>1143</ele>
        <time>2022-01-01T13:44:57Z</time>
      </trkpt>
      <trkpt lat="44.21591" lon="6.21807">
        <ele>1142.6</ele>
        <time>2022-01-01T13:45:00Z</time>
      </trkpt>
      <trkpt lat="44.21591" lon="6.2181">
        <ele>1142.4</ele>
        <time>2022-01-01T13:45:02Z</time>
      </trkpt>
      <trkpt lat="44.21591" lon="6.21814">
        <ele>1142.2</ele>
        <time>2022-01-01T13:45:04Z</time>
      </trkpt>
      <trkpt lat="44.21591" lon="6.21816">
        <ele>1142.2</ele>
        <time>2022-01-01T13:45:05Z</time>
      </trkpt>
      <trkpt lat="44.2159" lon="6.21817">
        <ele>1142</ele>
        <time>2022-01-01T13:45:06Z</time>
      </trkpt>
      <trkpt lat="44.21589" lon="6.21819">
        <ele>1142</ele>
        <time>2022-01-01T13:45:07Z</time>
      </trkpt>
      <trkpt lat="44.2159" lon="6.2183">
        <ele>1141.4</ele>
        <time>2022-01-01T13:45:15Z</time>
      </trkpt>
      <trkpt lat="44.2159" lon="6.21834">
        <ele>1141.2</ele>
        <time>2022-01-01T13:45:18Z</time>
      </trkpt>
      <trkpt lat="44.2159" lon="6.21836">
        <ele>1141</ele>
        <time>2022-01-01T13:45:20Z</time>
      </trkpt>
      <trkpt lat="44.21592" lon="6.2184">
        <ele>1140.8</ele>
        <time>2022-01-01T13:45:23Z</time>
      </trkpt>
      <trkpt lat="44.21592" lon="6.21843">
        <ele>1140.6</ele>
        <time>2022-01-01T13:45:25Z</time>
      </trkpt>
      <trkpt lat="44.21592" lon="6.21846">
        <ele>1140.6</ele>
        <time>2022-01-01T13:45:27Z</time>
      </trkpt>
      <trkpt lat="44.21592" lon="6.21849">
        <ele>1140.4</ele>
        <time>2022-01-01T13:45:29Z</time>
      </trkpt>
      <trkpt lat="44.2159" lon="6.21859">
        <ele>1140.2</ele>
        <time>2022-01-01T13:45:35Z</time>
      </trkpt>
      <trkpt lat="44.21589" lon="6.21864">
        <ele>1140</ele>
        <time>2022-01-01T13:45:38Z</time>
      </trkpt>
      <trkpt lat="44.21585" lon="6.21879">
        <ele>1140.2</ele>
        <time>2022-01-01T13:45:45Z</time>
      </trkpt>
      <trkpt lat="44.21585" lon="6.21882">
        <ele>1140</ele>
        <time>2022-01-01T13:45:47Z</time>
      </trkpt>
      <trkpt lat="44.21584" lon="6.21895">
        <ele>1139.6</ele>
        <time>2022-01-01T13:45:55Z</time>
      </trkpt>
      <trkpt lat="44.21585" lon="6.21908">
        <ele>1139</ele>
        <time>2022-01-01T13:46:04Z</time>
      </trkpt>
      <trkpt lat="44.21585" lon="6.2191">
        <ele>1139</ele>
        <time>2022-01-01T13:46:05Z</time>
      </trkpt>
      <trkpt lat="44.21585" lon="6.21911">
        <ele>1139</ele>
        <time>2022-01-01T13:46:06Z</time>
      </trkpt>
      <trkpt lat="44.21587" lon="6.21917">
        <ele>1138.8</ele>
        <time>2022-01-01T13:46:11Z</time>
      </trkpt>
      <trkpt lat="44.21588" lon="6.21924">
        <ele>1138</ele>
        <time>2022-01-01T13:46:15Z</time>
      </trkpt>
      <trkpt lat="44.21588" lon="6.21926">
        <ele>1137.8</ele>
        <time>2022-01-01T13:46:16Z</time>
      </trkpt>
      <trkpt lat="44.21592" lon="6.21938">
        <ele>1137.6</ele>
        <time>2022-01-01T13:46:25Z</time>
      </trkpt>
      <trkpt lat="44.2159" lon="6.21949">
        <ele>1137.2</ele>
        <time>2022-01-01T13:46:31Z</time>
      </trkpt>
      <trkpt lat="44.21591" lon="6.21955">
        <ele>1137</ele>
        <time>2022-01-01T13:46:35Z</time>
      </trkpt>
      <trkpt lat="44.21591" lon="6.21964">
        <ele>1137</ele>
        <time>2022-01-01T13:46:40Z</time>
      </trkpt>
      <trkpt lat="44.2159" lon="6.21966">
        <ele>1136.8</ele>
        <time>2022-01-01T13:46:41Z</time>
      </trkpt>
      <trkpt lat="44.2159" lon="6.21967">
        <ele>1136.8</ele>
        <time>2022-01-01T13:46:42Z</time>
      </trkpt>
      <trkpt lat="44.21588" lon="6.21972">
        <ele>1136.8</ele>
        <time>2022-01-01T13:46:45Z</time>
      </trkpt>
      <trkpt lat="44.21579" lon="6.21985">
        <ele>1137.2</ele>
        <time>2022-01-01T13:46:55Z</time>
      </trkpt>
      <trkpt lat="44.21575" lon="6.2199">
        <ele>1137.4</ele>
        <time>2022-01-01T13:46:59Z</time>
      </trkpt>
      <trkpt lat="44.21574" lon="6.21991">
        <ele>1137.4</ele>
        <time>2022-01-01T13:47:00Z</time>
      </trkpt>
      <trkpt lat="44.21569" lon="6.21996">
        <ele>1137</ele>
        <time>2022-01-01T13:47:05Z</time>
      </trkpt>
      <trkpt lat="44.21563" lon="6.22002">
        <ele>1137</ele>
        <time>2022-01-01T13:47:12Z</time>
      </trkpt>
      <trkpt lat="44.21559" lon="6.22005">
        <ele>1136.6</ele>
        <time>2022-01-01T13:47:15Z</time>
      </trkpt>
      <trkpt lat="44.21554" lon="6.22007">
        <ele>1136.4</ele>
        <time>2022-01-01T13:47:20Z</time>
      </trkpt>
      <trkpt lat="44.21551" lon="6.22009">
        <ele>1136.2</ele>
        <time>2022-01-01T13:47:23Z</time>
      </trkpt>
      <trkpt lat="44.2155" lon="6.22011">
        <ele>1136</ele>
        <time>2022-01-01T13:47:25Z</time>
      </trkpt>
      <trkpt lat="44.21548" lon="6.22012">
        <ele>1135.8</ele>
        <time>2022-01-01T13:47:26Z</time>
      </trkpt>
      <trkpt lat="44.21543" lon="6.22012">
        <ele>1135.4</ele>
        <time>2022-01-01T13:47:30Z</time>
      </trkpt>
      <trkpt lat="44.21541" lon="6.22012">
        <ele>1135.2</ele>
        <time>2022-01-01T13:47:32Z</time>
      </trkpt>
      <trkpt lat="44.21539" lon="6.22016">
        <ele>1135</ele>
        <time>2022-01-01T13:47:35Z</time>
      </trkpt>
      <trkpt lat="44.21537" lon="6.2202">
        <ele>1135</ele>
        <time>2022-01-01T13:47:38Z</time>
      </trkpt>
      <trkpt lat="44.21536" lon="6.22022">
        <ele>1134.8</ele>
        <time>2022-01-01T13:47:40Z</time>
      </trkpt>
      <trkpt lat="44.21534" lon="6.22024">
        <ele>1134.2</ele>
        <time>2022-01-01T13:47:43Z</time>
      </trkpt>
      <trkpt lat="44.21532" lon="6.22026">
        <ele>1134</ele>
        <time>2022-01-01T13:47:45Z</time>
      </trkpt>
      <trkpt lat="44.21529" lon="6.22027">
        <ele>1133.8</ele>
        <time>2022-01-01T13:47:47Z</time>
      </trkpt>
      <trkpt lat="44.21527" lon="6.22026">
        <ele>1133.6</ele>
        <time>2022-01-01T13:47:49Z</time>
      </trkpt>
      <trkpt lat="44.21526" lon="6.22026">
        <ele>1133.6</ele>
        <time>2022-01-01T13:47:50Z</time>
      </trkpt>
      <trkpt lat="44.21523" lon="6.22027">
        <ele>1132.8</ele>
        <time>2022-01-01T13:47:55Z</time>
      </trkpt>
      <trkpt lat="44.21522" lon="6.22027">
        <ele>1132.6</ele>
        <time>2022-01-01T13:47:56Z</time>
      </trkpt>
      <trkpt lat="44.21522" lon="6.22028">
        <ele>1132.2</ele>
        <time>2022-01-01T13:47:58Z</time>
      </trkpt>
      <trkpt lat="44.2152" lon="6.22031">
        <ele>1131.8</ele>
        <time>2022-01-01T13:48:00Z</time>
      </trkpt>
      <trkpt lat="44.2152" lon="6.22032">
        <ele>1131.4</ele>
        <time>2022-01-01T13:48:01Z</time>
      </trkpt>
      <trkpt lat="44.21519" lon="6.22034">
        <ele>1130.8</ele>
        <time>2022-01-01T13:48:04Z</time>
      </trkpt>
      <trkpt lat="44.21518" lon="6.22035">
        <ele>1130.6</ele>
        <time>2022-01-01T13:48:05Z</time>
      </trkpt>
      <trkpt lat="44.21517" lon="6.22035">
        <ele>1130.4</ele>
        <time>2022-01-01T13:48:06Z</time>
      </trkpt>
      <trkpt lat="44.21514" lon="6.22037">
        <ele>1129.8</ele>
        <time>2022-01-01T13:48:09Z</time>
      </trkpt>
      <trkpt lat="44.21513" lon="6.22038">
        <ele>1129.2</ele>
        <time>2022-01-01T13:48:12Z</time>
      </trkpt>
      <trkpt lat="44.21513" lon="6.22041">
        <ele>1128.4</ele>
        <time>2022-01-01T13:48:15Z</time>
      </trkpt>
      <trkpt lat="44.21513" lon="6.22044">
        <ele>1128.2</ele>
        <time>2022-01-01T13:48:17Z</time>
      </trkpt>
      <trkpt lat="44.21513" lon="6.22047">
        <ele>1128</ele>
        <time>2022-01-01T13:48:20Z</time>
      </trkpt>
      <trkpt lat="44.2151" lon="6.2205">
        <ele>1127.2</ele>
        <time>2022-01-01T13:48:25Z</time>
      </trkpt>
      <trkpt lat="44.21509" lon="6.22051">
        <ele>1127</ele>
        <time>2022-01-01T13:48:26Z</time>
      </trkpt>
      <trkpt lat="44.21509" lon="6.22057">
        <ele>1125.8</ele>
        <time>2022-01-01T13:48:32Z</time>
      </trkpt>
      <trkpt lat="44.21508" lon="6.2206">
        <ele>1125.2</ele>
        <time>2022-01-01T13:48:35Z</time>
      </trkpt>
      <trkpt lat="44.21506" lon="6.22061">
        <ele>1124.8</ele>
        <time>2022-01-01T13:48:37Z</time>
      </trkpt>
      <trkpt lat="44.21504" lon="6.22059">
        <ele>1124</ele>
        <time>2022-01-01T13:48:41Z</time>
      </trkpt>
      <trkpt lat="44.21502" lon="6.22055">
        <ele>1123.6</ele>
        <time>2022-01-01T13:48:43Z</time>
      </trkpt>
      <trkpt lat="44.215" lon="6.22054">
        <ele>1123.2</ele>
        <time>2022-01-01T13:48:45Z</time>
      </trkpt>
      <trkpt lat="44.21499" lon="6.22053">
        <ele>1122.8</ele>
        <time>2022-01-01T13:48:47Z</time>
      </trkpt>
      <trkpt lat="44.21497" lon="6.22051">
        <ele>1122.4</ele>
        <time>2022-01-01T13:48:49Z</time>
      </trkpt>
      <trkpt lat="44.21495" lon="6.2205">
        <ele>1122.2</ele>
        <time>2022-01-01T13:48:51Z</time>
      </trkpt>
      <trkpt lat="44.21493" lon="6.2205">
        <ele>1121.8</ele>
        <time>2022-01-01T13:48:53Z</time>
      </trkpt>
      <trkpt lat="44.21492" lon="6.2205">
        <ele>1121.6</ele>
        <time>2022-01-01T13:48:55Z</time>
      </trkpt>
      <trkpt lat="44.21491" lon="6.22051">
        <ele>1121.4</ele>
        <time>2022-01-01T13:48:57Z</time>
      </trkpt>
      <trkpt lat="44.21486" lon="6.22048">
        <ele>1120.6</ele>
        <time>2022-01-01T13:49:03Z</time>
      </trkpt>
      <trkpt lat="44.21486" lon="6.22045">
        <ele>1120.4</ele>
        <time>2022-01-01T13:49:05Z</time>
      </trkpt>
      <trkpt lat="44.21485" lon="6.22042">
        <ele>1120.4</ele>
        <time>2022-01-01T13:49:07Z</time>
      </trkpt>
      <trkpt lat="44.21486" lon="6.2204">
        <ele>1120.4</ele>
        <time>2022-01-01T13:49:15Z</time>
      </trkpt>
      <trkpt lat="44.21487" lon="6.22032">
        <ele>1120.2</ele>
        <time>2022-01-01T13:49:25Z</time>
      </trkpt>
      <trkpt lat="44.21487" lon="6.22031">
        <ele>1120.2</ele>
        <time>2022-01-01T13:49:26Z</time>
      </trkpt>
      <trkpt lat="44.21484" lon="6.2203">
        <ele>1120.2</ele>
        <time>2022-01-01T13:49:35Z</time>
      </trkpt>
      <trkpt lat="44.2148" lon="6.2203">
        <ele>1119.8</ele>
        <time>2022-01-01T13:49:41Z</time>
      </trkpt>
      <trkpt lat="44.21479" lon="6.22032">
        <ele>1119.4</ele>
        <time>2022-01-01T13:49:44Z</time>
      </trkpt>
      <trkpt lat="44.21479" lon="6.22032">
        <ele>1119.4</ele>
        <time>2022-01-01T13:49:45Z</time>
      </trkpt>
      <trkpt lat="44.21479" lon="6.22034">
        <ele>1119.2</ele>
        <time>2022-01-01T13:49:46Z</time>
      </trkpt>
      <trkpt lat="44.21483" lon="6.22044">
        <ele>1118.4</ele>
        <time>2022-01-01T13:49:53Z</time>
      </trkpt>
      <trkpt lat="44.21483" lon="6.22045">
        <ele>1118.2</ele>
        <time>2022-01-01T13:49:54Z</time>
      </trkpt>
      <trkpt lat="44.21483" lon="6.22047">
        <ele>1118.2</ele>
        <time>2022-01-01T13:49:55Z</time>
      </trkpt>
      <trkpt lat="44.21483" lon="6.22048">
        <ele>1118</ele>
        <time>2022-01-01T13:49:56Z</time>
      </trkpt>
      <trkpt lat="44.21485" lon="6.22051">
        <ele>1117.6</ele>
        <time>2022-01-01T13:49:59Z</time>
      </trkpt>
      <trkpt lat="44.21486" lon="6.22053">
        <ele>1117.4</ele>
        <time>2022-01-01T13:50:01Z</time>
      </trkpt>
      <trkpt lat="44.21486" lon="6.22055">
        <ele>1117.2</ele>
        <time>2022-01-01T13:50:02Z</time>
      </trkpt>
      <trkpt lat="44.21486" lon="6.22057">
        <ele>1117</ele>
        <time>2022-01-01T13:50:04Z</time>
      </trkpt>
      <trkpt lat="44.21486" lon="6.22059">
        <ele>1116.8</ele>
        <time>2022-01-01T13:50:05Z</time>
      </trkpt>
      <trkpt lat="44.21484" lon="6.22063">
        <ele>1116.2</ele>
        <time>2022-01-01T13:50:09Z</time>
      </trkpt>
      <trkpt lat="44.21484" lon="6.22065">
        <ele>1116</ele>
        <time>2022-01-01T13:50:10Z</time>
      </trkpt>
      <trkpt lat="44.21484" lon="6.22069">
        <ele>1115.6</ele>
        <time>2022-01-01T13:50:14Z</time>
      </trkpt>
      <trkpt lat="44.21484" lon="6.22069">
        <ele>1115.4</ele>
        <time>2022-01-01T13:50:15Z</time>
      </trkpt>
      <trkpt lat="44.21481" lon="6.22069">
        <ele>1115.2</ele>
        <time>2022-01-01T13:50:19Z</time>
      </trkpt>
      <trkpt lat="44.21479" lon="6.22069">
        <ele>1115</ele>
        <time>2022-01-01T13:50:20Z</time>
      </trkpt>
      <trkpt lat="44.21476" lon="6.2207">
        <ele>1114.6</ele>
        <time>2022-01-01T13:50:22Z</time>
      </trkpt>
      <trkpt lat="44.21475" lon="6.22069">
        <ele>1114.4</ele>
        <time>2022-01-01T13:50:23Z</time>
      </trkpt>
      <trkpt lat="44.21473" lon="6.22069">
        <ele>1114.4</ele>
        <time>2022-01-01T13:50:24Z</time>
      </trkpt>
      <trkpt lat="44.21472" lon="6.22068">
        <ele>1114.2</ele>
        <time>2022-01-01T13:50:25Z</time>
      </trkpt>
      <trkpt lat="44.21471" lon="6.22067">
        <ele>1114</ele>
        <time>2022-01-01T13:50:26Z</time>
      </trkpt>
      <trkpt lat="44.21469" lon="6.22065">
        <ele>1113.8</ele>
        <time>2022-01-01T13:50:28Z</time>
      </trkpt>
    </trkseg>
  </trk>
</gpx>